<?xml version="1.0" encoding="UTF-8" standalone="no" ?>
<gpx xmlns="http://www.topografix.com/GPX/1/1" xmlns:xsi="http://www.w3.org/2001/XMLSchema-instance" xsi:schemaLocation="http://www.topografix.com/GPX/1/1 http://www.topografix.com/GPX/1/1/gpx.xsd" version="1.1" creator="VisuGPX - https://www.visugpx.com">
  <metadata>
    <name>Diagonale du Doubs 2012 - 75km</name>
    <desc><![CDATA[Superbe rando avec des profils des plus variés : roulants, chemins, singles, belles montées, descentes mémorables... enfin tout ce qu\'il faut.]]></desc>
  </metadata>
  <trk>
    <name><![CDATA[diagonale du doubs]]></name>
    <trkseg>
      <trkpt lat="47.16951" lon="6.21328">
        <ele>601.44189453125</ele>
        <time>2012-04-29T05:47:28Z</time>
      </trkpt>
      <trkpt lat="47.16953" lon="6.21328">
        <ele>601.44189453125</ele>
        <time>2012-04-29T05:47:29Z</time>
      </trkpt>
      <trkpt lat="47.16954" lon="6.21328">
        <ele>623.55249023438</ele>
        <time>2012-04-29T05:47:30Z</time>
      </trkpt>
      <trkpt lat="47.16963" lon="6.21328">
        <ele>601.44189453125</ele>
        <time>2012-04-29T05:47:33Z</time>
      </trkpt>
      <trkpt lat="47.16967" lon="6.21329">
        <ele>600.48071289062</ele>
        <time>2012-04-29T05:47:34Z</time>
      </trkpt>
      <trkpt lat="47.16978" lon="6.21334">
        <ele>600.48071289062</ele>
        <time>2012-04-29T05:47:37Z</time>
      </trkpt>
      <trkpt lat="47.16991" lon="6.21363">
        <ele>600</ele>
        <time>2012-04-29T05:47:42Z</time>
      </trkpt>
      <trkpt lat="47.17007" lon="6.21409">
        <ele>599.03857421875</ele>
        <time>2012-04-29T05:47:48Z</time>
      </trkpt>
      <trkpt lat="47.17012" lon="6.21425">
        <ele>598.55786132812</ele>
        <time>2012-04-29T05:47:50Z</time>
      </trkpt>
      <trkpt lat="47.17032" lon="6.21482">
        <ele>598.55786132812</ele>
        <time>2012-04-29T05:47:58Z</time>
      </trkpt>
      <trkpt lat="47.17039" lon="6.21508">
        <ele>598.07739257812</ele>
        <time>2012-04-29T05:48:02Z</time>
      </trkpt>
      <trkpt lat="47.17058" lon="6.21546">
        <ele>599.51928710938</ele>
        <time>2012-04-29T05:48:09Z</time>
      </trkpt>
      <trkpt lat="47.17082" lon="6.21586">
        <ele>600</ele>
        <time>2012-04-29T05:48:17Z</time>
      </trkpt>
      <trkpt lat="47.17106" lon="6.21626">
        <ele>600.48071289062</ele>
        <time>2012-04-29T05:48:25Z</time>
      </trkpt>
      <trkpt lat="47.1712" lon="6.21645">
        <ele>600.48071289062</ele>
        <time>2012-04-29T05:48:29Z</time>
      </trkpt>
      <trkpt lat="47.17136" lon="6.21657">
        <ele>600</ele>
        <time>2012-04-29T05:48:33Z</time>
      </trkpt>
      <trkpt lat="47.17172" lon="6.21673">
        <ele>598.55786132812</ele>
        <time>2012-04-29T05:48:40Z</time>
      </trkpt>
      <trkpt lat="47.1719" lon="6.21692">
        <ele>597.11596679688</ele>
        <time>2012-04-29T05:48:44Z</time>
      </trkpt>
      <trkpt lat="47.17216" lon="6.21733">
        <ele>599.03857421875</ele>
        <time>2012-04-29T05:48:51Z</time>
      </trkpt>
      <trkpt lat="47.17238" lon="6.21761">
        <ele>599.51928710938</ele>
        <time>2012-04-29T05:48:57Z</time>
      </trkpt>
      <trkpt lat="47.17262" lon="6.21808">
        <ele>599.03857421875</ele>
        <time>2012-04-29T05:49:05Z</time>
      </trkpt>
      <trkpt lat="47.17289" lon="6.21853">
        <ele>598.55786132812</ele>
        <time>2012-04-29T05:49:13Z</time>
      </trkpt>
      <trkpt lat="47.17324" lon="6.21901">
        <ele>598.55786132812</ele>
        <time>2012-04-29T05:49:22Z</time>
      </trkpt>
      <trkpt lat="47.17342" lon="6.21947">
        <ele>600</ele>
        <time>2012-04-29T05:49:29Z</time>
      </trkpt>
      <trkpt lat="47.17355" lon="6.21987">
        <ele>600.96118164062</ele>
        <time>2012-04-29T05:49:36Z</time>
      </trkpt>
      <trkpt lat="47.17373" lon="6.22016">
        <ele>600.96118164062</ele>
        <time>2012-04-29T05:49:42Z</time>
      </trkpt>
      <trkpt lat="47.17395" lon="6.22042">
        <ele>601.44189453125</ele>
        <time>2012-04-29T05:49:47Z</time>
      </trkpt>
      <trkpt lat="47.17406" lon="6.22054">
        <ele>601.44189453125</ele>
        <time>2012-04-29T05:49:50Z</time>
      </trkpt>
      <trkpt lat="47.17416" lon="6.22086">
        <ele>603.84521484375</ele>
        <time>2012-04-29T05:49:55Z</time>
      </trkpt>
      <trkpt lat="47.17424" lon="6.22146">
        <ele>605.76806640625</ele>
        <time>2012-04-29T05:50:04Z</time>
      </trkpt>
      <trkpt lat="47.17435" lon="6.22179">
        <ele>604.806640625</ele>
        <time>2012-04-29T05:50:09Z</time>
      </trkpt>
      <trkpt lat="47.17446" lon="6.22243">
        <ele>604.326171875</ele>
        <time>2012-04-29T05:50:17Z</time>
      </trkpt>
      <trkpt lat="47.17455" lon="6.22304">
        <ele>606.72924804688</ele>
        <time>2012-04-29T05:50:25Z</time>
      </trkpt>
      <trkpt lat="47.17463" lon="6.22359">
        <ele>608.17138671875</ele>
        <time>2012-04-29T05:50:33Z</time>
      </trkpt>
      <trkpt lat="47.17471" lon="6.22409">
        <ele>608.65185546875</ele>
        <time>2012-04-29T05:50:41Z</time>
      </trkpt>
      <trkpt lat="47.17482" lon="6.22464">
        <ele>609.13256835938</ele>
        <time>2012-04-29T05:50:50Z</time>
      </trkpt>
      <trkpt lat="47.17483" lon="6.22469">
        <ele>608.65185546875</ele>
        <time>2012-04-29T05:50:53Z</time>
      </trkpt>
      <trkpt lat="47.17484" lon="6.22466">
        <ele>608.17138671875</ele>
        <time>2012-04-29T05:51:13Z</time>
      </trkpt>
      <trkpt lat="47.17491" lon="6.22483">
        <ele>608.17138671875</ele>
        <time>2012-04-29T05:51:18Z</time>
      </trkpt>
      <trkpt lat="47.17493" lon="6.2249">
        <ele>608.17138671875</ele>
        <time>2012-04-29T05:51:19Z</time>
      </trkpt>
      <trkpt lat="47.175" lon="6.22511">
        <ele>607.2099609375</ele>
        <time>2012-04-29T05:51:22Z</time>
      </trkpt>
      <trkpt lat="47.1752" lon="6.22567">
        <ele>606.72924804688</ele>
        <time>2012-04-29T05:51:29Z</time>
      </trkpt>
      <trkpt lat="47.17543" lon="6.22631">
        <ele>604.326171875</ele>
        <time>2012-04-29T05:51:36Z</time>
      </trkpt>
      <trkpt lat="47.17575" lon="6.22693">
        <ele>602.8837890625</ele>
        <time>2012-04-29T05:51:43Z</time>
      </trkpt>
      <trkpt lat="47.17591" lon="6.22748">
        <ele>600.96118164062</ele>
        <time>2012-04-29T05:51:48Z</time>
      </trkpt>
      <trkpt lat="47.17602" lon="6.22783">
        <ele>599.51928710938</ele>
        <time>2012-04-29T05:51:51Z</time>
      </trkpt>
      <trkpt lat="47.17618" lon="6.22833">
        <ele>597.11596679688</ele>
        <time>2012-04-29T05:51:55Z</time>
      </trkpt>
      <trkpt lat="47.17628" lon="6.22871">
        <ele>595.193359375</ele>
        <time>2012-04-29T05:51:58Z</time>
      </trkpt>
      <trkpt lat="47.17637" lon="6.22911">
        <ele>593.75146484375</ele>
        <time>2012-04-29T05:52:01Z</time>
      </trkpt>
      <trkpt lat="47.17653" lon="6.22993">
        <ele>590.86743164062</ele>
        <time>2012-04-29T05:52:07Z</time>
      </trkpt>
      <trkpt lat="47.17666" lon="6.2309">
        <ele>588.46435546875</ele>
        <time>2012-04-29T05:52:14Z</time>
      </trkpt>
      <trkpt lat="47.17682" lon="6.2321">
        <ele>586.06079101562</ele>
        <time>2012-04-29T05:52:23Z</time>
      </trkpt>
      <trkpt lat="47.17691" lon="6.23279">
        <ele>587.02197265625</ele>
        <time>2012-04-29T05:52:29Z</time>
      </trkpt>
      <trkpt lat="47.17694" lon="6.23298">
        <ele>587.9833984375</ele>
        <time>2012-04-29T05:52:31Z</time>
      </trkpt>
      <trkpt lat="47.17694" lon="6.23329">
        <ele>588.46435546875</ele>
        <time>2012-04-29T05:52:35Z</time>
      </trkpt>
      <trkpt lat="47.17689" lon="6.23392">
        <ele>587.9833984375</ele>
        <time>2012-04-29T05:52:43Z</time>
      </trkpt>
      <trkpt lat="47.17689" lon="6.23457">
        <ele>584.61889648438</ele>
        <time>2012-04-29T05:52:50Z</time>
      </trkpt>
      <trkpt lat="47.1769" lon="6.23467">
        <ele>585.099609375</ele>
        <time>2012-04-29T05:52:51Z</time>
      </trkpt>
      <trkpt lat="47.17692" lon="6.23543">
        <ele>584.13818359375</ele>
        <time>2012-04-29T05:52:59Z</time>
      </trkpt>
      <trkpt lat="47.17693" lon="6.23619">
        <ele>583.65747070312</ele>
        <time>2012-04-29T05:53:07Z</time>
      </trkpt>
      <trkpt lat="47.17695" lon="6.23656">
        <ele>584.13818359375</ele>
        <time>2012-04-29T05:53:12Z</time>
      </trkpt>
      <trkpt lat="47.17698" lon="6.23695">
        <ele>585.099609375</ele>
        <time>2012-04-29T05:53:18Z</time>
      </trkpt>
      <trkpt lat="47.1771" lon="6.23742">
        <ele>586.06079101562</ele>
        <time>2012-04-29T05:53:26Z</time>
      </trkpt>
      <trkpt lat="47.17717" lon="6.23791">
        <ele>585.580078125</ele>
        <time>2012-04-29T05:53:33Z</time>
      </trkpt>
      <trkpt lat="47.17729" lon="6.2385">
        <ele>585.099609375</ele>
        <time>2012-04-29T05:53:41Z</time>
      </trkpt>
      <trkpt lat="47.17741" lon="6.23902">
        <ele>585.580078125</ele>
        <time>2012-04-29T05:53:49Z</time>
      </trkpt>
      <trkpt lat="47.1775" lon="6.2394">
        <ele>587.50268554688</ele>
        <time>2012-04-29T05:53:56Z</time>
      </trkpt>
      <trkpt lat="47.17758" lon="6.23977">
        <ele>587.9833984375</ele>
        <time>2012-04-29T05:54:03Z</time>
      </trkpt>
      <trkpt lat="47.1777" lon="6.24033">
        <ele>590.38696289062</ele>
        <time>2012-04-29T05:54:14Z</time>
      </trkpt>
      <trkpt lat="47.1778" lon="6.24081">
        <ele>591.82885742188</ele>
        <time>2012-04-29T05:54:24Z</time>
      </trkpt>
      <trkpt lat="47.17787" lon="6.24115">
        <ele>593.27075195312</ele>
        <time>2012-04-29T05:54:31Z</time>
      </trkpt>
      <trkpt lat="47.17791" lon="6.24161">
        <ele>593.27075195312</ele>
        <time>2012-04-29T05:54:40Z</time>
      </trkpt>
      <trkpt lat="47.17791" lon="6.2421">
        <ele>593.75146484375</ele>
        <time>2012-04-29T05:54:49Z</time>
      </trkpt>
      <trkpt lat="47.17791" lon="6.24262">
        <ele>596.15478515625</ele>
        <time>2012-04-29T05:54:59Z</time>
      </trkpt>
      <trkpt lat="47.17791" lon="6.24314">
        <ele>596.63549804688</ele>
        <time>2012-04-29T05:55:09Z</time>
      </trkpt>
      <trkpt lat="47.17797" lon="6.24359">
        <ele>597.5966796875</ele>
        <time>2012-04-29T05:55:17Z</time>
      </trkpt>
      <trkpt lat="47.17802" lon="6.24408">
        <ele>597.11596679688</ele>
        <time>2012-04-29T05:55:25Z</time>
      </trkpt>
      <trkpt lat="47.17808" lon="6.24455">
        <ele>595.67407226562</ele>
        <time>2012-04-29T05:55:33Z</time>
      </trkpt>
      <trkpt lat="47.17818" lon="6.2446">
        <ele>596.63549804688</ele>
        <time>2012-04-29T05:55:38Z</time>
      </trkpt>
      <trkpt lat="47.17822" lon="6.24455">
        <ele>596.63549804688</ele>
        <time>2012-04-29T05:55:40Z</time>
      </trkpt>
      <trkpt lat="47.17852" lon="6.24425">
        <ele>596.15478515625</ele>
        <time>2012-04-29T05:55:49Z</time>
      </trkpt>
      <trkpt lat="47.17887" lon="6.24396">
        <ele>596.15478515625</ele>
        <time>2012-04-29T05:55:57Z</time>
      </trkpt>
      <trkpt lat="47.17943" lon="6.24354">
        <ele>596.15478515625</ele>
        <time>2012-04-29T05:56:09Z</time>
      </trkpt>
      <trkpt lat="47.17987" lon="6.24325">
        <ele>596.63549804688</ele>
        <time>2012-04-29T05:56:19Z</time>
      </trkpt>
      <trkpt lat="47.18039" lon="6.24288">
        <ele>596.15478515625</ele>
        <time>2012-04-29T05:56:30Z</time>
      </trkpt>
      <trkpt lat="47.18053" lon="6.24259">
        <ele>595.67407226562</ele>
        <time>2012-04-29T05:56:35Z</time>
      </trkpt>
      <trkpt lat="47.18062" lon="6.24195">
        <ele>594.23217773438</ele>
        <time>2012-04-29T05:56:43Z</time>
      </trkpt>
      <trkpt lat="47.18068" lon="6.24138">
        <ele>594.23217773438</ele>
        <time>2012-04-29T05:56:50Z</time>
      </trkpt>
      <trkpt lat="47.18068" lon="6.2406">
        <ele>593.75146484375</ele>
        <time>2012-04-29T05:56:59Z</time>
      </trkpt>
      <trkpt lat="47.18069" lon="6.24043">
        <ele>593.75146484375</ele>
        <time>2012-04-29T05:57:01Z</time>
      </trkpt>
      <trkpt lat="47.18078" lon="6.24014">
        <ele>594.23217773438</ele>
        <time>2012-04-29T05:57:05Z</time>
      </trkpt>
      <trkpt lat="47.18084" lon="6.24002">
        <ele>594.23217773438</ele>
        <time>2012-04-29T05:57:07Z</time>
      </trkpt>
      <trkpt lat="47.18114" lon="6.23969">
        <ele>594.71264648438</ele>
        <time>2012-04-29T05:57:14Z</time>
      </trkpt>
      <trkpt lat="47.18151" lon="6.2393">
        <ele>593.75146484375</ele>
        <time>2012-04-29T05:57:22Z</time>
      </trkpt>
      <trkpt lat="47.18176" lon="6.23907">
        <ele>594.71264648438</ele>
        <time>2012-04-29T05:57:28Z</time>
      </trkpt>
      <trkpt lat="47.1819" lon="6.23887">
        <ele>595.193359375</ele>
        <time>2012-04-29T05:57:33Z</time>
      </trkpt>
      <trkpt lat="47.18207" lon="6.23869">
        <ele>595.67407226562</ele>
        <time>2012-04-29T05:57:39Z</time>
      </trkpt>
      <trkpt lat="47.18218" lon="6.23861">
        <ele>599.03857421875</ele>
        <time>2012-04-29T05:57:43Z</time>
      </trkpt>
      <trkpt lat="47.18224" lon="6.23853">
        <ele>599.03857421875</ele>
        <time>2012-04-29T05:57:47Z</time>
      </trkpt>
      <trkpt lat="47.18232" lon="6.23843">
        <ele>599.51928710938</ele>
        <time>2012-04-29T05:57:51Z</time>
      </trkpt>
      <trkpt lat="47.18236" lon="6.23838">
        <ele>599.51928710938</ele>
        <time>2012-04-29T05:57:53Z</time>
      </trkpt>
      <trkpt lat="47.18249" lon="6.23836">
        <ele>599.03857421875</ele>
        <time>2012-04-29T05:57:58Z</time>
      </trkpt>
      <trkpt lat="47.18256" lon="6.23841">
        <ele>599.51928710938</ele>
        <time>2012-04-29T05:58:02Z</time>
      </trkpt>
      <trkpt lat="47.18259" lon="6.23855">
        <ele>599.51928710938</ele>
        <time>2012-04-29T05:58:06Z</time>
      </trkpt>
      <trkpt lat="47.1827" lon="6.23876">
        <ele>600.48071289062</ele>
        <time>2012-04-29T05:58:13Z</time>
      </trkpt>
      <trkpt lat="47.1828" lon="6.23891">
        <ele>601.92260742188</ele>
        <time>2012-04-29T05:58:18Z</time>
      </trkpt>
      <trkpt lat="47.1829" lon="6.23905">
        <ele>603.36450195312</ele>
        <time>2012-04-29T05:58:23Z</time>
      </trkpt>
      <trkpt lat="47.18297" lon="6.23921">
        <ele>604.326171875</ele>
        <time>2012-04-29T05:58:28Z</time>
      </trkpt>
      <trkpt lat="47.18308" lon="6.23943">
        <ele>605.28735351562</ele>
        <time>2012-04-29T05:58:34Z</time>
      </trkpt>
      <trkpt lat="47.18317" lon="6.23964">
        <ele>605.28735351562</ele>
        <time>2012-04-29T05:58:39Z</time>
      </trkpt>
      <trkpt lat="47.18329" lon="6.23985">
        <ele>604.806640625</ele>
        <time>2012-04-29T05:58:44Z</time>
      </trkpt>
      <trkpt lat="47.18341" lon="6.24002">
        <ele>605.28735351562</ele>
        <time>2012-04-29T05:58:49Z</time>
      </trkpt>
      <trkpt lat="47.1835" lon="6.24024">
        <ele>604.806640625</ele>
        <time>2012-04-29T05:58:54Z</time>
      </trkpt>
      <trkpt lat="47.18357" lon="6.24051">
        <ele>605.28735351562</ele>
        <time>2012-04-29T05:58:59Z</time>
      </trkpt>
      <trkpt lat="47.18366" lon="6.2407">
        <ele>604.806640625</ele>
        <time>2012-04-29T05:59:03Z</time>
      </trkpt>
      <trkpt lat="47.18372" lon="6.24087">
        <ele>604.326171875</ele>
        <time>2012-04-29T05:59:07Z</time>
      </trkpt>
      <trkpt lat="47.18381" lon="6.24102">
        <ele>603.84521484375</ele>
        <time>2012-04-29T05:59:11Z</time>
      </trkpt>
      <trkpt lat="47.18393" lon="6.24126">
        <ele>602.8837890625</ele>
        <time>2012-04-29T05:59:16Z</time>
      </trkpt>
      <trkpt lat="47.184" lon="6.24137">
        <ele>603.84521484375</ele>
        <time>2012-04-29T05:59:19Z</time>
      </trkpt>
      <trkpt lat="47.18409" lon="6.2416">
        <ele>603.84521484375</ele>
        <time>2012-04-29T05:59:24Z</time>
      </trkpt>
      <trkpt lat="47.18423" lon="6.24186">
        <ele>604.806640625</ele>
        <time>2012-04-29T05:59:30Z</time>
      </trkpt>
      <trkpt lat="47.18433" lon="6.24207">
        <ele>605.28735351562</ele>
        <time>2012-04-29T05:59:35Z</time>
      </trkpt>
      <trkpt lat="47.18439" lon="6.24222">
        <ele>605.76806640625</ele>
        <time>2012-04-29T05:59:40Z</time>
      </trkpt>
      <trkpt lat="47.18446" lon="6.24238">
        <ele>605.76806640625</ele>
        <time>2012-04-29T05:59:45Z</time>
      </trkpt>
      <trkpt lat="47.18455" lon="6.24253">
        <ele>606.24853515625</ele>
        <time>2012-04-29T05:59:50Z</time>
      </trkpt>
      <trkpt lat="47.18464" lon="6.24271">
        <ele>605.76806640625</ele>
        <time>2012-04-29T05:59:55Z</time>
      </trkpt>
      <trkpt lat="47.18475" lon="6.24296">
        <ele>606.72924804688</ele>
        <time>2012-04-29T06:00:01Z</time>
      </trkpt>
      <trkpt lat="47.18482" lon="6.24313">
        <ele>606.24853515625</ele>
        <time>2012-04-29T06:00:05Z</time>
      </trkpt>
      <trkpt lat="47.1849" lon="6.24331">
        <ele>605.76806640625</ele>
        <time>2012-04-29T06:00:09Z</time>
      </trkpt>
      <trkpt lat="47.18504" lon="6.24351">
        <ele>605.28735351562</ele>
        <time>2012-04-29T06:00:13Z</time>
      </trkpt>
      <trkpt lat="47.18517" lon="6.24372">
        <ele>603.36450195312</ele>
        <time>2012-04-29T06:00:16Z</time>
      </trkpt>
      <trkpt lat="47.18521" lon="6.24379">
        <ele>603.36450195312</ele>
        <time>2012-04-29T06:00:17Z</time>
      </trkpt>
      <trkpt lat="47.18538" lon="6.24415">
        <ele>603.36450195312</ele>
        <time>2012-04-29T06:00:22Z</time>
      </trkpt>
      <trkpt lat="47.18539" lon="6.24422">
        <ele>603.84521484375</ele>
        <time>2012-04-29T06:00:23Z</time>
      </trkpt>
      <trkpt lat="47.18544" lon="6.24452">
        <ele>604.326171875</ele>
        <time>2012-04-29T06:00:27Z</time>
      </trkpt>
      <trkpt lat="47.1856" lon="6.24498">
        <ele>604.806640625</ele>
        <time>2012-04-29T06:00:34Z</time>
      </trkpt>
      <trkpt lat="47.1857" lon="6.24513">
        <ele>605.76806640625</ele>
        <time>2012-04-29T06:00:38Z</time>
      </trkpt>
      <trkpt lat="47.18586" lon="6.24532">
        <ele>605.76806640625</ele>
        <time>2012-04-29T06:00:44Z</time>
      </trkpt>
      <trkpt lat="47.18593" lon="6.24544">
        <ele>605.76806640625</ele>
        <time>2012-04-29T06:00:48Z</time>
      </trkpt>
      <trkpt lat="47.18602" lon="6.24562">
        <ele>605.76806640625</ele>
        <time>2012-04-29T06:00:52Z</time>
      </trkpt>
      <trkpt lat="47.18615" lon="6.24582">
        <ele>605.28735351562</ele>
        <time>2012-04-29T06:00:56Z</time>
      </trkpt>
      <trkpt lat="47.1862" lon="6.24591">
        <ele>605.76806640625</ele>
        <time>2012-04-29T06:00:58Z</time>
      </trkpt>
      <trkpt lat="47.18639" lon="6.2462">
        <ele>604.326171875</ele>
        <time>2012-04-29T06:01:03Z</time>
      </trkpt>
      <trkpt lat="47.18661" lon="6.24669">
        <ele>601.92260742188</ele>
        <time>2012-04-29T06:01:10Z</time>
      </trkpt>
      <trkpt lat="47.18665" lon="6.24676">
        <ele>601.92260742188</ele>
        <time>2012-04-29T06:01:11Z</time>
      </trkpt>
      <trkpt lat="47.18673" lon="6.24708">
        <ele>601.44189453125</ele>
        <time>2012-04-29T06:01:15Z</time>
      </trkpt>
      <trkpt lat="47.18677" lon="6.24741">
        <ele>601.44189453125</ele>
        <time>2012-04-29T06:01:19Z</time>
      </trkpt>
      <trkpt lat="47.18681" lon="6.24783">
        <ele>601.92260742188</ele>
        <time>2012-04-29T06:01:25Z</time>
      </trkpt>
      <trkpt lat="47.18682" lon="6.24796">
        <ele>601.92260742188</ele>
        <time>2012-04-29T06:01:27Z</time>
      </trkpt>
      <trkpt lat="47.18688" lon="6.24827">
        <ele>601.44189453125</ele>
        <time>2012-04-29T06:01:32Z</time>
      </trkpt>
      <trkpt lat="47.18693" lon="6.24857">
        <ele>600.48071289062</ele>
        <time>2012-04-29T06:01:36Z</time>
      </trkpt>
      <trkpt lat="47.187" lon="6.24875">
        <ele>600</ele>
        <time>2012-04-29T06:01:39Z</time>
      </trkpt>
      <trkpt lat="47.18712" lon="6.24895">
        <ele>597.5966796875</ele>
        <time>2012-04-29T06:01:43Z</time>
      </trkpt>
      <trkpt lat="47.18732" lon="6.24921">
        <ele>594.71264648438</ele>
        <time>2012-04-29T06:01:47Z</time>
      </trkpt>
      <trkpt lat="47.18737" lon="6.24929">
        <ele>593.27075195312</ele>
        <time>2012-04-29T06:01:48Z</time>
      </trkpt>
      <trkpt lat="47.18746" lon="6.24949">
        <ele>590.38696289062</ele>
        <time>2012-04-29T06:01:50Z</time>
      </trkpt>
      <trkpt lat="47.18755" lon="6.24976">
        <ele>590.86743164062</ele>
        <time>2012-04-29T06:01:52Z</time>
      </trkpt>
      <trkpt lat="47.18757" lon="6.25025">
        <ele>590.38696289062</ele>
        <time>2012-04-29T06:01:56Z</time>
      </trkpt>
      <trkpt lat="47.18755" lon="6.25045">
        <ele>590.38696289062</ele>
        <time>2012-04-29T06:01:58Z</time>
      </trkpt>
      <trkpt lat="47.18752" lon="6.25063">
        <ele>590.38696289062</ele>
        <time>2012-04-29T06:02:00Z</time>
      </trkpt>
      <trkpt lat="47.18754" lon="6.25102">
        <ele>591.34814453125</ele>
        <time>2012-04-29T06:02:04Z</time>
      </trkpt>
      <trkpt lat="47.18764" lon="6.25148">
        <ele>591.82885742188</ele>
        <time>2012-04-29T06:02:10Z</time>
      </trkpt>
      <trkpt lat="47.18775" lon="6.25181">
        <ele>593.75146484375</ele>
        <time>2012-04-29T06:02:15Z</time>
      </trkpt>
      <trkpt lat="47.18796" lon="6.25224">
        <ele>596.15478515625</ele>
        <time>2012-04-29T06:02:23Z</time>
      </trkpt>
      <trkpt lat="47.18798" lon="6.2523">
        <ele>595.67407226562</ele>
        <time>2012-04-29T06:02:24Z</time>
      </trkpt>
      <trkpt lat="47.18806" lon="6.25258">
        <ele>596.63549804688</ele>
        <time>2012-04-29T06:02:28Z</time>
      </trkpt>
      <trkpt lat="47.18814" lon="6.25288">
        <ele>596.15478515625</ele>
        <time>2012-04-29T06:02:32Z</time>
      </trkpt>
      <trkpt lat="47.18819" lon="6.25321">
        <ele>594.71264648438</ele>
        <time>2012-04-29T06:02:36Z</time>
      </trkpt>
      <trkpt lat="47.18819" lon="6.25368">
        <ele>593.75146484375</ele>
        <time>2012-04-29T06:02:41Z</time>
      </trkpt>
      <trkpt lat="47.18813" lon="6.25383">
        <ele>593.75146484375</ele>
        <time>2012-04-29T06:02:43Z</time>
      </trkpt>
      <trkpt lat="47.18787" lon="6.25427">
        <ele>591.34814453125</ele>
        <time>2012-04-29T06:02:49Z</time>
      </trkpt>
      <trkpt lat="47.18783" lon="6.25434">
        <ele>591.82885742188</ele>
        <time>2012-04-29T06:02:50Z</time>
      </trkpt>
      <trkpt lat="47.18769" lon="6.25459">
        <ele>590.86743164062</ele>
        <time>2012-04-29T06:02:53Z</time>
      </trkpt>
      <trkpt lat="47.18751" lon="6.25518">
        <ele>589.90625</ele>
        <time>2012-04-29T06:02:59Z</time>
      </trkpt>
      <trkpt lat="47.18746" lon="6.25548">
        <ele>590.38696289062</ele>
        <time>2012-04-29T06:03:02Z</time>
      </trkpt>
      <trkpt lat="47.18736" lon="6.25615">
        <ele>588.94506835938</ele>
        <time>2012-04-29T06:03:09Z</time>
      </trkpt>
      <trkpt lat="47.18734" lon="6.25625">
        <ele>588.94506835938</ele>
        <time>2012-04-29T06:03:10Z</time>
      </trkpt>
      <trkpt lat="47.18729" lon="6.25658">
        <ele>589.90625</ele>
        <time>2012-04-29T06:03:14Z</time>
      </trkpt>
      <trkpt lat="47.18724" lon="6.25684">
        <ele>590.38696289062</ele>
        <time>2012-04-29T06:03:17Z</time>
      </trkpt>
      <trkpt lat="47.18718" lon="6.25707">
        <ele>590.86743164062</ele>
        <time>2012-04-29T06:03:20Z</time>
      </trkpt>
      <trkpt lat="47.18715" lon="6.25741">
        <ele>590.38696289062</ele>
        <time>2012-04-29T06:03:24Z</time>
      </trkpt>
      <trkpt lat="47.1872" lon="6.25804">
        <ele>587.02197265625</ele>
        <time>2012-04-29T06:03:30Z</time>
      </trkpt>
      <trkpt lat="47.18723" lon="6.25829">
        <ele>586.06079101562</ele>
        <time>2012-04-29T06:03:32Z</time>
      </trkpt>
      <trkpt lat="47.18724" lon="6.25871">
        <ele>584.61889648438</ele>
        <time>2012-04-29T06:03:35Z</time>
      </trkpt>
      <trkpt lat="47.1872" lon="6.25897">
        <ele>582.6962890625</ele>
        <time>2012-04-29T06:03:37Z</time>
      </trkpt>
      <trkpt lat="47.18703" lon="6.25964">
        <ele>583.1767578125</ele>
        <time>2012-04-29T06:03:43Z</time>
      </trkpt>
      <trkpt lat="47.18682" lon="6.26041">
        <ele>582.6962890625</ele>
        <time>2012-04-29T06:03:51Z</time>
      </trkpt>
      <trkpt lat="47.1866" lon="6.2612">
        <ele>583.65747070312</ele>
        <time>2012-04-29T06:04:00Z</time>
      </trkpt>
      <trkpt lat="47.18644" lon="6.26189">
        <ele>583.1767578125</ele>
        <time>2012-04-29T06:04:08Z</time>
      </trkpt>
      <trkpt lat="47.18625" lon="6.26267">
        <ele>582.6962890625</ele>
        <time>2012-04-29T06:04:17Z</time>
      </trkpt>
      <trkpt lat="47.18606" lon="6.26344">
        <ele>584.13818359375</ele>
        <time>2012-04-29T06:04:26Z</time>
      </trkpt>
      <trkpt lat="47.18602" lon="6.26358">
        <ele>584.61889648438</ele>
        <time>2012-04-29T06:04:28Z</time>
      </trkpt>
      <trkpt lat="47.18588" lon="6.26414">
        <ele>585.580078125</ele>
        <time>2012-04-29T06:04:36Z</time>
      </trkpt>
      <trkpt lat="47.18573" lon="6.26473">
        <ele>585.580078125</ele>
        <time>2012-04-29T06:04:44Z</time>
      </trkpt>
      <trkpt lat="47.18559" lon="6.26529">
        <ele>583.1767578125</ele>
        <time>2012-04-29T06:04:50Z</time>
      </trkpt>
      <trkpt lat="47.1855" lon="6.26561">
        <ele>581.73486328125</ele>
        <time>2012-04-29T06:04:53Z</time>
      </trkpt>
      <trkpt lat="47.18545" lon="6.26582">
        <ele>580.29296875</ele>
        <time>2012-04-29T06:04:55Z</time>
      </trkpt>
      <trkpt lat="47.18538" lon="6.2661">
        <ele>580.29296875</ele>
        <time>2012-04-29T06:04:58Z</time>
      </trkpt>
      <trkpt lat="47.18523" lon="6.26635">
        <ele>578.85107421875</ele>
        <time>2012-04-29T06:05:03Z</time>
      </trkpt>
      <trkpt lat="47.18516" lon="6.26643">
        <ele>578.85107421875</ele>
        <time>2012-04-29T06:05:05Z</time>
      </trkpt>
      <trkpt lat="47.185" lon="6.26649">
        <ele>578.85107421875</ele>
        <time>2012-04-29T06:05:09Z</time>
      </trkpt>
      <trkpt lat="47.18492" lon="6.26643">
        <ele>579.33154296875</ele>
        <time>2012-04-29T06:05:11Z</time>
      </trkpt>
      <trkpt lat="47.18452" lon="6.26615">
        <ele>579.33154296875</ele>
        <time>2012-04-29T06:05:20Z</time>
      </trkpt>
      <trkpt lat="47.18443" lon="6.2661">
        <ele>579.33154296875</ele>
        <time>2012-04-29T06:05:22Z</time>
      </trkpt>
      <trkpt lat="47.18428" lon="6.26617">
        <ele>579.33154296875</ele>
        <time>2012-04-29T06:05:26Z</time>
      </trkpt>
      <trkpt lat="47.18427" lon="6.2663">
        <ele>578.85107421875</ele>
        <time>2012-04-29T06:05:28Z</time>
      </trkpt>
      <trkpt lat="47.18427" lon="6.26642">
        <ele>579.33154296875</ele>
        <time>2012-04-29T06:05:30Z</time>
      </trkpt>
      <trkpt lat="47.18431" lon="6.26697">
        <ele>579.33154296875</ele>
        <time>2012-04-29T06:05:39Z</time>
      </trkpt>
      <trkpt lat="47.18433" lon="6.26737">
        <ele>580.29296875</ele>
        <time>2012-04-29T06:05:46Z</time>
      </trkpt>
      <trkpt lat="47.18435" lon="6.26782">
        <ele>581.73486328125</ele>
        <time>2012-04-29T06:05:54Z</time>
      </trkpt>
      <trkpt lat="47.18439" lon="6.26819">
        <ele>583.65747070312</ele>
        <time>2012-04-29T06:06:01Z</time>
      </trkpt>
      <trkpt lat="47.18445" lon="6.26853">
        <ele>584.61889648438</ele>
        <time>2012-04-29T06:06:08Z</time>
      </trkpt>
      <trkpt lat="47.18445" lon="6.2689">
        <ele>584.13818359375</ele>
        <time>2012-04-29T06:06:15Z</time>
      </trkpt>
      <trkpt lat="47.18441" lon="6.26914">
        <ele>584.61889648438</ele>
        <time>2012-04-29T06:06:20Z</time>
      </trkpt>
      <trkpt lat="47.18438" lon="6.26957">
        <ele>585.099609375</ele>
        <time>2012-04-29T06:06:28Z</time>
      </trkpt>
      <trkpt lat="47.18435" lon="6.27001">
        <ele>585.580078125</ele>
        <time>2012-04-29T06:06:36Z</time>
      </trkpt>
      <trkpt lat="47.18433" lon="6.27036">
        <ele>587.50268554688</ele>
        <time>2012-04-29T06:06:43Z</time>
      </trkpt>
      <trkpt lat="47.1843" lon="6.2706">
        <ele>588.46435546875</ele>
        <time>2012-04-29T06:06:49Z</time>
      </trkpt>
      <trkpt lat="47.18427" lon="6.27078">
        <ele>587.9833984375</ele>
        <time>2012-04-29T06:06:54Z</time>
      </trkpt>
      <trkpt lat="47.18421" lon="6.271">
        <ele>588.94506835938</ele>
        <time>2012-04-29T06:07:00Z</time>
      </trkpt>
      <trkpt lat="47.18416" lon="6.27119">
        <ele>589.42553710938</ele>
        <time>2012-04-29T06:07:06Z</time>
      </trkpt>
      <trkpt lat="47.18411" lon="6.27139">
        <ele>589.42553710938</ele>
        <time>2012-04-29T06:07:12Z</time>
      </trkpt>
      <trkpt lat="47.18404" lon="6.2717">
        <ele>589.90625</ele>
        <time>2012-04-29T06:07:19Z</time>
      </trkpt>
      <trkpt lat="47.18399" lon="6.27191">
        <ele>591.34814453125</ele>
        <time>2012-04-29T06:07:24Z</time>
      </trkpt>
      <trkpt lat="47.18392" lon="6.27221">
        <ele>592.79028320312</ele>
        <time>2012-04-29T06:07:32Z</time>
      </trkpt>
      <trkpt lat="47.18388" lon="6.27242">
        <ele>593.75146484375</ele>
        <time>2012-04-29T06:07:38Z</time>
      </trkpt>
      <trkpt lat="47.18386" lon="6.27261">
        <ele>594.71264648438</ele>
        <time>2012-04-29T06:07:44Z</time>
      </trkpt>
      <trkpt lat="47.18381" lon="6.27292">
        <ele>595.67407226562</ele>
        <time>2012-04-29T06:07:53Z</time>
      </trkpt>
      <trkpt lat="47.18378" lon="6.27308">
        <ele>596.15478515625</ele>
        <time>2012-04-29T06:07:58Z</time>
      </trkpt>
      <trkpt lat="47.18372" lon="6.2733">
        <ele>597.5966796875</ele>
        <time>2012-04-29T06:08:05Z</time>
      </trkpt>
      <trkpt lat="47.18368" lon="6.27341">
        <ele>598.07739257812</ele>
        <time>2012-04-29T06:08:09Z</time>
      </trkpt>
      <trkpt lat="47.18361" lon="6.27355">
        <ele>599.51928710938</ele>
        <time>2012-04-29T06:08:14Z</time>
      </trkpt>
      <trkpt lat="47.18351" lon="6.27376">
        <ele>601.44189453125</ele>
        <time>2012-04-29T06:08:22Z</time>
      </trkpt>
      <trkpt lat="47.18343" lon="6.27391">
        <ele>602.8837890625</ele>
        <time>2012-04-29T06:08:28Z</time>
      </trkpt>
      <trkpt lat="47.18334" lon="6.27409">
        <ele>603.84521484375</ele>
        <time>2012-04-29T06:08:35Z</time>
      </trkpt>
      <trkpt lat="47.18327" lon="6.27426">
        <ele>604.326171875</ele>
        <time>2012-04-29T06:08:40Z</time>
      </trkpt>
      <trkpt lat="47.18321" lon="6.27443">
        <ele>604.806640625</ele>
        <time>2012-04-29T06:08:45Z</time>
      </trkpt>
      <trkpt lat="47.18317" lon="6.27457">
        <ele>605.76806640625</ele>
        <time>2012-04-29T06:08:50Z</time>
      </trkpt>
      <trkpt lat="47.18314" lon="6.27479">
        <ele>605.76806640625</ele>
        <time>2012-04-29T06:08:57Z</time>
      </trkpt>
      <trkpt lat="47.1831" lon="6.27496">
        <ele>606.72924804688</ele>
        <time>2012-04-29T06:09:03Z</time>
      </trkpt>
      <trkpt lat="47.18304" lon="6.27512">
        <ele>606.72924804688</ele>
        <time>2012-04-29T06:09:09Z</time>
      </trkpt>
      <trkpt lat="47.18299" lon="6.27533">
        <ele>607.2099609375</ele>
        <time>2012-04-29T06:09:15Z</time>
      </trkpt>
      <trkpt lat="47.1829" lon="6.2756">
        <ele>609.13256835938</ele>
        <time>2012-04-29T06:09:22Z</time>
      </trkpt>
      <trkpt lat="47.18285" lon="6.27577">
        <ele>610.09375</ele>
        <time>2012-04-29T06:09:28Z</time>
      </trkpt>
      <trkpt lat="47.18277" lon="6.27586">
        <ele>611.53588867188</ele>
        <time>2012-04-29T06:09:35Z</time>
      </trkpt>
      <trkpt lat="47.18271" lon="6.2759">
        <ele>613.45849609375</ele>
        <time>2012-04-29T06:09:40Z</time>
      </trkpt>
      <trkpt lat="47.18264" lon="6.27594">
        <ele>614.41967773438</ele>
        <time>2012-04-29T06:09:45Z</time>
      </trkpt>
      <trkpt lat="47.18255" lon="6.27599">
        <ele>614.41967773438</ele>
        <time>2012-04-29T06:09:51Z</time>
      </trkpt>
      <trkpt lat="47.18245" lon="6.27606">
        <ele>615.86181640625</ele>
        <time>2012-04-29T06:09:57Z</time>
      </trkpt>
      <trkpt lat="47.18235" lon="6.27616">
        <ele>617.7841796875</ele>
        <time>2012-04-29T06:10:03Z</time>
      </trkpt>
      <trkpt lat="47.18232" lon="6.27619">
        <ele>617.3037109375</ele>
        <time>2012-04-29T06:10:05Z</time>
      </trkpt>
      <trkpt lat="47.18226" lon="6.27628">
        <ele>619.22631835938</ele>
        <time>2012-04-29T06:10:11Z</time>
      </trkpt>
      <trkpt lat="47.18224" lon="6.27632">
        <ele>620.66845703125</ele>
        <time>2012-04-29T06:10:13Z</time>
      </trkpt>
      <trkpt lat="47.18217" lon="6.27643">
        <ele>621.14916992188</ele>
        <time>2012-04-29T06:10:20Z</time>
      </trkpt>
      <trkpt lat="47.1821" lon="6.27657">
        <ele>621.14916992188</ele>
        <time>2012-04-29T06:10:27Z</time>
      </trkpt>
      <trkpt lat="47.18204" lon="6.27671">
        <ele>621.62963867188</ele>
        <time>2012-04-29T06:10:34Z</time>
      </trkpt>
      <trkpt lat="47.18201" lon="6.27677">
        <ele>621.62963867188</ele>
        <time>2012-04-29T06:10:37Z</time>
      </trkpt>
      <trkpt lat="47.18196" lon="6.27693">
        <ele>623.07177734375</ele>
        <time>2012-04-29T06:10:43Z</time>
      </trkpt>
      <trkpt lat="47.18192" lon="6.27705">
        <ele>624.03295898438</ele>
        <time>2012-04-29T06:10:48Z</time>
      </trkpt>
      <trkpt lat="47.18184" lon="6.27726">
        <ele>624.03295898438</ele>
        <time>2012-04-29T06:10:54Z</time>
      </trkpt>
      <trkpt lat="47.18178" lon="6.27741">
        <ele>623.07177734375</ele>
        <time>2012-04-29T06:10:58Z</time>
      </trkpt>
      <trkpt lat="47.18163" lon="6.27747">
        <ele>622.59106445312</ele>
        <time>2012-04-29T06:11:03Z</time>
      </trkpt>
      <trkpt lat="47.18146" lon="6.27743">
        <ele>621.14916992188</ele>
        <time>2012-04-29T06:11:08Z</time>
      </trkpt>
      <trkpt lat="47.18129" lon="6.27738">
        <ele>621.14916992188</ele>
        <time>2012-04-29T06:11:12Z</time>
      </trkpt>
      <trkpt lat="47.18105" lon="6.27729">
        <ele>621.14916992188</ele>
        <time>2012-04-29T06:11:18Z</time>
      </trkpt>
      <trkpt lat="47.18087" lon="6.27736">
        <ele>620.18774414062</ele>
        <time>2012-04-29T06:11:23Z</time>
      </trkpt>
      <trkpt lat="47.1807" lon="6.27742">
        <ele>620.18774414062</ele>
        <time>2012-04-29T06:11:27Z</time>
      </trkpt>
      <trkpt lat="47.18038" lon="6.27748">
        <ele>619.70703125</ele>
        <time>2012-04-29T06:11:33Z</time>
      </trkpt>
      <trkpt lat="47.18023" lon="6.27748">
        <ele>619.70703125</ele>
        <time>2012-04-29T06:11:36Z</time>
      </trkpt>
      <trkpt lat="47.18012" lon="6.27749">
        <ele>619.70703125</ele>
        <time>2012-04-29T06:11:38Z</time>
      </trkpt>
      <trkpt lat="47.17992" lon="6.27742">
        <ele>618.26489257812</ele>
        <time>2012-04-29T06:11:42Z</time>
      </trkpt>
      <trkpt lat="47.17966" lon="6.27734">
        <ele>615.86181640625</ele>
        <time>2012-04-29T06:11:47Z</time>
      </trkpt>
      <trkpt lat="47.17961" lon="6.27737">
        <ele>616.82299804688</ele>
        <time>2012-04-29T06:11:48Z</time>
      </trkpt>
      <trkpt lat="47.17932" lon="6.27754">
        <ele>615.86181640625</ele>
        <time>2012-04-29T06:11:54Z</time>
      </trkpt>
      <trkpt lat="47.17913" lon="6.27762">
        <ele>616.34228515625</ele>
        <time>2012-04-29T06:11:58Z</time>
      </trkpt>
      <trkpt lat="47.17903" lon="6.27763">
        <ele>614.41967773438</ele>
        <time>2012-04-29T06:12:00Z</time>
      </trkpt>
      <trkpt lat="47.17878" lon="6.27776">
        <ele>614.41967773438</ele>
        <time>2012-04-29T06:12:05Z</time>
      </trkpt>
      <trkpt lat="47.17853" lon="6.2779">
        <ele>613.45849609375</ele>
        <time>2012-04-29T06:12:10Z</time>
      </trkpt>
      <trkpt lat="47.17845" lon="6.27811">
        <ele>613.93896484375</ele>
        <time>2012-04-29T06:12:14Z</time>
      </trkpt>
      <trkpt lat="47.17854" lon="6.27843">
        <ele>613.45849609375</ele>
        <time>2012-04-29T06:12:19Z</time>
      </trkpt>
      <trkpt lat="47.17846" lon="6.27862">
        <ele>611.53588867188</ele>
        <time>2012-04-29T06:12:22Z</time>
      </trkpt>
      <trkpt lat="47.17838" lon="6.27871">
        <ele>612.4970703125</ele>
        <time>2012-04-29T06:12:24Z</time>
      </trkpt>
      <trkpt lat="47.17823" lon="6.27885">
        <ele>612.97778320312</ele>
        <time>2012-04-29T06:12:28Z</time>
      </trkpt>
      <trkpt lat="47.17811" lon="6.27891">
        <ele>614.41967773438</ele>
        <time>2012-04-29T06:12:31Z</time>
      </trkpt>
      <trkpt lat="47.17808" lon="6.27892">
        <ele>613.93896484375</ele>
        <time>2012-04-29T06:12:32Z</time>
      </trkpt>
      <trkpt lat="47.17789" lon="6.27895">
        <ele>616.82299804688</ele>
        <time>2012-04-29T06:12:38Z</time>
      </trkpt>
      <trkpt lat="47.17764" lon="6.27905">
        <ele>618.26489257812</ele>
        <time>2012-04-29T06:12:47Z</time>
      </trkpt>
      <trkpt lat="47.1775" lon="6.27897">
        <ele>618.26489257812</ele>
        <time>2012-04-29T06:12:52Z</time>
      </trkpt>
      <trkpt lat="47.17741" lon="6.2788">
        <ele>618.74560546875</ele>
        <time>2012-04-29T06:12:57Z</time>
      </trkpt>
      <trkpt lat="47.17734" lon="6.27862">
        <ele>619.22631835938</ele>
        <time>2012-04-29T06:13:03Z</time>
      </trkpt>
      <trkpt lat="47.17723" lon="6.27833">
        <ele>619.70703125</ele>
        <time>2012-04-29T06:13:10Z</time>
      </trkpt>
      <trkpt lat="47.17714" lon="6.27827">
        <ele>621.14916992188</ele>
        <time>2012-04-29T06:13:14Z</time>
      </trkpt>
      <trkpt lat="47.17686" lon="6.27835">
        <ele>623.55249023438</ele>
        <time>2012-04-29T06:13:24Z</time>
      </trkpt>
      <trkpt lat="47.1765" lon="6.27846">
        <ele>624.03295898438</ele>
        <time>2012-04-29T06:13:36Z</time>
      </trkpt>
      <trkpt lat="47.17622" lon="6.27855">
        <ele>624.513671875</ele>
        <time>2012-04-29T06:13:45Z</time>
      </trkpt>
      <trkpt lat="47.1762" lon="6.27867">
        <ele>624.513671875</ele>
        <time>2012-04-29T06:13:49Z</time>
      </trkpt>
      <trkpt lat="47.17622" lon="6.2787">
        <ele>624.99438476562</ele>
        <time>2012-04-29T06:13:50Z</time>
      </trkpt>
      <trkpt lat="47.17633" lon="6.27883">
        <ele>624.03295898438</ele>
        <time>2012-04-29T06:13:54Z</time>
      </trkpt>
      <trkpt lat="47.1764" lon="6.27914">
        <ele>623.07177734375</ele>
        <time>2012-04-29T06:13:59Z</time>
      </trkpt>
      <trkpt lat="47.17638" lon="6.27922">
        <ele>623.07177734375</ele>
        <time>2012-04-29T06:14:00Z</time>
      </trkpt>
      <trkpt lat="47.17633" lon="6.2794">
        <ele>620.66845703125</ele>
        <time>2012-04-29T06:14:02Z</time>
      </trkpt>
      <trkpt lat="47.17629" lon="6.27996">
        <ele>618.74560546875</ele>
        <time>2012-04-29T06:14:06Z</time>
      </trkpt>
      <trkpt lat="47.1764" lon="6.2803">
        <ele>617.7841796875</ele>
        <time>2012-04-29T06:14:09Z</time>
      </trkpt>
      <trkpt lat="47.17659" lon="6.28064">
        <ele>617.7841796875</ele>
        <time>2012-04-29T06:14:13Z</time>
      </trkpt>
      <trkpt lat="47.17678" lon="6.28087">
        <ele>617.3037109375</ele>
        <time>2012-04-29T06:14:17Z</time>
      </trkpt>
      <trkpt lat="47.17704" lon="6.28107">
        <ele>617.3037109375</ele>
        <time>2012-04-29T06:14:21Z</time>
      </trkpt>
      <trkpt lat="47.17743" lon="6.28142">
        <ele>617.3037109375</ele>
        <time>2012-04-29T06:14:28Z</time>
      </trkpt>
      <trkpt lat="47.17791" lon="6.2818">
        <ele>616.82299804688</ele>
        <time>2012-04-29T06:14:37Z</time>
      </trkpt>
      <trkpt lat="47.1783" lon="6.28213">
        <ele>616.34228515625</ele>
        <time>2012-04-29T06:14:45Z</time>
      </trkpt>
      <trkpt lat="47.17849" lon="6.28226">
        <ele>616.34228515625</ele>
        <time>2012-04-29T06:14:49Z</time>
      </trkpt>
      <trkpt lat="47.17877" lon="6.28241">
        <ele>615.86181640625</ele>
        <time>2012-04-29T06:14:55Z</time>
      </trkpt>
      <trkpt lat="47.17888" lon="6.28245">
        <ele>616.34228515625</ele>
        <time>2012-04-29T06:14:57Z</time>
      </trkpt>
      <trkpt lat="47.1791" lon="6.28254">
        <ele>616.34228515625</ele>
        <time>2012-04-29T06:15:01Z</time>
      </trkpt>
      <trkpt lat="47.17939" lon="6.2828">
        <ele>615.86181640625</ele>
        <time>2012-04-29T06:15:07Z</time>
      </trkpt>
      <trkpt lat="47.17973" lon="6.28306">
        <ele>615.86181640625</ele>
        <time>2012-04-29T06:15:15Z</time>
      </trkpt>
      <trkpt lat="47.17992" lon="6.28315">
        <ele>615.86181640625</ele>
        <time>2012-04-29T06:15:20Z</time>
      </trkpt>
      <trkpt lat="47.18009" lon="6.28326">
        <ele>616.82299804688</ele>
        <time>2012-04-29T06:15:26Z</time>
      </trkpt>
      <trkpt lat="47.18026" lon="6.28337">
        <ele>616.34228515625</ele>
        <time>2012-04-29T06:15:32Z</time>
      </trkpt>
      <trkpt lat="47.18041" lon="6.28345">
        <ele>616.82299804688</ele>
        <time>2012-04-29T06:15:37Z</time>
      </trkpt>
      <trkpt lat="47.18062" lon="6.28356">
        <ele>616.34228515625</ele>
        <time>2012-04-29T06:15:43Z</time>
      </trkpt>
      <trkpt lat="47.18075" lon="6.28365">
        <ele>615.86181640625</ele>
        <time>2012-04-29T06:15:48Z</time>
      </trkpt>
      <trkpt lat="47.18089" lon="6.28375">
        <ele>616.34228515625</ele>
        <time>2012-04-29T06:15:53Z</time>
      </trkpt>
      <trkpt lat="47.18092" lon="6.28377">
        <ele>615.86181640625</ele>
        <time>2012-04-29T06:15:54Z</time>
      </trkpt>
      <trkpt lat="47.18097" lon="6.28383">
        <ele>617.3037109375</ele>
        <time>2012-04-29T06:15:56Z</time>
      </trkpt>
      <trkpt lat="47.18116" lon="6.28398">
        <ele>616.82299804688</ele>
        <time>2012-04-29T06:16:02Z</time>
      </trkpt>
      <trkpt lat="47.18127" lon="6.28408">
        <ele>617.3037109375</ele>
        <time>2012-04-29T06:16:06Z</time>
      </trkpt>
      <trkpt lat="47.18148" lon="6.28417">
        <ele>617.3037109375</ele>
        <time>2012-04-29T06:16:11Z</time>
      </trkpt>
      <trkpt lat="47.18152" lon="6.28418">
        <ele>616.82299804688</ele>
        <time>2012-04-29T06:16:12Z</time>
      </trkpt>
      <trkpt lat="47.18177" lon="6.28426">
        <ele>617.3037109375</ele>
        <time>2012-04-29T06:16:17Z</time>
      </trkpt>
      <trkpt lat="47.18198" lon="6.28436">
        <ele>616.82299804688</ele>
        <time>2012-04-29T06:16:23Z</time>
      </trkpt>
      <trkpt lat="47.18221" lon="6.28444">
        <ele>616.82299804688</ele>
        <time>2012-04-29T06:16:30Z</time>
      </trkpt>
      <trkpt lat="47.18232" lon="6.28448">
        <ele>617.3037109375</ele>
        <time>2012-04-29T06:16:34Z</time>
      </trkpt>
      <trkpt lat="47.18247" lon="6.28453">
        <ele>617.7841796875</ele>
        <time>2012-04-29T06:16:40Z</time>
      </trkpt>
      <trkpt lat="47.18262" lon="6.28459">
        <ele>618.74560546875</ele>
        <time>2012-04-29T06:16:46Z</time>
      </trkpt>
      <trkpt lat="47.18267" lon="6.28462">
        <ele>619.22631835938</ele>
        <time>2012-04-29T06:16:48Z</time>
      </trkpt>
      <trkpt lat="47.18278" lon="6.28466">
        <ele>619.70703125</ele>
        <time>2012-04-29T06:16:52Z</time>
      </trkpt>
      <trkpt lat="47.18293" lon="6.28476">
        <ele>619.70703125</ele>
        <time>2012-04-29T06:16:58Z</time>
      </trkpt>
      <trkpt lat="47.18299" lon="6.28484">
        <ele>620.18774414062</ele>
        <time>2012-04-29T06:17:02Z</time>
      </trkpt>
      <trkpt lat="47.18317" lon="6.28496">
        <ele>619.70703125</ele>
        <time>2012-04-29T06:17:08Z</time>
      </trkpt>
      <trkpt lat="47.18334" lon="6.28502">
        <ele>620.18774414062</ele>
        <time>2012-04-29T06:17:13Z</time>
      </trkpt>
      <trkpt lat="47.18345" lon="6.28514">
        <ele>620.18774414062</ele>
        <time>2012-04-29T06:17:18Z</time>
      </trkpt>
      <trkpt lat="47.18358" lon="6.28528">
        <ele>620.18774414062</ele>
        <time>2012-04-29T06:17:23Z</time>
      </trkpt>
      <trkpt lat="47.18361" lon="6.28529">
        <ele>620.66845703125</ele>
        <time>2012-04-29T06:17:24Z</time>
      </trkpt>
      <trkpt lat="47.1838" lon="6.28528">
        <ele>620.66845703125</ele>
        <time>2012-04-29T06:17:30Z</time>
      </trkpt>
      <trkpt lat="47.18399" lon="6.28531">
        <ele>620.66845703125</ele>
        <time>2012-04-29T06:17:35Z</time>
      </trkpt>
      <trkpt lat="47.18423" lon="6.28548">
        <ele>620.66845703125</ele>
        <time>2012-04-29T06:17:41Z</time>
      </trkpt>
      <trkpt lat="47.18444" lon="6.28567">
        <ele>620.18774414062</ele>
        <time>2012-04-29T06:17:46Z</time>
      </trkpt>
      <trkpt lat="47.18453" lon="6.28574">
        <ele>620.18774414062</ele>
        <time>2012-04-29T06:17:48Z</time>
      </trkpt>
      <trkpt lat="47.18476" lon="6.28598">
        <ele>617.3037109375</ele>
        <time>2012-04-29T06:17:53Z</time>
      </trkpt>
      <trkpt lat="47.18499" lon="6.28637">
        <ele>611.53588867188</ele>
        <time>2012-04-29T06:17:58Z</time>
      </trkpt>
      <trkpt lat="47.18509" lon="6.28657">
        <ele>608.17138671875</ele>
        <time>2012-04-29T06:18:00Z</time>
      </trkpt>
      <trkpt lat="47.18532" lon="6.28702">
        <ele>605.76806640625</ele>
        <time>2012-04-29T06:18:05Z</time>
      </trkpt>
      <trkpt lat="47.18542" lon="6.28714">
        <ele>604.326171875</ele>
        <time>2012-04-29T06:18:07Z</time>
      </trkpt>
      <trkpt lat="47.18557" lon="6.28727">
        <ele>603.84521484375</ele>
        <time>2012-04-29T06:18:10Z</time>
      </trkpt>
      <trkpt lat="47.18564" lon="6.28736">
        <ele>602.8837890625</ele>
        <time>2012-04-29T06:18:12Z</time>
      </trkpt>
      <trkpt lat="47.18569" lon="6.28748">
        <ele>602.40307617188</ele>
        <time>2012-04-29T06:18:14Z</time>
      </trkpt>
      <trkpt lat="47.18586" lon="6.28776">
        <ele>600</ele>
        <time>2012-04-29T06:18:19Z</time>
      </trkpt>
      <trkpt lat="47.18597" lon="6.28776">
        <ele>599.51928710938</ele>
        <time>2012-04-29T06:18:22Z</time>
      </trkpt>
      <trkpt lat="47.18605" lon="6.28775">
        <ele>598.55786132812</ele>
        <time>2012-04-29T06:18:24Z</time>
      </trkpt>
      <trkpt lat="47.18631" lon="6.28778">
        <ele>596.63549804688</ele>
        <time>2012-04-29T06:18:29Z</time>
      </trkpt>
      <trkpt lat="47.18644" lon="6.28784">
        <ele>596.15478515625</ele>
        <time>2012-04-29T06:18:31Z</time>
      </trkpt>
      <trkpt lat="47.18665" lon="6.28798">
        <ele>595.193359375</ele>
        <time>2012-04-29T06:18:34Z</time>
      </trkpt>
      <trkpt lat="47.18684" lon="6.28816">
        <ele>596.15478515625</ele>
        <time>2012-04-29T06:18:37Z</time>
      </trkpt>
      <trkpt lat="47.18721" lon="6.2885">
        <ele>597.11596679688</ele>
        <time>2012-04-29T06:18:44Z</time>
      </trkpt>
      <trkpt lat="47.18737" lon="6.28866">
        <ele>597.11596679688</ele>
        <time>2012-04-29T06:18:48Z</time>
      </trkpt>
      <trkpt lat="47.18764" lon="6.28891">
        <ele>598.07739257812</ele>
        <time>2012-04-29T06:18:55Z</time>
      </trkpt>
      <trkpt lat="47.18784" lon="6.28908">
        <ele>600</ele>
        <time>2012-04-29T06:19:01Z</time>
      </trkpt>
      <trkpt lat="47.18796" lon="6.2892">
        <ele>600</ele>
        <time>2012-04-29T06:19:05Z</time>
      </trkpt>
      <trkpt lat="47.18805" lon="6.28929">
        <ele>601.44189453125</ele>
        <time>2012-04-29T06:19:08Z</time>
      </trkpt>
      <trkpt lat="47.18822" lon="6.28945">
        <ele>603.84521484375</ele>
        <time>2012-04-29T06:19:14Z</time>
      </trkpt>
      <trkpt lat="47.18836" lon="6.28958">
        <ele>604.806640625</ele>
        <time>2012-04-29T06:19:19Z</time>
      </trkpt>
      <trkpt lat="47.18847" lon="6.28972">
        <ele>605.76806640625</ele>
        <time>2012-04-29T06:19:24Z</time>
      </trkpt>
      <trkpt lat="47.18851" lon="6.28997">
        <ele>605.76806640625</ele>
        <time>2012-04-29T06:19:29Z</time>
      </trkpt>
      <trkpt lat="47.1885" lon="6.29038">
        <ele>606.72924804688</ele>
        <time>2012-04-29T06:19:36Z</time>
      </trkpt>
      <trkpt lat="47.18849" lon="6.29049">
        <ele>606.24853515625</ele>
        <time>2012-04-29T06:19:38Z</time>
      </trkpt>
      <trkpt lat="47.18845" lon="6.29081">
        <ele>606.24853515625</ele>
        <time>2012-04-29T06:19:43Z</time>
      </trkpt>
      <trkpt lat="47.18846" lon="6.29125">
        <ele>604.326171875</ele>
        <time>2012-04-29T06:19:49Z</time>
      </trkpt>
      <trkpt lat="47.18846" lon="6.29134">
        <ele>604.806640625</ele>
        <time>2012-04-29T06:19:50Z</time>
      </trkpt>
      <trkpt lat="47.18846" lon="6.2916">
        <ele>604.806640625</ele>
        <time>2012-04-29T06:19:53Z</time>
      </trkpt>
      <trkpt lat="47.18847" lon="6.29181">
        <ele>605.28735351562</ele>
        <time>2012-04-29T06:19:56Z</time>
      </trkpt>
      <trkpt lat="47.18842" lon="6.29227">
        <ele>605.76806640625</ele>
        <time>2012-04-29T06:20:02Z</time>
      </trkpt>
      <trkpt lat="47.1884" lon="6.29233">
        <ele>605.28735351562</ele>
        <time>2012-04-29T06:20:03Z</time>
      </trkpt>
      <trkpt lat="47.18822" lon="6.29271">
        <ele>606.72924804688</ele>
        <time>2012-04-29T06:20:10Z</time>
      </trkpt>
      <trkpt lat="47.18817" lon="6.29295">
        <ele>607.2099609375</ele>
        <time>2012-04-29T06:20:15Z</time>
      </trkpt>
      <trkpt lat="47.18817" lon="6.29326">
        <ele>607.2099609375</ele>
        <time>2012-04-29T06:20:20Z</time>
      </trkpt>
      <trkpt lat="47.18819" lon="6.29364">
        <ele>606.72924804688</ele>
        <time>2012-04-29T06:20:25Z</time>
      </trkpt>
      <trkpt lat="47.18819" lon="6.29396">
        <ele>605.28735351562</ele>
        <time>2012-04-29T06:20:29Z</time>
      </trkpt>
      <trkpt lat="47.18808" lon="6.2943">
        <ele>606.24853515625</ele>
        <time>2012-04-29T06:20:34Z</time>
      </trkpt>
      <trkpt lat="47.18792" lon="6.29458">
        <ele>605.76806640625</ele>
        <time>2012-04-29T06:20:39Z</time>
      </trkpt>
      <trkpt lat="47.18788" lon="6.29477">
        <ele>606.24853515625</ele>
        <time>2012-04-29T06:20:43Z</time>
      </trkpt>
      <trkpt lat="47.18793" lon="6.29489">
        <ele>607.2099609375</ele>
        <time>2012-04-29T06:20:47Z</time>
      </trkpt>
      <trkpt lat="47.18806" lon="6.29497">
        <ele>607.69067382812</ele>
        <time>2012-04-29T06:20:53Z</time>
      </trkpt>
      <trkpt lat="47.18816" lon="6.29506">
        <ele>608.17138671875</ele>
        <time>2012-04-29T06:20:58Z</time>
      </trkpt>
      <trkpt lat="47.18829" lon="6.29517">
        <ele>609.61328125</ele>
        <time>2012-04-29T06:21:04Z</time>
      </trkpt>
      <trkpt lat="47.18843" lon="6.2953">
        <ele>611.05517578125</ele>
        <time>2012-04-29T06:21:10Z</time>
      </trkpt>
      <trkpt lat="47.18859" lon="6.29545">
        <ele>611.53588867188</ele>
        <time>2012-04-29T06:21:17Z</time>
      </trkpt>
      <trkpt lat="47.18869" lon="6.29553">
        <ele>614.41967773438</ele>
        <time>2012-04-29T06:21:21Z</time>
      </trkpt>
      <trkpt lat="47.18884" lon="6.29562">
        <ele>615.38110351562</ele>
        <time>2012-04-29T06:21:27Z</time>
      </trkpt>
      <trkpt lat="47.18901" lon="6.29576">
        <ele>615.38110351562</ele>
        <time>2012-04-29T06:21:34Z</time>
      </trkpt>
      <trkpt lat="47.18913" lon="6.29586">
        <ele>615.86181640625</ele>
        <time>2012-04-29T06:21:39Z</time>
      </trkpt>
      <trkpt lat="47.18931" lon="6.29597">
        <ele>616.82299804688</ele>
        <time>2012-04-29T06:21:46Z</time>
      </trkpt>
      <trkpt lat="47.18943" lon="6.29607">
        <ele>617.7841796875</ele>
        <time>2012-04-29T06:21:51Z</time>
      </trkpt>
      <trkpt lat="47.18955" lon="6.29619">
        <ele>618.26489257812</ele>
        <time>2012-04-29T06:21:56Z</time>
      </trkpt>
      <trkpt lat="47.18967" lon="6.29628">
        <ele>614.41967773438</ele>
        <time>2012-04-29T06:21:59Z</time>
      </trkpt>
      <trkpt lat="47.18988" lon="6.29642">
        <ele>612.0166015625</ele>
        <time>2012-04-29T06:22:02Z</time>
      </trkpt>
      <trkpt lat="47.19009" lon="6.29658">
        <ele>612.4970703125</ele>
        <time>2012-04-29T06:22:05Z</time>
      </trkpt>
      <trkpt lat="47.19032" lon="6.29675">
        <ele>613.93896484375</ele>
        <time>2012-04-29T06:22:09Z</time>
      </trkpt>
      <trkpt lat="47.19043" lon="6.29684">
        <ele>613.45849609375</ele>
        <time>2012-04-29T06:22:13Z</time>
      </trkpt>
      <trkpt lat="47.19051" lon="6.2969">
        <ele>615.38110351562</ele>
        <time>2012-04-29T06:22:16Z</time>
      </trkpt>
      <trkpt lat="47.19067" lon="6.29701">
        <ele>615.38110351562</ele>
        <time>2012-04-29T06:22:22Z</time>
      </trkpt>
      <trkpt lat="47.19071" lon="6.29704">
        <ele>614.900390625</ele>
        <time>2012-04-29T06:22:27Z</time>
      </trkpt>
      <trkpt lat="47.19069" lon="6.29702">
        <ele>614.41967773438</ele>
        <time>2012-04-29T06:22:49Z</time>
      </trkpt>
      <trkpt lat="47.19069" lon="6.297">
        <ele>614.41967773438</ele>
        <time>2012-04-29T06:23:34Z</time>
      </trkpt>
      <trkpt lat="47.19076" lon="6.29708">
        <ele>613.45849609375</ele>
        <time>2012-04-29T06:24:14Z</time>
      </trkpt>
      <trkpt lat="47.19077" lon="6.29706">
        <ele>612.97778320312</ele>
        <time>2012-04-29T06:24:38Z</time>
      </trkpt>
      <trkpt lat="47.19074" lon="6.29704">
        <ele>612.4970703125</ele>
        <time>2012-04-29T06:25:28Z</time>
      </trkpt>
      <trkpt lat="47.19064" lon="6.29702">
        <ele>612.4970703125</ele>
        <time>2012-04-29T06:26:11Z</time>
      </trkpt>
      <trkpt lat="47.1906" lon="6.29697">
        <ele>612.0166015625</ele>
        <time>2012-04-29T06:27:09Z</time>
      </trkpt>
      <trkpt lat="47.19075" lon="6.29698">
        <ele>612.0166015625</ele>
        <time>2012-04-29T06:28:08Z</time>
      </trkpt>
      <trkpt lat="47.19076" lon="6.29693">
        <ele>612.0166015625</ele>
        <time>2012-04-29T06:28:27Z</time>
      </trkpt>
      <trkpt lat="47.19076" lon="6.29691">
        <ele>612.97778320312</ele>
        <time>2012-04-29T06:28:35Z</time>
      </trkpt>
      <trkpt lat="47.19077" lon="6.29693">
        <ele>612.97778320312</ele>
        <time>2012-04-29T06:29:01Z</time>
      </trkpt>
      <trkpt lat="47.19079" lon="6.29698">
        <ele>612.97778320312</ele>
        <time>2012-04-29T06:29:11Z</time>
      </trkpt>
      <trkpt lat="47.19083" lon="6.29704">
        <ele>612.4970703125</ele>
        <time>2012-04-29T06:29:16Z</time>
      </trkpt>
      <trkpt lat="47.19092" lon="6.29712">
        <ele>612.97778320312</ele>
        <time>2012-04-29T06:29:21Z</time>
      </trkpt>
      <trkpt lat="47.19103" lon="6.29726">
        <ele>613.45849609375</ele>
        <time>2012-04-29T06:29:26Z</time>
      </trkpt>
      <trkpt lat="47.19115" lon="6.29735">
        <ele>613.93896484375</ele>
        <time>2012-04-29T06:29:30Z</time>
      </trkpt>
      <trkpt lat="47.19128" lon="6.29746">
        <ele>613.93896484375</ele>
        <time>2012-04-29T06:29:35Z</time>
      </trkpt>
      <trkpt lat="47.19138" lon="6.29755">
        <ele>613.45849609375</ele>
        <time>2012-04-29T06:29:41Z</time>
      </trkpt>
      <trkpt lat="47.19144" lon="6.29759">
        <ele>613.45849609375</ele>
        <time>2012-04-29T06:29:47Z</time>
      </trkpt>
      <trkpt lat="47.19151" lon="6.29764">
        <ele>613.45849609375</ele>
        <time>2012-04-29T06:29:55Z</time>
      </trkpt>
      <trkpt lat="47.19163" lon="6.29773">
        <ele>612.0166015625</ele>
        <time>2012-04-29T06:30:02Z</time>
      </trkpt>
      <trkpt lat="47.19172" lon="6.29783">
        <ele>612.0166015625</ele>
        <time>2012-04-29T06:30:06Z</time>
      </trkpt>
      <trkpt lat="47.19181" lon="6.29792">
        <ele>612.0166015625</ele>
        <time>2012-04-29T06:30:12Z</time>
      </trkpt>
      <trkpt lat="47.19185" lon="6.29795">
        <ele>612.0166015625</ele>
        <time>2012-04-29T06:30:17Z</time>
      </trkpt>
      <trkpt lat="47.19191" lon="6.29799">
        <ele>611.53588867188</ele>
        <time>2012-04-29T06:30:24Z</time>
      </trkpt>
      <trkpt lat="47.19191" lon="6.29803">
        <ele>611.53588867188</ele>
        <time>2012-04-29T06:30:45Z</time>
      </trkpt>
      <trkpt lat="47.19191" lon="6.29813">
        <ele>611.05517578125</ele>
        <time>2012-04-29T06:31:46Z</time>
      </trkpt>
      <trkpt lat="47.19193" lon="6.29814">
        <ele>611.53588867188</ele>
        <time>2012-04-29T06:32:13Z</time>
      </trkpt>
      <trkpt lat="47.19194" lon="6.29811">
        <ele>611.05517578125</ele>
        <time>2012-04-29T06:32:25Z</time>
      </trkpt>
      <trkpt lat="47.19194" lon="6.29812">
        <ele>612.0166015625</ele>
        <time>2012-04-29T06:32:48Z</time>
      </trkpt>
      <trkpt lat="47.19197" lon="6.29809">
        <ele>611.53588867188</ele>
        <time>2012-04-29T06:34:35Z</time>
      </trkpt>
      <trkpt lat="47.19194" lon="6.2981">
        <ele>611.53588867188</ele>
        <time>2012-04-29T06:34:50Z</time>
      </trkpt>
      <trkpt lat="47.19207" lon="6.29819">
        <ele>609.61328125</ele>
        <time>2012-04-29T06:34:56Z</time>
      </trkpt>
      <trkpt lat="47.19222" lon="6.2983">
        <ele>604.806640625</ele>
        <time>2012-04-29T06:35:00Z</time>
      </trkpt>
      <trkpt lat="47.19244" lon="6.29844">
        <ele>603.36450195312</ele>
        <time>2012-04-29T06:35:04Z</time>
      </trkpt>
      <trkpt lat="47.19268" lon="6.2986">
        <ele>599.51928710938</ele>
        <time>2012-04-29T06:35:09Z</time>
      </trkpt>
      <trkpt lat="47.19279" lon="6.29868">
        <ele>598.55786132812</ele>
        <time>2012-04-29T06:35:11Z</time>
      </trkpt>
      <trkpt lat="47.19305" lon="6.29886">
        <ele>597.5966796875</ele>
        <time>2012-04-29T06:35:16Z</time>
      </trkpt>
      <trkpt lat="47.1932" lon="6.29896">
        <ele>597.11596679688</ele>
        <time>2012-04-29T06:35:20Z</time>
      </trkpt>
      <trkpt lat="47.19329" lon="6.29899">
        <ele>597.11596679688</ele>
        <time>2012-04-29T06:35:24Z</time>
      </trkpt>
      <trkpt lat="47.19333" lon="6.29903">
        <ele>597.11596679688</ele>
        <time>2012-04-29T06:35:35Z</time>
      </trkpt>
      <trkpt lat="47.19332" lon="6.29906">
        <ele>597.11596679688</ele>
        <time>2012-04-29T06:35:43Z</time>
      </trkpt>
      <trkpt lat="47.19337" lon="6.29911">
        <ele>597.11596679688</ele>
        <time>2012-04-29T06:35:48Z</time>
      </trkpt>
      <trkpt lat="47.19339" lon="6.29912">
        <ele>596.63549804688</ele>
        <time>2012-04-29T06:35:55Z</time>
      </trkpt>
      <trkpt lat="47.19345" lon="6.29918">
        <ele>596.15478515625</ele>
        <time>2012-04-29T06:36:03Z</time>
      </trkpt>
      <trkpt lat="47.1935" lon="6.29921">
        <ele>595.67407226562</ele>
        <time>2012-04-29T06:36:06Z</time>
      </trkpt>
      <trkpt lat="47.19357" lon="6.29925">
        <ele>589.90625</ele>
        <time>2012-04-29T06:36:09Z</time>
      </trkpt>
      <trkpt lat="47.19361" lon="6.2993">
        <ele>588.94506835938</ele>
        <time>2012-04-29T06:36:11Z</time>
      </trkpt>
      <trkpt lat="47.19375" lon="6.29934">
        <ele>588.46435546875</ele>
        <time>2012-04-29T06:36:15Z</time>
      </trkpt>
      <trkpt lat="47.19386" lon="6.29942">
        <ele>589.90625</ele>
        <time>2012-04-29T06:36:20Z</time>
      </trkpt>
      <trkpt lat="47.19391" lon="6.29944">
        <ele>590.86743164062</ele>
        <time>2012-04-29T06:36:22Z</time>
      </trkpt>
      <trkpt lat="47.19397" lon="6.29948">
        <ele>592.3095703125</ele>
        <time>2012-04-29T06:36:24Z</time>
      </trkpt>
      <trkpt lat="47.19407" lon="6.29958">
        <ele>596.15478515625</ele>
        <time>2012-04-29T06:36:28Z</time>
      </trkpt>
      <trkpt lat="47.1941" lon="6.29961">
        <ele>595.67407226562</ele>
        <time>2012-04-29T06:36:29Z</time>
      </trkpt>
      <trkpt lat="47.19422" lon="6.29969">
        <ele>596.15478515625</ele>
        <time>2012-04-29T06:36:34Z</time>
      </trkpt>
      <trkpt lat="47.19436" lon="6.29978">
        <ele>596.63549804688</ele>
        <time>2012-04-29T06:36:39Z</time>
      </trkpt>
      <trkpt lat="47.19448" lon="6.29989">
        <ele>596.15478515625</ele>
        <time>2012-04-29T06:36:45Z</time>
      </trkpt>
      <trkpt lat="47.19461" lon="6.29999">
        <ele>597.11596679688</ele>
        <time>2012-04-29T06:36:50Z</time>
      </trkpt>
      <trkpt lat="47.19478" lon="6.30009">
        <ele>598.07739257812</ele>
        <time>2012-04-29T06:36:56Z</time>
      </trkpt>
      <trkpt lat="47.19489" lon="6.30016">
        <ele>598.07739257812</ele>
        <time>2012-04-29T06:37:01Z</time>
      </trkpt>
      <trkpt lat="47.19499" lon="6.30008">
        <ele>599.03857421875</ele>
        <time>2012-04-29T06:37:06Z</time>
      </trkpt>
      <trkpt lat="47.19504" lon="6.29992">
        <ele>600</ele>
        <time>2012-04-29T06:37:12Z</time>
      </trkpt>
      <trkpt lat="47.1951" lon="6.29976">
        <ele>600.96118164062</ele>
        <time>2012-04-29T06:37:18Z</time>
      </trkpt>
      <trkpt lat="47.19513" lon="6.29967">
        <ele>602.40307617188</ele>
        <time>2012-04-29T06:37:21Z</time>
      </trkpt>
      <trkpt lat="47.19516" lon="6.29956">
        <ele>602.8837890625</ele>
        <time>2012-04-29T06:37:25Z</time>
      </trkpt>
      <trkpt lat="47.19522" lon="6.2994">
        <ele>603.36450195312</ele>
        <time>2012-04-29T06:37:31Z</time>
      </trkpt>
      <trkpt lat="47.19527" lon="6.29922">
        <ele>603.36450195312</ele>
        <time>2012-04-29T06:37:38Z</time>
      </trkpt>
      <trkpt lat="47.19531" lon="6.29912">
        <ele>603.36450195312</ele>
        <time>2012-04-29T06:37:43Z</time>
      </trkpt>
      <trkpt lat="47.19535" lon="6.29899">
        <ele>603.84521484375</ele>
        <time>2012-04-29T06:37:49Z</time>
      </trkpt>
      <trkpt lat="47.1954" lon="6.29884">
        <ele>604.326171875</ele>
        <time>2012-04-29T06:37:55Z</time>
      </trkpt>
      <trkpt lat="47.19545" lon="6.29869">
        <ele>605.76806640625</ele>
        <time>2012-04-29T06:38:01Z</time>
      </trkpt>
      <trkpt lat="47.19549" lon="6.29852">
        <ele>605.76806640625</ele>
        <time>2012-04-29T06:38:07Z</time>
      </trkpt>
      <trkpt lat="47.19554" lon="6.29838">
        <ele>607.2099609375</ele>
        <time>2012-04-29T06:38:12Z</time>
      </trkpt>
      <trkpt lat="47.19557" lon="6.29825">
        <ele>607.69067382812</ele>
        <time>2012-04-29T06:38:17Z</time>
      </trkpt>
      <trkpt lat="47.1956" lon="6.29812">
        <ele>608.65185546875</ele>
        <time>2012-04-29T06:38:22Z</time>
      </trkpt>
      <trkpt lat="47.19564" lon="6.298">
        <ele>609.61328125</ele>
        <time>2012-04-29T06:38:26Z</time>
      </trkpt>
      <trkpt lat="47.1957" lon="6.29782">
        <ele>609.61328125</ele>
        <time>2012-04-29T06:38:31Z</time>
      </trkpt>
      <trkpt lat="47.19578" lon="6.29761">
        <ele>609.13256835938</ele>
        <time>2012-04-29T06:38:37Z</time>
      </trkpt>
      <trkpt lat="47.19586" lon="6.29735">
        <ele>608.65185546875</ele>
        <time>2012-04-29T06:38:43Z</time>
      </trkpt>
      <trkpt lat="47.19593" lon="6.29713">
        <ele>608.65185546875</ele>
        <time>2012-04-29T06:38:48Z</time>
      </trkpt>
      <trkpt lat="47.19601" lon="6.29696">
        <ele>608.65185546875</ele>
        <time>2012-04-29T06:38:52Z</time>
      </trkpt>
      <trkpt lat="47.196" lon="6.29689">
        <ele>608.65185546875</ele>
        <time>2012-04-29T06:38:56Z</time>
      </trkpt>
      <trkpt lat="47.196" lon="6.29687">
        <ele>608.17138671875</ele>
        <time>2012-04-29T06:38:57Z</time>
      </trkpt>
      <trkpt lat="47.19597" lon="6.29678">
        <ele>608.65185546875</ele>
        <time>2012-04-29T06:39:03Z</time>
      </trkpt>
      <trkpt lat="47.19598" lon="6.29679">
        <ele>607.69067382812</ele>
        <time>2012-04-29T06:39:09Z</time>
      </trkpt>
      <trkpt lat="47.19608" lon="6.29657">
        <ele>611.05517578125</ele>
        <time>2012-04-29T06:41:29Z</time>
      </trkpt>
      <trkpt lat="47.19602" lon="6.29668">
        <ele>611.53588867188</ele>
        <time>2012-04-29T06:42:42Z</time>
      </trkpt>
      <trkpt lat="47.19605" lon="6.29674">
        <ele>612.0166015625</ele>
        <time>2012-04-29T06:45:40Z</time>
      </trkpt>
      <trkpt lat="47.19601" lon="6.29676">
        <ele>611.05517578125</ele>
        <time>2012-04-29T06:45:56Z</time>
      </trkpt>
      <trkpt lat="47.19602" lon="6.29675">
        <ele>612.97778320312</ele>
        <time>2012-04-29T06:46:13Z</time>
      </trkpt>
      <trkpt lat="47.196" lon="6.29677">
        <ele>612.4970703125</ele>
        <time>2012-04-29T06:46:22Z</time>
      </trkpt>
      <trkpt lat="47.196" lon="6.29679">
        <ele>612.97778320312</ele>
        <time>2012-04-29T06:46:28Z</time>
      </trkpt>
      <trkpt lat="47.19604" lon="6.29685">
        <ele>612.4970703125</ele>
        <time>2012-04-29T06:46:32Z</time>
      </trkpt>
      <trkpt lat="47.19619" lon="6.297">
        <ele>611.05517578125</ele>
        <time>2012-04-29T06:46:38Z</time>
      </trkpt>
      <trkpt lat="47.19641" lon="6.2972">
        <ele>610.09375</ele>
        <time>2012-04-29T06:46:44Z</time>
      </trkpt>
      <trkpt lat="47.19661" lon="6.29737">
        <ele>610.09375</ele>
        <time>2012-04-29T06:46:49Z</time>
      </trkpt>
      <trkpt lat="47.19679" lon="6.29756">
        <ele>609.13256835938</ele>
        <time>2012-04-29T06:46:54Z</time>
      </trkpt>
      <trkpt lat="47.19697" lon="6.29769">
        <ele>608.17138671875</ele>
        <time>2012-04-29T06:46:59Z</time>
      </trkpt>
      <trkpt lat="47.19712" lon="6.29782">
        <ele>609.13256835938</ele>
        <time>2012-04-29T06:47:04Z</time>
      </trkpt>
      <trkpt lat="47.19727" lon="6.29798">
        <ele>612.0166015625</ele>
        <time>2012-04-29T06:47:10Z</time>
      </trkpt>
      <trkpt lat="47.19732" lon="6.29805">
        <ele>612.0166015625</ele>
        <time>2012-04-29T06:47:13Z</time>
      </trkpt>
      <trkpt lat="47.19748" lon="6.29822">
        <ele>612.4970703125</ele>
        <time>2012-04-29T06:47:20Z</time>
      </trkpt>
      <trkpt lat="47.19763" lon="6.29834">
        <ele>612.97778320312</ele>
        <time>2012-04-29T06:47:26Z</time>
      </trkpt>
      <trkpt lat="47.19777" lon="6.29845">
        <ele>612.97778320312</ele>
        <time>2012-04-29T06:47:32Z</time>
      </trkpt>
      <trkpt lat="47.1979" lon="6.29857">
        <ele>614.41967773438</ele>
        <time>2012-04-29T06:47:39Z</time>
      </trkpt>
      <trkpt lat="47.19803" lon="6.2987">
        <ele>614.900390625</ele>
        <time>2012-04-29T06:47:45Z</time>
      </trkpt>
      <trkpt lat="47.19812" lon="6.29876">
        <ele>615.86181640625</ele>
        <time>2012-04-29T06:47:49Z</time>
      </trkpt>
      <trkpt lat="47.19832" lon="6.29894">
        <ele>616.82299804688</ele>
        <time>2012-04-29T06:47:57Z</time>
      </trkpt>
      <trkpt lat="47.19846" lon="6.29907">
        <ele>617.7841796875</ele>
        <time>2012-04-29T06:48:03Z</time>
      </trkpt>
      <trkpt lat="47.19862" lon="6.2992">
        <ele>618.74560546875</ele>
        <time>2012-04-29T06:48:08Z</time>
      </trkpt>
      <trkpt lat="47.19873" lon="6.29929">
        <ele>619.22631835938</ele>
        <time>2012-04-29T06:48:12Z</time>
      </trkpt>
      <trkpt lat="47.19888" lon="6.29944">
        <ele>619.70703125</ele>
        <time>2012-04-29T06:48:18Z</time>
      </trkpt>
      <trkpt lat="47.19901" lon="6.29957">
        <ele>620.18774414062</ele>
        <time>2012-04-29T06:48:23Z</time>
      </trkpt>
      <trkpt lat="47.19918" lon="6.29972">
        <ele>620.66845703125</ele>
        <time>2012-04-29T06:48:29Z</time>
      </trkpt>
      <trkpt lat="47.19933" lon="6.29988">
        <ele>621.14916992188</ele>
        <time>2012-04-29T06:48:35Z</time>
      </trkpt>
      <trkpt lat="47.19949" lon="6.30002">
        <ele>621.14916992188</ele>
        <time>2012-04-29T06:48:42Z</time>
      </trkpt>
      <trkpt lat="47.19963" lon="6.30015">
        <ele>619.70703125</ele>
        <time>2012-04-29T06:48:47Z</time>
      </trkpt>
      <trkpt lat="47.19966" lon="6.30018">
        <ele>619.70703125</ele>
        <time>2012-04-29T06:48:48Z</time>
      </trkpt>
      <trkpt lat="47.19975" lon="6.30025">
        <ele>616.34228515625</ele>
        <time>2012-04-29T06:48:51Z</time>
      </trkpt>
      <trkpt lat="47.19979" lon="6.30031">
        <ele>613.45849609375</ele>
        <time>2012-04-29T06:48:53Z</time>
      </trkpt>
      <trkpt lat="47.1999" lon="6.30039">
        <ele>610.09375</ele>
        <time>2012-04-29T06:48:56Z</time>
      </trkpt>
      <trkpt lat="47.19993" lon="6.30043">
        <ele>607.69067382812</ele>
        <time>2012-04-29T06:48:57Z</time>
      </trkpt>
      <trkpt lat="47.2001" lon="6.30059">
        <ele>603.36450195312</ele>
        <time>2012-04-29T06:49:01Z</time>
      </trkpt>
      <trkpt lat="47.20017" lon="6.30063">
        <ele>602.40307617188</ele>
        <time>2012-04-29T06:49:02Z</time>
      </trkpt>
      <trkpt lat="47.20036" lon="6.30078">
        <ele>598.55786132812</ele>
        <time>2012-04-29T06:49:05Z</time>
      </trkpt>
      <trkpt lat="47.20041" lon="6.30082">
        <ele>598.07739257812</ele>
        <time>2012-04-29T06:49:06Z</time>
      </trkpt>
      <trkpt lat="47.20063" lon="6.30101">
        <ele>597.5966796875</ele>
        <time>2012-04-29T06:49:11Z</time>
      </trkpt>
      <trkpt lat="47.2007" lon="6.30107">
        <ele>596.15478515625</ele>
        <time>2012-04-29T06:49:13Z</time>
      </trkpt>
      <trkpt lat="47.20092" lon="6.30129">
        <ele>592.79028320312</ele>
        <time>2012-04-29T06:49:18Z</time>
      </trkpt>
      <trkpt lat="47.20108" lon="6.30142">
        <ele>591.82885742188</ele>
        <time>2012-04-29T06:49:21Z</time>
      </trkpt>
      <trkpt lat="47.20116" lon="6.30151">
        <ele>591.82885742188</ele>
        <time>2012-04-29T06:49:23Z</time>
      </trkpt>
      <trkpt lat="47.20131" lon="6.30156">
        <ele>590.38696289062</ele>
        <time>2012-04-29T06:49:27Z</time>
      </trkpt>
      <trkpt lat="47.20155" lon="6.30152">
        <ele>587.9833984375</ele>
        <time>2012-04-29T06:49:32Z</time>
      </trkpt>
      <trkpt lat="47.20158" lon="6.30136">
        <ele>586.54150390625</ele>
        <time>2012-04-29T06:49:35Z</time>
      </trkpt>
      <trkpt lat="47.20162" lon="6.30114">
        <ele>583.1767578125</ele>
        <time>2012-04-29T06:49:39Z</time>
      </trkpt>
      <trkpt lat="47.20169" lon="6.3011">
        <ele>583.65747070312</ele>
        <time>2012-04-29T06:49:42Z</time>
      </trkpt>
      <trkpt lat="47.2017" lon="6.30112">
        <ele>584.61889648438</ele>
        <time>2012-04-29T06:49:46Z</time>
      </trkpt>
      <trkpt lat="47.20175" lon="6.30109">
        <ele>585.099609375</ele>
        <time>2012-04-29T06:49:52Z</time>
      </trkpt>
      <trkpt lat="47.20181" lon="6.30109">
        <ele>586.06079101562</ele>
        <time>2012-04-29T06:49:56Z</time>
      </trkpt>
      <trkpt lat="47.20187" lon="6.30113">
        <ele>586.06079101562</ele>
        <time>2012-04-29T06:50:02Z</time>
      </trkpt>
      <trkpt lat="47.20188" lon="6.30115">
        <ele>587.02197265625</ele>
        <time>2012-04-29T06:50:04Z</time>
      </trkpt>
      <trkpt lat="47.20195" lon="6.30111">
        <ele>587.50268554688</ele>
        <time>2012-04-29T06:50:08Z</time>
      </trkpt>
      <trkpt lat="47.20201" lon="6.30096">
        <ele>588.94506835938</ele>
        <time>2012-04-29T06:50:13Z</time>
      </trkpt>
      <trkpt lat="47.2021" lon="6.3008">
        <ele>590.86743164062</ele>
        <time>2012-04-29T06:50:19Z</time>
      </trkpt>
      <trkpt lat="47.20215" lon="6.30064">
        <ele>592.79028320312</ele>
        <time>2012-04-29T06:50:25Z</time>
      </trkpt>
      <trkpt lat="47.20216" lon="6.30061">
        <ele>593.27075195312</ele>
        <time>2012-04-29T06:50:26Z</time>
      </trkpt>
      <trkpt lat="47.2022" lon="6.30052">
        <ele>593.75146484375</ele>
        <time>2012-04-29T06:50:31Z</time>
      </trkpt>
      <trkpt lat="47.20225" lon="6.30049">
        <ele>593.75146484375</ele>
        <time>2012-04-29T06:50:34Z</time>
      </trkpt>
      <trkpt lat="47.20228" lon="6.30036">
        <ele>593.75146484375</ele>
        <time>2012-04-29T06:50:39Z</time>
      </trkpt>
      <trkpt lat="47.20237" lon="6.3003">
        <ele>593.27075195312</ele>
        <time>2012-04-29T06:50:44Z</time>
      </trkpt>
      <trkpt lat="47.20244" lon="6.30017">
        <ele>593.27075195312</ele>
        <time>2012-04-29T06:50:48Z</time>
      </trkpt>
      <trkpt lat="47.20252" lon="6.30001">
        <ele>593.75146484375</ele>
        <time>2012-04-29T06:50:53Z</time>
      </trkpt>
      <trkpt lat="47.20264" lon="6.29982">
        <ele>594.23217773438</ele>
        <time>2012-04-29T06:51:00Z</time>
      </trkpt>
      <trkpt lat="47.20273" lon="6.29971">
        <ele>594.23217773438</ele>
        <time>2012-04-29T06:51:05Z</time>
      </trkpt>
      <trkpt lat="47.20282" lon="6.29959">
        <ele>594.71264648438</ele>
        <time>2012-04-29T06:51:11Z</time>
      </trkpt>
      <trkpt lat="47.20292" lon="6.29946">
        <ele>594.71264648438</ele>
        <time>2012-04-29T06:51:18Z</time>
      </trkpt>
      <trkpt lat="47.20301" lon="6.29936">
        <ele>594.23217773438</ele>
        <time>2012-04-29T06:51:23Z</time>
      </trkpt>
      <trkpt lat="47.20308" lon="6.29927">
        <ele>594.71264648438</ele>
        <time>2012-04-29T06:51:28Z</time>
      </trkpt>
      <trkpt lat="47.20317" lon="6.29915">
        <ele>595.67407226562</ele>
        <time>2012-04-29T06:51:35Z</time>
      </trkpt>
      <trkpt lat="47.20324" lon="6.29907">
        <ele>597.11596679688</ele>
        <time>2012-04-29T06:51:40Z</time>
      </trkpt>
      <trkpt lat="47.20332" lon="6.29897">
        <ele>597.11596679688</ele>
        <time>2012-04-29T06:51:45Z</time>
      </trkpt>
      <trkpt lat="47.20345" lon="6.29882">
        <ele>597.11596679688</ele>
        <time>2012-04-29T06:51:51Z</time>
      </trkpt>
      <trkpt lat="47.20353" lon="6.29872">
        <ele>595.67407226562</ele>
        <time>2012-04-29T06:51:54Z</time>
      </trkpt>
      <trkpt lat="47.20365" lon="6.29856">
        <ele>594.23217773438</ele>
        <time>2012-04-29T06:51:59Z</time>
      </trkpt>
      <trkpt lat="47.2038" lon="6.29836">
        <ele>594.23217773438</ele>
        <time>2012-04-29T06:52:04Z</time>
      </trkpt>
      <trkpt lat="47.20389" lon="6.29825">
        <ele>594.23217773438</ele>
        <time>2012-04-29T06:52:06Z</time>
      </trkpt>
      <trkpt lat="47.20411" lon="6.29801">
        <ele>592.3095703125</ele>
        <time>2012-04-29T06:52:11Z</time>
      </trkpt>
      <trkpt lat="47.20428" lon="6.29782">
        <ele>593.75146484375</ele>
        <time>2012-04-29T06:52:15Z</time>
      </trkpt>
      <trkpt lat="47.20445" lon="6.29764">
        <ele>594.71264648438</ele>
        <time>2012-04-29T06:52:19Z</time>
      </trkpt>
      <trkpt lat="47.20454" lon="6.29769">
        <ele>594.71264648438</ele>
        <time>2012-04-29T06:52:22Z</time>
      </trkpt>
      <trkpt lat="47.2046" lon="6.29778">
        <ele>595.193359375</ele>
        <time>2012-04-29T06:52:26Z</time>
      </trkpt>
      <trkpt lat="47.20467" lon="6.29785">
        <ele>594.71264648438</ele>
        <time>2012-04-29T06:52:31Z</time>
      </trkpt>
      <trkpt lat="47.20472" lon="6.29799">
        <ele>594.71264648438</ele>
        <time>2012-04-29T06:52:39Z</time>
      </trkpt>
      <trkpt lat="47.20472" lon="6.29801">
        <ele>595.193359375</ele>
        <time>2012-04-29T06:52:40Z</time>
      </trkpt>
      <trkpt lat="47.20473" lon="6.29809">
        <ele>595.67407226562</ele>
        <time>2012-04-29T06:52:43Z</time>
      </trkpt>
      <trkpt lat="47.20477" lon="6.29818">
        <ele>595.193359375</ele>
        <time>2012-04-29T06:52:50Z</time>
      </trkpt>
      <trkpt lat="47.20491" lon="6.29829">
        <ele>595.67407226562</ele>
        <time>2012-04-29T06:52:58Z</time>
      </trkpt>
      <trkpt lat="47.20498" lon="6.29845">
        <ele>596.63549804688</ele>
        <time>2012-04-29T06:53:03Z</time>
      </trkpt>
      <trkpt lat="47.20507" lon="6.29867">
        <ele>597.11596679688</ele>
        <time>2012-04-29T06:53:08Z</time>
      </trkpt>
      <trkpt lat="47.20507" lon="6.29872">
        <ele>597.11596679688</ele>
        <time>2012-04-29T06:53:09Z</time>
      </trkpt>
      <trkpt lat="47.20515" lon="6.29875">
        <ele>596.63549804688</ele>
        <time>2012-04-29T06:53:13Z</time>
      </trkpt>
      <trkpt lat="47.20521" lon="6.29867">
        <ele>596.63549804688</ele>
        <time>2012-04-29T06:53:16Z</time>
      </trkpt>
      <trkpt lat="47.20538" lon="6.29854">
        <ele>595.67407226562</ele>
        <time>2012-04-29T06:53:22Z</time>
      </trkpt>
      <trkpt lat="47.20551" lon="6.29842">
        <ele>594.71264648438</ele>
        <time>2012-04-29T06:53:27Z</time>
      </trkpt>
      <trkpt lat="47.2057" lon="6.29841">
        <ele>594.23217773438</ele>
        <time>2012-04-29T06:53:31Z</time>
      </trkpt>
      <trkpt lat="47.20584" lon="6.29857">
        <ele>595.193359375</ele>
        <time>2012-04-29T06:53:36Z</time>
      </trkpt>
      <trkpt lat="47.20593" lon="6.29875">
        <ele>595.193359375</ele>
        <time>2012-04-29T06:53:43Z</time>
      </trkpt>
      <trkpt lat="47.20599" lon="6.29887">
        <ele>595.193359375</ele>
        <time>2012-04-29T06:53:47Z</time>
      </trkpt>
      <trkpt lat="47.20604" lon="6.29902">
        <ele>595.193359375</ele>
        <time>2012-04-29T06:53:52Z</time>
      </trkpt>
      <trkpt lat="47.20611" lon="6.2992">
        <ele>595.193359375</ele>
        <time>2012-04-29T06:53:57Z</time>
      </trkpt>
      <trkpt lat="47.20614" lon="6.29925">
        <ele>595.67407226562</ele>
        <time>2012-04-29T06:53:59Z</time>
      </trkpt>
      <trkpt lat="47.20624" lon="6.2993">
        <ele>594.71264648438</ele>
        <time>2012-04-29T06:54:03Z</time>
      </trkpt>
      <trkpt lat="47.20645" lon="6.29935">
        <ele>594.23217773438</ele>
        <time>2012-04-29T06:54:08Z</time>
      </trkpt>
      <trkpt lat="47.20667" lon="6.29942">
        <ele>593.27075195312</ele>
        <time>2012-04-29T06:54:12Z</time>
      </trkpt>
      <trkpt lat="47.20671" lon="6.29945">
        <ele>592.79028320312</ele>
        <time>2012-04-29T06:54:13Z</time>
      </trkpt>
      <trkpt lat="47.2068" lon="6.29952">
        <ele>591.82885742188</ele>
        <time>2012-04-29T06:54:15Z</time>
      </trkpt>
      <trkpt lat="47.20699" lon="6.29966">
        <ele>590.38696289062</ele>
        <time>2012-04-29T06:54:19Z</time>
      </trkpt>
      <trkpt lat="47.20724" lon="6.29992">
        <ele>589.42553710938</ele>
        <time>2012-04-29T06:54:25Z</time>
      </trkpt>
      <trkpt lat="47.20747" lon="6.30023">
        <ele>588.94506835938</ele>
        <time>2012-04-29T06:54:32Z</time>
      </trkpt>
      <trkpt lat="47.20757" lon="6.30042">
        <ele>587.02197265625</ele>
        <time>2012-04-29T06:54:35Z</time>
      </trkpt>
      <trkpt lat="47.20771" lon="6.30079">
        <ele>588.46435546875</ele>
        <time>2012-04-29T06:54:41Z</time>
      </trkpt>
      <trkpt lat="47.20787" lon="6.30122">
        <ele>588.46435546875</ele>
        <time>2012-04-29T06:54:50Z</time>
      </trkpt>
      <trkpt lat="47.20803" lon="6.30164">
        <ele>590.86743164062</ele>
        <time>2012-04-29T06:54:59Z</time>
      </trkpt>
      <trkpt lat="47.20807" lon="6.30174">
        <ele>591.82885742188</ele>
        <time>2012-04-29T06:55:01Z</time>
      </trkpt>
      <trkpt lat="47.20808" lon="6.30179">
        <ele>593.27075195312</ele>
        <time>2012-04-29T06:55:02Z</time>
      </trkpt>
      <trkpt lat="47.20813" lon="6.3019">
        <ele>592.3095703125</ele>
        <time>2012-04-29T06:55:04Z</time>
      </trkpt>
      <trkpt lat="47.20829" lon="6.30239">
        <ele>593.27075195312</ele>
        <time>2012-04-29T06:55:12Z</time>
      </trkpt>
      <trkpt lat="47.20836" lon="6.3027">
        <ele>593.27075195312</ele>
        <time>2012-04-29T06:55:18Z</time>
      </trkpt>
      <trkpt lat="47.20843" lon="6.30296">
        <ele>593.27075195312</ele>
        <time>2012-04-29T06:55:23Z</time>
      </trkpt>
      <trkpt lat="47.20858" lon="6.3032">
        <ele>593.27075195312</ele>
        <time>2012-04-29T06:55:29Z</time>
      </trkpt>
      <trkpt lat="47.20875" lon="6.30349">
        <ele>592.79028320312</ele>
        <time>2012-04-29T06:55:35Z</time>
      </trkpt>
      <trkpt lat="47.20879" lon="6.30354">
        <ele>592.79028320312</ele>
        <time>2012-04-29T06:55:36Z</time>
      </trkpt>
      <trkpt lat="47.20903" lon="6.30391">
        <ele>591.82885742188</ele>
        <time>2012-04-29T06:55:44Z</time>
      </trkpt>
      <trkpt lat="47.20922" lon="6.30428">
        <ele>592.3095703125</ele>
        <time>2012-04-29T06:55:52Z</time>
      </trkpt>
      <trkpt lat="47.20941" lon="6.30469">
        <ele>592.3095703125</ele>
        <time>2012-04-29T06:56:00Z</time>
      </trkpt>
      <trkpt lat="47.20962" lon="6.30516">
        <ele>588.94506835938</ele>
        <time>2012-04-29T06:56:07Z</time>
      </trkpt>
      <trkpt lat="47.20984" lon="6.30552">
        <ele>587.9833984375</ele>
        <time>2012-04-29T06:56:13Z</time>
      </trkpt>
      <trkpt lat="47.21004" lon="6.30594">
        <ele>587.9833984375</ele>
        <time>2012-04-29T06:56:20Z</time>
      </trkpt>
      <trkpt lat="47.21019" lon="6.3063">
        <ele>588.46435546875</ele>
        <time>2012-04-29T06:56:27Z</time>
      </trkpt>
      <trkpt lat="47.21032" lon="6.30661">
        <ele>589.42553710938</ele>
        <time>2012-04-29T06:56:34Z</time>
      </trkpt>
      <trkpt lat="47.21045" lon="6.30669">
        <ele>587.9833984375</ele>
        <time>2012-04-29T06:56:39Z</time>
      </trkpt>
      <trkpt lat="47.2106" lon="6.30681">
        <ele>588.46435546875</ele>
        <time>2012-04-29T06:56:43Z</time>
      </trkpt>
      <trkpt lat="47.21087" lon="6.30699">
        <ele>587.50268554688</ele>
        <time>2012-04-29T06:56:49Z</time>
      </trkpt>
      <trkpt lat="47.21099" lon="6.30714">
        <ele>588.46435546875</ele>
        <time>2012-04-29T06:56:53Z</time>
      </trkpt>
      <trkpt lat="47.21107" lon="6.30734">
        <ele>588.46435546875</ele>
        <time>2012-04-29T06:56:58Z</time>
      </trkpt>
      <trkpt lat="47.21106" lon="6.3074">
        <ele>589.42553710938</ele>
        <time>2012-04-29T06:57:01Z</time>
      </trkpt>
      <trkpt lat="47.21099" lon="6.30748">
        <ele>589.90625</ele>
        <time>2012-04-29T06:57:06Z</time>
      </trkpt>
      <trkpt lat="47.21096" lon="6.30752">
        <ele>589.90625</ele>
        <time>2012-04-29T06:57:08Z</time>
      </trkpt>
      <trkpt lat="47.21091" lon="6.30768">
        <ele>589.90625</ele>
        <time>2012-04-29T06:57:14Z</time>
      </trkpt>
      <trkpt lat="47.2109" lon="6.3078">
        <ele>590.38696289062</ele>
        <time>2012-04-29T06:57:18Z</time>
      </trkpt>
      <trkpt lat="47.21097" lon="6.30793">
        <ele>589.90625</ele>
        <time>2012-04-29T06:57:24Z</time>
      </trkpt>
      <trkpt lat="47.21106" lon="6.30806">
        <ele>589.90625</ele>
        <time>2012-04-29T06:57:29Z</time>
      </trkpt>
      <trkpt lat="47.21113" lon="6.30818">
        <ele>589.90625</ele>
        <time>2012-04-29T06:57:34Z</time>
      </trkpt>
      <trkpt lat="47.21116" lon="6.30822">
        <ele>590.38696289062</ele>
        <time>2012-04-29T06:57:36Z</time>
      </trkpt>
      <trkpt lat="47.21127" lon="6.30837">
        <ele>591.34814453125</ele>
        <time>2012-04-29T06:57:42Z</time>
      </trkpt>
      <trkpt lat="47.21137" lon="6.30848">
        <ele>589.90625</ele>
        <time>2012-04-29T06:57:47Z</time>
      </trkpt>
      <trkpt lat="47.21146" lon="6.30864">
        <ele>589.90625</ele>
        <time>2012-04-29T06:57:53Z</time>
      </trkpt>
      <trkpt lat="47.2116" lon="6.30886">
        <ele>590.38696289062</ele>
        <time>2012-04-29T06:57:59Z</time>
      </trkpt>
      <trkpt lat="47.21173" lon="6.30905">
        <ele>589.42553710938</ele>
        <time>2012-04-29T06:58:06Z</time>
      </trkpt>
      <trkpt lat="47.21176" lon="6.3091">
        <ele>589.90625</ele>
        <time>2012-04-29T06:58:08Z</time>
      </trkpt>
      <trkpt lat="47.21185" lon="6.30927">
        <ele>589.90625</ele>
        <time>2012-04-29T06:58:14Z</time>
      </trkpt>
      <trkpt lat="47.21193" lon="6.30939">
        <ele>589.42553710938</ele>
        <time>2012-04-29T06:58:18Z</time>
      </trkpt>
      <trkpt lat="47.21207" lon="6.3096">
        <ele>589.90625</ele>
        <time>2012-04-29T06:58:25Z</time>
      </trkpt>
      <trkpt lat="47.2121" lon="6.30966">
        <ele>589.90625</ele>
        <time>2012-04-29T06:58:27Z</time>
      </trkpt>
      <trkpt lat="47.21227" lon="6.30975">
        <ele>589.90625</ele>
        <time>2012-04-29T06:58:33Z</time>
      </trkpt>
      <trkpt lat="47.21239" lon="6.30981">
        <ele>589.90625</ele>
        <time>2012-04-29T06:58:37Z</time>
      </trkpt>
      <trkpt lat="47.21252" lon="6.30986">
        <ele>589.90625</ele>
        <time>2012-04-29T06:58:41Z</time>
      </trkpt>
      <trkpt lat="47.21262" lon="6.31">
        <ele>589.90625</ele>
        <time>2012-04-29T06:58:46Z</time>
      </trkpt>
      <trkpt lat="47.21269" lon="6.31015">
        <ele>590.38696289062</ele>
        <time>2012-04-29T06:58:52Z</time>
      </trkpt>
      <trkpt lat="47.21276" lon="6.31028">
        <ele>592.3095703125</ele>
        <time>2012-04-29T06:58:57Z</time>
      </trkpt>
      <trkpt lat="47.21282" lon="6.3104">
        <ele>592.79028320312</ele>
        <time>2012-04-29T06:59:02Z</time>
      </trkpt>
      <trkpt lat="47.21289" lon="6.31049">
        <ele>593.27075195312</ele>
        <time>2012-04-29T06:59:07Z</time>
      </trkpt>
      <trkpt lat="47.21295" lon="6.31067">
        <ele>595.193359375</ele>
        <time>2012-04-29T06:59:13Z</time>
      </trkpt>
      <trkpt lat="47.21297" lon="6.31071">
        <ele>594.71264648438</ele>
        <time>2012-04-29T06:59:15Z</time>
      </trkpt>
      <trkpt lat="47.21309" lon="6.3109">
        <ele>595.67407226562</ele>
        <time>2012-04-29T06:59:23Z</time>
      </trkpt>
      <trkpt lat="47.21317" lon="6.31104">
        <ele>596.15478515625</ele>
        <time>2012-04-29T06:59:30Z</time>
      </trkpt>
      <trkpt lat="47.21326" lon="6.31116">
        <ele>597.11596679688</ele>
        <time>2012-04-29T06:59:37Z</time>
      </trkpt>
      <trkpt lat="47.21326" lon="6.31117">
        <ele>596.63549804688</ele>
        <time>2012-04-29T06:59:38Z</time>
      </trkpt>
      <trkpt lat="47.21336" lon="6.31129">
        <ele>598.07739257812</ele>
        <time>2012-04-29T06:59:46Z</time>
      </trkpt>
      <trkpt lat="47.21339" lon="6.31133">
        <ele>598.07739257812</ele>
        <time>2012-04-29T06:59:49Z</time>
      </trkpt>
      <trkpt lat="47.21347" lon="6.31143">
        <ele>599.51928710938</ele>
        <time>2012-04-29T06:59:57Z</time>
      </trkpt>
      <trkpt lat="47.21353" lon="6.31152">
        <ele>600</ele>
        <time>2012-04-29T07:00:03Z</time>
      </trkpt>
      <trkpt lat="47.21361" lon="6.31162">
        <ele>600.96118164062</ele>
        <time>2012-04-29T07:00:09Z</time>
      </trkpt>
      <trkpt lat="47.21371" lon="6.31175">
        <ele>601.92260742188</ele>
        <time>2012-04-29T07:00:17Z</time>
      </trkpt>
      <trkpt lat="47.21379" lon="6.31187">
        <ele>602.40307617188</ele>
        <time>2012-04-29T07:00:23Z</time>
      </trkpt>
      <trkpt lat="47.21391" lon="6.31199">
        <ele>603.36450195312</ele>
        <time>2012-04-29T07:00:28Z</time>
      </trkpt>
      <trkpt lat="47.21401" lon="6.31211">
        <ele>603.84521484375</ele>
        <time>2012-04-29T07:00:34Z</time>
      </trkpt>
      <trkpt lat="47.21412" lon="6.31228">
        <ele>604.326171875</ele>
        <time>2012-04-29T07:00:42Z</time>
      </trkpt>
      <trkpt lat="47.21425" lon="6.31246">
        <ele>605.28735351562</ele>
        <time>2012-04-29T07:00:50Z</time>
      </trkpt>
      <trkpt lat="47.21429" lon="6.31248">
        <ele>605.76806640625</ele>
        <time>2012-04-29T07:00:52Z</time>
      </trkpt>
      <trkpt lat="47.21432" lon="6.31254">
        <ele>606.72924804688</ele>
        <time>2012-04-29T07:00:54Z</time>
      </trkpt>
      <trkpt lat="47.21434" lon="6.31261">
        <ele>606.24853515625</ele>
        <time>2012-04-29T07:00:58Z</time>
      </trkpt>
      <trkpt lat="47.21434" lon="6.31261">
        <ele>605.28735351562</ele>
        <time>2012-04-29T07:01:00Z</time>
      </trkpt>
      <trkpt lat="47.21433" lon="6.31249">
        <ele>607.2099609375</ele>
        <time>2012-04-29T07:01:34Z</time>
      </trkpt>
      <trkpt lat="47.21433" lon="6.31251">
        <ele>607.2099609375</ele>
        <time>2012-04-29T07:01:42Z</time>
      </trkpt>
      <trkpt lat="47.21436" lon="6.31253">
        <ele>607.69067382812</ele>
        <time>2012-04-29T07:02:11Z</time>
      </trkpt>
      <trkpt lat="47.21439" lon="6.31253">
        <ele>607.69067382812</ele>
        <time>2012-04-29T07:02:33Z</time>
      </trkpt>
      <trkpt lat="47.21442" lon="6.31262">
        <ele>607.69067382812</ele>
        <time>2012-04-29T07:02:38Z</time>
      </trkpt>
      <trkpt lat="47.21448" lon="6.31268">
        <ele>608.65185546875</ele>
        <time>2012-04-29T07:02:43Z</time>
      </trkpt>
      <trkpt lat="47.21451" lon="6.31269">
        <ele>608.65185546875</ele>
        <time>2012-04-29T07:02:46Z</time>
      </trkpt>
      <trkpt lat="47.21457" lon="6.31265">
        <ele>608.17138671875</ele>
        <time>2012-04-29T07:02:50Z</time>
      </trkpt>
      <trkpt lat="47.21457" lon="6.31255">
        <ele>607.69067382812</ele>
        <time>2012-04-29T07:02:54Z</time>
      </trkpt>
      <trkpt lat="47.21463" lon="6.31248">
        <ele>607.69067382812</ele>
        <time>2012-04-29T07:02:59Z</time>
      </trkpt>
      <trkpt lat="47.21468" lon="6.31249">
        <ele>607.2099609375</ele>
        <time>2012-04-29T07:03:03Z</time>
      </trkpt>
      <trkpt lat="47.21473" lon="6.3125">
        <ele>606.72924804688</ele>
        <time>2012-04-29T07:03:07Z</time>
      </trkpt>
      <trkpt lat="47.21476" lon="6.31251">
        <ele>605.28735351562</ele>
        <time>2012-04-29T07:03:09Z</time>
      </trkpt>
      <trkpt lat="47.21481" lon="6.31254">
        <ele>602.40307617188</ele>
        <time>2012-04-29T07:03:11Z</time>
      </trkpt>
      <trkpt lat="47.21485" lon="6.31256">
        <ele>600.48071289062</ele>
        <time>2012-04-29T07:03:12Z</time>
      </trkpt>
      <trkpt lat="47.21495" lon="6.31265">
        <ele>598.55786132812</ele>
        <time>2012-04-29T07:03:15Z</time>
      </trkpt>
      <trkpt lat="47.21498" lon="6.31279">
        <ele>600</ele>
        <time>2012-04-29T07:03:19Z</time>
      </trkpt>
      <trkpt lat="47.21503" lon="6.31297">
        <ele>600</ele>
        <time>2012-04-29T07:03:25Z</time>
      </trkpt>
      <trkpt lat="47.21507" lon="6.31314">
        <ele>601.44189453125</ele>
        <time>2012-04-29T07:03:30Z</time>
      </trkpt>
      <trkpt lat="47.21515" lon="6.31336">
        <ele>604.326171875</ele>
        <time>2012-04-29T07:03:37Z</time>
      </trkpt>
      <trkpt lat="47.21516" lon="6.31339">
        <ele>604.326171875</ele>
        <time>2012-04-29T07:03:38Z</time>
      </trkpt>
      <trkpt lat="47.21524" lon="6.31351">
        <ele>605.28735351562</ele>
        <time>2012-04-29T07:03:44Z</time>
      </trkpt>
      <trkpt lat="47.21531" lon="6.31364">
        <ele>606.24853515625</ele>
        <time>2012-04-29T07:03:49Z</time>
      </trkpt>
      <trkpt lat="47.21537" lon="6.31377">
        <ele>607.2099609375</ele>
        <time>2012-04-29T07:03:55Z</time>
      </trkpt>
      <trkpt lat="47.2154" lon="6.31382">
        <ele>608.17138671875</ele>
        <time>2012-04-29T07:03:58Z</time>
      </trkpt>
      <trkpt lat="47.21546" lon="6.31395">
        <ele>609.61328125</ele>
        <time>2012-04-29T07:04:05Z</time>
      </trkpt>
      <trkpt lat="47.21552" lon="6.31403">
        <ele>609.61328125</ele>
        <time>2012-04-29T07:04:11Z</time>
      </trkpt>
      <trkpt lat="47.21561" lon="6.31421">
        <ele>609.61328125</ele>
        <time>2012-04-29T07:04:17Z</time>
      </trkpt>
      <trkpt lat="47.21562" lon="6.31424">
        <ele>610.09375</ele>
        <time>2012-04-29T07:04:18Z</time>
      </trkpt>
      <trkpt lat="47.21564" lon="6.3143">
        <ele>611.53588867188</ele>
        <time>2012-04-29T07:04:25Z</time>
      </trkpt>
      <trkpt lat="47.21566" lon="6.31435">
        <ele>611.53588867188</ele>
        <time>2012-04-29T07:04:32Z</time>
      </trkpt>
      <trkpt lat="47.21569" lon="6.31439">
        <ele>612.97778320312</ele>
        <time>2012-04-29T07:04:38Z</time>
      </trkpt>
      <trkpt lat="47.21572" lon="6.31442">
        <ele>612.97778320312</ele>
        <time>2012-04-29T07:04:44Z</time>
      </trkpt>
      <trkpt lat="47.21576" lon="6.31447">
        <ele>613.45849609375</ele>
        <time>2012-04-29T07:04:53Z</time>
      </trkpt>
      <trkpt lat="47.2158" lon="6.31449">
        <ele>613.45849609375</ele>
        <time>2012-04-29T07:04:57Z</time>
      </trkpt>
      <trkpt lat="47.21584" lon="6.31455">
        <ele>614.900390625</ele>
        <time>2012-04-29T07:05:03Z</time>
      </trkpt>
      <trkpt lat="47.21589" lon="6.31462">
        <ele>614.900390625</ele>
        <time>2012-04-29T07:05:09Z</time>
      </trkpt>
      <trkpt lat="47.21594" lon="6.31472">
        <ele>614.900390625</ele>
        <time>2012-04-29T07:05:14Z</time>
      </trkpt>
      <trkpt lat="47.216" lon="6.31479">
        <ele>616.34228515625</ele>
        <time>2012-04-29T07:05:20Z</time>
      </trkpt>
      <trkpt lat="47.21602" lon="6.31481">
        <ele>617.3037109375</ele>
        <time>2012-04-29T07:05:21Z</time>
      </trkpt>
      <trkpt lat="47.21605" lon="6.31484">
        <ele>617.7841796875</ele>
        <time>2012-04-29T07:05:23Z</time>
      </trkpt>
      <trkpt lat="47.21612" lon="6.31495">
        <ele>619.22631835938</ele>
        <time>2012-04-29T07:05:29Z</time>
      </trkpt>
      <trkpt lat="47.21615" lon="6.31498">
        <ele>619.70703125</ele>
        <time>2012-04-29T07:05:31Z</time>
      </trkpt>
      <trkpt lat="47.2162" lon="6.31505">
        <ele>619.70703125</ele>
        <time>2012-04-29T07:05:35Z</time>
      </trkpt>
      <trkpt lat="47.21628" lon="6.31515">
        <ele>619.70703125</ele>
        <time>2012-04-29T07:05:42Z</time>
      </trkpt>
      <trkpt lat="47.2163" lon="6.31518">
        <ele>620.18774414062</ele>
        <time>2012-04-29T07:05:44Z</time>
      </trkpt>
      <trkpt lat="47.21631" lon="6.31521">
        <ele>620.66845703125</ele>
        <time>2012-04-29T07:05:46Z</time>
      </trkpt>
      <trkpt lat="47.21637" lon="6.3153">
        <ele>620.18774414062</ele>
        <time>2012-04-29T07:05:51Z</time>
      </trkpt>
      <trkpt lat="47.21643" lon="6.3154">
        <ele>621.14916992188</ele>
        <time>2012-04-29T07:05:57Z</time>
      </trkpt>
      <trkpt lat="47.2165" lon="6.31552">
        <ele>622.59106445312</ele>
        <time>2012-04-29T07:06:02Z</time>
      </trkpt>
      <trkpt lat="47.21661" lon="6.31569">
        <ele>621.62963867188</ele>
        <time>2012-04-29T07:06:08Z</time>
      </trkpt>
      <trkpt lat="47.21677" lon="6.31591">
        <ele>619.70703125</ele>
        <time>2012-04-29T07:06:14Z</time>
      </trkpt>
      <trkpt lat="47.2168" lon="6.31596">
        <ele>619.70703125</ele>
        <time>2012-04-29T07:06:15Z</time>
      </trkpt>
      <trkpt lat="47.21682" lon="6.316">
        <ele>619.22631835938</ele>
        <time>2012-04-29T07:06:16Z</time>
      </trkpt>
      <trkpt lat="47.21695" lon="6.31619">
        <ele>614.41967773438</ele>
        <time>2012-04-29T07:06:20Z</time>
      </trkpt>
      <trkpt lat="47.21705" lon="6.31633">
        <ele>610.57446289062</ele>
        <time>2012-04-29T07:06:24Z</time>
      </trkpt>
      <trkpt lat="47.21709" lon="6.31642">
        <ele>606.24853515625</ele>
        <time>2012-04-29T07:06:26Z</time>
      </trkpt>
      <trkpt lat="47.21714" lon="6.3165">
        <ele>603.36450195312</ele>
        <time>2012-04-29T07:06:28Z</time>
      </trkpt>
      <trkpt lat="47.21726" lon="6.31674">
        <ele>596.63549804688</ele>
        <time>2012-04-29T07:06:32Z</time>
      </trkpt>
      <trkpt lat="47.21729" lon="6.3168">
        <ele>595.67407226562</ele>
        <time>2012-04-29T07:06:33Z</time>
      </trkpt>
      <trkpt lat="47.21742" lon="6.31701">
        <ele>591.34814453125</ele>
        <time>2012-04-29T07:06:37Z</time>
      </trkpt>
      <trkpt lat="47.21751" lon="6.31709">
        <ele>589.90625</ele>
        <time>2012-04-29T07:06:39Z</time>
      </trkpt>
      <trkpt lat="47.21775" lon="6.31735">
        <ele>588.46435546875</ele>
        <time>2012-04-29T07:06:43Z</time>
      </trkpt>
      <trkpt lat="47.21804" lon="6.31765">
        <ele>587.9833984375</ele>
        <time>2012-04-29T07:06:47Z</time>
      </trkpt>
      <trkpt lat="47.21829" lon="6.31795">
        <ele>586.54150390625</ele>
        <time>2012-04-29T07:06:51Z</time>
      </trkpt>
      <trkpt lat="47.21852" lon="6.31816">
        <ele>585.099609375</ele>
        <time>2012-04-29T07:06:56Z</time>
      </trkpt>
      <trkpt lat="47.21861" lon="6.31829">
        <ele>584.61889648438</ele>
        <time>2012-04-29T07:07:00Z</time>
      </trkpt>
      <trkpt lat="47.21869" lon="6.31848">
        <ele>584.61889648438</ele>
        <time>2012-04-29T07:07:05Z</time>
      </trkpt>
      <trkpt lat="47.21883" lon="6.31869">
        <ele>582.6962890625</ele>
        <time>2012-04-29T07:07:10Z</time>
      </trkpt>
      <trkpt lat="47.21895" lon="6.31884">
        <ele>581.25439453125</ele>
        <time>2012-04-29T07:07:13Z</time>
      </trkpt>
      <trkpt lat="47.21912" lon="6.31908">
        <ele>581.73486328125</ele>
        <time>2012-04-29T07:07:18Z</time>
      </trkpt>
      <trkpt lat="47.21918" lon="6.31914">
        <ele>581.25439453125</ele>
        <time>2012-04-29T07:07:22Z</time>
      </trkpt>
      <trkpt lat="47.21918" lon="6.31916">
        <ele>581.25439453125</ele>
        <time>2012-04-29T07:07:28Z</time>
      </trkpt>
      <trkpt lat="47.2192" lon="6.31918">
        <ele>581.25439453125</ele>
        <time>2012-04-29T07:07:35Z</time>
      </trkpt>
      <trkpt lat="47.21923" lon="6.31922">
        <ele>579.33154296875</ele>
        <time>2012-04-29T07:07:38Z</time>
      </trkpt>
      <trkpt lat="47.21937" lon="6.31929">
        <ele>576.92846679688</ele>
        <time>2012-04-29T07:07:43Z</time>
      </trkpt>
      <trkpt lat="47.21941" lon="6.31931">
        <ele>576.44775390625</ele>
        <time>2012-04-29T07:07:44Z</time>
      </trkpt>
      <trkpt lat="47.21946" lon="6.31933">
        <ele>575.486328125</ele>
        <time>2012-04-29T07:07:45Z</time>
      </trkpt>
      <trkpt lat="47.21954" lon="6.31939">
        <ele>574.52514648438</ele>
        <time>2012-04-29T07:07:47Z</time>
      </trkpt>
      <trkpt lat="47.21959" lon="6.31944">
        <ele>574.04443359375</ele>
        <time>2012-04-29T07:07:48Z</time>
      </trkpt>
      <trkpt lat="47.21968" lon="6.31952">
        <ele>573.08325195312</ele>
        <time>2012-04-29T07:07:50Z</time>
      </trkpt>
      <trkpt lat="47.21982" lon="6.31973">
        <ele>572.12182617188</ele>
        <time>2012-04-29T07:07:55Z</time>
      </trkpt>
      <trkpt lat="47.21996" lon="6.31991">
        <ele>570.6796875</ele>
        <time>2012-04-29T07:08:00Z</time>
      </trkpt>
      <trkpt lat="47.21999" lon="6.31994">
        <ele>571.16040039062</ele>
        <time>2012-04-29T07:08:01Z</time>
      </trkpt>
      <trkpt lat="47.22002" lon="6.31999">
        <ele>571.16040039062</ele>
        <time>2012-04-29T07:08:03Z</time>
      </trkpt>
      <trkpt lat="47.22002" lon="6.32006">
        <ele>571.16040039062</ele>
        <time>2012-04-29T07:08:05Z</time>
      </trkpt>
      <trkpt lat="47.21999" lon="6.32021">
        <ele>572.6025390625</ele>
        <time>2012-04-29T07:08:12Z</time>
      </trkpt>
      <trkpt lat="47.21989" lon="6.32028">
        <ele>574.04443359375</ele>
        <time>2012-04-29T07:08:18Z</time>
      </trkpt>
      <trkpt lat="47.21983" lon="6.32033">
        <ele>574.52514648438</ele>
        <time>2012-04-29T07:08:23Z</time>
      </trkpt>
      <trkpt lat="47.21981" lon="6.32035">
        <ele>575.005859375</ele>
        <time>2012-04-29T07:08:25Z</time>
      </trkpt>
      <trkpt lat="47.21977" lon="6.32037">
        <ele>575.96704101562</ele>
        <time>2012-04-29T07:08:28Z</time>
      </trkpt>
      <trkpt lat="47.21967" lon="6.32039">
        <ele>577.4091796875</ele>
        <time>2012-04-29T07:08:35Z</time>
      </trkpt>
      <trkpt lat="47.21964" lon="6.32039">
        <ele>578.85107421875</ele>
        <time>2012-04-29T07:08:38Z</time>
      </trkpt>
      <trkpt lat="47.21955" lon="6.32038">
        <ele>582.21557617188</ele>
        <time>2012-04-29T07:08:47Z</time>
      </trkpt>
      <trkpt lat="47.21946" lon="6.32035">
        <ele>582.21557617188</ele>
        <time>2012-04-29T07:08:54Z</time>
      </trkpt>
      <trkpt lat="47.21938" lon="6.32036">
        <ele>583.1767578125</ele>
        <time>2012-04-29T07:09:01Z</time>
      </trkpt>
      <trkpt lat="47.21933" lon="6.3204">
        <ele>583.1767578125</ele>
        <time>2012-04-29T07:09:08Z</time>
      </trkpt>
      <trkpt lat="47.2193" lon="6.32043">
        <ele>584.61889648438</ele>
        <time>2012-04-29T07:09:12Z</time>
      </trkpt>
      <trkpt lat="47.21926" lon="6.3205">
        <ele>586.06079101562</ele>
        <time>2012-04-29T07:09:20Z</time>
      </trkpt>
      <trkpt lat="47.21925" lon="6.32054">
        <ele>587.50268554688</ele>
        <time>2012-04-29T07:09:27Z</time>
      </trkpt>
      <trkpt lat="47.21924" lon="6.32056">
        <ele>587.50268554688</ele>
        <time>2012-04-29T07:09:33Z</time>
      </trkpt>
      <trkpt lat="47.21923" lon="6.32061">
        <ele>587.9833984375</ele>
        <time>2012-04-29T07:09:39Z</time>
      </trkpt>
      <trkpt lat="47.21922" lon="6.32065">
        <ele>588.94506835938</ele>
        <time>2012-04-29T07:09:46Z</time>
      </trkpt>
      <trkpt lat="47.2192" lon="6.32065">
        <ele>588.94506835938</ele>
        <time>2012-04-29T07:09:52Z</time>
      </trkpt>
      <trkpt lat="47.21913" lon="6.32066">
        <ele>590.86743164062</ele>
        <time>2012-04-29T07:10:01Z</time>
      </trkpt>
      <trkpt lat="47.21908" lon="6.32069">
        <ele>592.3095703125</ele>
        <time>2012-04-29T07:10:08Z</time>
      </trkpt>
      <trkpt lat="47.21907" lon="6.3207">
        <ele>590.86743164062</ele>
        <time>2012-04-29T07:10:13Z</time>
      </trkpt>
      <trkpt lat="47.21907" lon="6.3207">
        <ele>590.38696289062</ele>
        <time>2012-04-29T07:10:19Z</time>
      </trkpt>
      <trkpt lat="47.21909" lon="6.32067">
        <ele>590.86743164062</ele>
        <time>2012-04-29T07:10:29Z</time>
      </trkpt>
      <trkpt lat="47.21907" lon="6.32064">
        <ele>580.77368164062</ele>
        <time>2012-04-29T07:10:37Z</time>
      </trkpt>
      <trkpt lat="47.21907" lon="6.32063">
        <ele>592.3095703125</ele>
        <time>2012-04-29T07:10:38Z</time>
      </trkpt>
      <trkpt lat="47.21906" lon="6.32063">
        <ele>592.3095703125</ele>
        <time>2012-04-29T07:10:39Z</time>
      </trkpt>
      <trkpt lat="47.21914" lon="6.32057">
        <ele>590.86743164062</ele>
        <time>2012-04-29T07:10:47Z</time>
      </trkpt>
      <trkpt lat="47.2191" lon="6.3206">
        <ele>591.34814453125</ele>
        <time>2012-04-29T07:11:03Z</time>
      </trkpt>
      <trkpt lat="47.21909" lon="6.32067">
        <ele>591.82885742188</ele>
        <time>2012-04-29T07:11:21Z</time>
      </trkpt>
      <trkpt lat="47.21907" lon="6.32061">
        <ele>590.86743164062</ele>
        <time>2012-04-29T07:11:33Z</time>
      </trkpt>
      <trkpt lat="47.21906" lon="6.32059">
        <ele>590.86743164062</ele>
        <time>2012-04-29T07:11:37Z</time>
      </trkpt>
      <trkpt lat="47.21902" lon="6.32061">
        <ele>591.34814453125</ele>
        <time>2012-04-29T07:11:44Z</time>
      </trkpt>
      <trkpt lat="47.21904" lon="6.3206">
        <ele>590.86743164062</ele>
        <time>2012-04-29T07:11:54Z</time>
      </trkpt>
      <trkpt lat="47.21901" lon="6.32061">
        <ele>586.54150390625</ele>
        <time>2012-04-29T07:12:08Z</time>
      </trkpt>
      <trkpt lat="47.21901" lon="6.3206">
        <ele>594.23217773438</ele>
        <time>2012-04-29T07:12:09Z</time>
      </trkpt>
      <trkpt lat="47.21901" lon="6.32059">
        <ele>590.38696289062</ele>
        <time>2012-04-29T07:12:10Z</time>
      </trkpt>
      <trkpt lat="47.21898" lon="6.32054">
        <ele>590.38696289062</ele>
        <time>2012-04-29T07:12:30Z</time>
      </trkpt>
      <trkpt lat="47.21897" lon="6.32052">
        <ele>593.75146484375</ele>
        <time>2012-04-29T07:12:32Z</time>
      </trkpt>
      <trkpt lat="47.21897" lon="6.32052">
        <ele>593.27075195312</ele>
        <time>2012-04-29T07:12:33Z</time>
      </trkpt>
      <trkpt lat="47.21898" lon="6.32054">
        <ele>589.90625</ele>
        <time>2012-04-29T07:12:35Z</time>
      </trkpt>
      <trkpt lat="47.21897" lon="6.32064">
        <ele>592.3095703125</ele>
        <time>2012-04-29T07:12:47Z</time>
      </trkpt>
      <trkpt lat="47.219" lon="6.32065">
        <ele>591.34814453125</ele>
        <time>2012-04-29T07:12:55Z</time>
      </trkpt>
      <trkpt lat="47.219" lon="6.32055">
        <ele>591.34814453125</ele>
        <time>2012-04-29T07:13:11Z</time>
      </trkpt>
      <trkpt lat="47.21905" lon="6.32052">
        <ele>591.34814453125</ele>
        <time>2012-04-29T07:13:31Z</time>
      </trkpt>
      <trkpt lat="47.21907" lon="6.32054">
        <ele>591.82885742188</ele>
        <time>2012-04-29T07:13:40Z</time>
      </trkpt>
      <trkpt lat="47.21903" lon="6.32051">
        <ele>592.3095703125</ele>
        <time>2012-04-29T07:13:55Z</time>
      </trkpt>
      <trkpt lat="47.21907" lon="6.32054">
        <ele>592.3095703125</ele>
        <time>2012-04-29T07:14:20Z</time>
      </trkpt>
      <trkpt lat="47.21903" lon="6.32053">
        <ele>592.79028320312</ele>
        <time>2012-04-29T07:14:28Z</time>
      </trkpt>
      <trkpt lat="47.21902" lon="6.32053">
        <ele>592.79028320312</ele>
        <time>2012-04-29T07:14:36Z</time>
      </trkpt>
      <trkpt lat="47.21904" lon="6.32058">
        <ele>593.27075195312</ele>
        <time>2012-04-29T07:14:55Z</time>
      </trkpt>
      <trkpt lat="47.21904" lon="6.32056">
        <ele>592.3095703125</ele>
        <time>2012-04-29T07:15:03Z</time>
      </trkpt>
      <trkpt lat="47.21898" lon="6.32071">
        <ele>592.79028320312</ele>
        <time>2012-04-29T07:15:24Z</time>
      </trkpt>
      <trkpt lat="47.21906" lon="6.32073">
        <ele>591.82885742188</ele>
        <time>2012-04-29T07:15:35Z</time>
      </trkpt>
      <trkpt lat="47.21918" lon="6.32073">
        <ele>592.79028320312</ele>
        <time>2012-04-29T07:15:43Z</time>
      </trkpt>
      <trkpt lat="47.21928" lon="6.32078">
        <ele>592.79028320312</ele>
        <time>2012-04-29T07:15:50Z</time>
      </trkpt>
      <trkpt lat="47.21925" lon="6.32076">
        <ele>592.3095703125</ele>
        <time>2012-04-29T07:15:59Z</time>
      </trkpt>
      <trkpt lat="47.2192" lon="6.32072">
        <ele>592.3095703125</ele>
        <time>2012-04-29T07:16:03Z</time>
      </trkpt>
      <trkpt lat="47.21924" lon="6.3207">
        <ele>592.79028320312</ele>
        <time>2012-04-29T07:16:10Z</time>
      </trkpt>
      <trkpt lat="47.21915" lon="6.3207">
        <ele>594.23217773438</ele>
        <time>2012-04-29T07:16:15Z</time>
      </trkpt>
      <trkpt lat="47.21915" lon="6.32069">
        <ele>594.23217773438</ele>
        <time>2012-04-29T07:16:16Z</time>
      </trkpt>
      <trkpt lat="47.21914" lon="6.32068">
        <ele>594.23217773438</ele>
        <time>2012-04-29T07:16:19Z</time>
      </trkpt>
      <trkpt lat="47.2191" lon="6.32069">
        <ele>594.71264648438</ele>
        <time>2012-04-29T07:16:27Z</time>
      </trkpt>
      <trkpt lat="47.21911" lon="6.32069">
        <ele>594.23217773438</ele>
        <time>2012-04-29T07:16:37Z</time>
      </trkpt>
      <trkpt lat="47.21907" lon="6.3207">
        <ele>594.71264648438</ele>
        <time>2012-04-29T07:16:52Z</time>
      </trkpt>
      <trkpt lat="47.21907" lon="6.32074">
        <ele>594.71264648438</ele>
        <time>2012-04-29T07:16:56Z</time>
      </trkpt>
      <trkpt lat="47.21905" lon="6.32078">
        <ele>594.23217773438</ele>
        <time>2012-04-29T07:16:58Z</time>
      </trkpt>
      <trkpt lat="47.21905" lon="6.32083">
        <ele>594.23217773438</ele>
        <time>2012-04-29T07:17:01Z</time>
      </trkpt>
      <trkpt lat="47.21907" lon="6.32104">
        <ele>591.82885742188</ele>
        <time>2012-04-29T07:17:07Z</time>
      </trkpt>
      <trkpt lat="47.21905" lon="6.32108">
        <ele>591.82885742188</ele>
        <time>2012-04-29T07:17:10Z</time>
      </trkpt>
      <trkpt lat="47.21896" lon="6.32109">
        <ele>591.82885742188</ele>
        <time>2012-04-29T07:17:16Z</time>
      </trkpt>
      <trkpt lat="47.21893" lon="6.32119">
        <ele>589.90625</ele>
        <time>2012-04-29T07:17:21Z</time>
      </trkpt>
      <trkpt lat="47.21896" lon="6.32136">
        <ele>588.94506835938</ele>
        <time>2012-04-29T07:17:25Z</time>
      </trkpt>
      <trkpt lat="47.2189" lon="6.32155">
        <ele>588.46435546875</ele>
        <time>2012-04-29T07:17:29Z</time>
      </trkpt>
      <trkpt lat="47.21884" lon="6.32163">
        <ele>587.9833984375</ele>
        <time>2012-04-29T07:17:33Z</time>
      </trkpt>
      <trkpt lat="47.21875" lon="6.3216">
        <ele>588.46435546875</ele>
        <time>2012-04-29T07:17:38Z</time>
      </trkpt>
      <trkpt lat="47.21866" lon="6.32155">
        <ele>589.42553710938</ele>
        <time>2012-04-29T07:17:42Z</time>
      </trkpt>
      <trkpt lat="47.21858" lon="6.32156">
        <ele>589.42553710938</ele>
        <time>2012-04-29T07:17:47Z</time>
      </trkpt>
      <trkpt lat="47.21853" lon="6.32158">
        <ele>590.86743164062</ele>
        <time>2012-04-29T07:17:53Z</time>
      </trkpt>
      <trkpt lat="47.21844" lon="6.32154">
        <ele>591.34814453125</ele>
        <time>2012-04-29T07:17:58Z</time>
      </trkpt>
      <trkpt lat="47.21836" lon="6.32146">
        <ele>592.79028320312</ele>
        <time>2012-04-29T07:18:04Z</time>
      </trkpt>
      <trkpt lat="47.21827" lon="6.32136">
        <ele>594.23217773438</ele>
        <time>2012-04-29T07:18:09Z</time>
      </trkpt>
      <trkpt lat="47.21819" lon="6.32129">
        <ele>594.23217773438</ele>
        <time>2012-04-29T07:18:14Z</time>
      </trkpt>
      <trkpt lat="47.2181" lon="6.32126">
        <ele>594.71264648438</ele>
        <time>2012-04-29T07:18:20Z</time>
      </trkpt>
      <trkpt lat="47.21809" lon="6.32125">
        <ele>595.193359375</ele>
        <time>2012-04-29T07:18:21Z</time>
      </trkpt>
      <trkpt lat="47.21798" lon="6.32129">
        <ele>596.15478515625</ele>
        <time>2012-04-29T07:18:28Z</time>
      </trkpt>
      <trkpt lat="47.21793" lon="6.32128">
        <ele>597.11596679688</ele>
        <time>2012-04-29T07:18:33Z</time>
      </trkpt>
      <trkpt lat="47.21784" lon="6.32128">
        <ele>598.55786132812</ele>
        <time>2012-04-29T07:18:41Z</time>
      </trkpt>
      <trkpt lat="47.2178" lon="6.32126">
        <ele>600</ele>
        <time>2012-04-29T07:18:44Z</time>
      </trkpt>
      <trkpt lat="47.21777" lon="6.32125">
        <ele>600.96118164062</ele>
        <time>2012-04-29T07:18:49Z</time>
      </trkpt>
      <trkpt lat="47.21773" lon="6.32125">
        <ele>601.44189453125</ele>
        <time>2012-04-29T07:18:56Z</time>
      </trkpt>
      <trkpt lat="47.21767" lon="6.32121">
        <ele>602.40307617188</ele>
        <time>2012-04-29T07:19:15Z</time>
      </trkpt>
      <trkpt lat="47.21763" lon="6.32123">
        <ele>602.40307617188</ele>
        <time>2012-04-29T07:19:22Z</time>
      </trkpt>
      <trkpt lat="47.21759" lon="6.32117">
        <ele>603.36450195312</ele>
        <time>2012-04-29T07:19:36Z</time>
      </trkpt>
      <trkpt lat="47.21754" lon="6.32118">
        <ele>605.28735351562</ele>
        <time>2012-04-29T07:19:40Z</time>
      </trkpt>
      <trkpt lat="47.21751" lon="6.32119">
        <ele>606.72924804688</ele>
        <time>2012-04-29T07:19:46Z</time>
      </trkpt>
      <trkpt lat="47.21747" lon="6.32117">
        <ele>607.69067382812</ele>
        <time>2012-04-29T07:19:53Z</time>
      </trkpt>
      <trkpt lat="47.21743" lon="6.32119">
        <ele>608.65185546875</ele>
        <time>2012-04-29T07:20:00Z</time>
      </trkpt>
      <trkpt lat="47.2174" lon="6.32117">
        <ele>609.13256835938</ele>
        <time>2012-04-29T07:20:06Z</time>
      </trkpt>
      <trkpt lat="47.21738" lon="6.32116">
        <ele>610.09375</ele>
        <time>2012-04-29T07:20:11Z</time>
      </trkpt>
      <trkpt lat="47.21733" lon="6.32116">
        <ele>611.05517578125</ele>
        <time>2012-04-29T07:20:18Z</time>
      </trkpt>
      <trkpt lat="47.21729" lon="6.32116">
        <ele>612.4970703125</ele>
        <time>2012-04-29T07:20:26Z</time>
      </trkpt>
      <trkpt lat="47.21725" lon="6.32117">
        <ele>613.93896484375</ele>
        <time>2012-04-29T07:20:32Z</time>
      </trkpt>
      <trkpt lat="47.21722" lon="6.32119">
        <ele>614.900390625</ele>
        <time>2012-04-29T07:20:38Z</time>
      </trkpt>
      <trkpt lat="47.2172" lon="6.32119">
        <ele>615.86181640625</ele>
        <time>2012-04-29T07:20:45Z</time>
      </trkpt>
      <trkpt lat="47.21716" lon="6.32118">
        <ele>615.86181640625</ele>
        <time>2012-04-29T07:20:51Z</time>
      </trkpt>
      <trkpt lat="47.21713" lon="6.32118">
        <ele>616.34228515625</ele>
        <time>2012-04-29T07:20:56Z</time>
      </trkpt>
      <trkpt lat="47.21712" lon="6.32122">
        <ele>616.82299804688</ele>
        <time>2012-04-29T07:21:02Z</time>
      </trkpt>
      <trkpt lat="47.21709" lon="6.32128">
        <ele>618.26489257812</ele>
        <time>2012-04-29T07:21:09Z</time>
      </trkpt>
      <trkpt lat="47.21707" lon="6.32134">
        <ele>619.22631835938</ele>
        <time>2012-04-29T07:21:16Z</time>
      </trkpt>
      <trkpt lat="47.21704" lon="6.32135">
        <ele>619.70703125</ele>
        <time>2012-04-29T07:21:22Z</time>
      </trkpt>
      <trkpt lat="47.21697" lon="6.32144">
        <ele>619.22631835938</ele>
        <time>2012-04-29T07:21:40Z</time>
      </trkpt>
      <trkpt lat="47.21696" lon="6.32146">
        <ele>619.22631835938</ele>
        <time>2012-04-29T07:21:43Z</time>
      </trkpt>
      <trkpt lat="47.2169" lon="6.32148">
        <ele>617.7841796875</ele>
        <time>2012-04-29T07:21:46Z</time>
      </trkpt>
      <trkpt lat="47.21669" lon="6.32154">
        <ele>614.900390625</ele>
        <time>2012-04-29T07:21:51Z</time>
      </trkpt>
      <trkpt lat="47.21656" lon="6.32157">
        <ele>613.93896484375</ele>
        <time>2012-04-29T07:21:54Z</time>
      </trkpt>
      <trkpt lat="47.2164" lon="6.32174">
        <ele>612.97778320312</ele>
        <time>2012-04-29T07:21:59Z</time>
      </trkpt>
      <trkpt lat="47.21637" lon="6.32184">
        <ele>613.45849609375</ele>
        <time>2012-04-29T07:22:03Z</time>
      </trkpt>
      <trkpt lat="47.21643" lon="6.3219">
        <ele>612.97778320312</ele>
        <time>2012-04-29T07:22:07Z</time>
      </trkpt>
      <trkpt lat="47.21645" lon="6.32192">
        <ele>613.93896484375</ele>
        <time>2012-04-29T07:22:08Z</time>
      </trkpt>
      <trkpt lat="47.21669" lon="6.32208">
        <ele>613.45849609375</ele>
        <time>2012-04-29T07:22:13Z</time>
      </trkpt>
      <trkpt lat="47.21689" lon="6.32226">
        <ele>612.97778320312</ele>
        <time>2012-04-29T07:22:17Z</time>
      </trkpt>
      <trkpt lat="47.21701" lon="6.32241">
        <ele>612.4970703125</ele>
        <time>2012-04-29T07:22:21Z</time>
      </trkpt>
      <trkpt lat="47.21713" lon="6.32265">
        <ele>608.65185546875</ele>
        <time>2012-04-29T07:22:25Z</time>
      </trkpt>
      <trkpt lat="47.21717" lon="6.32271">
        <ele>608.65185546875</ele>
        <time>2012-04-29T07:22:26Z</time>
      </trkpt>
      <trkpt lat="47.21725" lon="6.32282">
        <ele>607.69067382812</ele>
        <time>2012-04-29T07:22:28Z</time>
      </trkpt>
      <trkpt lat="47.21751" lon="6.32293">
        <ele>609.13256835938</ele>
        <time>2012-04-29T07:22:33Z</time>
      </trkpt>
      <trkpt lat="47.21773" lon="6.32306">
        <ele>611.05517578125</ele>
        <time>2012-04-29T07:22:39Z</time>
      </trkpt>
      <trkpt lat="47.21782" lon="6.32307">
        <ele>611.05517578125</ele>
        <time>2012-04-29T07:22:43Z</time>
      </trkpt>
      <trkpt lat="47.21791" lon="6.32309">
        <ele>612.0166015625</ele>
        <time>2012-04-29T07:22:46Z</time>
      </trkpt>
      <trkpt lat="47.21809" lon="6.32313">
        <ele>612.97778320312</ele>
        <time>2012-04-29T07:22:52Z</time>
      </trkpt>
      <trkpt lat="47.21827" lon="6.3232">
        <ele>613.45849609375</ele>
        <time>2012-04-29T07:22:58Z</time>
      </trkpt>
      <trkpt lat="47.21836" lon="6.32323">
        <ele>613.93896484375</ele>
        <time>2012-04-29T07:23:02Z</time>
      </trkpt>
      <trkpt lat="47.21846" lon="6.32324">
        <ele>614.41967773438</ele>
        <time>2012-04-29T07:23:06Z</time>
      </trkpt>
      <trkpt lat="47.21849" lon="6.32325">
        <ele>613.93896484375</ele>
        <time>2012-04-29T07:23:07Z</time>
      </trkpt>
      <trkpt lat="47.21856" lon="6.3233">
        <ele>613.93896484375</ele>
        <time>2012-04-29T07:23:10Z</time>
      </trkpt>
      <trkpt lat="47.21871" lon="6.32348">
        <ele>614.41967773438</ele>
        <time>2012-04-29T07:23:16Z</time>
      </trkpt>
      <trkpt lat="47.21889" lon="6.3235">
        <ele>615.38110351562</ele>
        <time>2012-04-29T07:23:22Z</time>
      </trkpt>
      <trkpt lat="47.21905" lon="6.32361">
        <ele>614.900390625</ele>
        <time>2012-04-29T07:23:27Z</time>
      </trkpt>
      <trkpt lat="47.21918" lon="6.3238">
        <ele>614.41967773438</ele>
        <time>2012-04-29T07:23:31Z</time>
      </trkpt>
      <trkpt lat="47.21936" lon="6.32398">
        <ele>613.93896484375</ele>
        <time>2012-04-29T07:23:36Z</time>
      </trkpt>
      <trkpt lat="47.21952" lon="6.32411">
        <ele>612.97778320312</ele>
        <time>2012-04-29T07:23:40Z</time>
      </trkpt>
      <trkpt lat="47.21974" lon="6.32432">
        <ele>612.4970703125</ele>
        <time>2012-04-29T07:23:45Z</time>
      </trkpt>
      <trkpt lat="47.21976" lon="6.32439">
        <ele>612.0166015625</ele>
        <time>2012-04-29T07:23:47Z</time>
      </trkpt>
      <trkpt lat="47.21962" lon="6.32446">
        <ele>610.57446289062</ele>
        <time>2012-04-29T07:23:51Z</time>
      </trkpt>
      <trkpt lat="47.21955" lon="6.32468">
        <ele>606.24853515625</ele>
        <time>2012-04-29T07:23:56Z</time>
      </trkpt>
      <trkpt lat="47.21954" lon="6.32478">
        <ele>603.84521484375</ele>
        <time>2012-04-29T07:23:58Z</time>
      </trkpt>
      <trkpt lat="47.21947" lon="6.32496">
        <ele>600</ele>
        <time>2012-04-29T07:24:01Z</time>
      </trkpt>
      <trkpt lat="47.21943" lon="6.32502">
        <ele>599.03857421875</ele>
        <time>2012-04-29T07:24:02Z</time>
      </trkpt>
      <trkpt lat="47.21915" lon="6.32545">
        <ele>597.11596679688</ele>
        <time>2012-04-29T07:24:06Z</time>
      </trkpt>
      <trkpt lat="47.21914" lon="6.32552">
        <ele>596.63549804688</ele>
        <time>2012-04-29T07:24:09Z</time>
      </trkpt>
      <trkpt lat="47.21914" lon="6.32554">
        <ele>595.67407226562</ele>
        <time>2012-04-29T07:24:11Z</time>
      </trkpt>
      <trkpt lat="47.21918" lon="6.32559">
        <ele>595.193359375</ele>
        <time>2012-04-29T07:24:14Z</time>
      </trkpt>
      <trkpt lat="47.21925" lon="6.32571">
        <ele>592.79028320312</ele>
        <time>2012-04-29T07:24:18Z</time>
      </trkpt>
      <trkpt lat="47.2193" lon="6.3258">
        <ele>593.27075195312</ele>
        <time>2012-04-29T07:24:20Z</time>
      </trkpt>
      <trkpt lat="47.21954" lon="6.32611">
        <ele>591.82885742188</ele>
        <time>2012-04-29T07:24:26Z</time>
      </trkpt>
      <trkpt lat="47.21959" lon="6.32616">
        <ele>591.82885742188</ele>
        <time>2012-04-29T07:24:27Z</time>
      </trkpt>
      <trkpt lat="47.21979" lon="6.32638">
        <ele>590.86743164062</ele>
        <time>2012-04-29T07:24:31Z</time>
      </trkpt>
      <trkpt lat="47.21998" lon="6.32657">
        <ele>588.94506835938</ele>
        <time>2012-04-29T07:24:36Z</time>
      </trkpt>
      <trkpt lat="47.22013" lon="6.32674">
        <ele>588.46435546875</ele>
        <time>2012-04-29T07:24:42Z</time>
      </trkpt>
      <trkpt lat="47.22026" lon="6.32691">
        <ele>587.9833984375</ele>
        <time>2012-04-29T07:24:47Z</time>
      </trkpt>
      <trkpt lat="47.2204" lon="6.3271">
        <ele>586.54150390625</ele>
        <time>2012-04-29T07:24:52Z</time>
      </trkpt>
      <trkpt lat="47.2205" lon="6.32728">
        <ele>586.54150390625</ele>
        <time>2012-04-29T07:24:56Z</time>
      </trkpt>
      <trkpt lat="47.22063" lon="6.3274">
        <ele>585.580078125</ele>
        <time>2012-04-29T07:25:01Z</time>
      </trkpt>
      <trkpt lat="47.22073" lon="6.32753">
        <ele>585.099609375</ele>
        <time>2012-04-29T07:25:05Z</time>
      </trkpt>
      <trkpt lat="47.22083" lon="6.32765">
        <ele>584.61889648438</ele>
        <time>2012-04-29T07:25:09Z</time>
      </trkpt>
      <trkpt lat="47.221" lon="6.32784">
        <ele>583.1767578125</ele>
        <time>2012-04-29T07:25:14Z</time>
      </trkpt>
      <trkpt lat="47.22112" lon="6.32798">
        <ele>583.65747070312</ele>
        <time>2012-04-29T07:25:18Z</time>
      </trkpt>
      <trkpt lat="47.2213" lon="6.32817">
        <ele>583.65747070312</ele>
        <time>2012-04-29T07:25:23Z</time>
      </trkpt>
      <trkpt lat="47.22134" lon="6.3282">
        <ele>582.6962890625</ele>
        <time>2012-04-29T07:25:24Z</time>
      </trkpt>
      <trkpt lat="47.2214" lon="6.32851">
        <ele>581.25439453125</ele>
        <time>2012-04-29T07:25:29Z</time>
      </trkpt>
      <trkpt lat="47.22142" lon="6.32886">
        <ele>575.96704101562</ele>
        <time>2012-04-29T07:25:32Z</time>
      </trkpt>
      <trkpt lat="47.22134" lon="6.3292">
        <ele>570.19897460938</ele>
        <time>2012-04-29T07:25:35Z</time>
      </trkpt>
      <trkpt lat="47.22133" lon="6.32932">
        <ele>569.71850585938</ele>
        <time>2012-04-29T07:25:36Z</time>
      </trkpt>
      <trkpt lat="47.22132" lon="6.32956">
        <ele>565.392578125</ele>
        <time>2012-04-29T07:25:39Z</time>
      </trkpt>
      <trkpt lat="47.22134" lon="6.32969">
        <ele>563.95043945312</ele>
        <time>2012-04-29T07:25:41Z</time>
      </trkpt>
      <trkpt lat="47.22129" lon="6.32975">
        <ele>563.46997070312</ele>
        <time>2012-04-29T07:25:43Z</time>
      </trkpt>
      <trkpt lat="47.22121" lon="6.32978">
        <ele>562.9892578125</ele>
        <time>2012-04-29T07:25:45Z</time>
      </trkpt>
      <trkpt lat="47.22102" lon="6.32998">
        <ele>560.5859375</ele>
        <time>2012-04-29T07:25:50Z</time>
      </trkpt>
      <trkpt lat="47.22095" lon="6.33007">
        <ele>560.10522460938</ele>
        <time>2012-04-29T07:25:53Z</time>
      </trkpt>
      <trkpt lat="47.22092" lon="6.33008">
        <ele>561.06665039062</ele>
        <time>2012-04-29T07:25:58Z</time>
      </trkpt>
      <trkpt lat="47.22091" lon="6.33009">
        <ele>560.5859375</ele>
        <time>2012-04-29T07:26:00Z</time>
      </trkpt>
      <trkpt lat="47.22095" lon="6.33016">
        <ele>560.5859375</ele>
        <time>2012-04-29T07:26:05Z</time>
      </trkpt>
      <trkpt lat="47.22096" lon="6.33009">
        <ele>560.5859375</ele>
        <time>2012-04-29T07:26:11Z</time>
      </trkpt>
      <trkpt lat="47.22094" lon="6.33003">
        <ele>560.5859375</ele>
        <time>2012-04-29T07:26:15Z</time>
      </trkpt>
      <trkpt lat="47.22088" lon="6.33005">
        <ele>561.06665039062</ele>
        <time>2012-04-29T07:26:21Z</time>
      </trkpt>
      <trkpt lat="47.22089" lon="6.33006">
        <ele>561.06665039062</ele>
        <time>2012-04-29T07:26:22Z</time>
      </trkpt>
      <trkpt lat="47.22097" lon="6.33019">
        <ele>559.62475585938</ele>
        <time>2012-04-29T07:26:29Z</time>
      </trkpt>
      <trkpt lat="47.22103" lon="6.33033">
        <ele>559.14404296875</ele>
        <time>2012-04-29T07:26:34Z</time>
      </trkpt>
      <trkpt lat="47.22106" lon="6.33034">
        <ele>559.14404296875</ele>
        <time>2012-04-29T07:26:35Z</time>
      </trkpt>
      <trkpt lat="47.22121" lon="6.33063">
        <ele>558.66333007812</ele>
        <time>2012-04-29T07:26:40Z</time>
      </trkpt>
      <trkpt lat="47.22121" lon="6.33068">
        <ele>558.66333007812</ele>
        <time>2012-04-29T07:26:41Z</time>
      </trkpt>
      <trkpt lat="47.22126" lon="6.33082">
        <ele>558.66333007812</ele>
        <time>2012-04-29T07:26:47Z</time>
      </trkpt>
      <trkpt lat="47.22123" lon="6.33081">
        <ele>557.7021484375</ele>
        <time>2012-04-29T07:26:50Z</time>
      </trkpt>
      <trkpt lat="47.22119" lon="6.3307">
        <ele>557.7021484375</ele>
        <time>2012-04-29T07:26:55Z</time>
      </trkpt>
      <trkpt lat="47.22115" lon="6.33055">
        <ele>558.18286132812</ele>
        <time>2012-04-29T07:27:00Z</time>
      </trkpt>
      <trkpt lat="47.22112" lon="6.33047">
        <ele>558.18286132812</ele>
        <time>2012-04-29T07:27:06Z</time>
      </trkpt>
      <trkpt lat="47.22117" lon="6.33062">
        <ele>557.7021484375</ele>
        <time>2012-04-29T07:27:11Z</time>
      </trkpt>
      <trkpt lat="47.22123" lon="6.3309">
        <ele>557.22143554688</ele>
        <time>2012-04-29T07:27:15Z</time>
      </trkpt>
      <trkpt lat="47.22123" lon="6.33097">
        <ele>557.7021484375</ele>
        <time>2012-04-29T07:27:16Z</time>
      </trkpt>
      <trkpt lat="47.22117" lon="6.33133">
        <ele>556.74072265625</ele>
        <time>2012-04-29T07:27:20Z</time>
      </trkpt>
      <trkpt lat="47.22083" lon="6.3321">
        <ele>554.33740234375</ele>
        <time>2012-04-29T07:27:27Z</time>
      </trkpt>
      <trkpt lat="47.22057" lon="6.33281">
        <ele>552.89526367188</ele>
        <time>2012-04-29T07:27:35Z</time>
      </trkpt>
      <trkpt lat="47.22051" lon="6.33299">
        <ele>551.93408203125</ele>
        <time>2012-04-29T07:27:37Z</time>
      </trkpt>
      <trkpt lat="47.22041" lon="6.33334">
        <ele>550.97265625</ele>
        <time>2012-04-29T07:27:41Z</time>
      </trkpt>
      <trkpt lat="47.22042" lon="6.33353">
        <ele>550.01147460938</ele>
        <time>2012-04-29T07:27:45Z</time>
      </trkpt>
      <trkpt lat="47.22046" lon="6.33355">
        <ele>550.01147460938</ele>
        <time>2012-04-29T07:27:46Z</time>
      </trkpt>
      <trkpt lat="47.22053" lon="6.33359">
        <ele>550.01147460938</ele>
        <time>2012-04-29T07:27:48Z</time>
      </trkpt>
      <trkpt lat="47.22065" lon="6.3337">
        <ele>550.4921875</ele>
        <time>2012-04-29T07:27:51Z</time>
      </trkpt>
      <trkpt lat="47.22091" lon="6.33397">
        <ele>550.4921875</ele>
        <time>2012-04-29T07:27:57Z</time>
      </trkpt>
      <trkpt lat="47.22103" lon="6.33412">
        <ele>549.53076171875</ele>
        <time>2012-04-29T07:28:00Z</time>
      </trkpt>
      <trkpt lat="47.22124" lon="6.33432">
        <ele>550.01147460938</ele>
        <time>2012-04-29T07:28:04Z</time>
      </trkpt>
      <trkpt lat="47.22137" lon="6.33457">
        <ele>549.53076171875</ele>
        <time>2012-04-29T07:28:08Z</time>
      </trkpt>
      <trkpt lat="47.22158" lon="6.33498">
        <ele>549.53076171875</ele>
        <time>2012-04-29T07:28:13Z</time>
      </trkpt>
      <trkpt lat="47.22196" lon="6.33553">
        <ele>548.0888671875</ele>
        <time>2012-04-29T07:28:21Z</time>
      </trkpt>
      <trkpt lat="47.2221" lon="6.33573">
        <ele>547.60815429688</ele>
        <time>2012-04-29T07:28:24Z</time>
      </trkpt>
      <trkpt lat="47.22224" lon="6.33593">
        <ele>545.685546875</ele>
        <time>2012-04-29T07:28:34Z</time>
      </trkpt>
      <trkpt lat="47.22321" lon="6.3376">
        <ele>544.24365234375</ele>
        <time>2012-04-29T07:28:49Z</time>
      </trkpt>
      <trkpt lat="47.22339" lon="6.33824">
        <ele>543.28210449219</ele>
        <time>2012-04-29T07:28:56Z</time>
      </trkpt>
      <trkpt lat="47.22343" lon="6.33833">
        <ele>543.28210449219</ele>
        <time>2012-04-29T07:28:57Z</time>
      </trkpt>
      <trkpt lat="47.22374" lon="6.33878">
        <ele>543.28210449219</ele>
        <time>2012-04-29T07:29:04Z</time>
      </trkpt>
      <trkpt lat="47.22398" lon="6.33907">
        <ele>543.28210449219</ele>
        <time>2012-04-29T07:29:09Z</time>
      </trkpt>
      <trkpt lat="47.22408" lon="6.33917">
        <ele>543.28210449219</ele>
        <time>2012-04-29T07:29:11Z</time>
      </trkpt>
      <trkpt lat="47.22428" lon="6.33939">
        <ele>541.35949707031</ele>
        <time>2012-04-29T07:29:36Z</time>
      </trkpt>
      <trkpt lat="47.22428" lon="6.33939">
        <ele>541.84020996094</ele>
        <time>2012-04-29T07:29:39Z</time>
      </trkpt>
      <trkpt lat="47.22655" lon="6.34163">
        <ele>540.39831542969</ele>
        <time>2012-04-29T07:29:56Z</time>
      </trkpt>
      <trkpt lat="47.22655" lon="6.34173">
        <ele>539.91760253906</ele>
        <time>2012-04-29T07:29:59Z</time>
      </trkpt>
      <trkpt lat="47.22655" lon="6.34183">
        <ele>540.39831542969</ele>
        <time>2012-04-29T07:30:00Z</time>
      </trkpt>
      <trkpt lat="47.22627" lon="6.34227">
        <ele>542.32092285156</ele>
        <time>2012-04-29T07:30:06Z</time>
      </trkpt>
      <trkpt lat="47.22614" lon="6.34252">
        <ele>541.84020996094</ele>
        <time>2012-04-29T07:30:10Z</time>
      </trkpt>
      <trkpt lat="47.22606" lon="6.3427">
        <ele>542.80151367188</ele>
        <time>2012-04-29T07:30:13Z</time>
      </trkpt>
      <trkpt lat="47.22595" lon="6.34293">
        <ele>543.76281738281</ele>
        <time>2012-04-29T07:30:17Z</time>
      </trkpt>
      <trkpt lat="47.2259" lon="6.34303">
        <ele>544.72424316406</ele>
        <time>2012-04-29T07:30:19Z</time>
      </trkpt>
      <trkpt lat="47.22567" lon="6.34354">
        <ele>546.64685058594</ele>
        <time>2012-04-29T07:30:28Z</time>
      </trkpt>
      <trkpt lat="47.22535" lon="6.34435">
        <ele>545.685546875</ele>
        <time>2012-04-29T07:30:40Z</time>
      </trkpt>
      <trkpt lat="47.22529" lon="6.3445">
        <ele>545.20483398438</ele>
        <time>2012-04-29T07:30:42Z</time>
      </trkpt>
      <trkpt lat="47.22517" lon="6.34487">
        <ele>545.20483398438</ele>
        <time>2012-04-29T07:30:47Z</time>
      </trkpt>
      <trkpt lat="47.22516" lon="6.34495">
        <ele>544.72424316406</ele>
        <time>2012-04-29T07:30:48Z</time>
      </trkpt>
      <trkpt lat="47.22509" lon="6.34561">
        <ele>546.64685058594</ele>
        <time>2012-04-29T07:30:56Z</time>
      </trkpt>
      <trkpt lat="47.22508" lon="6.34617">
        <ele>546.16625976562</ele>
        <time>2012-04-29T07:31:03Z</time>
      </trkpt>
      <trkpt lat="47.2251" lon="6.34632">
        <ele>546.16625976562</ele>
        <time>2012-04-29T07:31:05Z</time>
      </trkpt>
      <trkpt lat="47.22511" lon="6.34649">
        <ele>546.16625976562</ele>
        <time>2012-04-29T07:31:07Z</time>
      </trkpt>
      <trkpt lat="47.22512" lon="6.3469">
        <ele>546.16625976562</ele>
        <time>2012-04-29T07:31:12Z</time>
      </trkpt>
      <trkpt lat="47.22512" lon="6.34721">
        <ele>546.64685058594</ele>
        <time>2012-04-29T07:31:16Z</time>
      </trkpt>
      <trkpt lat="47.22511" lon="6.34736">
        <ele>546.64685058594</ele>
        <time>2012-04-29T07:31:18Z</time>
      </trkpt>
      <trkpt lat="47.22511" lon="6.3497">
        <ele>545.20483398438</ele>
        <time>2012-04-29T07:31:46Z</time>
      </trkpt>
      <trkpt lat="47.22534" lon="6.35056">
        <ele>546.16625976562</ele>
        <time>2012-04-29T07:31:54Z</time>
      </trkpt>
      <trkpt lat="47.2253" lon="6.35211">
        <ele>547.60815429688</ele>
        <time>2012-04-29T07:32:12Z</time>
      </trkpt>
      <trkpt lat="47.22523" lon="6.35227">
        <ele>548.0888671875</ele>
        <time>2012-04-29T07:32:14Z</time>
      </trkpt>
      <trkpt lat="47.22529" lon="6.35266">
        <ele>547.60815429688</ele>
        <time>2012-04-29T07:32:18Z</time>
      </trkpt>
      <trkpt lat="47.22525" lon="6.35289">
        <ele>548.0888671875</ele>
        <time>2012-04-29T07:32:21Z</time>
      </trkpt>
      <trkpt lat="47.22523" lon="6.35303">
        <ele>547.60815429688</ele>
        <time>2012-04-29T07:32:23Z</time>
      </trkpt>
      <trkpt lat="47.22523" lon="6.35358">
        <ele>549.05004882812</ele>
        <time>2012-04-29T07:32:31Z</time>
      </trkpt>
      <trkpt lat="47.22522" lon="6.35402">
        <ele>550.97265625</ele>
        <time>2012-04-29T07:32:38Z</time>
      </trkpt>
      <trkpt lat="47.22521" lon="6.35419">
        <ele>551.45336914062</ele>
        <time>2012-04-29T07:32:41Z</time>
      </trkpt>
      <trkpt lat="47.22517" lon="6.35492">
        <ele>554.81787109375</ele>
        <time>2012-04-29T07:32:54Z</time>
      </trkpt>
      <trkpt lat="47.2251" lon="6.35569">
        <ele>558.18286132812</ele>
        <time>2012-04-29T07:33:10Z</time>
      </trkpt>
      <trkpt lat="47.22512" lon="6.35599">
        <ele>559.14404296875</ele>
        <time>2012-04-29T07:33:14Z</time>
      </trkpt>
      <trkpt lat="47.22505" lon="6.35612">
        <ele>560.10522460938</ele>
        <time>2012-04-29T07:33:18Z</time>
      </trkpt>
      <trkpt lat="47.22499" lon="6.35643">
        <ele>560.5859375</ele>
        <time>2012-04-29T07:33:26Z</time>
      </trkpt>
      <trkpt lat="47.22499" lon="6.35655">
        <ele>561.06665039062</ele>
        <time>2012-04-29T07:33:29Z</time>
      </trkpt>
      <trkpt lat="47.22498" lon="6.35677">
        <ele>562.50854492188</ele>
        <time>2012-04-29T07:33:35Z</time>
      </trkpt>
      <trkpt lat="47.22496" lon="6.35689">
        <ele>563.46997070312</ele>
        <time>2012-04-29T07:33:39Z</time>
      </trkpt>
      <trkpt lat="47.22495" lon="6.35704">
        <ele>564.43115234375</ele>
        <time>2012-04-29T07:33:43Z</time>
      </trkpt>
      <trkpt lat="47.22491" lon="6.35724">
        <ele>566.35375976562</ele>
        <time>2012-04-29T07:33:50Z</time>
      </trkpt>
      <trkpt lat="47.22488" lon="6.35739">
        <ele>566.83447265625</ele>
        <time>2012-04-29T07:33:56Z</time>
      </trkpt>
      <trkpt lat="47.22486" lon="6.35755">
        <ele>567.31518554688</ele>
        <time>2012-04-29T07:34:01Z</time>
      </trkpt>
      <trkpt lat="47.22485" lon="6.3577">
        <ele>568.2763671875</ele>
        <time>2012-04-29T07:34:07Z</time>
      </trkpt>
      <trkpt lat="47.22483" lon="6.35791">
        <ele>569.71850585938</ele>
        <time>2012-04-29T07:34:14Z</time>
      </trkpt>
      <trkpt lat="47.22477" lon="6.35812">
        <ele>571.64086914062</ele>
        <time>2012-04-29T07:34:21Z</time>
      </trkpt>
      <trkpt lat="47.22466" lon="6.35842">
        <ele>574.52514648438</ele>
        <time>2012-04-29T07:34:31Z</time>
      </trkpt>
      <trkpt lat="47.22459" lon="6.35867">
        <ele>578.85107421875</ele>
        <time>2012-04-29T07:34:40Z</time>
      </trkpt>
      <trkpt lat="47.22451" lon="6.35863">
        <ele>578.37036132812</ele>
        <time>2012-04-29T07:34:43Z</time>
      </trkpt>
      <trkpt lat="47.22448" lon="6.35863">
        <ele>579.33154296875</ele>
        <time>2012-04-29T07:34:44Z</time>
      </trkpt>
      <trkpt lat="47.22465" lon="6.35887">
        <ele>580.29296875</ele>
        <time>2012-04-29T07:34:50Z</time>
      </trkpt>
      <trkpt lat="47.22467" lon="6.35898">
        <ele>580.77368164062</ele>
        <time>2012-04-29T07:34:55Z</time>
      </trkpt>
      <trkpt lat="47.22458" lon="6.35894">
        <ele>580.77368164062</ele>
        <time>2012-04-29T07:34:59Z</time>
      </trkpt>
      <trkpt lat="47.22455" lon="6.35891">
        <ele>580.77368164062</ele>
        <time>2012-04-29T07:35:01Z</time>
      </trkpt>
      <trkpt lat="47.22435" lon="6.35875">
        <ele>576.92846679688</ele>
        <time>2012-04-29T07:35:07Z</time>
      </trkpt>
      <trkpt lat="47.2242" lon="6.3586">
        <ele>575.486328125</ele>
        <time>2012-04-29T07:35:10Z</time>
      </trkpt>
      <trkpt lat="47.22377" lon="6.3582">
        <ele>575.486328125</ele>
        <time>2012-04-29T07:35:15Z</time>
      </trkpt>
      <trkpt lat="47.22371" lon="6.35808">
        <ele>575.486328125</ele>
        <time>2012-04-29T07:35:16Z</time>
      </trkpt>
      <trkpt lat="47.22345" lon="6.35753">
        <ele>573.08325195312</ele>
        <time>2012-04-29T07:35:22Z</time>
      </trkpt>
      <trkpt lat="47.22321" lon="6.35723">
        <ele>570.6796875</ele>
        <time>2012-04-29T07:35:26Z</time>
      </trkpt>
      <trkpt lat="47.22314" lon="6.35714">
        <ele>570.6796875</ele>
        <time>2012-04-29T07:35:27Z</time>
      </trkpt>
      <trkpt lat="47.22297" lon="6.35692">
        <ele>570.6796875</ele>
        <time>2012-04-29T07:35:30Z</time>
      </trkpt>
      <trkpt lat="47.22278" lon="6.35665">
        <ele>569.71850585938</ele>
        <time>2012-04-29T07:35:33Z</time>
      </trkpt>
      <trkpt lat="47.22271" lon="6.35652">
        <ele>568.75708007812</ele>
        <time>2012-04-29T07:35:34Z</time>
      </trkpt>
      <trkpt lat="47.22259" lon="6.35627">
        <ele>567.79565429688</ele>
        <time>2012-04-29T07:35:36Z</time>
      </trkpt>
      <trkpt lat="47.22247" lon="6.35601">
        <ele>564.91186523438</ele>
        <time>2012-04-29T07:35:38Z</time>
      </trkpt>
      <trkpt lat="47.22237" lon="6.35577">
        <ele>564.91186523438</ele>
        <time>2012-04-29T07:35:40Z</time>
      </trkpt>
      <trkpt lat="47.22223" lon="6.35558">
        <ele>562.9892578125</ele>
        <time>2012-04-29T07:35:42Z</time>
      </trkpt>
      <trkpt lat="47.22202" lon="6.35537">
        <ele>561.54736328125</ele>
        <time>2012-04-29T07:35:45Z</time>
      </trkpt>
      <trkpt lat="47.22187" lon="6.35525">
        <ele>559.62475585938</ele>
        <time>2012-04-29T07:35:47Z</time>
      </trkpt>
      <trkpt lat="47.22158" lon="6.35505">
        <ele>558.66333007812</ele>
        <time>2012-04-29T07:35:52Z</time>
      </trkpt>
      <trkpt lat="47.22158" lon="6.35505">
        <ele>555.29858398438</ele>
        <time>2012-04-29T07:35:57Z</time>
      </trkpt>
      <trkpt lat="47.22075" lon="6.35442">
        <ele>553.3759765625</ele>
        <time>2012-04-29T07:36:03Z</time>
      </trkpt>
      <trkpt lat="47.22045" lon="6.35435">
        <ele>550.4921875</ele>
        <time>2012-04-29T07:36:10Z</time>
      </trkpt>
      <trkpt lat="47.21953" lon="6.35385">
        <ele>548.0888671875</ele>
        <time>2012-04-29T07:36:20Z</time>
      </trkpt>
      <trkpt lat="47.21881" lon="6.35367">
        <ele>546.64685058594</ele>
        <time>2012-04-29T07:36:30Z</time>
      </trkpt>
      <trkpt lat="47.21805" lon="6.35342">
        <ele>546.16625976562</ele>
        <time>2012-04-29T07:36:42Z</time>
      </trkpt>
      <trkpt lat="47.21772" lon="6.35341">
        <ele>545.685546875</ele>
        <time>2012-04-29T07:36:47Z</time>
      </trkpt>
      <trkpt lat="47.21745" lon="6.35337">
        <ele>546.16625976562</ele>
        <time>2012-04-29T07:36:52Z</time>
      </trkpt>
      <trkpt lat="47.21721" lon="6.35336">
        <ele>545.685546875</ele>
        <time>2012-04-29T07:36:58Z</time>
      </trkpt>
      <trkpt lat="47.21708" lon="6.3534">
        <ele>546.64685058594</ele>
        <time>2012-04-29T07:37:03Z</time>
      </trkpt>
      <trkpt lat="47.217" lon="6.35343">
        <ele>546.64685058594</ele>
        <time>2012-04-29T07:37:06Z</time>
      </trkpt>
      <trkpt lat="47.21693" lon="6.35346">
        <ele>546.64685058594</ele>
        <time>2012-04-29T07:37:08Z</time>
      </trkpt>
      <trkpt lat="47.21679" lon="6.35348">
        <ele>546.64685058594</ele>
        <time>2012-04-29T07:37:11Z</time>
      </trkpt>
      <trkpt lat="47.21648" lon="6.35345">
        <ele>546.64685058594</ele>
        <time>2012-04-29T07:37:19Z</time>
      </trkpt>
      <trkpt lat="47.21629" lon="6.35355">
        <ele>548.0888671875</ele>
        <time>2012-04-29T07:37:24Z</time>
      </trkpt>
      <trkpt lat="47.21605" lon="6.35357">
        <ele>550.01147460938</ele>
        <time>2012-04-29T07:37:30Z</time>
      </trkpt>
      <trkpt lat="47.21587" lon="6.35359">
        <ele>549.53076171875</ele>
        <time>2012-04-29T07:37:35Z</time>
      </trkpt>
      <trkpt lat="47.21566" lon="6.35358">
        <ele>547.60815429688</ele>
        <time>2012-04-29T07:37:40Z</time>
      </trkpt>
      <trkpt lat="47.21561" lon="6.35356">
        <ele>547.60815429688</ele>
        <time>2012-04-29T07:37:41Z</time>
      </trkpt>
      <trkpt lat="47.21538" lon="6.35341">
        <ele>547.60815429688</ele>
        <time>2012-04-29T07:37:46Z</time>
      </trkpt>
      <trkpt lat="47.21522" lon="6.35325">
        <ele>548.0888671875</ele>
        <time>2012-04-29T07:37:50Z</time>
      </trkpt>
      <trkpt lat="47.21516" lon="6.35321">
        <ele>548.0888671875</ele>
        <time>2012-04-29T07:37:51Z</time>
      </trkpt>
      <trkpt lat="47.21504" lon="6.35314">
        <ele>548.0888671875</ele>
        <time>2012-04-29T07:37:53Z</time>
      </trkpt>
      <trkpt lat="47.21473" lon="6.35297">
        <ele>551.45336914062</ele>
        <time>2012-04-29T07:38:00Z</time>
      </trkpt>
      <trkpt lat="47.21462" lon="6.35293">
        <ele>551.45336914062</ele>
        <time>2012-04-29T07:38:04Z</time>
      </trkpt>
      <trkpt lat="47.21447" lon="6.35297">
        <ele>551.93408203125</ele>
        <time>2012-04-29T07:38:08Z</time>
      </trkpt>
      <trkpt lat="47.21434" lon="6.35301">
        <ele>551.93408203125</ele>
        <time>2012-04-29T07:38:12Z</time>
      </trkpt>
      <trkpt lat="47.21417" lon="6.35303">
        <ele>552.89526367188</ele>
        <time>2012-04-29T07:38:17Z</time>
      </trkpt>
      <trkpt lat="47.21394" lon="6.35308">
        <ele>555.779296875</ele>
        <time>2012-04-29T07:38:23Z</time>
      </trkpt>
      <trkpt lat="47.21376" lon="6.35312">
        <ele>555.779296875</ele>
        <time>2012-04-29T07:38:29Z</time>
      </trkpt>
      <trkpt lat="47.2136" lon="6.35322">
        <ele>555.29858398438</ele>
        <time>2012-04-29T07:38:35Z</time>
      </trkpt>
      <trkpt lat="47.21347" lon="6.35328">
        <ele>556.26000976562</ele>
        <time>2012-04-29T07:38:41Z</time>
      </trkpt>
      <trkpt lat="47.21336" lon="6.3533">
        <ele>556.74072265625</ele>
        <time>2012-04-29T07:38:45Z</time>
      </trkpt>
      <trkpt lat="47.21328" lon="6.35337">
        <ele>559.14404296875</ele>
        <time>2012-04-29T07:38:48Z</time>
      </trkpt>
      <trkpt lat="47.21314" lon="6.35352">
        <ele>559.14404296875</ele>
        <time>2012-04-29T07:38:53Z</time>
      </trkpt>
      <trkpt lat="47.21306" lon="6.3536">
        <ele>559.14404296875</ele>
        <time>2012-04-29T07:38:57Z</time>
      </trkpt>
      <trkpt lat="47.21303" lon="6.35369">
        <ele>560.10522460938</ele>
        <time>2012-04-29T07:39:01Z</time>
      </trkpt>
      <trkpt lat="47.21297" lon="6.35385">
        <ele>562.50854492188</ele>
        <time>2012-04-29T07:39:08Z</time>
      </trkpt>
      <trkpt lat="47.21294" lon="6.35391">
        <ele>563.95043945312</ele>
        <time>2012-04-29T07:39:11Z</time>
      </trkpt>
      <trkpt lat="47.21292" lon="6.35399">
        <ele>565.392578125</ele>
        <time>2012-04-29T07:39:15Z</time>
      </trkpt>
      <trkpt lat="47.21289" lon="6.35413">
        <ele>565.392578125</ele>
        <time>2012-04-29T07:39:22Z</time>
      </trkpt>
      <trkpt lat="47.21288" lon="6.35423">
        <ele>565.87329101562</ele>
        <time>2012-04-29T07:39:26Z</time>
      </trkpt>
      <trkpt lat="47.21293" lon="6.35439">
        <ele>566.35375976562</ele>
        <time>2012-04-29T07:39:34Z</time>
      </trkpt>
      <trkpt lat="47.21297" lon="6.35443">
        <ele>567.31518554688</ele>
        <time>2012-04-29T07:39:39Z</time>
      </trkpt>
      <trkpt lat="47.21304" lon="6.35445">
        <ele>567.79565429688</ele>
        <time>2012-04-29T07:39:45Z</time>
      </trkpt>
      <trkpt lat="47.2132" lon="6.35455">
        <ele>568.75708007812</ele>
        <time>2012-04-29T07:39:52Z</time>
      </trkpt>
      <trkpt lat="47.21332" lon="6.35463">
        <ele>569.23779296875</ele>
        <time>2012-04-29T07:39:58Z</time>
      </trkpt>
      <trkpt lat="47.21342" lon="6.35473">
        <ele>569.71850585938</ele>
        <time>2012-04-29T07:40:04Z</time>
      </trkpt>
      <trkpt lat="47.21344" lon="6.35477">
        <ele>570.19897460938</ele>
        <time>2012-04-29T07:40:08Z</time>
      </trkpt>
      <trkpt lat="47.21346" lon="6.35485">
        <ele>570.19897460938</ele>
        <time>2012-04-29T07:40:13Z</time>
      </trkpt>
      <trkpt lat="47.2135" lon="6.35494">
        <ele>569.71850585938</ele>
        <time>2012-04-29T07:40:17Z</time>
      </trkpt>
      <trkpt lat="47.21359" lon="6.35508">
        <ele>570.19897460938</ele>
        <time>2012-04-29T07:40:24Z</time>
      </trkpt>
      <trkpt lat="47.21368" lon="6.35518">
        <ele>571.16040039062</ele>
        <time>2012-04-29T07:40:30Z</time>
      </trkpt>
      <trkpt lat="47.2137" lon="6.35519">
        <ele>571.64086914062</ele>
        <time>2012-04-29T07:40:31Z</time>
      </trkpt>
      <trkpt lat="47.2138" lon="6.35527">
        <ele>574.04443359375</ele>
        <time>2012-04-29T07:40:37Z</time>
      </trkpt>
      <trkpt lat="47.21383" lon="6.3553">
        <ele>574.04443359375</ele>
        <time>2012-04-29T07:40:39Z</time>
      </trkpt>
      <trkpt lat="47.21399" lon="6.3554">
        <ele>574.04443359375</ele>
        <time>2012-04-29T07:40:44Z</time>
      </trkpt>
      <trkpt lat="47.21415" lon="6.35548">
        <ele>575.486328125</ele>
        <time>2012-04-29T07:40:50Z</time>
      </trkpt>
      <trkpt lat="47.2143" lon="6.35552">
        <ele>575.486328125</ele>
        <time>2012-04-29T07:40:56Z</time>
      </trkpt>
      <trkpt lat="47.21441" lon="6.35553">
        <ele>575.96704101562</ele>
        <time>2012-04-29T07:41:02Z</time>
      </trkpt>
      <trkpt lat="47.21447" lon="6.35554">
        <ele>575.96704101562</ele>
        <time>2012-04-29T07:41:07Z</time>
      </trkpt>
      <trkpt lat="47.21453" lon="6.35555">
        <ele>575.96704101562</ele>
        <time>2012-04-29T07:41:11Z</time>
      </trkpt>
      <trkpt lat="47.21465" lon="6.35555">
        <ele>576.44775390625</ele>
        <time>2012-04-29T07:41:16Z</time>
      </trkpt>
      <trkpt lat="47.21476" lon="6.35553">
        <ele>576.92846679688</ele>
        <time>2012-04-29T07:41:21Z</time>
      </trkpt>
      <trkpt lat="47.21486" lon="6.35552">
        <ele>577.4091796875</ele>
        <time>2012-04-29T07:41:26Z</time>
      </trkpt>
      <trkpt lat="47.21494" lon="6.35553">
        <ele>577.4091796875</ele>
        <time>2012-04-29T07:41:30Z</time>
      </trkpt>
      <trkpt lat="47.21499" lon="6.35554">
        <ele>577.4091796875</ele>
        <time>2012-04-29T07:41:32Z</time>
      </trkpt>
      <trkpt lat="47.21509" lon="6.35568">
        <ele>576.92846679688</ele>
        <time>2012-04-29T07:41:38Z</time>
      </trkpt>
      <trkpt lat="47.21515" lon="6.35586">
        <ele>578.37036132812</ele>
        <time>2012-04-29T07:41:45Z</time>
      </trkpt>
      <trkpt lat="47.21535" lon="6.35605">
        <ele>579.81225585938</ele>
        <time>2012-04-29T07:41:51Z</time>
      </trkpt>
      <trkpt lat="47.2155" lon="6.35626">
        <ele>581.73486328125</ele>
        <time>2012-04-29T07:41:58Z</time>
      </trkpt>
      <trkpt lat="47.21554" lon="6.35634">
        <ele>583.1767578125</ele>
        <time>2012-04-29T07:42:01Z</time>
      </trkpt>
      <trkpt lat="47.21555" lon="6.35641">
        <ele>583.65747070312</ele>
        <time>2012-04-29T07:42:04Z</time>
      </trkpt>
      <trkpt lat="47.21556" lon="6.35648">
        <ele>582.6962890625</ele>
        <time>2012-04-29T07:42:09Z</time>
      </trkpt>
      <trkpt lat="47.21563" lon="6.35662">
        <ele>584.13818359375</ele>
        <time>2012-04-29T07:42:15Z</time>
      </trkpt>
      <trkpt lat="47.21581" lon="6.35682">
        <ele>585.580078125</ele>
        <time>2012-04-29T07:42:25Z</time>
      </trkpt>
      <trkpt lat="47.21585" lon="6.3569">
        <ele>587.02197265625</ele>
        <time>2012-04-29T07:42:30Z</time>
      </trkpt>
      <trkpt lat="47.21585" lon="6.35698">
        <ele>588.94506835938</ele>
        <time>2012-04-29T07:42:35Z</time>
      </trkpt>
      <trkpt lat="47.21586" lon="6.35719">
        <ele>589.90625</ele>
        <time>2012-04-29T07:42:41Z</time>
      </trkpt>
      <trkpt lat="47.21586" lon="6.35731">
        <ele>589.90625</ele>
        <time>2012-04-29T07:42:45Z</time>
      </trkpt>
      <trkpt lat="47.21583" lon="6.35744">
        <ele>592.79028320312</ele>
        <time>2012-04-29T07:42:51Z</time>
      </trkpt>
      <trkpt lat="47.21582" lon="6.35749">
        <ele>592.3095703125</ele>
        <time>2012-04-29T07:42:55Z</time>
      </trkpt>
      <trkpt lat="47.21579" lon="6.35754">
        <ele>593.75146484375</ele>
        <time>2012-04-29T07:42:58Z</time>
      </trkpt>
      <trkpt lat="47.21577" lon="6.35762">
        <ele>593.75146484375</ele>
        <time>2012-04-29T07:43:02Z</time>
      </trkpt>
      <trkpt lat="47.21574" lon="6.35774">
        <ele>594.71264648438</ele>
        <time>2012-04-29T07:43:08Z</time>
      </trkpt>
      <trkpt lat="47.21572" lon="6.35783">
        <ele>595.67407226562</ele>
        <time>2012-04-29T07:43:12Z</time>
      </trkpt>
      <trkpt lat="47.2157" lon="6.35793">
        <ele>596.63549804688</ele>
        <time>2012-04-29T07:43:16Z</time>
      </trkpt>
      <trkpt lat="47.21566" lon="6.35806">
        <ele>597.11596679688</ele>
        <time>2012-04-29T07:43:22Z</time>
      </trkpt>
      <trkpt lat="47.21561" lon="6.35819">
        <ele>597.11596679688</ele>
        <time>2012-04-29T07:43:28Z</time>
      </trkpt>
      <trkpt lat="47.21558" lon="6.35826">
        <ele>597.5966796875</ele>
        <time>2012-04-29T07:43:33Z</time>
      </trkpt>
      <trkpt lat="47.21553" lon="6.35835">
        <ele>600</ele>
        <time>2012-04-29T07:43:38Z</time>
      </trkpt>
      <trkpt lat="47.21547" lon="6.35847">
        <ele>599.51928710938</ele>
        <time>2012-04-29T07:43:44Z</time>
      </trkpt>
      <trkpt lat="47.21541" lon="6.35858">
        <ele>600.96118164062</ele>
        <time>2012-04-29T07:43:49Z</time>
      </trkpt>
      <trkpt lat="47.21534" lon="6.35864">
        <ele>601.44189453125</ele>
        <time>2012-04-29T07:43:55Z</time>
      </trkpt>
      <trkpt lat="47.21531" lon="6.35867">
        <ele>602.40307617188</ele>
        <time>2012-04-29T07:43:57Z</time>
      </trkpt>
      <trkpt lat="47.21526" lon="6.35878">
        <ele>601.92260742188</ele>
        <time>2012-04-29T07:44:02Z</time>
      </trkpt>
      <trkpt lat="47.21524" lon="6.35893">
        <ele>602.40307617188</ele>
        <time>2012-04-29T07:44:07Z</time>
      </trkpt>
      <trkpt lat="47.21524" lon="6.35898">
        <ele>602.8837890625</ele>
        <time>2012-04-29T07:44:08Z</time>
      </trkpt>
      <trkpt lat="47.21527" lon="6.35917">
        <ele>602.8837890625</ele>
        <time>2012-04-29T07:44:13Z</time>
      </trkpt>
      <trkpt lat="47.21533" lon="6.35946">
        <ele>604.806640625</ele>
        <time>2012-04-29T07:44:21Z</time>
      </trkpt>
      <trkpt lat="47.21534" lon="6.35958">
        <ele>605.76806640625</ele>
        <time>2012-04-29T07:44:25Z</time>
      </trkpt>
      <trkpt lat="47.21532" lon="6.35969">
        <ele>606.72924804688</ele>
        <time>2012-04-29T07:44:29Z</time>
      </trkpt>
      <trkpt lat="47.21534" lon="6.35992">
        <ele>607.69067382812</ele>
        <time>2012-04-29T07:44:36Z</time>
      </trkpt>
      <trkpt lat="47.21534" lon="6.35997">
        <ele>607.69067382812</ele>
        <time>2012-04-29T07:44:38Z</time>
      </trkpt>
      <trkpt lat="47.21537" lon="6.36007">
        <ele>608.17138671875</ele>
        <time>2012-04-29T07:44:42Z</time>
      </trkpt>
      <trkpt lat="47.21542" lon="6.36019">
        <ele>608.17138671875</ele>
        <time>2012-04-29T07:44:46Z</time>
      </trkpt>
      <trkpt lat="47.21546" lon="6.36035">
        <ele>608.17138671875</ele>
        <time>2012-04-29T07:44:52Z</time>
      </trkpt>
      <trkpt lat="47.21546" lon="6.36038">
        <ele>608.17138671875</ele>
        <time>2012-04-29T07:44:53Z</time>
      </trkpt>
      <trkpt lat="47.21542" lon="6.36053">
        <ele>609.61328125</ele>
        <time>2012-04-29T07:44:59Z</time>
      </trkpt>
      <trkpt lat="47.21544" lon="6.36066">
        <ele>610.09375</ele>
        <time>2012-04-29T07:45:04Z</time>
      </trkpt>
      <trkpt lat="47.21545" lon="6.36073">
        <ele>610.57446289062</ele>
        <time>2012-04-29T07:45:06Z</time>
      </trkpt>
      <trkpt lat="47.21549" lon="6.36085">
        <ele>610.09375</ele>
        <time>2012-04-29T07:45:11Z</time>
      </trkpt>
      <trkpt lat="47.2155" lon="6.36087">
        <ele>610.09375</ele>
        <time>2012-04-29T07:45:12Z</time>
      </trkpt>
      <trkpt lat="47.21557" lon="6.36103">
        <ele>610.09375</ele>
        <time>2012-04-29T07:45:17Z</time>
      </trkpt>
      <trkpt lat="47.21562" lon="6.36116">
        <ele>611.53588867188</ele>
        <time>2012-04-29T07:45:20Z</time>
      </trkpt>
      <trkpt lat="47.21573" lon="6.36139">
        <ele>612.4970703125</ele>
        <time>2012-04-29T07:45:25Z</time>
      </trkpt>
      <trkpt lat="47.21577" lon="6.36148">
        <ele>611.05517578125</ele>
        <time>2012-04-29T07:45:27Z</time>
      </trkpt>
      <trkpt lat="47.21581" lon="6.36159">
        <ele>611.53588867188</ele>
        <time>2012-04-29T07:45:30Z</time>
      </trkpt>
      <trkpt lat="47.21582" lon="6.36175">
        <ele>613.45849609375</ele>
        <time>2012-04-29T07:45:36Z</time>
      </trkpt>
      <trkpt lat="47.2159" lon="6.36193">
        <ele>613.93896484375</ele>
        <time>2012-04-29T07:45:43Z</time>
      </trkpt>
      <trkpt lat="47.21598" lon="6.36198">
        <ele>615.38110351562</ele>
        <time>2012-04-29T07:45:46Z</time>
      </trkpt>
      <trkpt lat="47.21616" lon="6.36214">
        <ele>614.900390625</ele>
        <time>2012-04-29T07:45:52Z</time>
      </trkpt>
      <trkpt lat="47.21638" lon="6.36242">
        <ele>613.45849609375</ele>
        <time>2012-04-29T07:45:59Z</time>
      </trkpt>
      <trkpt lat="47.21665" lon="6.36276">
        <ele>613.93896484375</ele>
        <time>2012-04-29T07:46:06Z</time>
      </trkpt>
      <trkpt lat="47.21672" lon="6.36286">
        <ele>614.900390625</ele>
        <time>2012-04-29T07:46:08Z</time>
      </trkpt>
      <trkpt lat="47.21693" lon="6.36324">
        <ele>616.34228515625</ele>
        <time>2012-04-29T07:46:15Z</time>
      </trkpt>
      <trkpt lat="47.21736" lon="6.36395">
        <ele>613.93896484375</ele>
        <time>2012-04-29T07:46:28Z</time>
      </trkpt>
      <trkpt lat="47.2175" lon="6.36419">
        <ele>615.38110351562</ele>
        <time>2012-04-29T07:46:32Z</time>
      </trkpt>
      <trkpt lat="47.21763" lon="6.36443">
        <ele>614.900390625</ele>
        <time>2012-04-29T07:46:36Z</time>
      </trkpt>
      <trkpt lat="47.21785" lon="6.36477">
        <ele>613.45849609375</ele>
        <time>2012-04-29T07:46:42Z</time>
      </trkpt>
      <trkpt lat="47.21862" lon="6.36555">
        <ele>616.82299804688</ele>
        <time>2012-04-29T07:46:59Z</time>
      </trkpt>
      <trkpt lat="47.21883" lon="6.36571">
        <ele>619.22631835938</ele>
        <time>2012-04-29T07:47:05Z</time>
      </trkpt>
      <trkpt lat="47.21921" lon="6.36601">
        <ele>618.74560546875</ele>
        <time>2012-04-29T07:47:13Z</time>
      </trkpt>
      <trkpt lat="47.21943" lon="6.36615">
        <ele>620.66845703125</ele>
        <time>2012-04-29T07:47:18Z</time>
      </trkpt>
      <trkpt lat="47.2196" lon="6.36616">
        <ele>622.1103515625</ele>
        <time>2012-04-29T07:47:20Z</time>
      </trkpt>
      <trkpt lat="47.2197" lon="6.36621">
        <ele>620.66845703125</ele>
        <time>2012-04-29T07:47:22Z</time>
      </trkpt>
      <trkpt lat="47.21996" lon="6.3663">
        <ele>619.22631835938</ele>
        <time>2012-04-29T07:47:28Z</time>
      </trkpt>
      <trkpt lat="47.22005" lon="6.36629">
        <ele>619.70703125</ele>
        <time>2012-04-29T07:47:30Z</time>
      </trkpt>
      <trkpt lat="47.2204" lon="6.36622">
        <ele>619.22631835938</ele>
        <time>2012-04-29T07:47:35Z</time>
      </trkpt>
      <trkpt lat="47.22048" lon="6.36619">
        <ele>619.70703125</ele>
        <time>2012-04-29T07:47:36Z</time>
      </trkpt>
      <trkpt lat="47.22066" lon="6.36614">
        <ele>619.22631835938</ele>
        <time>2012-04-29T07:47:40Z</time>
      </trkpt>
      <trkpt lat="47.22136" lon="6.3659">
        <ele>616.34228515625</ele>
        <time>2012-04-29T07:47:59Z</time>
      </trkpt>
      <trkpt lat="47.22126" lon="6.36591">
        <ele>618.26489257812</ele>
        <time>2012-04-29T07:48:07Z</time>
      </trkpt>
      <trkpt lat="47.22127" lon="6.36581">
        <ele>619.70703125</ele>
        <time>2012-04-29T07:48:12Z</time>
      </trkpt>
      <trkpt lat="47.22128" lon="6.36576">
        <ele>621.62963867188</ele>
        <time>2012-04-29T07:48:15Z</time>
      </trkpt>
      <trkpt lat="47.22124" lon="6.36576">
        <ele>621.14916992188</ele>
        <time>2012-04-29T07:48:21Z</time>
      </trkpt>
      <trkpt lat="47.22123" lon="6.36576">
        <ele>620.18774414062</ele>
        <time>2012-04-29T07:48:28Z</time>
      </trkpt>
      <trkpt lat="47.2212" lon="6.36578">
        <ele>619.22631835938</ele>
        <time>2012-04-29T07:48:31Z</time>
      </trkpt>
      <trkpt lat="47.22115" lon="6.36585">
        <ele>618.74560546875</ele>
        <time>2012-04-29T07:48:38Z</time>
      </trkpt>
      <trkpt lat="47.22119" lon="6.36595">
        <ele>619.22631835938</ele>
        <time>2012-04-29T07:52:03Z</time>
      </trkpt>
      <trkpt lat="47.22133" lon="6.36573">
        <ele>617.7841796875</ele>
        <time>2012-04-29T07:55:59Z</time>
      </trkpt>
      <trkpt lat="47.22125" lon="6.36576">
        <ele>616.82299804688</ele>
        <time>2012-04-29T07:56:52Z</time>
      </trkpt>
      <trkpt lat="47.22118" lon="6.36583">
        <ele>617.7841796875</ele>
        <time>2012-04-29T07:57:06Z</time>
      </trkpt>
      <trkpt lat="47.2212" lon="6.36583">
        <ele>617.3037109375</ele>
        <time>2012-04-29T07:57:10Z</time>
      </trkpt>
      <trkpt lat="47.22119" lon="6.36601">
        <ele>617.3037109375</ele>
        <time>2012-04-29T07:57:16Z</time>
      </trkpt>
      <trkpt lat="47.22115" lon="6.36607">
        <ele>617.7841796875</ele>
        <time>2012-04-29T07:57:20Z</time>
      </trkpt>
      <trkpt lat="47.22112" lon="6.36612">
        <ele>616.82299804688</ele>
        <time>2012-04-29T07:57:25Z</time>
      </trkpt>
      <trkpt lat="47.22111" lon="6.36613">
        <ele>615.38110351562</ele>
        <time>2012-04-29T07:57:28Z</time>
      </trkpt>
      <trkpt lat="47.2211" lon="6.36613">
        <ele>617.7841796875</ele>
        <time>2012-04-29T07:57:35Z</time>
      </trkpt>
      <trkpt lat="47.22105" lon="6.36609">
        <ele>615.38110351562</ele>
        <time>2012-04-29T07:57:56Z</time>
      </trkpt>
      <trkpt lat="47.22102" lon="6.36613">
        <ele>616.34228515625</ele>
        <time>2012-04-29T07:58:07Z</time>
      </trkpt>
      <trkpt lat="47.22095" lon="6.36618">
        <ele>615.38110351562</ele>
        <time>2012-04-29T07:58:21Z</time>
      </trkpt>
      <trkpt lat="47.22099" lon="6.36614">
        <ele>615.38110351562</ele>
        <time>2012-04-29T07:58:26Z</time>
      </trkpt>
      <trkpt lat="47.22103" lon="6.36612">
        <ele>615.86181640625</ele>
        <time>2012-04-29T07:58:36Z</time>
      </trkpt>
      <trkpt lat="47.22114" lon="6.36619">
        <ele>615.86181640625</ele>
        <time>2012-04-29T07:58:42Z</time>
      </trkpt>
      <trkpt lat="47.22135" lon="6.36631">
        <ele>615.38110351562</ele>
        <time>2012-04-29T07:58:48Z</time>
      </trkpt>
      <trkpt lat="47.22163" lon="6.36652">
        <ele>615.38110351562</ele>
        <time>2012-04-29T07:58:57Z</time>
      </trkpt>
      <trkpt lat="47.22188" lon="6.36671">
        <ele>616.34228515625</ele>
        <time>2012-04-29T07:59:04Z</time>
      </trkpt>
      <trkpt lat="47.2221" lon="6.36686">
        <ele>616.34228515625</ele>
        <time>2012-04-29T07:59:10Z</time>
      </trkpt>
      <trkpt lat="47.22219" lon="6.36692">
        <ele>617.3037109375</ele>
        <time>2012-04-29T07:59:13Z</time>
      </trkpt>
      <trkpt lat="47.22234" lon="6.3669">
        <ele>619.70703125</ele>
        <time>2012-04-29T07:59:17Z</time>
      </trkpt>
      <trkpt lat="47.22238" lon="6.36689">
        <ele>618.74560546875</ele>
        <time>2012-04-29T07:59:18Z</time>
      </trkpt>
      <trkpt lat="47.22269" lon="6.36673">
        <ele>617.7841796875</ele>
        <time>2012-04-29T07:59:24Z</time>
      </trkpt>
      <trkpt lat="47.22278" lon="6.36663">
        <ele>619.22631835938</ele>
        <time>2012-04-29T07:59:27Z</time>
      </trkpt>
      <trkpt lat="47.2229" lon="6.3665">
        <ele>618.74560546875</ele>
        <time>2012-04-29T07:59:32Z</time>
      </trkpt>
      <trkpt lat="47.22315" lon="6.36625">
        <ele>617.3037109375</ele>
        <time>2012-04-29T07:59:39Z</time>
      </trkpt>
      <trkpt lat="47.22332" lon="6.36605">
        <ele>617.3037109375</ele>
        <time>2012-04-29T07:59:45Z</time>
      </trkpt>
      <trkpt lat="47.2234" lon="6.36588">
        <ele>616.82299804688</ele>
        <time>2012-04-29T07:59:49Z</time>
      </trkpt>
      <trkpt lat="47.22344" lon="6.36583">
        <ele>616.34228515625</ele>
        <time>2012-04-29T07:59:50Z</time>
      </trkpt>
      <trkpt lat="47.22367" lon="6.3656">
        <ele>617.3037109375</ele>
        <time>2012-04-29T07:59:54Z</time>
      </trkpt>
      <trkpt lat="47.2243" lon="6.36476">
        <ele>617.3037109375</ele>
        <time>2012-04-29T08:00:06Z</time>
      </trkpt>
      <trkpt lat="47.22442" lon="6.36464">
        <ele>617.7841796875</ele>
        <time>2012-04-29T08:00:08Z</time>
      </trkpt>
      <trkpt lat="47.22451" lon="6.3646">
        <ele>615.86181640625</ele>
        <time>2012-04-29T08:00:11Z</time>
      </trkpt>
      <trkpt lat="47.22461" lon="6.36464">
        <ele>615.86181640625</ele>
        <time>2012-04-29T08:00:14Z</time>
      </trkpt>
      <trkpt lat="47.22493" lon="6.36449">
        <ele>616.82299804688</ele>
        <time>2012-04-29T08:00:20Z</time>
      </trkpt>
      <trkpt lat="47.22504" lon="6.36444">
        <ele>615.86181640625</ele>
        <time>2012-04-29T08:00:22Z</time>
      </trkpt>
      <trkpt lat="47.22514" lon="6.36442">
        <ele>616.34228515625</ele>
        <time>2012-04-29T08:00:24Z</time>
      </trkpt>
      <trkpt lat="47.22522" lon="6.3644">
        <ele>617.7841796875</ele>
        <time>2012-04-29T08:00:26Z</time>
      </trkpt>
      <trkpt lat="47.22532" lon="6.36437">
        <ele>616.82299804688</ele>
        <time>2012-04-29T08:00:29Z</time>
      </trkpt>
      <trkpt lat="47.22545" lon="6.36425">
        <ele>616.34228515625</ele>
        <time>2012-04-29T08:00:33Z</time>
      </trkpt>
      <trkpt lat="47.22567" lon="6.36415">
        <ele>614.900390625</ele>
        <time>2012-04-29T08:00:37Z</time>
      </trkpt>
      <trkpt lat="47.2258" lon="6.36413">
        <ele>617.7841796875</ele>
        <time>2012-04-29T08:00:39Z</time>
      </trkpt>
      <trkpt lat="47.2261" lon="6.3642">
        <ele>618.74560546875</ele>
        <time>2012-04-29T08:00:43Z</time>
      </trkpt>
      <trkpt lat="47.22623" lon="6.36423">
        <ele>616.82299804688</ele>
        <time>2012-04-29T08:00:47Z</time>
      </trkpt>
      <trkpt lat="47.22623" lon="6.36423">
        <ele>617.3037109375</ele>
        <time>2012-04-29T08:00:52Z</time>
      </trkpt>
      <trkpt lat="47.22692" lon="6.36454">
        <ele>622.1103515625</ele>
        <time>2012-04-29T08:01:08Z</time>
      </trkpt>
      <trkpt lat="47.22712" lon="6.36464">
        <ele>621.14916992188</ele>
        <time>2012-04-29T08:01:09Z</time>
      </trkpt>
      <trkpt lat="47.22712" lon="6.36464">
        <ele>624.03295898438</ele>
        <time>2012-04-29T08:01:17Z</time>
      </trkpt>
      <trkpt lat="47.22712" lon="6.36464">
        <ele>624.03295898438</ele>
        <time>2012-04-29T08:01:18Z</time>
      </trkpt>
      <trkpt lat="47.22776" lon="6.36506">
        <ele>626.9169921875</ele>
        <time>2012-04-29T08:01:34Z</time>
      </trkpt>
      <trkpt lat="47.22787" lon="6.36505">
        <ele>629.32006835938</ele>
        <time>2012-04-29T08:01:36Z</time>
      </trkpt>
      <trkpt lat="47.22793" lon="6.36505">
        <ele>630.28149414062</ele>
        <time>2012-04-29T08:01:38Z</time>
      </trkpt>
      <trkpt lat="47.22805" lon="6.36518">
        <ele>630.76220703125</ele>
        <time>2012-04-29T08:01:43Z</time>
      </trkpt>
      <trkpt lat="47.22833" lon="6.36531">
        <ele>633.16528320312</ele>
        <time>2012-04-29T08:01:52Z</time>
      </trkpt>
      <trkpt lat="47.22839" lon="6.36533">
        <ele>632.68481445312</ele>
        <time>2012-04-29T08:01:59Z</time>
      </trkpt>
      <trkpt lat="47.22969" lon="6.36497">
        <ele>635.08813476562</ele>
        <time>2012-04-29T08:02:25Z</time>
      </trkpt>
      <trkpt lat="47.23001" lon="6.3649">
        <ele>635.08813476562</ele>
        <time>2012-04-29T08:02:31Z</time>
      </trkpt>
      <trkpt lat="47.23026" lon="6.3648">
        <ele>635.56860351562</ele>
        <time>2012-04-29T08:02:36Z</time>
      </trkpt>
      <trkpt lat="47.2304" lon="6.3648">
        <ele>636.5302734375</ele>
        <time>2012-04-29T08:02:40Z</time>
      </trkpt>
      <trkpt lat="47.2305" lon="6.36486">
        <ele>635.56860351562</ele>
        <time>2012-04-29T08:02:43Z</time>
      </trkpt>
      <trkpt lat="47.2314" lon="6.36551">
        <ele>639.4140625</ele>
        <time>2012-04-29T08:03:04Z</time>
      </trkpt>
      <trkpt lat="47.23144" lon="6.36553">
        <ele>638.93359375</ele>
        <time>2012-04-29T08:03:05Z</time>
      </trkpt>
      <trkpt lat="47.23174" lon="6.36581">
        <ele>640.85595703125</ele>
        <time>2012-04-29T08:03:13Z</time>
      </trkpt>
      <trkpt lat="47.23194" lon="6.36606">
        <ele>641.33666992188</ele>
        <time>2012-04-29T08:03:19Z</time>
      </trkpt>
      <trkpt lat="47.23197" lon="6.36611">
        <ele>640.85595703125</ele>
        <time>2012-04-29T08:03:20Z</time>
      </trkpt>
      <trkpt lat="47.23218" lon="6.36627">
        <ele>641.33666992188</ele>
        <time>2012-04-29T08:03:26Z</time>
      </trkpt>
      <trkpt lat="47.23228" lon="6.36639">
        <ele>642.77880859375</ele>
        <time>2012-04-29T08:03:30Z</time>
      </trkpt>
      <trkpt lat="47.23267" lon="6.36749">
        <ele>642.77880859375</ele>
        <time>2012-04-29T08:03:48Z</time>
      </trkpt>
      <trkpt lat="47.23265" lon="6.36777">
        <ele>642.29809570312</ele>
        <time>2012-04-29T08:03:52Z</time>
      </trkpt>
      <trkpt lat="47.23266" lon="6.36799">
        <ele>641.8173828125</ele>
        <time>2012-04-29T08:03:58Z</time>
      </trkpt>
      <trkpt lat="47.23267" lon="6.36805">
        <ele>641.8173828125</ele>
        <time>2012-04-29T08:04:00Z</time>
      </trkpt>
      <trkpt lat="47.23261" lon="6.36838">
        <ele>642.29809570312</ele>
        <time>2012-04-29T08:04:05Z</time>
      </trkpt>
      <trkpt lat="47.23261" lon="6.36843">
        <ele>642.77880859375</ele>
        <time>2012-04-29T08:04:06Z</time>
      </trkpt>
      <trkpt lat="47.23255" lon="6.36877">
        <ele>643.25927734375</ele>
        <time>2012-04-29T08:04:12Z</time>
      </trkpt>
      <trkpt lat="47.23247" lon="6.36908">
        <ele>644.701171875</ele>
        <time>2012-04-29T08:04:18Z</time>
      </trkpt>
      <trkpt lat="47.23241" lon="6.36935">
        <ele>644.220703125</ele>
        <time>2012-04-29T08:04:23Z</time>
      </trkpt>
      <trkpt lat="47.23247" lon="6.36953">
        <ele>645.18188476562</ele>
        <time>2012-04-29T08:04:28Z</time>
      </trkpt>
      <trkpt lat="47.23257" lon="6.36961">
        <ele>645.66259765625</ele>
        <time>2012-04-29T08:04:34Z</time>
      </trkpt>
      <trkpt lat="47.23262" lon="6.36966">
        <ele>645.66259765625</ele>
        <time>2012-04-29T08:04:40Z</time>
      </trkpt>
      <trkpt lat="47.23266" lon="6.36972">
        <ele>646.14331054688</ele>
        <time>2012-04-29T08:04:53Z</time>
      </trkpt>
      <trkpt lat="47.23269" lon="6.36987">
        <ele>646.6240234375</ele>
        <time>2012-04-29T08:04:59Z</time>
      </trkpt>
      <trkpt lat="47.2327" lon="6.37002">
        <ele>646.6240234375</ele>
        <time>2012-04-29T08:05:03Z</time>
      </trkpt>
      <trkpt lat="47.23275" lon="6.3701">
        <ele>647.58520507812</ele>
        <time>2012-04-29T08:05:06Z</time>
      </trkpt>
      <trkpt lat="47.23292" lon="6.37018">
        <ele>647.58520507812</ele>
        <time>2012-04-29T08:05:11Z</time>
      </trkpt>
      <trkpt lat="47.23306" lon="6.37018">
        <ele>648.54638671875</ele>
        <time>2012-04-29T08:05:15Z</time>
      </trkpt>
      <trkpt lat="47.23315" lon="6.37009">
        <ele>648.06591796875</ele>
        <time>2012-04-29T08:05:19Z</time>
      </trkpt>
      <trkpt lat="47.23323" lon="6.37018">
        <ele>649.02709960938</ele>
        <time>2012-04-29T08:05:25Z</time>
      </trkpt>
      <trkpt lat="47.23334" lon="6.37034">
        <ele>649.02709960938</ele>
        <time>2012-04-29T08:05:30Z</time>
      </trkpt>
      <trkpt lat="47.23347" lon="6.37056">
        <ele>649.5078125</ele>
        <time>2012-04-29T08:05:35Z</time>
      </trkpt>
      <trkpt lat="47.23356" lon="6.37069">
        <ele>649.5078125</ele>
        <time>2012-04-29T08:05:39Z</time>
      </trkpt>
      <trkpt lat="47.23358" lon="6.37072">
        <ele>649.5078125</ele>
        <time>2012-04-29T08:05:40Z</time>
      </trkpt>
      <trkpt lat="47.2337" lon="6.37084">
        <ele>649.02709960938</ele>
        <time>2012-04-29T08:05:44Z</time>
      </trkpt>
      <trkpt lat="47.23386" lon="6.37106">
        <ele>648.54638671875</ele>
        <time>2012-04-29T08:05:50Z</time>
      </trkpt>
      <trkpt lat="47.23391" lon="6.3711">
        <ele>648.54638671875</ele>
        <time>2012-04-29T08:05:53Z</time>
      </trkpt>
      <trkpt lat="47.23399" lon="6.37116">
        <ele>648.06591796875</ele>
        <time>2012-04-29T08:05:57Z</time>
      </trkpt>
      <trkpt lat="47.23415" lon="6.37113">
        <ele>646.14331054688</ele>
        <time>2012-04-29T08:06:02Z</time>
      </trkpt>
      <trkpt lat="47.23418" lon="6.37112">
        <ele>646.6240234375</ele>
        <time>2012-04-29T08:06:03Z</time>
      </trkpt>
      <trkpt lat="47.23423" lon="6.37109">
        <ele>645.66259765625</ele>
        <time>2012-04-29T08:06:05Z</time>
      </trkpt>
      <trkpt lat="47.23439" lon="6.37107">
        <ele>643.73999023438</ele>
        <time>2012-04-29T08:06:10Z</time>
      </trkpt>
      <trkpt lat="47.23444" lon="6.37107">
        <ele>643.73999023438</ele>
        <time>2012-04-29T08:06:11Z</time>
      </trkpt>
      <trkpt lat="47.23468" lon="6.37109">
        <ele>640.85595703125</ele>
        <time>2012-04-29T08:06:15Z</time>
      </trkpt>
      <trkpt lat="47.23481" lon="6.37109">
        <ele>639.4140625</ele>
        <time>2012-04-29T08:06:17Z</time>
      </trkpt>
      <trkpt lat="47.23508" lon="6.37113">
        <ele>638.45288085938</ele>
        <time>2012-04-29T08:06:21Z</time>
      </trkpt>
      <trkpt lat="47.23529" lon="6.3712">
        <ele>637.49145507812</ele>
        <time>2012-04-29T08:06:24Z</time>
      </trkpt>
      <trkpt lat="47.23558" lon="6.37121">
        <ele>636.04956054688</ele>
        <time>2012-04-29T08:06:29Z</time>
      </trkpt>
      <trkpt lat="47.23562" lon="6.37121">
        <ele>636.04956054688</ele>
        <time>2012-04-29T08:06:30Z</time>
      </trkpt>
      <trkpt lat="47.23582" lon="6.37126">
        <ele>635.56860351562</ele>
        <time>2012-04-29T08:06:35Z</time>
      </trkpt>
      <trkpt lat="47.23594" lon="6.37127">
        <ele>635.56860351562</ele>
        <time>2012-04-29T08:06:39Z</time>
      </trkpt>
      <trkpt lat="47.236" lon="6.37133">
        <ele>634.12670898438</ele>
        <time>2012-04-29T08:06:42Z</time>
      </trkpt>
      <trkpt lat="47.23614" lon="6.3714">
        <ele>633.16528320312</ele>
        <time>2012-04-29T08:06:46Z</time>
      </trkpt>
      <trkpt lat="47.23632" lon="6.37154">
        <ele>632.68481445312</ele>
        <time>2012-04-29T08:06:50Z</time>
      </trkpt>
      <trkpt lat="47.23667" lon="6.37175">
        <ele>631.72338867188</ele>
        <time>2012-04-29T08:06:55Z</time>
      </trkpt>
      <trkpt lat="47.23683" lon="6.37179">
        <ele>630.76220703125</ele>
        <time>2012-04-29T08:06:58Z</time>
      </trkpt>
      <trkpt lat="47.23699" lon="6.37177">
        <ele>627.87817382812</ele>
        <time>2012-04-29T08:07:01Z</time>
      </trkpt>
      <trkpt lat="47.23714" lon="6.37178">
        <ele>626.43627929688</ele>
        <time>2012-04-29T08:07:04Z</time>
      </trkpt>
      <trkpt lat="47.23725" lon="6.37182">
        <ele>625.95556640625</ele>
        <time>2012-04-29T08:07:07Z</time>
      </trkpt>
      <trkpt lat="47.23729" lon="6.37182">
        <ele>625.47485351562</ele>
        <time>2012-04-29T08:07:08Z</time>
      </trkpt>
      <trkpt lat="47.23746" lon="6.37184">
        <ele>625.47485351562</ele>
        <time>2012-04-29T08:07:12Z</time>
      </trkpt>
      <trkpt lat="47.23761" lon="6.37186">
        <ele>625.47485351562</ele>
        <time>2012-04-29T08:07:14Z</time>
      </trkpt>
      <trkpt lat="47.23792" lon="6.37178">
        <ele>624.03295898438</ele>
        <time>2012-04-29T08:07:19Z</time>
      </trkpt>
      <trkpt lat="47.238" lon="6.37179">
        <ele>623.55249023438</ele>
        <time>2012-04-29T08:07:21Z</time>
      </trkpt>
      <trkpt lat="47.23807" lon="6.37182">
        <ele>624.513671875</ele>
        <time>2012-04-29T08:07:23Z</time>
      </trkpt>
      <trkpt lat="47.23824" lon="6.37174">
        <ele>622.1103515625</ele>
        <time>2012-04-29T08:07:28Z</time>
      </trkpt>
      <trkpt lat="47.23832" lon="6.37175">
        <ele>622.1103515625</ele>
        <time>2012-04-29T08:07:31Z</time>
      </trkpt>
      <trkpt lat="47.2384" lon="6.37177">
        <ele>621.62963867188</ele>
        <time>2012-04-29T08:07:34Z</time>
      </trkpt>
      <trkpt lat="47.23856" lon="6.37187">
        <ele>622.1103515625</ele>
        <time>2012-04-29T08:07:40Z</time>
      </trkpt>
      <trkpt lat="47.2387" lon="6.3719">
        <ele>621.62963867188</ele>
        <time>2012-04-29T08:07:43Z</time>
      </trkpt>
      <trkpt lat="47.23893" lon="6.3719">
        <ele>621.14916992188</ele>
        <time>2012-04-29T08:07:49Z</time>
      </trkpt>
      <trkpt lat="47.23906" lon="6.37184">
        <ele>621.14916992188</ele>
        <time>2012-04-29T08:07:53Z</time>
      </trkpt>
      <trkpt lat="47.23909" lon="6.37184">
        <ele>621.14916992188</ele>
        <time>2012-04-29T08:07:55Z</time>
      </trkpt>
      <trkpt lat="47.23912" lon="6.37185">
        <ele>621.62963867188</ele>
        <time>2012-04-29T08:07:57Z</time>
      </trkpt>
      <trkpt lat="47.23923" lon="6.37186">
        <ele>622.1103515625</ele>
        <time>2012-04-29T08:08:01Z</time>
      </trkpt>
      <trkpt lat="47.23936" lon="6.37183">
        <ele>622.1103515625</ele>
        <time>2012-04-29T08:08:06Z</time>
      </trkpt>
      <trkpt lat="47.23936" lon="6.37168">
        <ele>621.62963867188</ele>
        <time>2012-04-29T08:08:10Z</time>
      </trkpt>
      <trkpt lat="47.23938" lon="6.37152">
        <ele>620.66845703125</ele>
        <time>2012-04-29T08:08:13Z</time>
      </trkpt>
      <trkpt lat="47.23938" lon="6.37144">
        <ele>619.70703125</ele>
        <time>2012-04-29T08:08:15Z</time>
      </trkpt>
      <trkpt lat="47.23935" lon="6.37129">
        <ele>617.7841796875</ele>
        <time>2012-04-29T08:08:19Z</time>
      </trkpt>
      <trkpt lat="47.23938" lon="6.37101">
        <ele>616.82299804688</ele>
        <time>2012-04-29T08:08:23Z</time>
      </trkpt>
      <trkpt lat="47.23939" lon="6.37084">
        <ele>615.38110351562</ele>
        <time>2012-04-29T08:08:25Z</time>
      </trkpt>
      <trkpt lat="47.23938" lon="6.37056">
        <ele>612.4970703125</ele>
        <time>2012-04-29T08:08:28Z</time>
      </trkpt>
      <trkpt lat="47.23939" lon="6.37046">
        <ele>612.4970703125</ele>
        <time>2012-04-29T08:08:29Z</time>
      </trkpt>
      <trkpt lat="47.23942" lon="6.37012">
        <ele>608.17138671875</ele>
        <time>2012-04-29T08:08:32Z</time>
      </trkpt>
      <trkpt lat="47.23948" lon="6.36986">
        <ele>607.69067382812</ele>
        <time>2012-04-29T08:08:34Z</time>
      </trkpt>
      <trkpt lat="47.23956" lon="6.36975">
        <ele>606.24853515625</ele>
        <time>2012-04-29T08:08:38Z</time>
      </trkpt>
      <trkpt lat="47.23967" lon="6.3696">
        <ele>606.72924804688</ele>
        <time>2012-04-29T08:08:41Z</time>
      </trkpt>
      <trkpt lat="47.23987" lon="6.36949">
        <ele>604.806640625</ele>
        <time>2012-04-29T08:08:45Z</time>
      </trkpt>
      <trkpt lat="47.23994" lon="6.36946">
        <ele>604.326171875</ele>
        <time>2012-04-29T08:08:46Z</time>
      </trkpt>
      <trkpt lat="47.24026" lon="6.36922">
        <ele>604.806640625</ele>
        <time>2012-04-29T08:08:52Z</time>
      </trkpt>
      <trkpt lat="47.24047" lon="6.36902">
        <ele>604.806640625</ele>
        <time>2012-04-29T08:08:55Z</time>
      </trkpt>
      <trkpt lat="47.24055" lon="6.36899">
        <ele>604.806640625</ele>
        <time>2012-04-29T08:08:59Z</time>
      </trkpt>
      <trkpt lat="47.24059" lon="6.36901">
        <ele>605.28735351562</ele>
        <time>2012-04-29T08:09:01Z</time>
      </trkpt>
      <trkpt lat="47.2407" lon="6.36906">
        <ele>606.24853515625</ele>
        <time>2012-04-29T08:09:06Z</time>
      </trkpt>
      <trkpt lat="47.24084" lon="6.36913">
        <ele>607.69067382812</ele>
        <time>2012-04-29T08:09:11Z</time>
      </trkpt>
      <trkpt lat="47.24097" lon="6.36914">
        <ele>608.17138671875</ele>
        <time>2012-04-29T08:09:15Z</time>
      </trkpt>
      <trkpt lat="47.24105" lon="6.36918">
        <ele>610.09375</ele>
        <time>2012-04-29T08:09:19Z</time>
      </trkpt>
      <trkpt lat="47.24129" lon="6.36934">
        <ele>612.0166015625</ele>
        <time>2012-04-29T08:09:29Z</time>
      </trkpt>
      <trkpt lat="47.24139" lon="6.36945">
        <ele>612.4970703125</ele>
        <time>2012-04-29T08:09:34Z</time>
      </trkpt>
      <trkpt lat="47.24148" lon="6.36952">
        <ele>612.4970703125</ele>
        <time>2012-04-29T08:09:39Z</time>
      </trkpt>
      <trkpt lat="47.24152" lon="6.36955">
        <ele>612.0166015625</ele>
        <time>2012-04-29T08:09:41Z</time>
      </trkpt>
      <trkpt lat="47.24161" lon="6.36947">
        <ele>608.17138671875</ele>
        <time>2012-04-29T08:09:46Z</time>
      </trkpt>
      <trkpt lat="47.24163" lon="6.36942">
        <ele>607.69067382812</ele>
        <time>2012-04-29T08:09:47Z</time>
      </trkpt>
      <trkpt lat="47.24176" lon="6.36907">
        <ele>603.84521484375</ele>
        <time>2012-04-29T08:09:51Z</time>
      </trkpt>
      <trkpt lat="47.24188" lon="6.36878">
        <ele>600.96118164062</ele>
        <time>2012-04-29T08:09:53Z</time>
      </trkpt>
      <trkpt lat="47.24208" lon="6.3684">
        <ele>598.55786132812</ele>
        <time>2012-04-29T08:09:56Z</time>
      </trkpt>
      <trkpt lat="47.24199" lon="6.36811">
        <ele>596.15478515625</ele>
        <time>2012-04-29T08:09:59Z</time>
      </trkpt>
      <trkpt lat="47.24193" lon="6.36808">
        <ele>596.15478515625</ele>
        <time>2012-04-29T08:10:00Z</time>
      </trkpt>
      <trkpt lat="47.24187" lon="6.36807">
        <ele>595.67407226562</ele>
        <time>2012-04-29T08:10:01Z</time>
      </trkpt>
      <trkpt lat="47.24174" lon="6.36803">
        <ele>595.193359375</ele>
        <time>2012-04-29T08:10:03Z</time>
      </trkpt>
      <trkpt lat="47.24146" lon="6.36801">
        <ele>595.193359375</ele>
        <time>2012-04-29T08:10:07Z</time>
      </trkpt>
      <trkpt lat="47.24117" lon="6.36797">
        <ele>594.23217773438</ele>
        <time>2012-04-29T08:10:11Z</time>
      </trkpt>
      <trkpt lat="47.24103" lon="6.36799">
        <ele>594.23217773438</ele>
        <time>2012-04-29T08:10:13Z</time>
      </trkpt>
      <trkpt lat="47.24087" lon="6.36775">
        <ele>591.82885742188</ele>
        <time>2012-04-29T08:10:16Z</time>
      </trkpt>
      <trkpt lat="47.24057" lon="6.36748">
        <ele>588.46435546875</ele>
        <time>2012-04-29T08:10:21Z</time>
      </trkpt>
      <trkpt lat="47.24045" lon="6.36741">
        <ele>587.02197265625</ele>
        <time>2012-04-29T08:10:23Z</time>
      </trkpt>
      <trkpt lat="47.24033" lon="6.36734">
        <ele>585.580078125</ele>
        <time>2012-04-29T08:10:25Z</time>
      </trkpt>
      <trkpt lat="47.24017" lon="6.36712">
        <ele>583.1767578125</ele>
        <time>2012-04-29T08:10:28Z</time>
      </trkpt>
      <trkpt lat="47.23989" lon="6.36659">
        <ele>581.25439453125</ele>
        <time>2012-04-29T08:10:32Z</time>
      </trkpt>
      <trkpt lat="47.23967" lon="6.36634">
        <ele>579.33154296875</ele>
        <time>2012-04-29T08:10:35Z</time>
      </trkpt>
      <trkpt lat="47.23954" lon="6.36617">
        <ele>577.8896484375</ele>
        <time>2012-04-29T08:10:37Z</time>
      </trkpt>
      <trkpt lat="47.23948" lon="6.36606">
        <ele>577.8896484375</ele>
        <time>2012-04-29T08:10:38Z</time>
      </trkpt>
      <trkpt lat="47.23934" lon="6.36588">
        <ele>576.92846679688</ele>
        <time>2012-04-29T08:10:40Z</time>
      </trkpt>
      <trkpt lat="47.23927" lon="6.3658">
        <ele>575.486328125</ele>
        <time>2012-04-29T08:10:41Z</time>
      </trkpt>
      <trkpt lat="47.23906" lon="6.3655">
        <ele>572.6025390625</ele>
        <time>2012-04-29T08:10:44Z</time>
      </trkpt>
      <trkpt lat="47.23881" lon="6.36522">
        <ele>568.2763671875</ele>
        <time>2012-04-29T08:10:47Z</time>
      </trkpt>
      <trkpt lat="47.23861" lon="6.36502">
        <ele>562.9892578125</ele>
        <time>2012-04-29T08:10:49Z</time>
      </trkpt>
      <trkpt lat="47.23831" lon="6.3647">
        <ele>559.62475585938</ele>
        <time>2012-04-29T08:10:52Z</time>
      </trkpt>
      <trkpt lat="47.23831" lon="6.3647">
        <ele>558.66333007812</ele>
        <time>2012-04-29T08:10:54Z</time>
      </trkpt>
      <trkpt lat="47.23831" lon="6.3647">
        <ele>556.26000976562</ele>
        <time>2012-04-29T08:11:02Z</time>
      </trkpt>
      <trkpt lat="47.23773" lon="6.36283">
        <ele>552.89526367188</ele>
        <time>2012-04-29T08:11:07Z</time>
      </trkpt>
      <trkpt lat="47.23754" lon="6.36222">
        <ele>550.4921875</ele>
        <time>2012-04-29T08:11:12Z</time>
      </trkpt>
      <trkpt lat="47.23735" lon="6.36179">
        <ele>548.0888671875</ele>
        <time>2012-04-29T08:11:16Z</time>
      </trkpt>
      <trkpt lat="47.23701" lon="6.36113">
        <ele>545.685546875</ele>
        <time>2012-04-29T08:11:22Z</time>
      </trkpt>
      <trkpt lat="47.23676" lon="6.36059">
        <ele>545.685546875</ele>
        <time>2012-04-29T08:11:27Z</time>
      </trkpt>
      <trkpt lat="47.23664" lon="6.36038">
        <ele>544.24365234375</ele>
        <time>2012-04-29T08:11:29Z</time>
      </trkpt>
      <trkpt lat="47.23661" lon="6.36026">
        <ele>544.24365234375</ele>
        <time>2012-04-29T08:11:30Z</time>
      </trkpt>
      <trkpt lat="47.23652" lon="6.36004">
        <ele>544.24365234375</ele>
        <time>2012-04-29T08:11:32Z</time>
      </trkpt>
      <trkpt lat="47.23637" lon="6.35961">
        <ele>543.76281738281</ele>
        <time>2012-04-29T08:11:36Z</time>
      </trkpt>
      <trkpt lat="47.23629" lon="6.35897">
        <ele>543.76281738281</ele>
        <time>2012-04-29T08:11:42Z</time>
      </trkpt>
      <trkpt lat="47.23648" lon="6.35858">
        <ele>540.39831542969</ele>
        <time>2012-04-29T08:11:46Z</time>
      </trkpt>
      <trkpt lat="47.23653" lon="6.35849">
        <ele>540.39831542969</ele>
        <time>2012-04-29T08:11:47Z</time>
      </trkpt>
      <trkpt lat="47.23666" lon="6.35832">
        <ele>539.43688964844</ele>
        <time>2012-04-29T08:11:49Z</time>
      </trkpt>
      <trkpt lat="47.23673" lon="6.35817">
        <ele>539.43688964844</ele>
        <time>2012-04-29T08:11:51Z</time>
      </trkpt>
      <trkpt lat="47.23684" lon="6.35784">
        <ele>538.47570800781</ele>
        <time>2012-04-29T08:11:55Z</time>
      </trkpt>
      <trkpt lat="47.23695" lon="6.35767">
        <ele>538.47570800781</ele>
        <time>2012-04-29T08:11:58Z</time>
      </trkpt>
      <trkpt lat="47.23706" lon="6.35748">
        <ele>538.47570800781</ele>
        <time>2012-04-29T08:12:01Z</time>
      </trkpt>
      <trkpt lat="47.23707" lon="6.35738">
        <ele>538.95629882812</ele>
        <time>2012-04-29T08:12:03Z</time>
      </trkpt>
      <trkpt lat="47.23724" lon="6.35708">
        <ele>538.95629882812</ele>
        <time>2012-04-29T08:12:11Z</time>
      </trkpt>
      <trkpt lat="47.23732" lon="6.35694">
        <ele>540.87890625</ele>
        <time>2012-04-29T08:12:16Z</time>
      </trkpt>
      <trkpt lat="47.23742" lon="6.35679">
        <ele>541.35949707031</ele>
        <time>2012-04-29T08:12:21Z</time>
      </trkpt>
      <trkpt lat="47.23745" lon="6.35675">
        <ele>540.87890625</ele>
        <time>2012-04-29T08:12:22Z</time>
      </trkpt>
      <trkpt lat="47.23749" lon="6.35668">
        <ele>541.35949707031</ele>
        <time>2012-04-29T08:12:27Z</time>
      </trkpt>
      <trkpt lat="47.2376" lon="6.35655">
        <ele>541.35949707031</ele>
        <time>2012-04-29T08:12:33Z</time>
      </trkpt>
      <trkpt lat="47.23768" lon="6.35642">
        <ele>541.35949707031</ele>
        <time>2012-04-29T08:12:40Z</time>
      </trkpt>
      <trkpt lat="47.23766" lon="6.35633">
        <ele>540.87890625</ele>
        <time>2012-04-29T08:12:45Z</time>
      </trkpt>
      <trkpt lat="47.23764" lon="6.35635">
        <ele>541.35949707031</ele>
        <time>2012-04-29T08:12:50Z</time>
      </trkpt>
      <trkpt lat="47.23767" lon="6.35628">
        <ele>539.91760253906</ele>
        <time>2012-04-29T08:12:53Z</time>
      </trkpt>
      <trkpt lat="47.23771" lon="6.35629">
        <ele>542.80151367188</ele>
        <time>2012-04-29T08:12:56Z</time>
      </trkpt>
      <trkpt lat="47.23772" lon="6.35629">
        <ele>540.87890625</ele>
        <time>2012-04-29T08:13:00Z</time>
      </trkpt>
      <trkpt lat="47.23766" lon="6.35643">
        <ele>540.87890625</ele>
        <time>2012-04-29T08:13:27Z</time>
      </trkpt>
      <trkpt lat="47.23769" lon="6.35624">
        <ele>541.35949707031</ele>
        <time>2012-04-29T08:13:33Z</time>
      </trkpt>
      <trkpt lat="47.23769" lon="6.35626">
        <ele>542.32092285156</ele>
        <time>2012-04-29T08:13:38Z</time>
      </trkpt>
      <trkpt lat="47.23779" lon="6.35636">
        <ele>541.84020996094</ele>
        <time>2012-04-29T08:13:43Z</time>
      </trkpt>
      <trkpt lat="47.23792" lon="6.35637">
        <ele>541.84020996094</ele>
        <time>2012-04-29T08:13:48Z</time>
      </trkpt>
      <trkpt lat="47.23888" lon="6.35639">
        <ele>542.80151367188</ele>
        <time>2012-04-29T08:14:13Z</time>
      </trkpt>
      <trkpt lat="47.23909" lon="6.35594">
        <ele>541.84020996094</ele>
        <time>2012-04-29T08:14:17Z</time>
      </trkpt>
      <trkpt lat="47.23951" lon="6.35568">
        <ele>540.87890625</ele>
        <time>2012-04-29T08:14:22Z</time>
      </trkpt>
      <trkpt lat="47.23967" lon="6.35564">
        <ele>541.35949707031</ele>
        <time>2012-04-29T08:14:24Z</time>
      </trkpt>
      <trkpt lat="47.24032" lon="6.35539">
        <ele>538.47570800781</ele>
        <time>2012-04-29T08:14:32Z</time>
      </trkpt>
      <trkpt lat="47.24091" lon="6.3552">
        <ele>537.99499511719</ele>
        <time>2012-04-29T08:14:40Z</time>
      </trkpt>
      <trkpt lat="47.24131" lon="6.35508">
        <ele>536.07238769531</ele>
        <time>2012-04-29T08:14:45Z</time>
      </trkpt>
      <trkpt lat="47.24154" lon="6.35502">
        <ele>535.59155273438</ele>
        <time>2012-04-29T08:14:48Z</time>
      </trkpt>
      <trkpt lat="47.2419" lon="6.35488">
        <ele>535.59155273438</ele>
        <time>2012-04-29T08:14:53Z</time>
      </trkpt>
      <trkpt lat="47.24224" lon="6.35474">
        <ele>536.55310058594</ele>
        <time>2012-04-29T08:14:58Z</time>
      </trkpt>
      <trkpt lat="47.24231" lon="6.35471">
        <ele>537.51428222656</ele>
        <time>2012-04-29T08:14:59Z</time>
      </trkpt>
      <trkpt lat="47.24264" lon="6.35474">
        <ele>537.51428222656</ele>
        <time>2012-04-29T08:15:04Z</time>
      </trkpt>
      <trkpt lat="47.2428" lon="6.35491">
        <ele>537.99499511719</ele>
        <time>2012-04-29T08:15:07Z</time>
      </trkpt>
      <trkpt lat="47.2431" lon="6.35507">
        <ele>537.51428222656</ele>
        <time>2012-04-29T08:15:12Z</time>
      </trkpt>
      <trkpt lat="47.24322" lon="6.35544">
        <ele>537.51428222656</ele>
        <time>2012-04-29T08:15:16Z</time>
      </trkpt>
      <trkpt lat="47.24466" lon="6.35503">
        <ele>537.03369140625</ele>
        <time>2012-04-29T08:15:40Z</time>
      </trkpt>
      <trkpt lat="47.24483" lon="6.35517">
        <ele>537.03369140625</ele>
        <time>2012-04-29T08:15:43Z</time>
      </trkpt>
      <trkpt lat="47.24504" lon="6.35483">
        <ele>538.95629882812</ele>
        <time>2012-04-29T08:15:47Z</time>
      </trkpt>
      <trkpt lat="47.24508" lon="6.35476">
        <ele>538.95629882812</ele>
        <time>2012-04-29T08:15:48Z</time>
      </trkpt>
      <trkpt lat="47.2451" lon="6.35434">
        <ele>539.43688964844</ele>
        <time>2012-04-29T08:15:53Z</time>
      </trkpt>
      <trkpt lat="47.24505" lon="6.35402">
        <ele>539.91760253906</ele>
        <time>2012-04-29T08:15:57Z</time>
      </trkpt>
      <trkpt lat="47.2451" lon="6.35363">
        <ele>540.39831542969</ele>
        <time>2012-04-29T08:16:02Z</time>
      </trkpt>
      <trkpt lat="47.24513" lon="6.35349">
        <ele>539.91760253906</ele>
        <time>2012-04-29T08:16:04Z</time>
      </trkpt>
      <trkpt lat="47.24519" lon="6.35322">
        <ele>539.43688964844</ele>
        <time>2012-04-29T08:16:07Z</time>
      </trkpt>
      <trkpt lat="47.2453" lon="6.3529">
        <ele>539.91760253906</ele>
        <time>2012-04-29T08:16:11Z</time>
      </trkpt>
      <trkpt lat="47.24547" lon="6.35276">
        <ele>538.95629882812</ele>
        <time>2012-04-29T08:16:14Z</time>
      </trkpt>
      <trkpt lat="47.24575" lon="6.3527">
        <ele>539.43688964844</ele>
        <time>2012-04-29T08:16:19Z</time>
      </trkpt>
      <trkpt lat="47.24596" lon="6.35283">
        <ele>538.95629882812</ele>
        <time>2012-04-29T08:16:23Z</time>
      </trkpt>
      <trkpt lat="47.24606" lon="6.35287">
        <ele>540.39831542969</ele>
        <time>2012-04-29T08:16:25Z</time>
      </trkpt>
      <trkpt lat="47.24636" lon="6.35298">
        <ele>541.84020996094</ele>
        <time>2012-04-29T08:16:31Z</time>
      </trkpt>
      <trkpt lat="47.24652" lon="6.35306">
        <ele>540.39831542969</ele>
        <time>2012-04-29T08:16:35Z</time>
      </trkpt>
      <trkpt lat="47.24665" lon="6.35311">
        <ele>539.91760253906</ele>
        <time>2012-04-29T08:16:38Z</time>
      </trkpt>
      <trkpt lat="47.2471" lon="6.35319">
        <ele>538.95629882812</ele>
        <time>2012-04-29T08:16:44Z</time>
      </trkpt>
      <trkpt lat="47.24746" lon="6.35334">
        <ele>538.95629882812</ele>
        <time>2012-04-29T08:16:49Z</time>
      </trkpt>
      <trkpt lat="47.24769" lon="6.35342">
        <ele>538.47570800781</ele>
        <time>2012-04-29T08:16:52Z</time>
      </trkpt>
      <trkpt lat="47.24796" lon="6.35349">
        <ele>537.99499511719</ele>
        <time>2012-04-29T08:16:57Z</time>
      </trkpt>
      <trkpt lat="47.24803" lon="6.35351">
        <ele>538.47570800781</ele>
        <time>2012-04-29T08:16:58Z</time>
      </trkpt>
      <trkpt lat="47.24824" lon="6.3537">
        <ele>538.95629882812</ele>
        <time>2012-04-29T08:17:03Z</time>
      </trkpt>
      <trkpt lat="47.24836" lon="6.35382">
        <ele>539.43688964844</ele>
        <time>2012-04-29T08:17:07Z</time>
      </trkpt>
      <trkpt lat="47.24862" lon="6.35403">
        <ele>538.95629882812</ele>
        <time>2012-04-29T08:17:12Z</time>
      </trkpt>
      <trkpt lat="47.24887" lon="6.3542">
        <ele>539.91760253906</ele>
        <time>2012-04-29T08:17:16Z</time>
      </trkpt>
      <trkpt lat="47.24901" lon="6.35434">
        <ele>539.43688964844</ele>
        <time>2012-04-29T08:17:19Z</time>
      </trkpt>
      <trkpt lat="47.24908" lon="6.35449">
        <ele>538.47570800781</ele>
        <time>2012-04-29T08:17:22Z</time>
      </trkpt>
      <trkpt lat="47.2492" lon="6.35476">
        <ele>539.43688964844</ele>
        <time>2012-04-29T08:17:27Z</time>
      </trkpt>
      <trkpt lat="47.24918" lon="6.35495">
        <ele>538.95629882812</ele>
        <time>2012-04-29T08:17:29Z</time>
      </trkpt>
      <trkpt lat="47.24894" lon="6.35578">
        <ele>537.99499511719</ele>
        <time>2012-04-29T08:17:35Z</time>
      </trkpt>
      <trkpt lat="47.24888" lon="6.35622">
        <ele>537.03369140625</ele>
        <time>2012-04-29T08:17:39Z</time>
      </trkpt>
      <trkpt lat="47.24875" lon="6.35681">
        <ele>535.59155273438</ele>
        <time>2012-04-29T08:17:45Z</time>
      </trkpt>
      <trkpt lat="47.24871" lon="6.35698">
        <ele>536.07238769531</ele>
        <time>2012-04-29T08:17:47Z</time>
      </trkpt>
      <trkpt lat="47.24872" lon="6.35722">
        <ele>537.51428222656</ele>
        <time>2012-04-29T08:17:51Z</time>
      </trkpt>
      <trkpt lat="47.24881" lon="6.35734">
        <ele>537.03369140625</ele>
        <time>2012-04-29T08:17:54Z</time>
      </trkpt>
      <trkpt lat="47.24911" lon="6.35745">
        <ele>536.07238769531</ele>
        <time>2012-04-29T08:17:59Z</time>
      </trkpt>
      <trkpt lat="47.24936" lon="6.35759">
        <ele>537.51428222656</ele>
        <time>2012-04-29T08:18:03Z</time>
      </trkpt>
      <trkpt lat="47.24945" lon="6.35798">
        <ele>537.51428222656</ele>
        <time>2012-04-29T08:18:08Z</time>
      </trkpt>
      <trkpt lat="47.2494" lon="6.35824">
        <ele>537.51428222656</ele>
        <time>2012-04-29T08:18:11Z</time>
      </trkpt>
      <trkpt lat="47.24939" lon="6.35858">
        <ele>536.07238769531</ele>
        <time>2012-04-29T08:18:16Z</time>
      </trkpt>
      <trkpt lat="47.24948" lon="6.35891">
        <ele>535.59155273438</ele>
        <time>2012-04-29T08:18:21Z</time>
      </trkpt>
      <trkpt lat="47.24957" lon="6.35927">
        <ele>535.59155273438</ele>
        <time>2012-04-29T08:18:26Z</time>
      </trkpt>
      <trkpt lat="47.24965" lon="6.35954">
        <ele>535.59155273438</ele>
        <time>2012-04-29T08:18:29Z</time>
      </trkpt>
      <trkpt lat="47.24967" lon="6.35995">
        <ele>537.51428222656</ele>
        <time>2012-04-29T08:18:32Z</time>
      </trkpt>
      <trkpt lat="47.24963" lon="6.36029">
        <ele>538.47570800781</ele>
        <time>2012-04-29T08:18:34Z</time>
      </trkpt>
      <trkpt lat="47.24955" lon="6.36048">
        <ele>538.47570800781</ele>
        <time>2012-04-29T08:18:36Z</time>
      </trkpt>
      <trkpt lat="47.24934" lon="6.36083">
        <ele>538.95629882812</ele>
        <time>2012-04-29T08:18:41Z</time>
      </trkpt>
      <trkpt lat="47.24916" lon="6.36123">
        <ele>537.99499511719</ele>
        <time>2012-04-29T08:18:46Z</time>
      </trkpt>
      <trkpt lat="47.24907" lon="6.36157">
        <ele>537.03369140625</ele>
        <time>2012-04-29T08:18:50Z</time>
      </trkpt>
      <trkpt lat="47.24903" lon="6.36177">
        <ele>537.99499511719</ele>
        <time>2012-04-29T08:18:55Z</time>
      </trkpt>
      <trkpt lat="47.24904" lon="6.36176">
        <ele>538.95629882812</ele>
        <time>2012-04-29T08:18:59Z</time>
      </trkpt>
      <trkpt lat="47.24908" lon="6.36176">
        <ele>537.99499511719</ele>
        <time>2012-04-29T08:19:04Z</time>
      </trkpt>
      <trkpt lat="47.24907" lon="6.36187">
        <ele>538.95629882812</ele>
        <time>2012-04-29T08:19:35Z</time>
      </trkpt>
      <trkpt lat="47.24921" lon="6.36196">
        <ele>538.95629882812</ele>
        <time>2012-04-29T08:19:39Z</time>
      </trkpt>
      <trkpt lat="47.24935" lon="6.3621">
        <ele>537.03369140625</ele>
        <time>2012-04-29T08:19:42Z</time>
      </trkpt>
      <trkpt lat="47.24947" lon="6.36221">
        <ele>537.51428222656</ele>
        <time>2012-04-29T08:19:44Z</time>
      </trkpt>
      <trkpt lat="47.24976" lon="6.36227">
        <ele>537.51428222656</ele>
        <time>2012-04-29T08:19:48Z</time>
      </trkpt>
      <trkpt lat="47.25" lon="6.36225">
        <ele>536.55310058594</ele>
        <time>2012-04-29T08:19:52Z</time>
      </trkpt>
      <trkpt lat="47.25003" lon="6.36228">
        <ele>536.07238769531</ele>
        <time>2012-04-29T08:19:53Z</time>
      </trkpt>
      <trkpt lat="47.25025" lon="6.36233">
        <ele>533.18835449219</ele>
        <time>2012-04-29T08:19:58Z</time>
      </trkpt>
      <trkpt lat="47.25029" lon="6.36236">
        <ele>532.70776367188</ele>
        <time>2012-04-29T08:19:59Z</time>
      </trkpt>
      <trkpt lat="47.25043" lon="6.36242">
        <ele>534.63037109375</ele>
        <time>2012-04-29T08:20:02Z</time>
      </trkpt>
      <trkpt lat="47.25049" lon="6.36248">
        <ele>535.59155273438</ele>
        <time>2012-04-29T08:20:04Z</time>
      </trkpt>
      <trkpt lat="47.25052" lon="6.3625">
        <ele>536.07238769531</ele>
        <time>2012-04-29T08:20:05Z</time>
      </trkpt>
      <trkpt lat="47.25067" lon="6.36261">
        <ele>537.51428222656</ele>
        <time>2012-04-29T08:20:10Z</time>
      </trkpt>
      <trkpt lat="47.25073" lon="6.36277">
        <ele>537.51428222656</ele>
        <time>2012-04-29T08:20:14Z</time>
      </trkpt>
      <trkpt lat="47.25073" lon="6.36286">
        <ele>537.03369140625</ele>
        <time>2012-04-29T08:20:16Z</time>
      </trkpt>
      <trkpt lat="47.25076" lon="6.36305">
        <ele>536.55310058594</ele>
        <time>2012-04-29T08:20:21Z</time>
      </trkpt>
      <trkpt lat="47.25075" lon="6.36313">
        <ele>537.03369140625</ele>
        <time>2012-04-29T08:20:25Z</time>
      </trkpt>
      <trkpt lat="47.25075" lon="6.36324">
        <ele>537.03369140625</ele>
        <time>2012-04-29T08:20:30Z</time>
      </trkpt>
      <trkpt lat="47.25068" lon="6.36342">
        <ele>537.03369140625</ele>
        <time>2012-04-29T08:20:34Z</time>
      </trkpt>
      <trkpt lat="47.2506" lon="6.36371">
        <ele>537.03369140625</ele>
        <time>2012-04-29T08:20:40Z</time>
      </trkpt>
      <trkpt lat="47.25055" lon="6.36387">
        <ele>537.03369140625</ele>
        <time>2012-04-29T08:20:44Z</time>
      </trkpt>
      <trkpt lat="47.25047" lon="6.36393">
        <ele>537.51428222656</ele>
        <time>2012-04-29T08:20:48Z</time>
      </trkpt>
      <trkpt lat="47.25045" lon="6.36391">
        <ele>537.99499511719</ele>
        <time>2012-04-29T08:20:49Z</time>
      </trkpt>
      <trkpt lat="47.25034" lon="6.36383">
        <ele>536.55310058594</ele>
        <time>2012-04-29T08:20:54Z</time>
      </trkpt>
      <trkpt lat="47.25017" lon="6.36368">
        <ele>538.47570800781</ele>
        <time>2012-04-29T08:21:01Z</time>
      </trkpt>
      <trkpt lat="47.25005" lon="6.36361">
        <ele>538.95629882812</ele>
        <time>2012-04-29T08:21:06Z</time>
      </trkpt>
      <trkpt lat="47.2499" lon="6.36348">
        <ele>537.99499511719</ele>
        <time>2012-04-29T08:21:12Z</time>
      </trkpt>
      <trkpt lat="47.24979" lon="6.3634">
        <ele>538.95629882812</ele>
        <time>2012-04-29T08:21:16Z</time>
      </trkpt>
      <trkpt lat="47.24972" lon="6.36339">
        <ele>538.95629882812</ele>
        <time>2012-04-29T08:21:18Z</time>
      </trkpt>
      <trkpt lat="47.24959" lon="6.36349">
        <ele>538.95629882812</ele>
        <time>2012-04-29T08:21:24Z</time>
      </trkpt>
      <trkpt lat="47.24957" lon="6.36355">
        <ele>539.43688964844</ele>
        <time>2012-04-29T08:21:27Z</time>
      </trkpt>
      <trkpt lat="47.2495" lon="6.36367">
        <ele>539.43688964844</ele>
        <time>2012-04-29T08:21:32Z</time>
      </trkpt>
      <trkpt lat="47.24947" lon="6.36368">
        <ele>539.91760253906</ele>
        <time>2012-04-29T08:21:34Z</time>
      </trkpt>
      <trkpt lat="47.24934" lon="6.36365">
        <ele>539.43688964844</ele>
        <time>2012-04-29T08:21:40Z</time>
      </trkpt>
      <trkpt lat="47.2493" lon="6.36365">
        <ele>540.87890625</ele>
        <time>2012-04-29T08:21:42Z</time>
      </trkpt>
      <trkpt lat="47.24919" lon="6.36377">
        <ele>543.28210449219</ele>
        <time>2012-04-29T08:21:46Z</time>
      </trkpt>
      <trkpt lat="47.24914" lon="6.36386">
        <ele>539.91760253906</ele>
        <time>2012-04-29T08:21:49Z</time>
      </trkpt>
      <trkpt lat="47.24904" lon="6.36404">
        <ele>537.99499511719</ele>
        <time>2012-04-29T08:21:53Z</time>
      </trkpt>
      <trkpt lat="47.24893" lon="6.36422">
        <ele>536.07238769531</ele>
        <time>2012-04-29T08:21:56Z</time>
      </trkpt>
      <trkpt lat="47.24872" lon="6.36446">
        <ele>535.59155273438</ele>
        <time>2012-04-29T08:22:00Z</time>
      </trkpt>
      <trkpt lat="47.2486" lon="6.36446">
        <ele>536.07238769531</ele>
        <time>2012-04-29T08:22:02Z</time>
      </trkpt>
      <trkpt lat="47.24836" lon="6.36454">
        <ele>536.07238769531</ele>
        <time>2012-04-29T08:22:07Z</time>
      </trkpt>
      <trkpt lat="47.24821" lon="6.36472">
        <ele>537.51428222656</ele>
        <time>2012-04-29T08:22:12Z</time>
      </trkpt>
      <trkpt lat="47.24802" lon="6.36495">
        <ele>538.47570800781</ele>
        <time>2012-04-29T08:22:17Z</time>
      </trkpt>
      <trkpt lat="47.24788" lon="6.36509">
        <ele>537.99499511719</ele>
        <time>2012-04-29T08:22:20Z</time>
      </trkpt>
      <trkpt lat="47.24766" lon="6.36513">
        <ele>538.95629882812</ele>
        <time>2012-04-29T08:22:24Z</time>
      </trkpt>
      <trkpt lat="47.2474" lon="6.36515">
        <ele>538.47570800781</ele>
        <time>2012-04-29T08:22:29Z</time>
      </trkpt>
      <trkpt lat="47.24713" lon="6.36524">
        <ele>539.43688964844</ele>
        <time>2012-04-29T08:22:34Z</time>
      </trkpt>
      <trkpt lat="47.24694" lon="6.36529">
        <ele>540.39831542969</ele>
        <time>2012-04-29T08:22:38Z</time>
      </trkpt>
      <trkpt lat="47.24655" lon="6.36541">
        <ele>541.35949707031</ele>
        <time>2012-04-29T08:22:46Z</time>
      </trkpt>
      <trkpt lat="47.2463" lon="6.36555">
        <ele>541.35949707031</ele>
        <time>2012-04-29T08:22:52Z</time>
      </trkpt>
      <trkpt lat="47.24599" lon="6.36556">
        <ele>538.95629882812</ele>
        <time>2012-04-29T08:22:58Z</time>
      </trkpt>
      <trkpt lat="47.24575" lon="6.3655">
        <ele>538.47570800781</ele>
        <time>2012-04-29T08:23:02Z</time>
      </trkpt>
      <trkpt lat="47.24572" lon="6.36564">
        <ele>538.95629882812</ele>
        <time>2012-04-29T08:23:05Z</time>
      </trkpt>
      <trkpt lat="47.24581" lon="6.3657">
        <ele>538.47570800781</ele>
        <time>2012-04-29T08:23:07Z</time>
      </trkpt>
      <trkpt lat="47.24602" lon="6.36584">
        <ele>538.47570800781</ele>
        <time>2012-04-29T08:23:11Z</time>
      </trkpt>
      <trkpt lat="47.24711" lon="6.36683">
        <ele>539.43688964844</ele>
        <time>2012-04-29T08:23:35Z</time>
      </trkpt>
      <trkpt lat="47.24725" lon="6.36741">
        <ele>540.39831542969</ele>
        <time>2012-04-29T08:23:41Z</time>
      </trkpt>
      <trkpt lat="47.24743" lon="6.36767">
        <ele>540.39831542969</ele>
        <time>2012-04-29T08:23:46Z</time>
      </trkpt>
      <trkpt lat="47.2477" lon="6.36809">
        <ele>540.87890625</ele>
        <time>2012-04-29T08:23:54Z</time>
      </trkpt>
      <trkpt lat="47.24788" lon="6.36826">
        <ele>540.39831542969</ele>
        <time>2012-04-29T08:23:58Z</time>
      </trkpt>
      <trkpt lat="47.24818" lon="6.3684">
        <ele>539.91760253906</ele>
        <time>2012-04-29T08:24:04Z</time>
      </trkpt>
      <trkpt lat="47.2494" lon="6.3689">
        <ele>540.87890625</ele>
        <time>2012-04-29T08:24:37Z</time>
      </trkpt>
      <trkpt lat="47.24942" lon="6.36894">
        <ele>540.87890625</ele>
        <time>2012-04-29T08:24:38Z</time>
      </trkpt>
      <trkpt lat="47.24975" lon="6.36902">
        <ele>541.84020996094</ele>
        <time>2012-04-29T08:24:45Z</time>
      </trkpt>
      <trkpt lat="47.24996" lon="6.36909">
        <ele>542.32092285156</ele>
        <time>2012-04-29T08:24:50Z</time>
      </trkpt>
      <trkpt lat="47.24997" lon="6.36905">
        <ele>542.80151367188</ele>
        <time>2012-04-29T08:24:55Z</time>
      </trkpt>
      <trkpt lat="47.24998" lon="6.36915">
        <ele>543.28210449219</ele>
        <time>2012-04-29T08:25:13Z</time>
      </trkpt>
      <trkpt lat="47.25002" lon="6.36915">
        <ele>543.76281738281</ele>
        <time>2012-04-29T08:25:16Z</time>
      </trkpt>
      <trkpt lat="47.25026" lon="6.3693">
        <ele>542.80151367188</ele>
        <time>2012-04-29T08:25:22Z</time>
      </trkpt>
      <trkpt lat="47.25037" lon="6.36937">
        <ele>541.84020996094</ele>
        <time>2012-04-29T08:25:26Z</time>
      </trkpt>
      <trkpt lat="47.25039" lon="6.36938">
        <ele>542.32092285156</ele>
        <time>2012-04-29T08:25:27Z</time>
      </trkpt>
      <trkpt lat="47.25041" lon="6.36936">
        <ele>542.32092285156</ele>
        <time>2012-04-29T08:25:29Z</time>
      </trkpt>
      <trkpt lat="47.25041" lon="6.36933">
        <ele>542.32092285156</ele>
        <time>2012-04-29T08:25:32Z</time>
      </trkpt>
      <trkpt lat="47.25042" lon="6.36936">
        <ele>541.84020996094</ele>
        <time>2012-04-29T08:25:34Z</time>
      </trkpt>
      <trkpt lat="47.25052" lon="6.36947">
        <ele>541.84020996094</ele>
        <time>2012-04-29T08:25:39Z</time>
      </trkpt>
      <trkpt lat="47.25057" lon="6.36947">
        <ele>541.35949707031</ele>
        <time>2012-04-29T08:25:43Z</time>
      </trkpt>
      <trkpt lat="47.25059" lon="6.36948">
        <ele>540.87890625</ele>
        <time>2012-04-29T08:25:46Z</time>
      </trkpt>
      <trkpt lat="47.25067" lon="6.3696">
        <ele>540.87890625</ele>
        <time>2012-04-29T08:25:50Z</time>
      </trkpt>
      <trkpt lat="47.25084" lon="6.36989">
        <ele>541.35949707031</ele>
        <time>2012-04-29T08:25:54Z</time>
      </trkpt>
      <trkpt lat="47.25114" lon="6.37043">
        <ele>540.39831542969</ele>
        <time>2012-04-29T08:26:00Z</time>
      </trkpt>
      <trkpt lat="47.25137" lon="6.37093">
        <ele>537.51428222656</ele>
        <time>2012-04-29T08:26:05Z</time>
      </trkpt>
      <trkpt lat="47.25145" lon="6.37114">
        <ele>536.07238769531</ele>
        <time>2012-04-29T08:26:07Z</time>
      </trkpt>
      <trkpt lat="47.25167" lon="6.37165">
        <ele>532.70776367188</ele>
        <time>2012-04-29T08:26:12Z</time>
      </trkpt>
      <trkpt lat="47.25179" lon="6.37196">
        <ele>529.34313964844</ele>
        <time>2012-04-29T08:26:15Z</time>
      </trkpt>
      <trkpt lat="47.25192" lon="6.37226">
        <ele>525.49780273438</ele>
        <time>2012-04-29T08:26:18Z</time>
      </trkpt>
      <trkpt lat="47.25205" lon="6.37257">
        <ele>522.61389160156</ele>
        <time>2012-04-29T08:26:21Z</time>
      </trkpt>
      <trkpt lat="47.25213" lon="6.37277">
        <ele>521.17199707031</ele>
        <time>2012-04-29T08:26:23Z</time>
      </trkpt>
      <trkpt lat="47.253" lon="6.37174">
        <ele>519.24926757812</ele>
        <time>2012-04-29T08:26:27Z</time>
      </trkpt>
      <trkpt lat="47.253" lon="6.37174">
        <ele>516.84594726562</ele>
        <time>2012-04-29T08:26:32Z</time>
      </trkpt>
      <trkpt lat="47.25187" lon="6.36825">
        <ele>516.84594726562</ele>
        <time>2012-04-29T08:26:39Z</time>
      </trkpt>
      <trkpt lat="47.25196" lon="6.36852">
        <ele>516.365234375</ele>
        <time>2012-04-29T08:26:42Z</time>
      </trkpt>
      <trkpt lat="47.25208" lon="6.36875">
        <ele>516.365234375</ele>
        <time>2012-04-29T08:26:45Z</time>
      </trkpt>
      <trkpt lat="47.25225" lon="6.36907">
        <ele>515.88464355469</ele>
        <time>2012-04-29T08:26:50Z</time>
      </trkpt>
      <trkpt lat="47.25239" lon="6.36932">
        <ele>516.84594726562</ele>
        <time>2012-04-29T08:26:54Z</time>
      </trkpt>
      <trkpt lat="47.2525" lon="6.36965">
        <ele>515.88464355469</ele>
        <time>2012-04-29T08:26:59Z</time>
      </trkpt>
      <trkpt lat="47.25259" lon="6.37004">
        <ele>516.365234375</ele>
        <time>2012-04-29T08:27:05Z</time>
      </trkpt>
      <trkpt lat="47.25271" lon="6.37035">
        <ele>516.365234375</ele>
        <time>2012-04-29T08:27:10Z</time>
      </trkpt>
      <trkpt lat="47.25282" lon="6.37045">
        <ele>517.32666015625</ele>
        <time>2012-04-29T08:27:14Z</time>
      </trkpt>
      <trkpt lat="47.25288" lon="6.37051">
        <ele>518.28784179688</ele>
        <time>2012-04-29T08:27:17Z</time>
      </trkpt>
      <trkpt lat="47.25298" lon="6.37058">
        <ele>518.7685546875</ele>
        <time>2012-04-29T08:27:20Z</time>
      </trkpt>
      <trkpt lat="47.25302" lon="6.37062">
        <ele>519.72985839844</ele>
        <time>2012-04-29T08:27:22Z</time>
      </trkpt>
      <trkpt lat="47.25306" lon="6.37069">
        <ele>521.17199707031</ele>
        <time>2012-04-29T08:27:25Z</time>
      </trkpt>
      <trkpt lat="47.25311" lon="6.37074">
        <ele>521.65258789062</ele>
        <time>2012-04-29T08:27:28Z</time>
      </trkpt>
      <trkpt lat="47.25322" lon="6.37087">
        <ele>524.53649902344</ele>
        <time>2012-04-29T08:27:36Z</time>
      </trkpt>
      <trkpt lat="47.25325" lon="6.37089">
        <ele>525.01721191406</ele>
        <time>2012-04-29T08:27:38Z</time>
      </trkpt>
      <trkpt lat="47.25331" lon="6.37096">
        <ele>527.42041015625</ele>
        <time>2012-04-29T08:27:44Z</time>
      </trkpt>
      <trkpt lat="47.25336" lon="6.37101">
        <ele>527.42041015625</ele>
        <time>2012-04-29T08:27:49Z</time>
      </trkpt>
      <trkpt lat="47.25343" lon="6.37104">
        <ele>529.34313964844</ele>
        <time>2012-04-29T08:27:55Z</time>
      </trkpt>
      <trkpt lat="47.25368" lon="6.3711">
        <ele>532.70776367188</ele>
        <time>2012-04-29T08:28:09Z</time>
      </trkpt>
      <trkpt lat="47.25381" lon="6.37112">
        <ele>533.6689453125</ele>
        <time>2012-04-29T08:28:15Z</time>
      </trkpt>
      <trkpt lat="47.25391" lon="6.37113">
        <ele>533.6689453125</ele>
        <time>2012-04-29T08:28:20Z</time>
      </trkpt>
      <trkpt lat="47.25396" lon="6.37112">
        <ele>534.14965820312</ele>
        <time>2012-04-29T08:28:23Z</time>
      </trkpt>
      <trkpt lat="47.25405" lon="6.37101">
        <ele>535.11096191406</ele>
        <time>2012-04-29T08:28:29Z</time>
      </trkpt>
      <trkpt lat="47.25412" lon="6.37082">
        <ele>533.6689453125</ele>
        <time>2012-04-29T08:28:35Z</time>
      </trkpt>
      <trkpt lat="47.25419" lon="6.37062">
        <ele>533.18835449219</ele>
        <time>2012-04-29T08:28:40Z</time>
      </trkpt>
      <trkpt lat="47.25423" lon="6.37043">
        <ele>533.18835449219</ele>
        <time>2012-04-29T08:28:44Z</time>
      </trkpt>
      <trkpt lat="47.25427" lon="6.37024">
        <ele>533.18835449219</ele>
        <time>2012-04-29T08:28:49Z</time>
      </trkpt>
      <trkpt lat="47.25422" lon="6.36993">
        <ele>532.70776367188</ele>
        <time>2012-04-29T08:28:55Z</time>
      </trkpt>
      <trkpt lat="47.2542" lon="6.36981">
        <ele>533.18835449219</ele>
        <time>2012-04-29T08:28:58Z</time>
      </trkpt>
      <trkpt lat="47.25422" lon="6.3697">
        <ele>533.6689453125</ele>
        <time>2012-04-29T08:29:02Z</time>
      </trkpt>
      <trkpt lat="47.25428" lon="6.3696">
        <ele>534.63037109375</ele>
        <time>2012-04-29T08:29:08Z</time>
      </trkpt>
      <trkpt lat="47.25432" lon="6.36957">
        <ele>535.11096191406</ele>
        <time>2012-04-29T08:29:12Z</time>
      </trkpt>
      <trkpt lat="47.25441" lon="6.36953">
        <ele>536.55310058594</ele>
        <time>2012-04-29T08:29:17Z</time>
      </trkpt>
      <trkpt lat="47.2545" lon="6.36949">
        <ele>537.03369140625</ele>
        <time>2012-04-29T08:29:22Z</time>
      </trkpt>
      <trkpt lat="47.25455" lon="6.36946">
        <ele>537.99499511719</ele>
        <time>2012-04-29T08:29:26Z</time>
      </trkpt>
      <trkpt lat="47.25467" lon="6.36929">
        <ele>537.51428222656</ele>
        <time>2012-04-29T08:29:31Z</time>
      </trkpt>
      <trkpt lat="47.25479" lon="6.36916">
        <ele>537.51428222656</ele>
        <time>2012-04-29T08:29:37Z</time>
      </trkpt>
      <trkpt lat="47.25493" lon="6.36899">
        <ele>537.03369140625</ele>
        <time>2012-04-29T08:29:43Z</time>
      </trkpt>
      <trkpt lat="47.25509" lon="6.36876">
        <ele>536.55310058594</ele>
        <time>2012-04-29T08:29:48Z</time>
      </trkpt>
      <trkpt lat="47.2553" lon="6.36861">
        <ele>537.03369140625</ele>
        <time>2012-04-29T08:29:54Z</time>
      </trkpt>
      <trkpt lat="47.25552" lon="6.3684">
        <ele>537.99499511719</ele>
        <time>2012-04-29T08:29:59Z</time>
      </trkpt>
      <trkpt lat="47.25565" lon="6.36823">
        <ele>538.47570800781</ele>
        <time>2012-04-29T08:30:03Z</time>
      </trkpt>
      <trkpt lat="47.2557" lon="6.36811">
        <ele>537.99499511719</ele>
        <time>2012-04-29T08:30:05Z</time>
      </trkpt>
      <trkpt lat="47.25573" lon="6.36796">
        <ele>537.51428222656</ele>
        <time>2012-04-29T08:30:07Z</time>
      </trkpt>
      <trkpt lat="47.25586" lon="6.36756">
        <ele>535.11096191406</ele>
        <time>2012-04-29T08:30:12Z</time>
      </trkpt>
      <trkpt lat="47.25593" lon="6.36739">
        <ele>535.59155273438</ele>
        <time>2012-04-29T08:30:14Z</time>
      </trkpt>
      <trkpt lat="47.25603" lon="6.3672">
        <ele>535.11096191406</ele>
        <time>2012-04-29T08:30:18Z</time>
      </trkpt>
      <trkpt lat="47.25613" lon="6.36691">
        <ele>537.03369140625</ele>
        <time>2012-04-29T08:30:23Z</time>
      </trkpt>
      <trkpt lat="47.25621" lon="6.36659">
        <ele>539.43688964844</ele>
        <time>2012-04-29T08:30:28Z</time>
      </trkpt>
      <trkpt lat="47.25627" lon="6.36641">
        <ele>538.95629882812</ele>
        <time>2012-04-29T08:30:32Z</time>
      </trkpt>
      <trkpt lat="47.25632" lon="6.3662">
        <ele>540.39831542969</ele>
        <time>2012-04-29T08:30:37Z</time>
      </trkpt>
      <trkpt lat="47.25638" lon="6.36592">
        <ele>539.43688964844</ele>
        <time>2012-04-29T08:30:42Z</time>
      </trkpt>
      <trkpt lat="47.2564" lon="6.36577">
        <ele>538.95629882812</ele>
        <time>2012-04-29T08:30:44Z</time>
      </trkpt>
      <trkpt lat="47.25641" lon="6.36547">
        <ele>538.95629882812</ele>
        <time>2012-04-29T08:30:49Z</time>
      </trkpt>
      <trkpt lat="47.25639" lon="6.36541">
        <ele>539.43688964844</ele>
        <time>2012-04-29T08:30:50Z</time>
      </trkpt>
      <trkpt lat="47.25637" lon="6.36519">
        <ele>538.95629882812</ele>
        <time>2012-04-29T08:30:54Z</time>
      </trkpt>
      <trkpt lat="47.25634" lon="6.36505">
        <ele>537.99499511719</ele>
        <time>2012-04-29T08:30:56Z</time>
      </trkpt>
      <trkpt lat="47.25623" lon="6.36461">
        <ele>538.47570800781</ele>
        <time>2012-04-29T08:31:01Z</time>
      </trkpt>
      <trkpt lat="47.25619" lon="6.36428">
        <ele>537.51428222656</ele>
        <time>2012-04-29T08:31:06Z</time>
      </trkpt>
      <trkpt lat="47.25618" lon="6.36412">
        <ele>537.51428222656</ele>
        <time>2012-04-29T08:31:08Z</time>
      </trkpt>
      <trkpt lat="47.25615" lon="6.36375">
        <ele>537.99499511719</ele>
        <time>2012-04-29T08:31:14Z</time>
      </trkpt>
      <trkpt lat="47.25615" lon="6.36365">
        <ele>538.47570800781</ele>
        <time>2012-04-29T08:31:16Z</time>
      </trkpt>
      <trkpt lat="47.25615" lon="6.36347">
        <ele>539.43688964844</ele>
        <time>2012-04-29T08:31:20Z</time>
      </trkpt>
      <trkpt lat="47.25628" lon="6.36359">
        <ele>540.39831542969</ele>
        <time>2012-04-29T08:31:26Z</time>
      </trkpt>
      <trkpt lat="47.25635" lon="6.36367">
        <ele>540.87890625</ele>
        <time>2012-04-29T08:31:30Z</time>
      </trkpt>
      <trkpt lat="47.25641" lon="6.36371">
        <ele>540.87890625</ele>
        <time>2012-04-29T08:31:33Z</time>
      </trkpt>
      <trkpt lat="47.25649" lon="6.36377">
        <ele>541.35949707031</ele>
        <time>2012-04-29T08:31:37Z</time>
      </trkpt>
      <trkpt lat="47.25658" lon="6.3638">
        <ele>542.32092285156</ele>
        <time>2012-04-29T08:31:41Z</time>
      </trkpt>
      <trkpt lat="47.25668" lon="6.36392">
        <ele>543.28210449219</ele>
        <time>2012-04-29T08:31:45Z</time>
      </trkpt>
      <trkpt lat="47.25679" lon="6.36408">
        <ele>544.24365234375</ele>
        <time>2012-04-29T08:31:51Z</time>
      </trkpt>
      <trkpt lat="47.25689" lon="6.3642">
        <ele>545.20483398438</ele>
        <time>2012-04-29T08:31:56Z</time>
      </trkpt>
      <trkpt lat="47.25694" lon="6.36427">
        <ele>545.20483398438</ele>
        <time>2012-04-29T08:31:59Z</time>
      </trkpt>
      <trkpt lat="47.25705" lon="6.36434">
        <ele>546.64685058594</ele>
        <time>2012-04-29T08:32:05Z</time>
      </trkpt>
      <trkpt lat="47.25718" lon="6.36452">
        <ele>547.60815429688</ele>
        <time>2012-04-29T08:32:11Z</time>
      </trkpt>
      <trkpt lat="47.25721" lon="6.36457">
        <ele>547.60815429688</ele>
        <time>2012-04-29T08:32:13Z</time>
      </trkpt>
      <trkpt lat="47.2573" lon="6.36469">
        <ele>549.05004882812</ele>
        <time>2012-04-29T08:32:18Z</time>
      </trkpt>
      <trkpt lat="47.25748" lon="6.36491">
        <ele>550.01147460938</ele>
        <time>2012-04-29T08:32:25Z</time>
      </trkpt>
      <trkpt lat="47.2576" lon="6.3651">
        <ele>551.45336914062</ele>
        <time>2012-04-29T08:32:31Z</time>
      </trkpt>
      <trkpt lat="47.25768" lon="6.36524">
        <ele>552.41455078125</ele>
        <time>2012-04-29T08:32:37Z</time>
      </trkpt>
      <trkpt lat="47.25775" lon="6.36537">
        <ele>552.41455078125</ele>
        <time>2012-04-29T08:32:42Z</time>
      </trkpt>
      <trkpt lat="47.25785" lon="6.36551">
        <ele>552.89526367188</ele>
        <time>2012-04-29T08:32:47Z</time>
      </trkpt>
      <trkpt lat="47.25797" lon="6.36566">
        <ele>555.29858398438</ele>
        <time>2012-04-29T08:32:52Z</time>
      </trkpt>
      <trkpt lat="47.258" lon="6.36568">
        <ele>556.26000976562</ele>
        <time>2012-04-29T08:32:54Z</time>
      </trkpt>
      <trkpt lat="47.25811" lon="6.36584">
        <ele>556.26000976562</ele>
        <time>2012-04-29T08:32:59Z</time>
      </trkpt>
      <trkpt lat="47.25818" lon="6.36596">
        <ele>557.22143554688</ele>
        <time>2012-04-29T08:33:03Z</time>
      </trkpt>
      <trkpt lat="47.25828" lon="6.36605">
        <ele>557.7021484375</ele>
        <time>2012-04-29T08:33:08Z</time>
      </trkpt>
      <trkpt lat="47.25835" lon="6.36617">
        <ele>558.18286132812</ele>
        <time>2012-04-29T08:33:12Z</time>
      </trkpt>
      <trkpt lat="47.25843" lon="6.36634">
        <ele>558.66333007812</ele>
        <time>2012-04-29T08:33:17Z</time>
      </trkpt>
      <trkpt lat="47.25854" lon="6.36645">
        <ele>559.62475585938</ele>
        <time>2012-04-29T08:33:22Z</time>
      </trkpt>
      <trkpt lat="47.25866" lon="6.36651">
        <ele>559.62475585938</ele>
        <time>2012-04-29T08:33:26Z</time>
      </trkpt>
      <trkpt lat="47.25874" lon="6.36662">
        <ele>560.10522460938</ele>
        <time>2012-04-29T08:33:30Z</time>
      </trkpt>
      <trkpt lat="47.25891" lon="6.36674">
        <ele>561.06665039062</ele>
        <time>2012-04-29T08:33:34Z</time>
      </trkpt>
      <trkpt lat="47.25903" lon="6.36662">
        <ele>563.95043945312</ele>
        <time>2012-04-29T08:33:39Z</time>
      </trkpt>
      <trkpt lat="47.25901" lon="6.36641">
        <ele>565.392578125</ele>
        <time>2012-04-29T08:33:45Z</time>
      </trkpt>
      <trkpt lat="47.25894" lon="6.36626">
        <ele>564.91186523438</ele>
        <time>2012-04-29T08:33:50Z</time>
      </trkpt>
      <trkpt lat="47.25891" lon="6.36613">
        <ele>565.87329101562</ele>
        <time>2012-04-29T08:33:53Z</time>
      </trkpt>
      <trkpt lat="47.25905" lon="6.36537">
        <ele>568.2763671875</ele>
        <time>2012-04-29T08:34:16Z</time>
      </trkpt>
      <trkpt lat="47.259" lon="6.3648">
        <ele>569.23779296875</ele>
        <time>2012-04-29T08:34:20Z</time>
      </trkpt>
      <trkpt lat="47.25902" lon="6.36445">
        <ele>570.19897460938</ele>
        <time>2012-04-29T08:34:26Z</time>
      </trkpt>
      <trkpt lat="47.25903" lon="6.36425">
        <ele>571.64086914062</ele>
        <time>2012-04-29T08:34:31Z</time>
      </trkpt>
      <trkpt lat="47.25902" lon="6.36402">
        <ele>572.12182617188</ele>
        <time>2012-04-29T08:34:36Z</time>
      </trkpt>
      <trkpt lat="47.25902" lon="6.36386">
        <ele>571.64086914062</ele>
        <time>2012-04-29T08:34:40Z</time>
      </trkpt>
      <trkpt lat="47.25901" lon="6.36361">
        <ele>573.56396484375</ele>
        <time>2012-04-29T08:34:47Z</time>
      </trkpt>
      <trkpt lat="47.25888" lon="6.36317">
        <ele>573.56396484375</ele>
        <time>2012-04-29T08:34:54Z</time>
      </trkpt>
      <trkpt lat="47.25888" lon="6.36313">
        <ele>573.56396484375</ele>
        <time>2012-04-29T08:34:55Z</time>
      </trkpt>
      <trkpt lat="47.2589" lon="6.36297">
        <ele>574.04443359375</ele>
        <time>2012-04-29T08:35:00Z</time>
      </trkpt>
      <trkpt lat="47.25891" lon="6.36288">
        <ele>574.52514648438</ele>
        <time>2012-04-29T08:35:02Z</time>
      </trkpt>
      <trkpt lat="47.25891" lon="6.36264">
        <ele>574.04443359375</ele>
        <time>2012-04-29T08:35:08Z</time>
      </trkpt>
      <trkpt lat="47.25892" lon="6.36258">
        <ele>574.52514648438</ele>
        <time>2012-04-29T08:35:09Z</time>
      </trkpt>
      <trkpt lat="47.25895" lon="6.36238">
        <ele>576.92846679688</ele>
        <time>2012-04-29T08:35:12Z</time>
      </trkpt>
      <trkpt lat="47.25896" lon="6.36215">
        <ele>577.8896484375</ele>
        <time>2012-04-29T08:35:17Z</time>
      </trkpt>
      <trkpt lat="47.25896" lon="6.36202">
        <ele>578.37036132812</ele>
        <time>2012-04-29T08:35:21Z</time>
      </trkpt>
      <trkpt lat="47.25897" lon="6.36195">
        <ele>578.37036132812</ele>
        <time>2012-04-29T08:35:25Z</time>
      </trkpt>
      <trkpt lat="47.259" lon="6.36183">
        <ele>579.81225585938</ele>
        <time>2012-04-29T08:35:31Z</time>
      </trkpt>
      <trkpt lat="47.259" lon="6.36182">
        <ele>579.81225585938</ele>
        <time>2012-04-29T08:35:32Z</time>
      </trkpt>
      <trkpt lat="47.25904" lon="6.36165">
        <ele>580.77368164062</ele>
        <time>2012-04-29T08:35:37Z</time>
      </trkpt>
      <trkpt lat="47.25898" lon="6.3614">
        <ele>581.73486328125</ele>
        <time>2012-04-29T08:35:41Z</time>
      </trkpt>
      <trkpt lat="47.25892" lon="6.36128">
        <ele>584.61889648438</ele>
        <time>2012-04-29T08:35:46Z</time>
      </trkpt>
      <trkpt lat="47.25891" lon="6.36119">
        <ele>584.61889648438</ele>
        <time>2012-04-29T08:35:49Z</time>
      </trkpt>
      <trkpt lat="47.25901" lon="6.3607">
        <ele>585.099609375</ele>
        <time>2012-04-29T08:35:56Z</time>
      </trkpt>
      <trkpt lat="47.25902" lon="6.36052">
        <ele>585.580078125</ele>
        <time>2012-04-29T08:36:01Z</time>
      </trkpt>
      <trkpt lat="47.25901" lon="6.36044">
        <ele>586.06079101562</ele>
        <time>2012-04-29T08:36:03Z</time>
      </trkpt>
      <trkpt lat="47.259" lon="6.36026">
        <ele>586.06079101562</ele>
        <time>2012-04-29T08:36:09Z</time>
      </trkpt>
      <trkpt lat="47.259" lon="6.36015">
        <ele>587.9833984375</ele>
        <time>2012-04-29T08:36:13Z</time>
      </trkpt>
      <trkpt lat="47.259" lon="6.36002">
        <ele>589.42553710938</ele>
        <time>2012-04-29T08:36:19Z</time>
      </trkpt>
      <trkpt lat="47.259" lon="6.35987">
        <ele>590.86743164062</ele>
        <time>2012-04-29T08:36:22Z</time>
      </trkpt>
      <trkpt lat="47.25896" lon="6.35972">
        <ele>590.86743164062</ele>
        <time>2012-04-29T08:36:26Z</time>
      </trkpt>
      <trkpt lat="47.25893" lon="6.3595">
        <ele>592.3095703125</ele>
        <time>2012-04-29T08:36:34Z</time>
      </trkpt>
      <trkpt lat="47.25873" lon="6.35874">
        <ele>592.79028320312</ele>
        <time>2012-04-29T08:37:00Z</time>
      </trkpt>
      <trkpt lat="47.25853" lon="6.35839">
        <ele>592.79028320312</ele>
        <time>2012-04-29T08:37:06Z</time>
      </trkpt>
      <trkpt lat="47.25839" lon="6.35814">
        <ele>592.3095703125</ele>
        <time>2012-04-29T08:37:11Z</time>
      </trkpt>
      <trkpt lat="47.25831" lon="6.35799">
        <ele>592.3095703125</ele>
        <time>2012-04-29T08:37:14Z</time>
      </trkpt>
      <trkpt lat="47.2582" lon="6.3577">
        <ele>592.3095703125</ele>
        <time>2012-04-29T08:37:17Z</time>
      </trkpt>
      <trkpt lat="47.25861" lon="6.35724">
        <ele>588.94506835938</ele>
        <time>2012-04-29T08:37:29Z</time>
      </trkpt>
      <trkpt lat="47.25864" lon="6.35722">
        <ele>588.46435546875</ele>
        <time>2012-04-29T08:37:30Z</time>
      </trkpt>
      <trkpt lat="47.25886" lon="6.35727">
        <ele>587.02197265625</ele>
        <time>2012-04-29T08:37:35Z</time>
      </trkpt>
      <trkpt lat="47.25914" lon="6.35724">
        <ele>584.13818359375</ele>
        <time>2012-04-29T08:37:41Z</time>
      </trkpt>
      <trkpt lat="47.25919" lon="6.35723">
        <ele>580.29296875</ele>
        <time>2012-04-29T08:37:45Z</time>
      </trkpt>
      <trkpt lat="47.25919" lon="6.35723">
        <ele>580.77368164062</ele>
        <time>2012-04-29T08:37:46Z</time>
      </trkpt>
      <trkpt lat="47.25919" lon="6.35723">
        <ele>578.37036132812</ele>
        <time>2012-04-29T08:37:48Z</time>
      </trkpt>
      <trkpt lat="47.25919" lon="6.35723">
        <ele>574.52514648438</ele>
        <time>2012-04-29T08:37:51Z</time>
      </trkpt>
      <trkpt lat="47.25919" lon="6.35723">
        <ele>570.6796875</ele>
        <time>2012-04-29T08:37:53Z</time>
      </trkpt>
      <trkpt lat="47.25919" lon="6.35723">
        <ele>567.31518554688</ele>
        <time>2012-04-29T08:37:55Z</time>
      </trkpt>
      <trkpt lat="47.25919" lon="6.35723">
        <ele>563.95043945312</ele>
        <time>2012-04-29T08:37:58Z</time>
      </trkpt>
      <trkpt lat="47.25919" lon="6.35723">
        <ele>561.06665039062</ele>
        <time>2012-04-29T08:38:00Z</time>
      </trkpt>
      <trkpt lat="47.25919" lon="6.35723">
        <ele>556.74072265625</ele>
        <time>2012-04-29T08:38:03Z</time>
      </trkpt>
      <trkpt lat="47.25919" lon="6.35723">
        <ele>557.22143554688</ele>
        <time>2012-04-29T08:38:04Z</time>
      </trkpt>
      <trkpt lat="47.25919" lon="6.35723">
        <ele>558.18286132812</ele>
        <time>2012-04-29T08:38:08Z</time>
      </trkpt>
      <trkpt lat="47.26268" lon="6.35695">
        <ele>557.22143554688</ele>
        <time>2012-04-29T08:38:16Z</time>
      </trkpt>
      <trkpt lat="47.2627" lon="6.35678">
        <ele>554.81787109375</ele>
        <time>2012-04-29T08:38:19Z</time>
      </trkpt>
      <trkpt lat="47.2627" lon="6.35645">
        <ele>554.81787109375</ele>
        <time>2012-04-29T08:38:27Z</time>
      </trkpt>
      <trkpt lat="47.26255" lon="6.3561">
        <ele>553.3759765625</ele>
        <time>2012-04-29T08:38:32Z</time>
      </trkpt>
      <trkpt lat="47.26235" lon="6.35521">
        <ele>554.33740234375</ele>
        <time>2012-04-29T08:38:45Z</time>
      </trkpt>
      <trkpt lat="47.2623" lon="6.35504">
        <ele>553.85668945312</ele>
        <time>2012-04-29T08:38:48Z</time>
      </trkpt>
      <trkpt lat="47.26213" lon="6.35473">
        <ele>553.85668945312</ele>
        <time>2012-04-29T08:38:52Z</time>
      </trkpt>
      <trkpt lat="47.26191" lon="6.35436">
        <ele>551.45336914062</ele>
        <time>2012-04-29T08:38:58Z</time>
      </trkpt>
      <trkpt lat="47.26183" lon="6.35416">
        <ele>550.97265625</ele>
        <time>2012-04-29T08:39:01Z</time>
      </trkpt>
      <trkpt lat="47.26179" lon="6.35402">
        <ele>550.97265625</ele>
        <time>2012-04-29T08:39:03Z</time>
      </trkpt>
      <trkpt lat="47.26163" lon="6.35371">
        <ele>550.01147460938</ele>
        <time>2012-04-29T08:39:08Z</time>
      </trkpt>
      <trkpt lat="47.26154" lon="6.35338">
        <ele>550.97265625</ele>
        <time>2012-04-29T08:39:13Z</time>
      </trkpt>
      <trkpt lat="47.26151" lon="6.35316">
        <ele>552.89526367188</ele>
        <time>2012-04-29T08:39:18Z</time>
      </trkpt>
      <trkpt lat="47.26151" lon="6.35313">
        <ele>552.89526367188</ele>
        <time>2012-04-29T08:39:19Z</time>
      </trkpt>
      <trkpt lat="47.26152" lon="6.35298">
        <ele>554.33740234375</ele>
        <time>2012-04-29T08:39:25Z</time>
      </trkpt>
      <trkpt lat="47.26152" lon="6.35295">
        <ele>554.33740234375</ele>
        <time>2012-04-29T08:39:26Z</time>
      </trkpt>
      <trkpt lat="47.26152" lon="6.35293">
        <ele>554.33740234375</ele>
        <time>2012-04-29T08:39:27Z</time>
      </trkpt>
      <trkpt lat="47.26155" lon="6.35285">
        <ele>556.26000976562</ele>
        <time>2012-04-29T08:39:30Z</time>
      </trkpt>
      <trkpt lat="47.26165" lon="6.35272">
        <ele>557.7021484375</ele>
        <time>2012-04-29T08:39:36Z</time>
      </trkpt>
      <trkpt lat="47.26168" lon="6.3527">
        <ele>558.18286132812</ele>
        <time>2012-04-29T08:39:37Z</time>
      </trkpt>
      <trkpt lat="47.26191" lon="6.35265">
        <ele>557.7021484375</ele>
        <time>2012-04-29T08:39:45Z</time>
      </trkpt>
      <trkpt lat="47.26198" lon="6.35265">
        <ele>559.14404296875</ele>
        <time>2012-04-29T08:39:49Z</time>
      </trkpt>
      <trkpt lat="47.262" lon="6.35265">
        <ele>559.14404296875</ele>
        <time>2012-04-29T08:39:50Z</time>
      </trkpt>
      <trkpt lat="47.26209" lon="6.35257">
        <ele>559.14404296875</ele>
        <time>2012-04-29T08:39:54Z</time>
      </trkpt>
      <trkpt lat="47.26214" lon="6.35239">
        <ele>558.66333007812</ele>
        <time>2012-04-29T08:39:59Z</time>
      </trkpt>
      <trkpt lat="47.26219" lon="6.35231">
        <ele>558.66333007812</ele>
        <time>2012-04-29T08:40:01Z</time>
      </trkpt>
      <trkpt lat="47.26244" lon="6.35218">
        <ele>557.7021484375</ele>
        <time>2012-04-29T08:40:06Z</time>
      </trkpt>
      <trkpt lat="47.26258" lon="6.35224">
        <ele>556.26000976562</ele>
        <time>2012-04-29T08:40:09Z</time>
      </trkpt>
      <trkpt lat="47.26271" lon="6.35236">
        <ele>557.7021484375</ele>
        <time>2012-04-29T08:40:13Z</time>
      </trkpt>
      <trkpt lat="47.2628" lon="6.35253">
        <ele>557.22143554688</ele>
        <time>2012-04-29T08:40:16Z</time>
      </trkpt>
      <trkpt lat="47.26296" lon="6.35281">
        <ele>557.7021484375</ele>
        <time>2012-04-29T08:40:21Z</time>
      </trkpt>
      <trkpt lat="47.26311" lon="6.35287">
        <ele>557.7021484375</ele>
        <time>2012-04-29T08:40:25Z</time>
      </trkpt>
      <trkpt lat="47.26322" lon="6.35281">
        <ele>557.7021484375</ele>
        <time>2012-04-29T08:40:29Z</time>
      </trkpt>
      <trkpt lat="47.26325" lon="6.35274">
        <ele>557.22143554688</ele>
        <time>2012-04-29T08:40:33Z</time>
      </trkpt>
      <trkpt lat="47.26326" lon="6.35272">
        <ele>557.22143554688</ele>
        <time>2012-04-29T08:40:34Z</time>
      </trkpt>
      <trkpt lat="47.26334" lon="6.35263">
        <ele>558.18286132812</ele>
        <time>2012-04-29T08:40:39Z</time>
      </trkpt>
      <trkpt lat="47.26342" lon="6.35258">
        <ele>557.22143554688</ele>
        <time>2012-04-29T08:40:43Z</time>
      </trkpt>
      <trkpt lat="47.26346" lon="6.35253">
        <ele>557.7021484375</ele>
        <time>2012-04-29T08:40:48Z</time>
      </trkpt>
      <trkpt lat="47.26348" lon="6.35246">
        <ele>558.66333007812</ele>
        <time>2012-04-29T08:40:55Z</time>
      </trkpt>
      <trkpt lat="47.2635" lon="6.35242">
        <ele>560.10522460938</ele>
        <time>2012-04-29T08:41:02Z</time>
      </trkpt>
      <trkpt lat="47.26352" lon="6.35236">
        <ele>560.10522460938</ele>
        <time>2012-04-29T08:41:08Z</time>
      </trkpt>
      <trkpt lat="47.26353" lon="6.35236">
        <ele>562.9892578125</ele>
        <time>2012-04-29T08:41:45Z</time>
      </trkpt>
      <trkpt lat="47.26349" lon="6.35237">
        <ele>561.54736328125</ele>
        <time>2012-04-29T08:42:00Z</time>
      </trkpt>
      <trkpt lat="47.26358" lon="6.35247">
        <ele>562.02807617188</ele>
        <time>2012-04-29T08:42:24Z</time>
      </trkpt>
      <trkpt lat="47.26345" lon="6.35254">
        <ele>560.5859375</ele>
        <time>2012-04-29T08:42:42Z</time>
      </trkpt>
      <trkpt lat="47.2635" lon="6.3525">
        <ele>562.02807617188</ele>
        <time>2012-04-29T08:42:56Z</time>
      </trkpt>
      <trkpt lat="47.26366" lon="6.35248">
        <ele>562.50854492188</ele>
        <time>2012-04-29T08:43:31Z</time>
      </trkpt>
      <trkpt lat="47.26367" lon="6.35242">
        <ele>562.9892578125</ele>
        <time>2012-04-29T08:43:38Z</time>
      </trkpt>
      <trkpt lat="47.26366" lon="6.35237">
        <ele>563.95043945312</ele>
        <time>2012-04-29T08:43:40Z</time>
      </trkpt>
      <trkpt lat="47.26369" lon="6.35226">
        <ele>565.87329101562</ele>
        <time>2012-04-29T08:43:44Z</time>
      </trkpt>
      <trkpt lat="47.26376" lon="6.35211">
        <ele>565.87329101562</ele>
        <time>2012-04-29T08:43:50Z</time>
      </trkpt>
      <trkpt lat="47.26382" lon="6.35198">
        <ele>566.83447265625</ele>
        <time>2012-04-29T08:43:56Z</time>
      </trkpt>
      <trkpt lat="47.26385" lon="6.3519">
        <ele>567.31518554688</ele>
        <time>2012-04-29T08:43:59Z</time>
      </trkpt>
      <trkpt lat="47.26394" lon="6.35179">
        <ele>569.71850585938</ele>
        <time>2012-04-29T08:44:05Z</time>
      </trkpt>
      <trkpt lat="47.26402" lon="6.35168">
        <ele>570.6796875</ele>
        <time>2012-04-29T08:44:11Z</time>
      </trkpt>
      <trkpt lat="47.26408" lon="6.35163">
        <ele>571.16040039062</ele>
        <time>2012-04-29T08:44:16Z</time>
      </trkpt>
      <trkpt lat="47.26408" lon="6.35162">
        <ele>571.16040039062</ele>
        <time>2012-04-29T08:44:17Z</time>
      </trkpt>
      <trkpt lat="47.26413" lon="6.35147">
        <ele>571.16040039062</ele>
        <time>2012-04-29T08:44:22Z</time>
      </trkpt>
      <trkpt lat="47.26422" lon="6.35131">
        <ele>571.16040039062</ele>
        <time>2012-04-29T08:44:29Z</time>
      </trkpt>
      <trkpt lat="47.26431" lon="6.35119">
        <ele>571.64086914062</ele>
        <time>2012-04-29T08:44:34Z</time>
      </trkpt>
      <trkpt lat="47.26438" lon="6.35107">
        <ele>571.64086914062</ele>
        <time>2012-04-29T08:44:39Z</time>
      </trkpt>
      <trkpt lat="47.26447" lon="6.35098">
        <ele>572.12182617188</ele>
        <time>2012-04-29T08:44:45Z</time>
      </trkpt>
      <trkpt lat="47.2645" lon="6.35088">
        <ele>572.6025390625</ele>
        <time>2012-04-29T08:44:50Z</time>
      </trkpt>
      <trkpt lat="47.26452" lon="6.35077">
        <ele>573.56396484375</ele>
        <time>2012-04-29T08:44:54Z</time>
      </trkpt>
      <trkpt lat="47.26459" lon="6.35065">
        <ele>573.08325195312</ele>
        <time>2012-04-29T08:44:59Z</time>
      </trkpt>
      <trkpt lat="47.26466" lon="6.35047">
        <ele>575.005859375</ele>
        <time>2012-04-29T08:45:06Z</time>
      </trkpt>
      <trkpt lat="47.26472" lon="6.35042">
        <ele>576.44775390625</ele>
        <time>2012-04-29T08:45:10Z</time>
      </trkpt>
      <trkpt lat="47.26479" lon="6.35034">
        <ele>576.92846679688</ele>
        <time>2012-04-29T08:45:14Z</time>
      </trkpt>
      <trkpt lat="47.26486" lon="6.35024">
        <ele>578.85107421875</ele>
        <time>2012-04-29T08:45:19Z</time>
      </trkpt>
      <trkpt lat="47.2649" lon="6.35013">
        <ele>579.33154296875</ele>
        <time>2012-04-29T08:45:24Z</time>
      </trkpt>
      <trkpt lat="47.26495" lon="6.35">
        <ele>581.25439453125</ele>
        <time>2012-04-29T08:45:29Z</time>
      </trkpt>
      <trkpt lat="47.26496" lon="6.34998">
        <ele>581.25439453125</ele>
        <time>2012-04-29T08:45:30Z</time>
      </trkpt>
      <trkpt lat="47.26503" lon="6.34989">
        <ele>582.21557617188</ele>
        <time>2012-04-29T08:45:36Z</time>
      </trkpt>
      <trkpt lat="47.26508" lon="6.34983">
        <ele>582.21557617188</ele>
        <time>2012-04-29T08:45:41Z</time>
      </trkpt>
      <trkpt lat="47.26516" lon="6.34976">
        <ele>584.13818359375</ele>
        <time>2012-04-29T08:45:47Z</time>
      </trkpt>
      <trkpt lat="47.26519" lon="6.3497">
        <ele>585.580078125</ele>
        <time>2012-04-29T08:45:50Z</time>
      </trkpt>
      <trkpt lat="47.26519" lon="6.34966">
        <ele>585.099609375</ele>
        <time>2012-04-29T08:45:52Z</time>
      </trkpt>
      <trkpt lat="47.26525" lon="6.34954">
        <ele>585.580078125</ele>
        <time>2012-04-29T08:45:57Z</time>
      </trkpt>
      <trkpt lat="47.26529" lon="6.34951">
        <ele>586.06079101562</ele>
        <time>2012-04-29T08:45:59Z</time>
      </trkpt>
      <trkpt lat="47.26538" lon="6.34937">
        <ele>586.54150390625</ele>
        <time>2012-04-29T08:46:05Z</time>
      </trkpt>
      <trkpt lat="47.2654" lon="6.34937">
        <ele>586.06079101562</ele>
        <time>2012-04-29T08:46:06Z</time>
      </trkpt>
      <trkpt lat="47.26551" lon="6.34917">
        <ele>586.06079101562</ele>
        <time>2012-04-29T08:46:12Z</time>
      </trkpt>
      <trkpt lat="47.26562" lon="6.34899">
        <ele>587.02197265625</ele>
        <time>2012-04-29T08:46:18Z</time>
      </trkpt>
      <trkpt lat="47.2657" lon="6.34896">
        <ele>587.02197265625</ele>
        <time>2012-04-29T08:46:22Z</time>
      </trkpt>
      <trkpt lat="47.26586" lon="6.34901">
        <ele>587.9833984375</ele>
        <time>2012-04-29T08:46:28Z</time>
      </trkpt>
      <trkpt lat="47.26601" lon="6.34896">
        <ele>587.9833984375</ele>
        <time>2012-04-29T08:46:34Z</time>
      </trkpt>
      <trkpt lat="47.26614" lon="6.34884">
        <ele>587.9833984375</ele>
        <time>2012-04-29T08:46:39Z</time>
      </trkpt>
      <trkpt lat="47.26623" lon="6.34867">
        <ele>586.54150390625</ele>
        <time>2012-04-29T08:46:43Z</time>
      </trkpt>
      <trkpt lat="47.26636" lon="6.3485">
        <ele>586.54150390625</ele>
        <time>2012-04-29T08:46:48Z</time>
      </trkpt>
      <trkpt lat="47.26657" lon="6.34833">
        <ele>587.02197265625</ele>
        <time>2012-04-29T08:46:54Z</time>
      </trkpt>
      <trkpt lat="47.26667" lon="6.34821">
        <ele>587.02197265625</ele>
        <time>2012-04-29T08:46:58Z</time>
      </trkpt>
      <trkpt lat="47.26677" lon="6.34801">
        <ele>586.54150390625</ele>
        <time>2012-04-29T08:47:03Z</time>
      </trkpt>
      <trkpt lat="47.26686" lon="6.34789">
        <ele>587.02197265625</ele>
        <time>2012-04-29T08:47:07Z</time>
      </trkpt>
      <trkpt lat="47.26689" lon="6.34787">
        <ele>586.54150390625</ele>
        <time>2012-04-29T08:47:08Z</time>
      </trkpt>
      <trkpt lat="47.26701" lon="6.34771">
        <ele>587.02197265625</ele>
        <time>2012-04-29T08:47:14Z</time>
      </trkpt>
      <trkpt lat="47.26711" lon="6.34757">
        <ele>587.9833984375</ele>
        <time>2012-04-29T08:47:19Z</time>
      </trkpt>
      <trkpt lat="47.2672" lon="6.34747">
        <ele>588.46435546875</ele>
        <time>2012-04-29T08:47:23Z</time>
      </trkpt>
      <trkpt lat="47.26724" lon="6.34738">
        <ele>589.42553710938</ele>
        <time>2012-04-29T08:47:28Z</time>
      </trkpt>
      <trkpt lat="47.26727" lon="6.34735">
        <ele>589.42553710938</ele>
        <time>2012-04-29T08:47:30Z</time>
      </trkpt>
      <trkpt lat="47.26735" lon="6.34732">
        <ele>590.38696289062</ele>
        <time>2012-04-29T08:47:36Z</time>
      </trkpt>
      <trkpt lat="47.26742" lon="6.34733">
        <ele>591.34814453125</ele>
        <time>2012-04-29T08:47:40Z</time>
      </trkpt>
      <trkpt lat="47.2675" lon="6.3473">
        <ele>591.82885742188</ele>
        <time>2012-04-29T08:47:44Z</time>
      </trkpt>
      <trkpt lat="47.26757" lon="6.34721">
        <ele>592.79028320312</ele>
        <time>2012-04-29T08:47:51Z</time>
      </trkpt>
      <trkpt lat="47.26764" lon="6.34718">
        <ele>593.75146484375</ele>
        <time>2012-04-29T08:47:56Z</time>
      </trkpt>
      <trkpt lat="47.26766" lon="6.34715">
        <ele>594.23217773438</ele>
        <time>2012-04-29T08:47:59Z</time>
      </trkpt>
      <trkpt lat="47.26769" lon="6.34708">
        <ele>594.23217773438</ele>
        <time>2012-04-29T08:48:03Z</time>
      </trkpt>
      <trkpt lat="47.26771" lon="6.34699">
        <ele>594.71264648438</ele>
        <time>2012-04-29T08:48:07Z</time>
      </trkpt>
      <trkpt lat="47.26768" lon="6.34692">
        <ele>594.23217773438</ele>
        <time>2012-04-29T08:48:11Z</time>
      </trkpt>
      <trkpt lat="47.26767" lon="6.34685">
        <ele>594.71264648438</ele>
        <time>2012-04-29T08:48:13Z</time>
      </trkpt>
      <trkpt lat="47.26765" lon="6.34662">
        <ele>594.71264648438</ele>
        <time>2012-04-29T08:48:18Z</time>
      </trkpt>
      <trkpt lat="47.26766" lon="6.34658">
        <ele>594.71264648438</ele>
        <time>2012-04-29T08:48:20Z</time>
      </trkpt>
      <trkpt lat="47.26767" lon="6.34652">
        <ele>594.23217773438</ele>
        <time>2012-04-29T08:48:22Z</time>
      </trkpt>
      <trkpt lat="47.26766" lon="6.34641">
        <ele>592.79028320312</ele>
        <time>2012-04-29T08:48:25Z</time>
      </trkpt>
      <trkpt lat="47.26757" lon="6.34609">
        <ele>591.34814453125</ele>
        <time>2012-04-29T08:48:30Z</time>
      </trkpt>
      <trkpt lat="47.26752" lon="6.34588">
        <ele>590.86743164062</ele>
        <time>2012-04-29T08:48:34Z</time>
      </trkpt>
      <trkpt lat="47.26751" lon="6.34583">
        <ele>590.86743164062</ele>
        <time>2012-04-29T08:48:35Z</time>
      </trkpt>
      <trkpt lat="47.26743" lon="6.34557">
        <ele>590.86743164062</ele>
        <time>2012-04-29T08:48:40Z</time>
      </trkpt>
      <trkpt lat="47.26736" lon="6.34525">
        <ele>590.86743164062</ele>
        <time>2012-04-29T08:48:44Z</time>
      </trkpt>
      <trkpt lat="47.26723" lon="6.34482">
        <ele>589.42553710938</ele>
        <time>2012-04-29T08:48:50Z</time>
      </trkpt>
      <trkpt lat="47.26722" lon="6.34475">
        <ele>588.94506835938</ele>
        <time>2012-04-29T08:48:51Z</time>
      </trkpt>
      <trkpt lat="47.26716" lon="6.34458">
        <ele>587.9833984375</ele>
        <time>2012-04-29T08:48:54Z</time>
      </trkpt>
      <trkpt lat="47.26704" lon="6.34439">
        <ele>588.46435546875</ele>
        <time>2012-04-29T08:48:58Z</time>
      </trkpt>
      <trkpt lat="47.26684" lon="6.34411">
        <ele>587.9833984375</ele>
        <time>2012-04-29T08:49:05Z</time>
      </trkpt>
      <trkpt lat="47.26665" lon="6.34381">
        <ele>589.42553710938</ele>
        <time>2012-04-29T08:49:13Z</time>
      </trkpt>
      <trkpt lat="47.26646" lon="6.34361">
        <ele>590.38696289062</ele>
        <time>2012-04-29T08:49:18Z</time>
      </trkpt>
      <trkpt lat="47.26642" lon="6.34353">
        <ele>591.82885742188</ele>
        <time>2012-04-29T08:49:24Z</time>
      </trkpt>
      <trkpt lat="47.26627" lon="6.34336">
        <ele>591.82885742188</ele>
        <time>2012-04-29T08:49:33Z</time>
      </trkpt>
      <trkpt lat="47.2662" lon="6.34327">
        <ele>591.82885742188</ele>
        <time>2012-04-29T08:49:37Z</time>
      </trkpt>
      <trkpt lat="47.26613" lon="6.3432">
        <ele>592.3095703125</ele>
        <time>2012-04-29T08:49:42Z</time>
      </trkpt>
      <trkpt lat="47.26601" lon="6.34316">
        <ele>594.71264648438</ele>
        <time>2012-04-29T08:49:47Z</time>
      </trkpt>
      <trkpt lat="47.26595" lon="6.34317">
        <ele>595.193359375</ele>
        <time>2012-04-29T08:49:53Z</time>
      </trkpt>
      <trkpt lat="47.26592" lon="6.34315">
        <ele>596.15478515625</ele>
        <time>2012-04-29T08:49:55Z</time>
      </trkpt>
      <trkpt lat="47.26592" lon="6.34309">
        <ele>596.15478515625</ele>
        <time>2012-04-29T08:50:00Z</time>
      </trkpt>
      <trkpt lat="47.26591" lon="6.34308">
        <ele>598.07739257812</ele>
        <time>2012-04-29T08:50:07Z</time>
      </trkpt>
      <trkpt lat="47.26589" lon="6.34308">
        <ele>599.03857421875</ele>
        <time>2012-04-29T08:50:14Z</time>
      </trkpt>
      <trkpt lat="47.26589" lon="6.34303">
        <ele>600.48071289062</ele>
        <time>2012-04-29T08:50:21Z</time>
      </trkpt>
      <trkpt lat="47.26595" lon="6.3429">
        <ele>600</ele>
        <time>2012-04-29T08:50:35Z</time>
      </trkpt>
      <trkpt lat="47.26595" lon="6.34283">
        <ele>600</ele>
        <time>2012-04-29T08:50:43Z</time>
      </trkpt>
      <trkpt lat="47.26597" lon="6.34276">
        <ele>599.03857421875</ele>
        <time>2012-04-29T08:50:56Z</time>
      </trkpt>
      <trkpt lat="47.26614" lon="6.34288">
        <ele>600</ele>
        <time>2012-04-29T08:51:42Z</time>
      </trkpt>
      <trkpt lat="47.26596" lon="6.34309">
        <ele>599.51928710938</ele>
        <time>2012-04-29T08:52:21Z</time>
      </trkpt>
      <trkpt lat="47.26596" lon="6.34296">
        <ele>600</ele>
        <time>2012-04-29T08:52:42Z</time>
      </trkpt>
      <trkpt lat="47.26595" lon="6.34299">
        <ele>599.51928710938</ele>
        <time>2012-04-29T08:52:55Z</time>
      </trkpt>
      <trkpt lat="47.266" lon="6.34304">
        <ele>600.48071289062</ele>
        <time>2012-04-29T08:53:09Z</time>
      </trkpt>
      <trkpt lat="47.2661" lon="6.34315">
        <ele>601.44189453125</ele>
        <time>2012-04-29T08:53:37Z</time>
      </trkpt>
      <trkpt lat="47.26615" lon="6.34322">
        <ele>601.44189453125</ele>
        <time>2012-04-29T08:53:47Z</time>
      </trkpt>
      <trkpt lat="47.26617" lon="6.34329">
        <ele>601.92260742188</ele>
        <time>2012-04-29T08:53:57Z</time>
      </trkpt>
      <trkpt lat="47.26601" lon="6.34318">
        <ele>602.8837890625</ele>
        <time>2012-04-29T08:54:07Z</time>
      </trkpt>
      <trkpt lat="47.2659" lon="6.34316">
        <ele>602.40307617188</ele>
        <time>2012-04-29T08:54:13Z</time>
      </trkpt>
      <trkpt lat="47.26584" lon="6.34311">
        <ele>601.92260742188</ele>
        <time>2012-04-29T08:54:23Z</time>
      </trkpt>
      <trkpt lat="47.26584" lon="6.34303">
        <ele>600.96118164062</ele>
        <time>2012-04-29T08:54:46Z</time>
      </trkpt>
      <trkpt lat="47.26572" lon="6.34313">
        <ele>600.96118164062</ele>
        <time>2012-04-29T08:54:53Z</time>
      </trkpt>
      <trkpt lat="47.2657" lon="6.34313">
        <ele>600.96118164062</ele>
        <time>2012-04-29T08:54:54Z</time>
      </trkpt>
      <trkpt lat="47.26563" lon="6.34304">
        <ele>602.40307617188</ele>
        <time>2012-04-29T08:55:02Z</time>
      </trkpt>
      <trkpt lat="47.26561" lon="6.34302">
        <ele>602.40307617188</ele>
        <time>2012-04-29T08:55:04Z</time>
      </trkpt>
      <trkpt lat="47.26556" lon="6.34299">
        <ele>603.84521484375</ele>
        <time>2012-04-29T08:55:07Z</time>
      </trkpt>
      <trkpt lat="47.26544" lon="6.34292">
        <ele>604.326171875</ele>
        <time>2012-04-29T08:55:14Z</time>
      </trkpt>
      <trkpt lat="47.26532" lon="6.34284">
        <ele>604.326171875</ele>
        <time>2012-04-29T08:55:21Z</time>
      </trkpt>
      <trkpt lat="47.26525" lon="6.34272">
        <ele>604.806640625</ele>
        <time>2012-04-29T08:55:26Z</time>
      </trkpt>
      <trkpt lat="47.26519" lon="6.34258">
        <ele>606.24853515625</ele>
        <time>2012-04-29T08:55:32Z</time>
      </trkpt>
      <trkpt lat="47.26517" lon="6.34251">
        <ele>606.24853515625</ele>
        <time>2012-04-29T08:55:35Z</time>
      </trkpt>
      <trkpt lat="47.26512" lon="6.34249">
        <ele>606.24853515625</ele>
        <time>2012-04-29T08:55:38Z</time>
      </trkpt>
      <trkpt lat="47.26509" lon="6.34245">
        <ele>606.24853515625</ele>
        <time>2012-04-29T08:55:44Z</time>
      </trkpt>
      <trkpt lat="47.26509" lon="6.34236">
        <ele>607.2099609375</ele>
        <time>2012-04-29T08:55:53Z</time>
      </trkpt>
      <trkpt lat="47.26511" lon="6.34226">
        <ele>608.17138671875</ele>
        <time>2012-04-29T08:56:00Z</time>
      </trkpt>
      <trkpt lat="47.2651" lon="6.34224">
        <ele>608.17138671875</ele>
        <time>2012-04-29T08:56:02Z</time>
      </trkpt>
      <trkpt lat="47.2651" lon="6.34221">
        <ele>608.17138671875</ele>
        <time>2012-04-29T08:56:08Z</time>
      </trkpt>
      <trkpt lat="47.26511" lon="6.34221">
        <ele>608.65185546875</ele>
        <time>2012-04-29T08:56:17Z</time>
      </trkpt>
      <trkpt lat="47.26505" lon="6.34202">
        <ele>609.13256835938</ele>
        <time>2012-04-29T08:56:23Z</time>
      </trkpt>
      <trkpt lat="47.265" lon="6.34188">
        <ele>610.09375</ele>
        <time>2012-04-29T08:56:29Z</time>
      </trkpt>
      <trkpt lat="47.26495" lon="6.3418">
        <ele>610.57446289062</ele>
        <time>2012-04-29T08:56:33Z</time>
      </trkpt>
      <trkpt lat="47.26489" lon="6.34168">
        <ele>610.09375</ele>
        <time>2012-04-29T08:56:38Z</time>
      </trkpt>
      <trkpt lat="47.26482" lon="6.3415">
        <ele>610.57446289062</ele>
        <time>2012-04-29T08:56:45Z</time>
      </trkpt>
      <trkpt lat="47.26472" lon="6.34138">
        <ele>610.57446289062</ele>
        <time>2012-04-29T08:56:51Z</time>
      </trkpt>
      <trkpt lat="47.26471" lon="6.34136">
        <ele>610.57446289062</ele>
        <time>2012-04-29T08:56:52Z</time>
      </trkpt>
      <trkpt lat="47.26466" lon="6.34133">
        <ele>610.57446289062</ele>
        <time>2012-04-29T08:56:54Z</time>
      </trkpt>
      <trkpt lat="47.26454" lon="6.34119">
        <ele>609.61328125</ele>
        <time>2012-04-29T08:57:01Z</time>
      </trkpt>
      <trkpt lat="47.26447" lon="6.34109">
        <ele>610.09375</ele>
        <time>2012-04-29T08:57:06Z</time>
      </trkpt>
      <trkpt lat="47.26443" lon="6.34101">
        <ele>609.61328125</ele>
        <time>2012-04-29T08:57:09Z</time>
      </trkpt>
      <trkpt lat="47.26432" lon="6.34085">
        <ele>610.57446289062</ele>
        <time>2012-04-29T08:57:15Z</time>
      </trkpt>
      <trkpt lat="47.26422" lon="6.34081">
        <ele>611.05517578125</ele>
        <time>2012-04-29T08:57:20Z</time>
      </trkpt>
      <trkpt lat="47.26414" lon="6.34075">
        <ele>611.53588867188</ele>
        <time>2012-04-29T08:57:24Z</time>
      </trkpt>
      <trkpt lat="47.26405" lon="6.34062">
        <ele>612.0166015625</ele>
        <time>2012-04-29T08:57:28Z</time>
      </trkpt>
      <trkpt lat="47.2639" lon="6.34048">
        <ele>611.53588867188</ele>
        <time>2012-04-29T08:57:33Z</time>
      </trkpt>
      <trkpt lat="47.26372" lon="6.34037">
        <ele>611.05517578125</ele>
        <time>2012-04-29T08:57:39Z</time>
      </trkpt>
      <trkpt lat="47.26354" lon="6.34021">
        <ele>610.57446289062</ele>
        <time>2012-04-29T08:57:44Z</time>
      </trkpt>
      <trkpt lat="47.26343" lon="6.3401">
        <ele>610.09375</ele>
        <time>2012-04-29T08:57:48Z</time>
      </trkpt>
      <trkpt lat="47.26339" lon="6.34003">
        <ele>610.57446289062</ele>
        <time>2012-04-29T08:57:50Z</time>
      </trkpt>
      <trkpt lat="47.26339" lon="6.33987">
        <ele>610.57446289062</ele>
        <time>2012-04-29T08:57:54Z</time>
      </trkpt>
      <trkpt lat="47.26336" lon="6.3397">
        <ele>609.61328125</ele>
        <time>2012-04-29T08:57:59Z</time>
      </trkpt>
      <trkpt lat="47.26335" lon="6.3396">
        <ele>609.13256835938</ele>
        <time>2012-04-29T08:58:02Z</time>
      </trkpt>
      <trkpt lat="47.26337" lon="6.33954">
        <ele>610.09375</ele>
        <time>2012-04-29T08:58:03Z</time>
      </trkpt>
      <trkpt lat="47.26351" lon="6.33915">
        <ele>608.17138671875</ele>
        <time>2012-04-29T08:58:10Z</time>
      </trkpt>
      <trkpt lat="47.26361" lon="6.33888">
        <ele>606.24853515625</ele>
        <time>2012-04-29T08:58:14Z</time>
      </trkpt>
      <trkpt lat="47.26382" lon="6.33834">
        <ele>604.326171875</ele>
        <time>2012-04-29T08:58:20Z</time>
      </trkpt>
      <trkpt lat="47.26394" lon="6.33806">
        <ele>601.44189453125</ele>
        <time>2012-04-29T08:58:23Z</time>
      </trkpt>
      <trkpt lat="47.26406" lon="6.33773">
        <ele>597.5966796875</ele>
        <time>2012-04-29T08:58:26Z</time>
      </trkpt>
      <trkpt lat="47.26425" lon="6.33727">
        <ele>593.27075195312</ele>
        <time>2012-04-29T08:58:30Z</time>
      </trkpt>
      <trkpt lat="47.26443" lon="6.33675">
        <ele>588.94506835938</ele>
        <time>2012-04-29T08:58:34Z</time>
      </trkpt>
      <trkpt lat="47.26448" lon="6.33662">
        <ele>588.94506835938</ele>
        <time>2012-04-29T08:58:35Z</time>
      </trkpt>
      <trkpt lat="47.26453" lon="6.3365">
        <ele>586.06079101562</ele>
        <time>2012-04-29T08:58:36Z</time>
      </trkpt>
      <trkpt lat="47.26459" lon="6.33638">
        <ele>584.61889648438</ele>
        <time>2012-04-29T08:58:37Z</time>
      </trkpt>
      <trkpt lat="47.26472" lon="6.33606">
        <ele>577.4091796875</ele>
        <time>2012-04-29T08:58:40Z</time>
      </trkpt>
      <trkpt lat="47.26475" lon="6.33599">
        <ele>576.44775390625</ele>
        <time>2012-04-29T08:58:41Z</time>
      </trkpt>
      <trkpt lat="47.26474" lon="6.33586">
        <ele>574.52514648438</ele>
        <time>2012-04-29T08:58:44Z</time>
      </trkpt>
      <trkpt lat="47.26472" lon="6.33583">
        <ele>574.52514648438</ele>
        <time>2012-04-29T08:58:45Z</time>
      </trkpt>
      <trkpt lat="47.26464" lon="6.33573">
        <ele>573.08325195312</ele>
        <time>2012-04-29T08:58:50Z</time>
      </trkpt>
      <trkpt lat="47.26459" lon="6.33565">
        <ele>573.08325195312</ele>
        <time>2012-04-29T08:58:55Z</time>
      </trkpt>
      <trkpt lat="47.2645" lon="6.3355">
        <ele>573.08325195312</ele>
        <time>2012-04-29T08:59:01Z</time>
      </trkpt>
      <trkpt lat="47.26449" lon="6.33538">
        <ele>572.6025390625</ele>
        <time>2012-04-29T08:59:06Z</time>
      </trkpt>
      <trkpt lat="47.26443" lon="6.33526">
        <ele>571.16040039062</ele>
        <time>2012-04-29T08:59:10Z</time>
      </trkpt>
      <trkpt lat="47.26435" lon="6.33519">
        <ele>571.64086914062</ele>
        <time>2012-04-29T08:59:13Z</time>
      </trkpt>
      <trkpt lat="47.2642" lon="6.33506">
        <ele>570.19897460938</ele>
        <time>2012-04-29T08:59:17Z</time>
      </trkpt>
      <trkpt lat="47.26402" lon="6.33492">
        <ele>570.19897460938</ele>
        <time>2012-04-29T08:59:21Z</time>
      </trkpt>
      <trkpt lat="47.26379" lon="6.33475">
        <ele>569.71850585938</ele>
        <time>2012-04-29T08:59:26Z</time>
      </trkpt>
      <trkpt lat="47.26369" lon="6.33463">
        <ele>568.2763671875</ele>
        <time>2012-04-29T08:59:29Z</time>
      </trkpt>
      <trkpt lat="47.26355" lon="6.33454">
        <ele>568.2763671875</ele>
        <time>2012-04-29T08:59:34Z</time>
      </trkpt>
      <trkpt lat="47.26342" lon="6.33448">
        <ele>568.2763671875</ele>
        <time>2012-04-29T08:59:38Z</time>
      </trkpt>
      <trkpt lat="47.26324" lon="6.33444">
        <ele>568.75708007812</ele>
        <time>2012-04-29T08:59:42Z</time>
      </trkpt>
      <trkpt lat="47.26303" lon="6.33435">
        <ele>568.75708007812</ele>
        <time>2012-04-29T08:59:47Z</time>
      </trkpt>
      <trkpt lat="47.2629" lon="6.33425">
        <ele>569.71850585938</ele>
        <time>2012-04-29T08:59:51Z</time>
      </trkpt>
      <trkpt lat="47.26286" lon="6.33423">
        <ele>569.23779296875</ele>
        <time>2012-04-29T08:59:52Z</time>
      </trkpt>
      <trkpt lat="47.26256" lon="6.33413">
        <ele>570.6796875</ele>
        <time>2012-04-29T08:59:59Z</time>
      </trkpt>
      <trkpt lat="47.26239" lon="6.33409">
        <ele>572.6025390625</ele>
        <time>2012-04-29T09:00:04Z</time>
      </trkpt>
      <trkpt lat="47.26221" lon="6.3341">
        <ele>573.56396484375</ele>
        <time>2012-04-29T09:00:10Z</time>
      </trkpt>
      <trkpt lat="47.26204" lon="6.33412">
        <ele>574.52514648438</ele>
        <time>2012-04-29T09:00:16Z</time>
      </trkpt>
      <trkpt lat="47.26188" lon="6.33412">
        <ele>575.486328125</ele>
        <time>2012-04-29T09:00:24Z</time>
      </trkpt>
      <trkpt lat="47.26167" lon="6.33417">
        <ele>576.44775390625</ele>
        <time>2012-04-29T09:00:31Z</time>
      </trkpt>
      <trkpt lat="47.26165" lon="6.33417">
        <ele>576.92846679688</ele>
        <time>2012-04-29T09:00:32Z</time>
      </trkpt>
      <trkpt lat="47.26147" lon="6.33421">
        <ele>577.4091796875</ele>
        <time>2012-04-29T09:00:39Z</time>
      </trkpt>
      <trkpt lat="47.26134" lon="6.33429">
        <ele>577.4091796875</ele>
        <time>2012-04-29T09:00:44Z</time>
      </trkpt>
      <trkpt lat="47.2612" lon="6.33435">
        <ele>578.85107421875</ele>
        <time>2012-04-29T09:00:50Z</time>
      </trkpt>
      <trkpt lat="47.26099" lon="6.33438">
        <ele>579.81225585938</ele>
        <time>2012-04-29T09:00:56Z</time>
      </trkpt>
      <trkpt lat="47.26079" lon="6.33439">
        <ele>579.33154296875</ele>
        <time>2012-04-29T09:01:02Z</time>
      </trkpt>
      <trkpt lat="47.26064" lon="6.33439">
        <ele>578.85107421875</ele>
        <time>2012-04-29T09:01:06Z</time>
      </trkpt>
      <trkpt lat="47.26045" lon="6.33438">
        <ele>579.33154296875</ele>
        <time>2012-04-29T09:01:11Z</time>
      </trkpt>
      <trkpt lat="47.26024" lon="6.33433">
        <ele>579.33154296875</ele>
        <time>2012-04-29T09:01:16Z</time>
      </trkpt>
      <trkpt lat="47.26011" lon="6.33429">
        <ele>579.81225585938</ele>
        <time>2012-04-29T09:01:20Z</time>
      </trkpt>
      <trkpt lat="47.25994" lon="6.33428">
        <ele>579.81225585938</ele>
        <time>2012-04-29T09:01:25Z</time>
      </trkpt>
      <trkpt lat="47.25989" lon="6.33428">
        <ele>579.81225585938</ele>
        <time>2012-04-29T09:01:27Z</time>
      </trkpt>
      <trkpt lat="47.25967" lon="6.33434">
        <ele>580.77368164062</ele>
        <time>2012-04-29T09:01:33Z</time>
      </trkpt>
      <trkpt lat="47.25949" lon="6.33439">
        <ele>580.77368164062</ele>
        <time>2012-04-29T09:01:36Z</time>
      </trkpt>
      <trkpt lat="47.25933" lon="6.33443">
        <ele>580.29296875</ele>
        <time>2012-04-29T09:01:40Z</time>
      </trkpt>
      <trkpt lat="47.25917" lon="6.33435">
        <ele>579.33154296875</ele>
        <time>2012-04-29T09:01:43Z</time>
      </trkpt>
      <trkpt lat="47.25894" lon="6.33431">
        <ele>577.4091796875</ele>
        <time>2012-04-29T09:01:47Z</time>
      </trkpt>
      <trkpt lat="47.25882" lon="6.33433">
        <ele>577.4091796875</ele>
        <time>2012-04-29T09:01:49Z</time>
      </trkpt>
      <trkpt lat="47.25857" lon="6.33432">
        <ele>575.486328125</ele>
        <time>2012-04-29T09:01:54Z</time>
      </trkpt>
      <trkpt lat="47.25854" lon="6.33429">
        <ele>575.96704101562</ele>
        <time>2012-04-29T09:01:55Z</time>
      </trkpt>
      <trkpt lat="47.25842" lon="6.33435">
        <ele>575.005859375</ele>
        <time>2012-04-29T09:02:01Z</time>
      </trkpt>
      <trkpt lat="47.25837" lon="6.33441">
        <ele>574.04443359375</ele>
        <time>2012-04-29T09:02:03Z</time>
      </trkpt>
      <trkpt lat="47.25822" lon="6.33454">
        <ele>573.08325195312</ele>
        <time>2012-04-29T09:02:07Z</time>
      </trkpt>
      <trkpt lat="47.25813" lon="6.33456">
        <ele>572.12182617188</ele>
        <time>2012-04-29T09:02:09Z</time>
      </trkpt>
      <trkpt lat="47.25801" lon="6.33456">
        <ele>571.16040039062</ele>
        <time>2012-04-29T09:02:11Z</time>
      </trkpt>
      <trkpt lat="47.25769" lon="6.33461">
        <ele>570.6796875</ele>
        <time>2012-04-29T09:02:16Z</time>
      </trkpt>
      <trkpt lat="47.25748" lon="6.33465">
        <ele>568.75708007812</ele>
        <time>2012-04-29T09:02:19Z</time>
      </trkpt>
      <trkpt lat="47.25732" lon="6.33465">
        <ele>567.31518554688</ele>
        <time>2012-04-29T09:02:21Z</time>
      </trkpt>
      <trkpt lat="47.25706" lon="6.33454">
        <ele>565.87329101562</ele>
        <time>2012-04-29T09:02:24Z</time>
      </trkpt>
      <trkpt lat="47.25698" lon="6.33454">
        <ele>565.392578125</ele>
        <time>2012-04-29T09:02:25Z</time>
      </trkpt>
      <trkpt lat="47.25667" lon="6.33475">
        <ele>562.02807617188</ele>
        <time>2012-04-29T09:02:30Z</time>
      </trkpt>
      <trkpt lat="47.25653" lon="6.33484">
        <ele>560.5859375</ele>
        <time>2012-04-29T09:02:32Z</time>
      </trkpt>
      <trkpt lat="47.25627" lon="6.33508">
        <ele>556.26000976562</ele>
        <time>2012-04-29T09:02:36Z</time>
      </trkpt>
      <trkpt lat="47.25598" lon="6.33515">
        <ele>555.29858398438</ele>
        <time>2012-04-29T09:02:40Z</time>
      </trkpt>
      <trkpt lat="47.2558" lon="6.33521">
        <ele>553.3759765625</ele>
        <time>2012-04-29T09:02:42Z</time>
      </trkpt>
      <trkpt lat="47.25564" lon="6.33529">
        <ele>551.93408203125</ele>
        <time>2012-04-29T09:02:44Z</time>
      </trkpt>
      <trkpt lat="47.25549" lon="6.3354">
        <ele>550.01147460938</ele>
        <time>2012-04-29T09:02:46Z</time>
      </trkpt>
      <trkpt lat="47.25539" lon="6.33549">
        <ele>549.05004882812</ele>
        <time>2012-04-29T09:02:48Z</time>
      </trkpt>
      <trkpt lat="47.25536" lon="6.33553">
        <ele>548.5693359375</ele>
        <time>2012-04-29T09:02:49Z</time>
      </trkpt>
      <trkpt lat="47.2553" lon="6.3359">
        <ele>547.12744140625</ele>
        <time>2012-04-29T09:02:54Z</time>
      </trkpt>
      <trkpt lat="47.25528" lon="6.33599">
        <ele>546.16625976562</ele>
        <time>2012-04-29T09:02:55Z</time>
      </trkpt>
      <trkpt lat="47.25523" lon="6.3362">
        <ele>545.20483398438</ele>
        <time>2012-04-29T09:02:58Z</time>
      </trkpt>
      <trkpt lat="47.25523" lon="6.33632">
        <ele>544.72424316406</ele>
        <time>2012-04-29T09:03:00Z</time>
      </trkpt>
      <trkpt lat="47.25515" lon="6.33659">
        <ele>542.80151367188</ele>
        <time>2012-04-29T09:03:04Z</time>
      </trkpt>
      <trkpt lat="47.2551" lon="6.33666">
        <ele>541.84020996094</ele>
        <time>2012-04-29T09:03:05Z</time>
      </trkpt>
      <trkpt lat="47.25479" lon="6.33684">
        <ele>542.80151367188</ele>
        <time>2012-04-29T09:03:10Z</time>
      </trkpt>
      <trkpt lat="47.25463" lon="6.33681">
        <ele>542.80151367188</ele>
        <time>2012-04-29T09:03:13Z</time>
      </trkpt>
      <trkpt lat="47.25446" lon="6.33676">
        <ele>542.80151367188</ele>
        <time>2012-04-29T09:03:16Z</time>
      </trkpt>
      <trkpt lat="47.25421" lon="6.33676">
        <ele>542.32092285156</ele>
        <time>2012-04-29T09:03:20Z</time>
      </trkpt>
      <trkpt lat="47.25405" lon="6.33676">
        <ele>542.80151367188</ele>
        <time>2012-04-29T09:03:23Z</time>
      </trkpt>
      <trkpt lat="47.25383" lon="6.33668">
        <ele>542.80151367188</ele>
        <time>2012-04-29T09:03:28Z</time>
      </trkpt>
      <trkpt lat="47.25367" lon="6.33655">
        <ele>542.80151367188</ele>
        <time>2012-04-29T09:03:33Z</time>
      </trkpt>
      <trkpt lat="47.2535" lon="6.33648">
        <ele>543.28210449219</ele>
        <time>2012-04-29T09:03:38Z</time>
      </trkpt>
      <trkpt lat="47.25343" lon="6.33648">
        <ele>543.28210449219</ele>
        <time>2012-04-29T09:03:40Z</time>
      </trkpt>
      <trkpt lat="47.2533" lon="6.33624">
        <ele>543.28210449219</ele>
        <time>2012-04-29T09:03:45Z</time>
      </trkpt>
      <trkpt lat="47.25328" lon="6.3361">
        <ele>542.80151367188</ele>
        <time>2012-04-29T09:03:47Z</time>
      </trkpt>
      <trkpt lat="47.2532" lon="6.33575">
        <ele>539.91760253906</ele>
        <time>2012-04-29T09:03:51Z</time>
      </trkpt>
      <trkpt lat="47.25309" lon="6.33533">
        <ele>538.47570800781</ele>
        <time>2012-04-29T09:03:55Z</time>
      </trkpt>
      <trkpt lat="47.25286" lon="6.33496">
        <ele>534.63037109375</ele>
        <time>2012-04-29T09:03:59Z</time>
      </trkpt>
      <trkpt lat="47.2528" lon="6.33489">
        <ele>534.63037109375</ele>
        <time>2012-04-29T09:04:00Z</time>
      </trkpt>
      <trkpt lat="47.25259" lon="6.33488">
        <ele>531.74633789062</ele>
        <time>2012-04-29T09:04:03Z</time>
      </trkpt>
      <trkpt lat="47.25247" lon="6.3353">
        <ele>528.86254882812</ele>
        <time>2012-04-29T09:04:07Z</time>
      </trkpt>
      <trkpt lat="47.25237" lon="6.33567">
        <ele>525.49780273438</ele>
        <time>2012-04-29T09:04:10Z</time>
      </trkpt>
      <trkpt lat="47.25216" lon="6.33613">
        <ele>521.65258789062</ele>
        <time>2012-04-29T09:04:14Z</time>
      </trkpt>
      <trkpt lat="47.25198" lon="6.33676">
        <ele>518.7685546875</ele>
        <time>2012-04-29T09:04:18Z</time>
      </trkpt>
      <trkpt lat="47.25175" lon="6.3372">
        <ele>514.92333984375</ele>
        <time>2012-04-29T09:04:21Z</time>
      </trkpt>
      <trkpt lat="47.25158" lon="6.33755">
        <ele>511.55871582031</ele>
        <time>2012-04-29T09:04:23Z</time>
      </trkpt>
      <trkpt lat="47.25136" lon="6.33797">
        <ele>508.19409179688</ele>
        <time>2012-04-29T09:04:26Z</time>
      </trkpt>
      <trkpt lat="47.25098" lon="6.33823">
        <ele>503.8681640625</ele>
        <time>2012-04-29T09:04:29Z</time>
      </trkpt>
      <trkpt lat="47.2507" lon="6.33826">
        <ele>499.54223632812</ele>
        <time>2012-04-29T09:04:32Z</time>
      </trkpt>
      <trkpt lat="47.25058" lon="6.33832">
        <ele>499.54223632812</ele>
        <time>2012-04-29T09:04:33Z</time>
      </trkpt>
      <trkpt lat="47.25048" lon="6.33836">
        <ele>498.10034179688</ele>
        <time>2012-04-29T09:04:34Z</time>
      </trkpt>
      <trkpt lat="47.25028" lon="6.33847">
        <ele>497.13891601562</ele>
        <time>2012-04-29T09:04:36Z</time>
      </trkpt>
      <trkpt lat="47.24998" lon="6.33883">
        <ele>495.21618652344</ele>
        <time>2012-04-29T09:04:40Z</time>
      </trkpt>
      <trkpt lat="47.24992" lon="6.33896">
        <ele>493.77429199219</ele>
        <time>2012-04-29T09:04:41Z</time>
      </trkpt>
      <trkpt lat="47.2498" lon="6.33927">
        <ele>490.89038085938</ele>
        <time>2012-04-29T09:04:43Z</time>
      </trkpt>
      <trkpt lat="47.24969" lon="6.33962">
        <ele>488.48718261719</ele>
        <time>2012-04-29T09:04:45Z</time>
      </trkpt>
      <trkpt lat="47.24957" lon="6.33996">
        <ele>484.64184570312</ele>
        <time>2012-04-29T09:04:47Z</time>
      </trkpt>
      <trkpt lat="47.2494" lon="6.34044">
        <ele>481.7578125</ele>
        <time>2012-04-29T09:04:50Z</time>
      </trkpt>
      <trkpt lat="47.24919" lon="6.34088">
        <ele>479.83508300781</ele>
        <time>2012-04-29T09:04:53Z</time>
      </trkpt>
      <trkpt lat="47.24902" lon="6.34122">
        <ele>475.02868652344</ele>
        <time>2012-04-29T09:04:55Z</time>
      </trkpt>
      <trkpt lat="47.24878" lon="6.34171">
        <ele>472.14465332031</ele>
        <time>2012-04-29T09:04:58Z</time>
      </trkpt>
      <trkpt lat="47.24854" lon="6.34239">
        <ele>467.81872558594</ele>
        <time>2012-04-29T09:05:02Z</time>
      </trkpt>
      <trkpt lat="47.24833" lon="6.34313">
        <ele>463.01208496094</ele>
        <time>2012-04-29T09:05:06Z</time>
      </trkpt>
      <trkpt lat="47.24817" lon="6.34363">
        <ele>459.64758300781</ele>
        <time>2012-04-29T09:05:09Z</time>
      </trkpt>
      <trkpt lat="47.24788" lon="6.34441">
        <ele>456.28295898438</ele>
        <time>2012-04-29T09:05:14Z</time>
      </trkpt>
      <trkpt lat="47.24784" lon="6.34456">
        <ele>455.32153320312</ele>
        <time>2012-04-29T09:05:15Z</time>
      </trkpt>
      <trkpt lat="47.24788" lon="6.34514">
        <ele>454.8408203125</ele>
        <time>2012-04-29T09:05:19Z</time>
      </trkpt>
      <trkpt lat="47.24808" lon="6.34544">
        <ele>450.99560546875</ele>
        <time>2012-04-29T09:05:22Z</time>
      </trkpt>
      <trkpt lat="47.2483" lon="6.34561">
        <ele>448.59240722656</ele>
        <time>2012-04-29T09:05:24Z</time>
      </trkpt>
      <trkpt lat="47.24865" lon="6.34608">
        <ele>447.63098144531</ele>
        <time>2012-04-29T09:05:29Z</time>
      </trkpt>
      <trkpt lat="47.24873" lon="6.34629">
        <ele>446.66967773438</ele>
        <time>2012-04-29T09:05:32Z</time>
      </trkpt>
      <trkpt lat="47.24894" lon="6.34674">
        <ele>445.70837402344</ele>
        <time>2012-04-29T09:05:39Z</time>
      </trkpt>
      <trkpt lat="47.24913" lon="6.34669">
        <ele>444.7470703125</ele>
        <time>2012-04-29T09:06:16Z</time>
      </trkpt>
      <trkpt lat="47.24923" lon="6.34665">
        <ele>444.26647949219</ele>
        <time>2012-04-29T09:06:22Z</time>
      </trkpt>
      <trkpt lat="47.24922" lon="6.34663">
        <ele>445.70837402344</ele>
        <time>2012-04-29T09:06:46Z</time>
      </trkpt>
      <trkpt lat="47.24941" lon="6.34642">
        <ele>445.70837402344</ele>
        <time>2012-04-29T09:07:08Z</time>
      </trkpt>
      <trkpt lat="47.24925" lon="6.3466">
        <ele>446.66967773438</ele>
        <time>2012-04-29T09:07:17Z</time>
      </trkpt>
      <trkpt lat="47.24257" lon="6.34454">
        <ele>446.66967773438</ele>
        <time>2012-04-29T09:09:44Z</time>
      </trkpt>
      <trkpt lat="47.24352" lon="6.34657">
        <ele>444.26647949219</ele>
        <time>2012-04-29T09:13:15Z</time>
      </trkpt>
      <trkpt lat="47.24455" lon="6.34681">
        <ele>448.11181640625</ele>
        <time>2012-04-29T09:13:49Z</time>
      </trkpt>
      <trkpt lat="47.24462" lon="6.34679">
        <ele>447.63098144531</ele>
        <time>2012-04-29T09:13:50Z</time>
      </trkpt>
      <trkpt lat="47.24469" lon="6.34673">
        <ele>444.26647949219</ele>
        <time>2012-04-29T09:14:14Z</time>
      </trkpt>
      <trkpt lat="47.24846" lon="6.34688">
        <ele>444.26647949219</ele>
        <time>2012-04-29T09:15:17Z</time>
      </trkpt>
      <trkpt lat="47.24882" lon="6.34693">
        <ele>444.26647949219</ele>
        <time>2012-04-29T09:15:24Z</time>
      </trkpt>
      <trkpt lat="47.24882" lon="6.34699">
        <ele>444.26647949219</ele>
        <time>2012-04-29T09:16:37Z</time>
      </trkpt>
      <trkpt lat="47.24793" lon="6.34736">
        <ele>448.11181640625</ele>
        <time>2012-04-29T09:18:01Z</time>
      </trkpt>
      <trkpt lat="47.24785" lon="6.3473">
        <ele>448.11181640625</ele>
        <time>2012-04-29T09:18:04Z</time>
      </trkpt>
      <trkpt lat="47.24749" lon="6.34734">
        <ele>448.59240722656</ele>
        <time>2012-04-29T09:18:10Z</time>
      </trkpt>
      <trkpt lat="47.24761" lon="6.34719">
        <ele>450.99560546875</ele>
        <time>2012-04-29T09:18:14Z</time>
      </trkpt>
      <trkpt lat="47.24762" lon="6.34717">
        <ele>451.47631835938</ele>
        <time>2012-04-29T09:18:18Z</time>
      </trkpt>
      <trkpt lat="47.2475" lon="6.34717">
        <ele>451.47631835938</ele>
        <time>2012-04-29T09:18:22Z</time>
      </trkpt>
      <trkpt lat="47.24738" lon="6.34718">
        <ele>453.87963867188</ele>
        <time>2012-04-29T09:18:29Z</time>
      </trkpt>
      <trkpt lat="47.24733" lon="6.34719">
        <ele>453.39892578125</ele>
        <time>2012-04-29T09:18:31Z</time>
      </trkpt>
      <trkpt lat="47.24724" lon="6.34722">
        <ele>453.39892578125</ele>
        <time>2012-04-29T09:18:34Z</time>
      </trkpt>
      <trkpt lat="47.2472" lon="6.34717">
        <ele>454.36022949219</ele>
        <time>2012-04-29T09:18:37Z</time>
      </trkpt>
      <trkpt lat="47.24718" lon="6.34706">
        <ele>455.80224609375</ele>
        <time>2012-04-29T09:18:42Z</time>
      </trkpt>
      <trkpt lat="47.24713" lon="6.34692">
        <ele>458.20556640625</ele>
        <time>2012-04-29T09:18:50Z</time>
      </trkpt>
      <trkpt lat="47.24712" lon="6.34684">
        <ele>458.68615722656</ele>
        <time>2012-04-29T09:18:55Z</time>
      </trkpt>
      <trkpt lat="47.24708" lon="6.34679">
        <ele>459.16687011719</ele>
        <time>2012-04-29T09:19:01Z</time>
      </trkpt>
      <trkpt lat="47.24707" lon="6.34675">
        <ele>460.60876464844</ele>
        <time>2012-04-29T09:19:06Z</time>
      </trkpt>
      <trkpt lat="47.24704" lon="6.34666">
        <ele>463.49279785156</ele>
        <time>2012-04-29T09:19:17Z</time>
      </trkpt>
      <trkpt lat="47.24702" lon="6.34662">
        <ele>464.93481445312</ele>
        <time>2012-04-29T09:19:23Z</time>
      </trkpt>
      <trkpt lat="47.24696" lon="6.34657">
        <ele>464.93481445312</ele>
        <time>2012-04-29T09:19:28Z</time>
      </trkpt>
      <trkpt lat="47.24683" lon="6.34653">
        <ele>465.41552734375</ele>
        <time>2012-04-29T09:19:36Z</time>
      </trkpt>
      <trkpt lat="47.24678" lon="6.3465">
        <ele>465.89611816406</ele>
        <time>2012-04-29T09:19:42Z</time>
      </trkpt>
      <trkpt lat="47.24675" lon="6.34649">
        <ele>466.857421875</ele>
        <time>2012-04-29T09:19:45Z</time>
      </trkpt>
      <trkpt lat="47.2467" lon="6.34651">
        <ele>468.29931640625</ele>
        <time>2012-04-29T09:19:50Z</time>
      </trkpt>
      <trkpt lat="47.2467" lon="6.3465">
        <ele>469.2607421875</ele>
        <time>2012-04-29T09:19:52Z</time>
      </trkpt>
      <trkpt lat="47.24667" lon="6.34646">
        <ele>470.22192382812</ele>
        <time>2012-04-29T09:19:57Z</time>
      </trkpt>
      <trkpt lat="47.24662" lon="6.34641">
        <ele>471.18334960938</ele>
        <time>2012-04-29T09:20:01Z</time>
      </trkpt>
      <trkpt lat="47.24657" lon="6.34641">
        <ele>471.66394042969</ele>
        <time>2012-04-29T09:20:06Z</time>
      </trkpt>
      <trkpt lat="47.24652" lon="6.34637">
        <ele>472.62536621094</ele>
        <time>2012-04-29T09:20:11Z</time>
      </trkpt>
      <trkpt lat="47.24641" lon="6.34635">
        <ele>474.06726074219</ele>
        <time>2012-04-29T09:20:24Z</time>
      </trkpt>
      <trkpt lat="47.24637" lon="6.34634">
        <ele>475.50927734375</ele>
        <time>2012-04-29T09:20:30Z</time>
      </trkpt>
      <trkpt lat="47.2463" lon="6.34627">
        <ele>475.98986816406</ele>
        <time>2012-04-29T09:20:37Z</time>
      </trkpt>
      <trkpt lat="47.24627" lon="6.34622">
        <ele>477.43188476562</ele>
        <time>2012-04-29T09:20:42Z</time>
      </trkpt>
      <trkpt lat="47.24625" lon="6.34619">
        <ele>477.91247558594</ele>
        <time>2012-04-29T09:20:46Z</time>
      </trkpt>
      <trkpt lat="47.24623" lon="6.34613">
        <ele>478.87390136719</ele>
        <time>2012-04-29T09:20:52Z</time>
      </trkpt>
      <trkpt lat="47.2462" lon="6.34611">
        <ele>479.83508300781</ele>
        <time>2012-04-29T09:20:58Z</time>
      </trkpt>
      <trkpt lat="47.24617" lon="6.34609">
        <ele>480.79663085938</ele>
        <time>2012-04-29T09:21:04Z</time>
      </trkpt>
      <trkpt lat="47.24614" lon="6.34607">
        <ele>479.3544921875</ele>
        <time>2012-04-29T09:21:16Z</time>
      </trkpt>
      <trkpt lat="47.24614" lon="6.34606">
        <ele>479.3544921875</ele>
        <time>2012-04-29T09:21:17Z</time>
      </trkpt>
      <trkpt lat="47.24609" lon="6.34599">
        <ele>479.83508300781</ele>
        <time>2012-04-29T09:21:23Z</time>
      </trkpt>
      <trkpt lat="47.24607" lon="6.34599">
        <ele>480.79663085938</ele>
        <time>2012-04-29T09:21:24Z</time>
      </trkpt>
      <trkpt lat="47.24598" lon="6.34594">
        <ele>481.27722167969</ele>
        <time>2012-04-29T09:21:30Z</time>
      </trkpt>
      <trkpt lat="47.24593" lon="6.3459">
        <ele>481.7578125</ele>
        <time>2012-04-29T09:21:34Z</time>
      </trkpt>
      <trkpt lat="47.24588" lon="6.34586">
        <ele>482.71923828125</ele>
        <time>2012-04-29T09:21:39Z</time>
      </trkpt>
      <trkpt lat="47.24583" lon="6.34583">
        <ele>483.19982910156</ele>
        <time>2012-04-29T09:21:43Z</time>
      </trkpt>
      <trkpt lat="47.24571" lon="6.34574">
        <ele>484.64184570312</ele>
        <time>2012-04-29T09:21:49Z</time>
      </trkpt>
      <trkpt lat="47.24565" lon="6.34559">
        <ele>486.08374023438</ele>
        <time>2012-04-29T09:21:58Z</time>
      </trkpt>
      <trkpt lat="47.24561" lon="6.34549">
        <ele>486.08374023438</ele>
        <time>2012-04-29T09:22:03Z</time>
      </trkpt>
      <trkpt lat="47.24554" lon="6.34535">
        <ele>486.08374023438</ele>
        <time>2012-04-29T09:22:08Z</time>
      </trkpt>
      <trkpt lat="47.24546" lon="6.34509">
        <ele>486.08374023438</ele>
        <time>2012-04-29T09:22:14Z</time>
      </trkpt>
      <trkpt lat="47.24545" lon="6.34503">
        <ele>486.08374023438</ele>
        <time>2012-04-29T09:22:15Z</time>
      </trkpt>
      <trkpt lat="47.24538" lon="6.3448">
        <ele>483.19982910156</ele>
        <time>2012-04-29T09:22:19Z</time>
      </trkpt>
      <trkpt lat="47.24537" lon="6.34463">
        <ele>482.23852539062</ele>
        <time>2012-04-29T09:22:22Z</time>
      </trkpt>
      <trkpt lat="47.24553" lon="6.34456">
        <ele>482.71923828125</ele>
        <time>2012-04-29T09:22:26Z</time>
      </trkpt>
      <trkpt lat="47.24557" lon="6.34455">
        <ele>482.23852539062</ele>
        <time>2012-04-29T09:22:27Z</time>
      </trkpt>
      <trkpt lat="47.2459" lon="6.3442">
        <ele>483.19982910156</ele>
        <time>2012-04-29T09:22:32Z</time>
      </trkpt>
      <trkpt lat="47.24599" lon="6.34405">
        <ele>483.19982910156</ele>
        <time>2012-04-29T09:22:34Z</time>
      </trkpt>
      <trkpt lat="47.24627" lon="6.34366">
        <ele>483.19982910156</ele>
        <time>2012-04-29T09:22:40Z</time>
      </trkpt>
      <trkpt lat="47.24647" lon="6.3435">
        <ele>484.64184570312</ele>
        <time>2012-04-29T09:22:45Z</time>
      </trkpt>
      <trkpt lat="47.24657" lon="6.34343">
        <ele>486.08374023438</ele>
        <time>2012-04-29T09:22:50Z</time>
      </trkpt>
      <trkpt lat="47.24664" lon="6.34336">
        <ele>486.564453125</ele>
        <time>2012-04-29T09:22:55Z</time>
      </trkpt>
      <trkpt lat="47.24673" lon="6.34329">
        <ele>488.00646972656</ele>
        <time>2012-04-29T09:23:01Z</time>
      </trkpt>
      <trkpt lat="47.24677" lon="6.34319">
        <ele>489.44836425781</ele>
        <time>2012-04-29T09:23:07Z</time>
      </trkpt>
      <trkpt lat="47.24681" lon="6.34308">
        <ele>490.89038085938</ele>
        <time>2012-04-29T09:23:13Z</time>
      </trkpt>
      <trkpt lat="47.24681" lon="6.34303">
        <ele>491.37097167969</ele>
        <time>2012-04-29T09:23:16Z</time>
      </trkpt>
      <trkpt lat="47.24682" lon="6.34298">
        <ele>491.37097167969</ele>
        <time>2012-04-29T09:23:20Z</time>
      </trkpt>
      <trkpt lat="47.24681" lon="6.34283">
        <ele>492.33239746094</ele>
        <time>2012-04-29T09:23:26Z</time>
      </trkpt>
      <trkpt lat="47.24679" lon="6.3427">
        <ele>493.77429199219</ele>
        <time>2012-04-29T09:23:32Z</time>
      </trkpt>
      <trkpt lat="47.24678" lon="6.34257">
        <ele>495.21618652344</ele>
        <time>2012-04-29T09:23:38Z</time>
      </trkpt>
      <trkpt lat="47.24679" lon="6.34252">
        <ele>495.21618652344</ele>
        <time>2012-04-29T09:23:41Z</time>
      </trkpt>
      <trkpt lat="47.24679" lon="6.34247">
        <ele>494.73559570312</ele>
        <time>2012-04-29T09:23:43Z</time>
      </trkpt>
      <trkpt lat="47.24679" lon="6.34232">
        <ele>495.21618652344</ele>
        <time>2012-04-29T09:23:49Z</time>
      </trkpt>
      <trkpt lat="47.24679" lon="6.3422">
        <ele>496.65832519531</ele>
        <time>2012-04-29T09:23:53Z</time>
      </trkpt>
      <trkpt lat="47.24677" lon="6.34201">
        <ele>497.13891601562</ele>
        <time>2012-04-29T09:23:58Z</time>
      </trkpt>
      <trkpt lat="47.24679" lon="6.34177">
        <ele>499.54223632812</ele>
        <time>2012-04-29T09:24:06Z</time>
      </trkpt>
      <trkpt lat="47.24681" lon="6.34164">
        <ele>500.02294921875</ele>
        <time>2012-04-29T09:24:12Z</time>
      </trkpt>
      <trkpt lat="47.24681" lon="6.34162">
        <ele>499.54223632812</ele>
        <time>2012-04-29T09:24:13Z</time>
      </trkpt>
      <trkpt lat="47.24684" lon="6.34148">
        <ele>500.98413085938</ele>
        <time>2012-04-29T09:24:20Z</time>
      </trkpt>
      <trkpt lat="47.24686" lon="6.34138">
        <ele>500.98413085938</ele>
        <time>2012-04-29T09:24:24Z</time>
      </trkpt>
      <trkpt lat="47.24689" lon="6.34123">
        <ele>502.42614746094</ele>
        <time>2012-04-29T09:24:31Z</time>
      </trkpt>
      <trkpt lat="47.24693" lon="6.34108">
        <ele>503.8681640625</ele>
        <time>2012-04-29T09:24:37Z</time>
      </trkpt>
      <trkpt lat="47.24698" lon="6.34094">
        <ele>504.34887695312</ele>
        <time>2012-04-29T09:24:43Z</time>
      </trkpt>
      <trkpt lat="47.247" lon="6.34084">
        <ele>506.271484375</ele>
        <time>2012-04-29T09:24:47Z</time>
      </trkpt>
      <trkpt lat="47.247" lon="6.3408">
        <ele>506.75207519531</ele>
        <time>2012-04-29T09:24:49Z</time>
      </trkpt>
      <trkpt lat="47.247" lon="6.34071">
        <ele>507.23278808594</ele>
        <time>2012-04-29T09:24:53Z</time>
      </trkpt>
      <trkpt lat="47.24702" lon="6.34058">
        <ele>508.19409179688</ele>
        <time>2012-04-29T09:24:59Z</time>
      </trkpt>
      <trkpt lat="47.24704" lon="6.3405">
        <ele>508.67468261719</ele>
        <time>2012-04-29T09:25:03Z</time>
      </trkpt>
      <trkpt lat="47.24708" lon="6.34038">
        <ele>509.15539550781</ele>
        <time>2012-04-29T09:25:07Z</time>
      </trkpt>
      <trkpt lat="47.2471" lon="6.3403">
        <ele>509.63610839844</ele>
        <time>2012-04-29T09:25:10Z</time>
      </trkpt>
      <trkpt lat="47.24711" lon="6.34019">
        <ele>510.11669921875</ele>
        <time>2012-04-29T09:25:14Z</time>
      </trkpt>
      <trkpt lat="47.24713" lon="6.34006">
        <ele>509.63610839844</ele>
        <time>2012-04-29T09:25:18Z</time>
      </trkpt>
      <trkpt lat="47.24718" lon="6.33977">
        <ele>509.15539550781</ele>
        <time>2012-04-29T09:25:24Z</time>
      </trkpt>
      <trkpt lat="47.24723" lon="6.3395">
        <ele>508.67468261719</ele>
        <time>2012-04-29T09:25:29Z</time>
      </trkpt>
      <trkpt lat="47.24728" lon="6.33924">
        <ele>509.15539550781</ele>
        <time>2012-04-29T09:25:34Z</time>
      </trkpt>
      <trkpt lat="47.24731" lon="6.33893">
        <ele>508.67468261719</ele>
        <time>2012-04-29T09:25:39Z</time>
      </trkpt>
      <trkpt lat="47.24735" lon="6.33865">
        <ele>508.19409179688</ele>
        <time>2012-04-29T09:25:43Z</time>
      </trkpt>
      <trkpt lat="47.24741" lon="6.3384">
        <ele>507.71350097656</ele>
        <time>2012-04-29T09:25:47Z</time>
      </trkpt>
      <trkpt lat="47.24746" lon="6.33825">
        <ele>506.75207519531</ele>
        <time>2012-04-29T09:25:49Z</time>
      </trkpt>
      <trkpt lat="47.2476" lon="6.33778">
        <ele>506.75207519531</ele>
        <time>2012-04-29T09:25:55Z</time>
      </trkpt>
      <trkpt lat="47.24771" lon="6.33743">
        <ele>506.75207519531</ele>
        <time>2012-04-29T09:26:00Z</time>
      </trkpt>
      <trkpt lat="47.24779" lon="6.33716">
        <ele>506.75207519531</ele>
        <time>2012-04-29T09:26:04Z</time>
      </trkpt>
      <trkpt lat="47.248" lon="6.33664">
        <ele>508.19409179688</ele>
        <time>2012-04-29T09:26:12Z</time>
      </trkpt>
      <trkpt lat="47.24808" lon="6.33647">
        <ele>508.19409179688</ele>
        <time>2012-04-29T09:26:15Z</time>
      </trkpt>
      <trkpt lat="47.24816" lon="6.33627">
        <ele>507.71350097656</ele>
        <time>2012-04-29T09:26:18Z</time>
      </trkpt>
      <trkpt lat="47.2483" lon="6.33602">
        <ele>507.23278808594</ele>
        <time>2012-04-29T09:26:22Z</time>
      </trkpt>
      <trkpt lat="47.24846" lon="6.33573">
        <ele>507.71350097656</ele>
        <time>2012-04-29T09:26:28Z</time>
      </trkpt>
      <trkpt lat="47.24848" lon="6.33562">
        <ele>508.19409179688</ele>
        <time>2012-04-29T09:26:30Z</time>
      </trkpt>
      <trkpt lat="47.24846" lon="6.33527">
        <ele>511.55871582031</ele>
        <time>2012-04-29T09:26:36Z</time>
      </trkpt>
      <trkpt lat="47.2484" lon="6.33512">
        <ele>513.00073242188</ele>
        <time>2012-04-29T09:26:40Z</time>
      </trkpt>
      <trkpt lat="47.24832" lon="6.33487">
        <ele>513.96203613281</ele>
        <time>2012-04-29T09:26:46Z</time>
      </trkpt>
      <trkpt lat="47.24827" lon="6.33465">
        <ele>514.92333984375</ele>
        <time>2012-04-29T09:26:52Z</time>
      </trkpt>
      <trkpt lat="47.24823" lon="6.33442">
        <ele>515.88464355469</ele>
        <time>2012-04-29T09:26:58Z</time>
      </trkpt>
      <trkpt lat="47.2482" lon="6.33426">
        <ele>517.32666015625</ele>
        <time>2012-04-29T09:27:04Z</time>
      </trkpt>
      <trkpt lat="47.24817" lon="6.33413">
        <ele>518.7685546875</ele>
        <time>2012-04-29T09:27:10Z</time>
      </trkpt>
      <trkpt lat="47.24816" lon="6.33397">
        <ele>519.24926757812</ele>
        <time>2012-04-29T09:27:16Z</time>
      </trkpt>
      <trkpt lat="47.24817" lon="6.33392">
        <ele>519.72985839844</ele>
        <time>2012-04-29T09:27:18Z</time>
      </trkpt>
      <trkpt lat="47.24816" lon="6.33376">
        <ele>520.21057128906</ele>
        <time>2012-04-29T09:27:24Z</time>
      </trkpt>
      <trkpt lat="47.24814" lon="6.33363">
        <ele>522.13317871094</ele>
        <time>2012-04-29T09:27:30Z</time>
      </trkpt>
      <trkpt lat="47.24815" lon="6.33355">
        <ele>524.05578613281</ele>
        <time>2012-04-29T09:27:34Z</time>
      </trkpt>
      <trkpt lat="47.24812" lon="6.33349">
        <ele>525.97839355469</ele>
        <time>2012-04-29T09:27:38Z</time>
      </trkpt>
      <trkpt lat="47.24811" lon="6.33341">
        <ele>526.45910644531</ele>
        <time>2012-04-29T09:27:43Z</time>
      </trkpt>
      <trkpt lat="47.2481" lon="6.33328">
        <ele>526.93981933594</ele>
        <time>2012-04-29T09:27:50Z</time>
      </trkpt>
      <trkpt lat="47.24809" lon="6.33307">
        <ele>527.42041015625</ele>
        <time>2012-04-29T09:27:59Z</time>
      </trkpt>
      <trkpt lat="47.24806" lon="6.33292">
        <ele>527.42041015625</ele>
        <time>2012-04-29T09:28:07Z</time>
      </trkpt>
      <trkpt lat="47.24806" lon="6.3329">
        <ele>527.90100097656</ele>
        <time>2012-04-29T09:28:08Z</time>
      </trkpt>
      <trkpt lat="47.24805" lon="6.33279">
        <ele>527.42041015625</ele>
        <time>2012-04-29T09:28:15Z</time>
      </trkpt>
      <trkpt lat="47.24802" lon="6.33282">
        <ele>528.3818359375</ele>
        <time>2012-04-29T09:28:23Z</time>
      </trkpt>
      <trkpt lat="47.24812" lon="6.33283">
        <ele>527.90100097656</ele>
        <time>2012-04-29T09:28:30Z</time>
      </trkpt>
      <trkpt lat="47.24815" lon="6.33287">
        <ele>527.42041015625</ele>
        <time>2012-04-29T09:28:34Z</time>
      </trkpt>
      <trkpt lat="47.24814" lon="6.33281">
        <ele>527.42041015625</ele>
        <time>2012-04-29T09:28:38Z</time>
      </trkpt>
      <trkpt lat="47.24804" lon="6.33278">
        <ele>528.86254882812</ele>
        <time>2012-04-29T09:28:45Z</time>
      </trkpt>
      <trkpt lat="47.24793" lon="6.33272">
        <ele>530.30444335938</ele>
        <time>2012-04-29T09:28:52Z</time>
      </trkpt>
      <trkpt lat="47.24784" lon="6.3327">
        <ele>530.30444335938</ele>
        <time>2012-04-29T09:28:59Z</time>
      </trkpt>
      <trkpt lat="47.24779" lon="6.33269">
        <ele>530.30444335938</ele>
        <time>2012-04-29T09:29:03Z</time>
      </trkpt>
      <trkpt lat="47.24766" lon="6.33268">
        <ele>530.78515625</ele>
        <time>2012-04-29T09:29:10Z</time>
      </trkpt>
      <trkpt lat="47.24756" lon="6.33266">
        <ele>531.26574707031</ele>
        <time>2012-04-29T09:29:16Z</time>
      </trkpt>
      <trkpt lat="47.24747" lon="6.33265">
        <ele>531.74633789062</ele>
        <time>2012-04-29T09:29:20Z</time>
      </trkpt>
      <trkpt lat="47.24733" lon="6.33262">
        <ele>531.74633789062</ele>
        <time>2012-04-29T09:29:26Z</time>
      </trkpt>
      <trkpt lat="47.24722" lon="6.33261">
        <ele>531.74633789062</ele>
        <time>2012-04-29T09:29:30Z</time>
      </trkpt>
      <trkpt lat="47.24708" lon="6.3326">
        <ele>531.74633789062</ele>
        <time>2012-04-29T09:29:35Z</time>
      </trkpt>
      <trkpt lat="47.24696" lon="6.33256">
        <ele>531.26574707031</ele>
        <time>2012-04-29T09:29:39Z</time>
      </trkpt>
      <trkpt lat="47.2468" lon="6.33248">
        <ele>528.86254882812</ele>
        <time>2012-04-29T09:29:44Z</time>
      </trkpt>
      <trkpt lat="47.24671" lon="6.33214">
        <ele>529.34313964844</ele>
        <time>2012-04-29T09:29:48Z</time>
      </trkpt>
      <trkpt lat="47.24668" lon="6.3319">
        <ele>531.26574707031</ele>
        <time>2012-04-29T09:29:51Z</time>
      </trkpt>
      <trkpt lat="47.24662" lon="6.33159">
        <ele>533.18835449219</ele>
        <time>2012-04-29T09:29:56Z</time>
      </trkpt>
      <trkpt lat="47.24661" lon="6.33135">
        <ele>534.63037109375</ele>
        <time>2012-04-29T09:30:02Z</time>
      </trkpt>
      <trkpt lat="47.24662" lon="6.33123">
        <ele>535.11096191406</ele>
        <time>2012-04-29T09:30:06Z</time>
      </trkpt>
      <trkpt lat="47.24654" lon="6.33108">
        <ele>536.55310058594</ele>
        <time>2012-04-29T09:30:13Z</time>
      </trkpt>
      <trkpt lat="47.24651" lon="6.33094">
        <ele>539.43688964844</ele>
        <time>2012-04-29T09:30:20Z</time>
      </trkpt>
      <trkpt lat="47.24651" lon="6.33075">
        <ele>540.87890625</ele>
        <time>2012-04-29T09:30:27Z</time>
      </trkpt>
      <trkpt lat="47.24651" lon="6.33065">
        <ele>540.87890625</ele>
        <time>2012-04-29T09:30:31Z</time>
      </trkpt>
      <trkpt lat="47.24669" lon="6.33027">
        <ele>544.24365234375</ele>
        <time>2012-04-29T09:30:48Z</time>
      </trkpt>
      <trkpt lat="47.24665" lon="6.33022">
        <ele>545.20483398438</ele>
        <time>2012-04-29T09:30:50Z</time>
      </trkpt>
      <trkpt lat="47.24644" lon="6.33005">
        <ele>546.64685058594</ele>
        <time>2012-04-29T09:30:56Z</time>
      </trkpt>
      <trkpt lat="47.24643" lon="6.32993">
        <ele>547.12744140625</ele>
        <time>2012-04-29T09:31:01Z</time>
      </trkpt>
      <trkpt lat="47.24636" lon="6.3298">
        <ele>547.60815429688</ele>
        <time>2012-04-29T09:31:08Z</time>
      </trkpt>
      <trkpt lat="47.24636" lon="6.32977">
        <ele>548.0888671875</ele>
        <time>2012-04-29T09:31:10Z</time>
      </trkpt>
      <trkpt lat="47.24634" lon="6.32971">
        <ele>548.0888671875</ele>
        <time>2012-04-29T09:31:13Z</time>
      </trkpt>
      <trkpt lat="47.24633" lon="6.32959">
        <ele>550.01147460938</ele>
        <time>2012-04-29T09:31:18Z</time>
      </trkpt>
      <trkpt lat="47.24634" lon="6.32956">
        <ele>550.01147460938</ele>
        <time>2012-04-29T09:31:20Z</time>
      </trkpt>
      <trkpt lat="47.24634" lon="6.32944">
        <ele>552.41455078125</ele>
        <time>2012-04-29T09:31:25Z</time>
      </trkpt>
      <trkpt lat="47.24638" lon="6.3293">
        <ele>552.41455078125</ele>
        <time>2012-04-29T09:31:31Z</time>
      </trkpt>
      <trkpt lat="47.2464" lon="6.32918">
        <ele>553.3759765625</ele>
        <time>2012-04-29T09:31:36Z</time>
      </trkpt>
      <trkpt lat="47.2464" lon="6.32904">
        <ele>554.33740234375</ele>
        <time>2012-04-29T09:31:43Z</time>
      </trkpt>
      <trkpt lat="47.24644" lon="6.32887">
        <ele>555.779296875</ele>
        <time>2012-04-29T09:31:49Z</time>
      </trkpt>
      <trkpt lat="47.24643" lon="6.32877">
        <ele>557.7021484375</ele>
        <time>2012-04-29T09:31:53Z</time>
      </trkpt>
      <trkpt lat="47.24642" lon="6.32864">
        <ele>557.22143554688</ele>
        <time>2012-04-29T09:31:58Z</time>
      </trkpt>
      <trkpt lat="47.24636" lon="6.32847">
        <ele>557.7021484375</ele>
        <time>2012-04-29T09:32:05Z</time>
      </trkpt>
      <trkpt lat="47.24628" lon="6.32844">
        <ele>558.66333007812</ele>
        <time>2012-04-29T09:32:12Z</time>
      </trkpt>
      <trkpt lat="47.24619" lon="6.32845">
        <ele>559.14404296875</ele>
        <time>2012-04-29T09:32:17Z</time>
      </trkpt>
      <trkpt lat="47.24609" lon="6.32843">
        <ele>558.66333007812</ele>
        <time>2012-04-29T09:32:22Z</time>
      </trkpt>
      <trkpt lat="47.24596" lon="6.32839">
        <ele>558.66333007812</ele>
        <time>2012-04-29T09:32:27Z</time>
      </trkpt>
      <trkpt lat="47.24583" lon="6.32829">
        <ele>557.7021484375</ele>
        <time>2012-04-29T09:32:33Z</time>
      </trkpt>
      <trkpt lat="47.24572" lon="6.32817">
        <ele>557.22143554688</ele>
        <time>2012-04-29T09:32:38Z</time>
      </trkpt>
      <trkpt lat="47.24559" lon="6.32803">
        <ele>557.22143554688</ele>
        <time>2012-04-29T09:32:42Z</time>
      </trkpt>
      <trkpt lat="47.24546" lon="6.3277">
        <ele>556.74072265625</ele>
        <time>2012-04-29T09:32:47Z</time>
      </trkpt>
      <trkpt lat="47.24526" lon="6.32724">
        <ele>557.22143554688</ele>
        <time>2012-04-29T09:32:53Z</time>
      </trkpt>
      <trkpt lat="47.24509" lon="6.32694">
        <ele>558.18286132812</ele>
        <time>2012-04-29T09:32:58Z</time>
      </trkpt>
      <trkpt lat="47.24495" lon="6.32669">
        <ele>558.18286132812</ele>
        <time>2012-04-29T09:33:03Z</time>
      </trkpt>
      <trkpt lat="47.24476" lon="6.32643">
        <ele>558.18286132812</ele>
        <time>2012-04-29T09:33:08Z</time>
      </trkpt>
      <trkpt lat="47.24472" lon="6.32638">
        <ele>558.18286132812</ele>
        <time>2012-04-29T09:33:09Z</time>
      </trkpt>
      <trkpt lat="47.24448" lon="6.32614">
        <ele>557.7021484375</ele>
        <time>2012-04-29T09:33:14Z</time>
      </trkpt>
      <trkpt lat="47.24433" lon="6.32599">
        <ele>556.74072265625</ele>
        <time>2012-04-29T09:33:17Z</time>
      </trkpt>
      <trkpt lat="47.24405" lon="6.32578">
        <ele>555.779296875</ele>
        <time>2012-04-29T09:33:22Z</time>
      </trkpt>
      <trkpt lat="47.24378" lon="6.32563">
        <ele>556.26000976562</ele>
        <time>2012-04-29T09:33:27Z</time>
      </trkpt>
      <trkpt lat="47.24356" lon="6.3256">
        <ele>554.81787109375</ele>
        <time>2012-04-29T09:33:32Z</time>
      </trkpt>
      <trkpt lat="47.24329" lon="6.32555">
        <ele>553.85668945312</ele>
        <time>2012-04-29T09:33:35Z</time>
      </trkpt>
      <trkpt lat="47.2431" lon="6.32526">
        <ele>554.81787109375</ele>
        <time>2012-04-29T09:33:39Z</time>
      </trkpt>
      <trkpt lat="47.24287" lon="6.3249">
        <ele>556.26000976562</ele>
        <time>2012-04-29T09:33:45Z</time>
      </trkpt>
      <trkpt lat="47.24271" lon="6.32477">
        <ele>556.74072265625</ele>
        <time>2012-04-29T09:33:49Z</time>
      </trkpt>
      <trkpt lat="47.24256" lon="6.3246">
        <ele>557.22143554688</ele>
        <time>2012-04-29T09:33:54Z</time>
      </trkpt>
      <trkpt lat="47.24253" lon="6.32439">
        <ele>558.18286132812</ele>
        <time>2012-04-29T09:33:58Z</time>
      </trkpt>
      <trkpt lat="47.24254" lon="6.32419">
        <ele>559.14404296875</ele>
        <time>2012-04-29T09:34:03Z</time>
      </trkpt>
      <trkpt lat="47.24266" lon="6.32395">
        <ele>560.10522460938</ele>
        <time>2012-04-29T09:34:08Z</time>
      </trkpt>
      <trkpt lat="47.24255" lon="6.3238">
        <ele>560.5859375</ele>
        <time>2012-04-29T09:34:13Z</time>
      </trkpt>
      <trkpt lat="47.24256" lon="6.3237">
        <ele>562.02807617188</ele>
        <time>2012-04-29T09:34:16Z</time>
      </trkpt>
      <trkpt lat="47.24257" lon="6.32355">
        <ele>562.50854492188</ele>
        <time>2012-04-29T09:34:22Z</time>
      </trkpt>
      <trkpt lat="47.24258" lon="6.32352">
        <ele>562.9892578125</ele>
        <time>2012-04-29T09:34:23Z</time>
      </trkpt>
      <trkpt lat="47.24266" lon="6.32335">
        <ele>563.46997070312</ele>
        <time>2012-04-29T09:34:29Z</time>
      </trkpt>
      <trkpt lat="47.24265" lon="6.32327">
        <ele>564.43115234375</ele>
        <time>2012-04-29T09:34:33Z</time>
      </trkpt>
      <trkpt lat="47.24244" lon="6.32314">
        <ele>565.392578125</ele>
        <time>2012-04-29T09:34:37Z</time>
      </trkpt>
      <trkpt lat="47.24235" lon="6.32298">
        <ele>565.87329101562</ele>
        <time>2012-04-29T09:34:44Z</time>
      </trkpt>
      <trkpt lat="47.24232" lon="6.32291">
        <ele>566.83447265625</ele>
        <time>2012-04-29T09:34:47Z</time>
      </trkpt>
      <trkpt lat="47.24232" lon="6.32274">
        <ele>567.31518554688</ele>
        <time>2012-04-29T09:34:52Z</time>
      </trkpt>
      <trkpt lat="47.24228" lon="6.32264">
        <ele>567.79565429688</ele>
        <time>2012-04-29T09:34:56Z</time>
      </trkpt>
      <trkpt lat="47.24216" lon="6.32247">
        <ele>568.75708007812</ele>
        <time>2012-04-29T09:35:01Z</time>
      </trkpt>
      <trkpt lat="47.24215" lon="6.32243">
        <ele>568.2763671875</ele>
        <time>2012-04-29T09:35:02Z</time>
      </trkpt>
      <trkpt lat="47.24207" lon="6.32215">
        <ele>568.75708007812</ele>
        <time>2012-04-29T09:35:09Z</time>
      </trkpt>
      <trkpt lat="47.242" lon="6.32201">
        <ele>568.75708007812</ele>
        <time>2012-04-29T09:35:14Z</time>
      </trkpt>
      <trkpt lat="47.24193" lon="6.32184">
        <ele>569.71850585938</ele>
        <time>2012-04-29T09:35:20Z</time>
      </trkpt>
      <trkpt lat="47.24187" lon="6.32166">
        <ele>570.19897460938</ele>
        <time>2012-04-29T09:35:25Z</time>
      </trkpt>
      <trkpt lat="47.24178" lon="6.32148">
        <ele>570.6796875</ele>
        <time>2012-04-29T09:35:31Z</time>
      </trkpt>
      <trkpt lat="47.24171" lon="6.32128">
        <ele>570.19897460938</ele>
        <time>2012-04-29T09:35:36Z</time>
      </trkpt>
      <trkpt lat="47.24161" lon="6.32109">
        <ele>571.16040039062</ele>
        <time>2012-04-29T09:35:41Z</time>
      </trkpt>
      <trkpt lat="47.24151" lon="6.32083">
        <ele>572.12182617188</ele>
        <time>2012-04-29T09:35:47Z</time>
      </trkpt>
      <trkpt lat="47.2414" lon="6.32065">
        <ele>572.12182617188</ele>
        <time>2012-04-29T09:35:51Z</time>
      </trkpt>
      <trkpt lat="47.24124" lon="6.32036">
        <ele>572.12182617188</ele>
        <time>2012-04-29T09:35:57Z</time>
      </trkpt>
      <trkpt lat="47.24109" lon="6.32014">
        <ele>571.64086914062</ele>
        <time>2012-04-29T09:36:02Z</time>
      </trkpt>
      <trkpt lat="47.24092" lon="6.31983">
        <ele>572.12182617188</ele>
        <time>2012-04-29T09:36:09Z</time>
      </trkpt>
      <trkpt lat="47.24079" lon="6.31946">
        <ele>573.08325195312</ele>
        <time>2012-04-29T09:36:17Z</time>
      </trkpt>
      <trkpt lat="47.24077" lon="6.31918">
        <ele>575.005859375</ele>
        <time>2012-04-29T09:36:23Z</time>
      </trkpt>
      <trkpt lat="47.24075" lon="6.31888">
        <ele>575.005859375</ele>
        <time>2012-04-29T09:36:29Z</time>
      </trkpt>
      <trkpt lat="47.24069" lon="6.31863">
        <ele>575.96704101562</ele>
        <time>2012-04-29T09:36:34Z</time>
      </trkpt>
      <trkpt lat="47.24062" lon="6.31839">
        <ele>575.96704101562</ele>
        <time>2012-04-29T09:36:39Z</time>
      </trkpt>
      <trkpt lat="47.24054" lon="6.31813">
        <ele>575.96704101562</ele>
        <time>2012-04-29T09:36:44Z</time>
      </trkpt>
      <trkpt lat="47.24048" lon="6.31788">
        <ele>576.44775390625</ele>
        <time>2012-04-29T09:36:48Z</time>
      </trkpt>
      <trkpt lat="47.24043" lon="6.31762">
        <ele>576.44775390625</ele>
        <time>2012-04-29T09:36:52Z</time>
      </trkpt>
      <trkpt lat="47.24025" lon="6.31719">
        <ele>576.92846679688</ele>
        <time>2012-04-29T09:37:00Z</time>
      </trkpt>
      <trkpt lat="47.24004" lon="6.31684">
        <ele>575.486328125</ele>
        <time>2012-04-29T09:37:08Z</time>
      </trkpt>
      <trkpt lat="47.23992" lon="6.31672">
        <ele>575.486328125</ele>
        <time>2012-04-29T09:37:13Z</time>
      </trkpt>
      <trkpt lat="47.23988" lon="6.31674">
        <ele>575.96704101562</ele>
        <time>2012-04-29T09:37:17Z</time>
      </trkpt>
      <trkpt lat="47.2398" lon="6.31678">
        <ele>577.4091796875</ele>
        <time>2012-04-29T09:37:23Z</time>
      </trkpt>
      <trkpt lat="47.23978" lon="6.31679">
        <ele>576.92846679688</ele>
        <time>2012-04-29T09:37:28Z</time>
      </trkpt>
      <trkpt lat="47.24023" lon="6.31824">
        <ele>578.37036132812</ele>
        <time>2012-04-29T09:39:29Z</time>
      </trkpt>
      <trkpt lat="47.23969" lon="6.3165">
        <ele>578.37036132812</ele>
        <time>2012-04-29T09:41:41Z</time>
      </trkpt>
      <trkpt lat="47.23963" lon="6.31641">
        <ele>579.33154296875</ele>
        <time>2012-04-29T09:44:37Z</time>
      </trkpt>
      <trkpt lat="47.23938" lon="6.31589">
        <ele>577.8896484375</ele>
        <time>2012-04-29T09:45:53Z</time>
      </trkpt>
      <trkpt lat="47.23968" lon="6.31661">
        <ele>577.4091796875</ele>
        <time>2012-04-29T09:46:24Z</time>
      </trkpt>
      <trkpt lat="47.23969" lon="6.31672">
        <ele>576.92846679688</ele>
        <time>2012-04-29T09:46:30Z</time>
      </trkpt>
      <trkpt lat="47.23978" lon="6.31673">
        <ele>575.96704101562</ele>
        <time>2012-04-29T09:47:36Z</time>
      </trkpt>
      <trkpt lat="47.23977" lon="6.31682">
        <ele>574.52514648438</ele>
        <time>2012-04-29T09:47:47Z</time>
      </trkpt>
      <trkpt lat="47.23977" lon="6.31682">
        <ele>574.04443359375</ele>
        <time>2012-04-29T09:47:55Z</time>
      </trkpt>
      <trkpt lat="47.23978" lon="6.31689">
        <ele>575.486328125</ele>
        <time>2012-04-29T09:49:47Z</time>
      </trkpt>
      <trkpt lat="47.23973" lon="6.31691">
        <ele>574.04443359375</ele>
        <time>2012-04-29T09:50:36Z</time>
      </trkpt>
      <trkpt lat="47.23969" lon="6.31702">
        <ele>575.005859375</ele>
        <time>2012-04-29T09:50:41Z</time>
      </trkpt>
      <trkpt lat="47.23956" lon="6.3171">
        <ele>576.92846679688</ele>
        <time>2012-04-29T09:50:53Z</time>
      </trkpt>
      <trkpt lat="47.23921" lon="6.31715">
        <ele>576.92846679688</ele>
        <time>2012-04-29T09:50:57Z</time>
      </trkpt>
      <trkpt lat="47.23896" lon="6.31722">
        <ele>575.005859375</ele>
        <time>2012-04-29T09:51:02Z</time>
      </trkpt>
      <trkpt lat="47.2389" lon="6.31724">
        <ele>575.005859375</ele>
        <time>2012-04-29T09:51:03Z</time>
      </trkpt>
      <trkpt lat="47.23854" lon="6.31734">
        <ele>574.04443359375</ele>
        <time>2012-04-29T09:51:09Z</time>
      </trkpt>
      <trkpt lat="47.23817" lon="6.31744">
        <ele>572.6025390625</ele>
        <time>2012-04-29T09:51:15Z</time>
      </trkpt>
      <trkpt lat="47.23746" lon="6.31775">
        <ele>570.6796875</ele>
        <time>2012-04-29T09:51:28Z</time>
      </trkpt>
      <trkpt lat="47.23695" lon="6.31787">
        <ele>568.75708007812</ele>
        <time>2012-04-29T09:51:36Z</time>
      </trkpt>
      <trkpt lat="47.23675" lon="6.31788">
        <ele>569.23779296875</ele>
        <time>2012-04-29T09:51:40Z</time>
      </trkpt>
      <trkpt lat="47.23662" lon="6.31789">
        <ele>569.23779296875</ele>
        <time>2012-04-29T09:51:43Z</time>
      </trkpt>
      <trkpt lat="47.23646" lon="6.31797">
        <ele>569.71850585938</ele>
        <time>2012-04-29T09:51:45Z</time>
      </trkpt>
      <trkpt lat="47.23624" lon="6.31797">
        <ele>570.6796875</ele>
        <time>2012-04-29T09:51:50Z</time>
      </trkpt>
      <trkpt lat="47.23618" lon="6.31787">
        <ele>571.16040039062</ele>
        <time>2012-04-29T09:51:54Z</time>
      </trkpt>
      <trkpt lat="47.23612" lon="6.31784">
        <ele>571.16040039062</ele>
        <time>2012-04-29T09:51:56Z</time>
      </trkpt>
      <trkpt lat="47.23615" lon="6.3175">
        <ele>572.12182617188</ele>
        <time>2012-04-29T09:52:00Z</time>
      </trkpt>
      <trkpt lat="47.23603" lon="6.31728">
        <ele>572.6025390625</ele>
        <time>2012-04-29T09:52:06Z</time>
      </trkpt>
      <trkpt lat="47.23586" lon="6.31711">
        <ele>573.08325195312</ele>
        <time>2012-04-29T09:52:12Z</time>
      </trkpt>
      <trkpt lat="47.23564" lon="6.31697">
        <ele>573.08325195312</ele>
        <time>2012-04-29T09:52:18Z</time>
      </trkpt>
      <trkpt lat="47.23552" lon="6.31684">
        <ele>573.56396484375</ele>
        <time>2012-04-29T09:52:22Z</time>
      </trkpt>
      <trkpt lat="47.23542" lon="6.31671">
        <ele>574.04443359375</ele>
        <time>2012-04-29T09:52:27Z</time>
      </trkpt>
      <trkpt lat="47.23536" lon="6.31664">
        <ele>574.52514648438</ele>
        <time>2012-04-29T09:52:30Z</time>
      </trkpt>
      <trkpt lat="47.23523" lon="6.31659">
        <ele>574.52514648438</ele>
        <time>2012-04-29T09:52:35Z</time>
      </trkpt>
      <trkpt lat="47.23515" lon="6.31647">
        <ele>575.486328125</ele>
        <time>2012-04-29T09:52:39Z</time>
      </trkpt>
      <trkpt lat="47.23502" lon="6.31632">
        <ele>575.96704101562</ele>
        <time>2012-04-29T09:52:46Z</time>
      </trkpt>
      <trkpt lat="47.23473" lon="6.31611">
        <ele>576.92846679688</ele>
        <time>2012-04-29T09:52:57Z</time>
      </trkpt>
      <trkpt lat="47.23466" lon="6.31604">
        <ele>576.92846679688</ele>
        <time>2012-04-29T09:53:00Z</time>
      </trkpt>
      <trkpt lat="47.23452" lon="6.31588">
        <ele>577.4091796875</ele>
        <time>2012-04-29T09:53:05Z</time>
      </trkpt>
      <trkpt lat="47.23436" lon="6.31569">
        <ele>576.92846679688</ele>
        <time>2012-04-29T09:53:11Z</time>
      </trkpt>
      <trkpt lat="47.23293" lon="6.31484">
        <ele>574.04443359375</ele>
        <time>2012-04-29T09:53:51Z</time>
      </trkpt>
      <trkpt lat="47.23288" lon="6.31485">
        <ele>574.04443359375</ele>
        <time>2012-04-29T09:53:53Z</time>
      </trkpt>
      <trkpt lat="47.23134" lon="6.31446">
        <ele>573.08325195312</ele>
        <time>2012-04-29T09:54:27Z</time>
      </trkpt>
      <trkpt lat="47.2313" lon="6.31419">
        <ele>573.56396484375</ele>
        <time>2012-04-29T09:54:30Z</time>
      </trkpt>
      <trkpt lat="47.23108" lon="6.31367">
        <ele>573.08325195312</ele>
        <time>2012-04-29T09:54:39Z</time>
      </trkpt>
      <trkpt lat="47.23094" lon="6.31333">
        <ele>573.08325195312</ele>
        <time>2012-04-29T09:54:46Z</time>
      </trkpt>
      <trkpt lat="47.2303" lon="6.31091">
        <ele>576.92846679688</ele>
        <time>2012-04-29T09:55:38Z</time>
      </trkpt>
      <trkpt lat="47.23029" lon="6.3108">
        <ele>577.4091796875</ele>
        <time>2012-04-29T09:55:40Z</time>
      </trkpt>
      <trkpt lat="47.23029" lon="6.31071">
        <ele>577.8896484375</ele>
        <time>2012-04-29T09:55:42Z</time>
      </trkpt>
      <trkpt lat="47.23035" lon="6.31055">
        <ele>578.85107421875</ele>
        <time>2012-04-29T09:55:48Z</time>
      </trkpt>
      <trkpt lat="47.23038" lon="6.31034">
        <ele>578.85107421875</ele>
        <time>2012-04-29T09:55:53Z</time>
      </trkpt>
      <trkpt lat="47.23021" lon="6.31041">
        <ele>577.8896484375</ele>
        <time>2012-04-29T09:55:58Z</time>
      </trkpt>
      <trkpt lat="47.22998" lon="6.31052">
        <ele>577.8896484375</ele>
        <time>2012-04-29T09:56:03Z</time>
      </trkpt>
      <trkpt lat="47.22977" lon="6.31046">
        <ele>578.37036132812</ele>
        <time>2012-04-29T09:56:08Z</time>
      </trkpt>
      <trkpt lat="47.22964" lon="6.31033">
        <ele>578.37036132812</ele>
        <time>2012-04-29T09:56:13Z</time>
      </trkpt>
      <trkpt lat="47.22953" lon="6.31017">
        <ele>578.37036132812</ele>
        <time>2012-04-29T09:56:17Z</time>
      </trkpt>
      <trkpt lat="47.22935" lon="6.31005">
        <ele>577.4091796875</ele>
        <time>2012-04-29T09:56:22Z</time>
      </trkpt>
      <trkpt lat="47.22933" lon="6.31002">
        <ele>577.4091796875</ele>
        <time>2012-04-29T09:56:23Z</time>
      </trkpt>
      <trkpt lat="47.22916" lon="6.30991">
        <ele>576.92846679688</ele>
        <time>2012-04-29T09:56:28Z</time>
      </trkpt>
      <trkpt lat="47.22894" lon="6.30986">
        <ele>576.44775390625</ele>
        <time>2012-04-29T09:56:33Z</time>
      </trkpt>
      <trkpt lat="47.22876" lon="6.30987">
        <ele>575.96704101562</ele>
        <time>2012-04-29T09:56:37Z</time>
      </trkpt>
      <trkpt lat="47.22862" lon="6.30988">
        <ele>576.92846679688</ele>
        <time>2012-04-29T09:56:41Z</time>
      </trkpt>
      <trkpt lat="47.22841" lon="6.30989">
        <ele>577.4091796875</ele>
        <time>2012-04-29T09:56:47Z</time>
      </trkpt>
      <trkpt lat="47.22834" lon="6.3099">
        <ele>579.33154296875</ele>
        <time>2012-04-29T09:56:50Z</time>
      </trkpt>
      <trkpt lat="47.22822" lon="6.3099">
        <ele>579.33154296875</ele>
        <time>2012-04-29T09:56:54Z</time>
      </trkpt>
      <trkpt lat="47.22809" lon="6.30991">
        <ele>579.33154296875</ele>
        <time>2012-04-29T09:56:59Z</time>
      </trkpt>
      <trkpt lat="47.22802" lon="6.30988">
        <ele>579.33154296875</ele>
        <time>2012-04-29T09:57:03Z</time>
      </trkpt>
      <trkpt lat="47.22797" lon="6.30987">
        <ele>579.33154296875</ele>
        <time>2012-04-29T09:57:05Z</time>
      </trkpt>
      <trkpt lat="47.22789" lon="6.30983">
        <ele>579.81225585938</ele>
        <time>2012-04-29T09:57:09Z</time>
      </trkpt>
      <trkpt lat="47.22771" lon="6.30982">
        <ele>579.81225585938</ele>
        <time>2012-04-29T09:57:15Z</time>
      </trkpt>
      <trkpt lat="47.22758" lon="6.30986">
        <ele>580.77368164062</ele>
        <time>2012-04-29T09:57:19Z</time>
      </trkpt>
      <trkpt lat="47.22756" lon="6.30987">
        <ele>580.77368164062</ele>
        <time>2012-04-29T09:57:20Z</time>
      </trkpt>
      <trkpt lat="47.22741" lon="6.30989">
        <ele>580.29296875</ele>
        <time>2012-04-29T09:57:25Z</time>
      </trkpt>
      <trkpt lat="47.22728" lon="6.30979">
        <ele>580.29296875</ele>
        <time>2012-04-29T09:57:31Z</time>
      </trkpt>
      <trkpt lat="47.22709" lon="6.30972">
        <ele>581.25439453125</ele>
        <time>2012-04-29T09:57:37Z</time>
      </trkpt>
      <trkpt lat="47.22702" lon="6.30967">
        <ele>581.73486328125</ele>
        <time>2012-04-29T09:57:40Z</time>
      </trkpt>
      <trkpt lat="47.22687" lon="6.30957">
        <ele>582.21557617188</ele>
        <time>2012-04-29T09:57:46Z</time>
      </trkpt>
      <trkpt lat="47.22675" lon="6.30951">
        <ele>582.21557617188</ele>
        <time>2012-04-29T09:57:51Z</time>
      </trkpt>
      <trkpt lat="47.2267" lon="6.3094">
        <ele>582.6962890625</ele>
        <time>2012-04-29T09:57:57Z</time>
      </trkpt>
      <trkpt lat="47.22666" lon="6.3093">
        <ele>583.65747070312</ele>
        <time>2012-04-29T09:58:02Z</time>
      </trkpt>
      <trkpt lat="47.22663" lon="6.30924">
        <ele>585.099609375</ele>
        <time>2012-04-29T09:58:06Z</time>
      </trkpt>
      <trkpt lat="47.22662" lon="6.30922">
        <ele>586.54150390625</ele>
        <time>2012-04-29T09:58:08Z</time>
      </trkpt>
      <trkpt lat="47.22653" lon="6.3091">
        <ele>586.06079101562</ele>
        <time>2012-04-29T09:58:16Z</time>
      </trkpt>
      <trkpt lat="47.22645" lon="6.309">
        <ele>586.54150390625</ele>
        <time>2012-04-29T09:58:23Z</time>
      </trkpt>
      <trkpt lat="47.22638" lon="6.30891">
        <ele>587.02197265625</ele>
        <time>2012-04-29T09:58:29Z</time>
      </trkpt>
      <trkpt lat="47.2263" lon="6.30882">
        <ele>587.50268554688</ele>
        <time>2012-04-29T09:58:33Z</time>
      </trkpt>
      <trkpt lat="47.22623" lon="6.30878">
        <ele>587.9833984375</ele>
        <time>2012-04-29T09:58:37Z</time>
      </trkpt>
      <trkpt lat="47.22616" lon="6.30871">
        <ele>588.46435546875</ele>
        <time>2012-04-29T09:58:41Z</time>
      </trkpt>
      <trkpt lat="47.22599" lon="6.30859">
        <ele>589.42553710938</ele>
        <time>2012-04-29T09:58:48Z</time>
      </trkpt>
      <trkpt lat="47.22594" lon="6.30835">
        <ele>589.90625</ele>
        <time>2012-04-29T09:58:54Z</time>
      </trkpt>
      <trkpt lat="47.22592" lon="6.30826">
        <ele>590.38696289062</ele>
        <time>2012-04-29T09:58:56Z</time>
      </trkpt>
      <trkpt lat="47.22589" lon="6.30802">
        <ele>591.34814453125</ele>
        <time>2012-04-29T09:59:03Z</time>
      </trkpt>
      <trkpt lat="47.22587" lon="6.30794">
        <ele>591.82885742188</ele>
        <time>2012-04-29T09:59:07Z</time>
      </trkpt>
      <trkpt lat="47.22584" lon="6.3078">
        <ele>593.27075195312</ele>
        <time>2012-04-29T09:59:13Z</time>
      </trkpt>
      <trkpt lat="47.22582" lon="6.3077">
        <ele>594.23217773438</ele>
        <time>2012-04-29T09:59:18Z</time>
      </trkpt>
      <trkpt lat="47.2258" lon="6.30763">
        <ele>594.71264648438</ele>
        <time>2012-04-29T09:59:22Z</time>
      </trkpt>
      <trkpt lat="47.22577" lon="6.30746">
        <ele>595.193359375</ele>
        <time>2012-04-29T09:59:29Z</time>
      </trkpt>
      <trkpt lat="47.22575" lon="6.30726">
        <ele>595.67407226562</ele>
        <time>2012-04-29T09:59:36Z</time>
      </trkpt>
      <trkpt lat="47.22566" lon="6.30714">
        <ele>596.15478515625</ele>
        <time>2012-04-29T09:59:41Z</time>
      </trkpt>
      <trkpt lat="47.22555" lon="6.30702">
        <ele>597.5966796875</ele>
        <time>2012-04-29T09:59:47Z</time>
      </trkpt>
      <trkpt lat="47.22553" lon="6.307">
        <ele>597.5966796875</ele>
        <time>2012-04-29T09:59:48Z</time>
      </trkpt>
      <trkpt lat="47.22541" lon="6.30687">
        <ele>598.07739257812</ele>
        <time>2012-04-29T09:59:54Z</time>
      </trkpt>
      <trkpt lat="47.22523" lon="6.30667">
        <ele>598.07739257812</ele>
        <time>2012-04-29T10:00:01Z</time>
      </trkpt>
      <trkpt lat="47.22514" lon="6.30657">
        <ele>598.07739257812</ele>
        <time>2012-04-29T10:00:05Z</time>
      </trkpt>
      <trkpt lat="47.22493" lon="6.30641">
        <ele>598.07739257812</ele>
        <time>2012-04-29T10:00:10Z</time>
      </trkpt>
      <trkpt lat="47.22481" lon="6.30632">
        <ele>598.55786132812</ele>
        <time>2012-04-29T10:00:13Z</time>
      </trkpt>
      <trkpt lat="47.22467" lon="6.30619">
        <ele>598.07739257812</ele>
        <time>2012-04-29T10:00:17Z</time>
      </trkpt>
      <trkpt lat="47.22459" lon="6.3061">
        <ele>598.07739257812</ele>
        <time>2012-04-29T10:00:19Z</time>
      </trkpt>
      <trkpt lat="47.22448" lon="6.306">
        <ele>598.07739257812</ele>
        <time>2012-04-29T10:00:22Z</time>
      </trkpt>
      <trkpt lat="47.22437" lon="6.30587">
        <ele>598.55786132812</ele>
        <time>2012-04-29T10:00:25Z</time>
      </trkpt>
      <trkpt lat="47.22414" lon="6.30559">
        <ele>597.5966796875</ele>
        <time>2012-04-29T10:00:30Z</time>
      </trkpt>
      <trkpt lat="47.22403" lon="6.30544">
        <ele>596.63549804688</ele>
        <time>2012-04-29T10:00:33Z</time>
      </trkpt>
      <trkpt lat="47.22386" lon="6.30513">
        <ele>597.5966796875</ele>
        <time>2012-04-29T10:00:39Z</time>
      </trkpt>
      <trkpt lat="47.22376" lon="6.30498">
        <ele>597.11596679688</ele>
        <time>2012-04-29T10:00:43Z</time>
      </trkpt>
      <trkpt lat="47.22342" lon="6.30387">
        <ele>598.07739257812</ele>
        <time>2012-04-29T10:01:01Z</time>
      </trkpt>
      <trkpt lat="47.22335" lon="6.30361">
        <ele>598.55786132812</ele>
        <time>2012-04-29T10:01:05Z</time>
      </trkpt>
      <trkpt lat="47.2231" lon="6.30307">
        <ele>595.193359375</ele>
        <time>2012-04-29T10:01:13Z</time>
      </trkpt>
      <trkpt lat="47.22301" lon="6.30291">
        <ele>593.75146484375</ele>
        <time>2012-04-29T10:01:15Z</time>
      </trkpt>
      <trkpt lat="47.22271" lon="6.3025">
        <ele>590.86743164062</ele>
        <time>2012-04-29T10:01:21Z</time>
      </trkpt>
      <trkpt lat="47.22243" lon="6.30192">
        <ele>587.50268554688</ele>
        <time>2012-04-29T10:01:27Z</time>
      </trkpt>
      <trkpt lat="47.22255" lon="6.30118">
        <ele>584.61889648438</ele>
        <time>2012-04-29T10:01:32Z</time>
      </trkpt>
      <trkpt lat="47.22271" lon="6.30085">
        <ele>583.1767578125</ele>
        <time>2012-04-29T10:01:35Z</time>
      </trkpt>
      <trkpt lat="47.22274" lon="6.30073">
        <ele>582.21557617188</ele>
        <time>2012-04-29T10:01:37Z</time>
      </trkpt>
      <trkpt lat="47.22267" lon="6.30074">
        <ele>580.77368164062</ele>
        <time>2012-04-29T10:01:39Z</time>
      </trkpt>
      <trkpt lat="47.22262" lon="6.30075">
        <ele>580.29296875</ele>
        <time>2012-04-29T10:01:40Z</time>
      </trkpt>
      <trkpt lat="47.22235" lon="6.30074">
        <ele>578.37036132812</ele>
        <time>2012-04-29T10:01:44Z</time>
      </trkpt>
      <trkpt lat="47.22205" lon="6.3009">
        <ele>576.44775390625</ele>
        <time>2012-04-29T10:01:48Z</time>
      </trkpt>
      <trkpt lat="47.22184" lon="6.30107">
        <ele>575.486328125</ele>
        <time>2012-04-29T10:01:51Z</time>
      </trkpt>
      <trkpt lat="47.22139" lon="6.30121">
        <ele>576.44775390625</ele>
        <time>2012-04-29T10:01:57Z</time>
      </trkpt>
      <trkpt lat="47.22128" lon="6.30127">
        <ele>576.44775390625</ele>
        <time>2012-04-29T10:01:59Z</time>
      </trkpt>
      <trkpt lat="47.22083" lon="6.3022">
        <ele>574.04443359375</ele>
        <time>2012-04-29T10:02:14Z</time>
      </trkpt>
      <trkpt lat="47.22057" lon="6.3031">
        <ele>574.52514648438</ele>
        <time>2012-04-29T10:02:18Z</time>
      </trkpt>
      <trkpt lat="47.22049" lon="6.30336">
        <ele>572.6025390625</ele>
        <time>2012-04-29T10:02:21Z</time>
      </trkpt>
      <trkpt lat="47.22025" lon="6.30363">
        <ele>571.16040039062</ele>
        <time>2012-04-29T10:02:25Z</time>
      </trkpt>
      <trkpt lat="47.21992" lon="6.30368">
        <ele>571.16040039062</ele>
        <time>2012-04-29T10:02:29Z</time>
      </trkpt>
      <trkpt lat="47.21955" lon="6.30367">
        <ele>568.2763671875</ele>
        <time>2012-04-29T10:02:34Z</time>
      </trkpt>
      <trkpt lat="47.21898" lon="6.3041">
        <ele>569.71850585938</ele>
        <time>2012-04-29T10:02:40Z</time>
      </trkpt>
      <trkpt lat="47.21883" lon="6.30452">
        <ele>569.71850585938</ele>
        <time>2012-04-29T10:02:45Z</time>
      </trkpt>
      <trkpt lat="47.21879" lon="6.30458">
        <ele>569.71850585938</ele>
        <time>2012-04-29T10:02:46Z</time>
      </trkpt>
      <trkpt lat="47.21864" lon="6.30479">
        <ele>569.71850585938</ele>
        <time>2012-04-29T10:02:51Z</time>
      </trkpt>
      <trkpt lat="47.21843" lon="6.30497">
        <ele>569.71850585938</ele>
        <time>2012-04-29T10:02:56Z</time>
      </trkpt>
      <trkpt lat="47.21823" lon="6.30525">
        <ele>570.19897460938</ele>
        <time>2012-04-29T10:03:01Z</time>
      </trkpt>
      <trkpt lat="47.21804" lon="6.30556">
        <ele>570.19897460938</ele>
        <time>2012-04-29T10:03:05Z</time>
      </trkpt>
      <trkpt lat="47.21782" lon="6.30592">
        <ele>571.16040039062</ele>
        <time>2012-04-29T10:03:10Z</time>
      </trkpt>
      <trkpt lat="47.21779" lon="6.30598">
        <ele>571.16040039062</ele>
        <time>2012-04-29T10:03:11Z</time>
      </trkpt>
      <trkpt lat="47.21758" lon="6.30621">
        <ele>571.16040039062</ele>
        <time>2012-04-29T10:03:16Z</time>
      </trkpt>
      <trkpt lat="47.21754" lon="6.30625">
        <ele>571.16040039062</ele>
        <time>2012-04-29T10:03:17Z</time>
      </trkpt>
      <trkpt lat="47.21724" lon="6.30644">
        <ele>571.64086914062</ele>
        <time>2012-04-29T10:03:23Z</time>
      </trkpt>
      <trkpt lat="47.217" lon="6.30665">
        <ele>573.08325195312</ele>
        <time>2012-04-29T10:03:29Z</time>
      </trkpt>
      <trkpt lat="47.21679" lon="6.3068">
        <ele>574.04443359375</ele>
        <time>2012-04-29T10:03:35Z</time>
      </trkpt>
      <trkpt lat="47.21667" lon="6.30687">
        <ele>575.005859375</ele>
        <time>2012-04-29T10:03:40Z</time>
      </trkpt>
      <trkpt lat="47.21656" lon="6.30694">
        <ele>575.005859375</ele>
        <time>2012-04-29T10:03:45Z</time>
      </trkpt>
      <trkpt lat="47.21646" lon="6.30706">
        <ele>575.486328125</ele>
        <time>2012-04-29T10:03:49Z</time>
      </trkpt>
      <trkpt lat="47.21634" lon="6.30723">
        <ele>575.96704101562</ele>
        <time>2012-04-29T10:03:54Z</time>
      </trkpt>
      <trkpt lat="47.21621" lon="6.30739">
        <ele>575.96704101562</ele>
        <time>2012-04-29T10:03:58Z</time>
      </trkpt>
      <trkpt lat="47.21617" lon="6.30745">
        <ele>575.96704101562</ele>
        <time>2012-04-29T10:03:59Z</time>
      </trkpt>
      <trkpt lat="47.21601" lon="6.30763">
        <ele>575.96704101562</ele>
        <time>2012-04-29T10:04:02Z</time>
      </trkpt>
      <trkpt lat="47.21569" lon="6.30817">
        <ele>575.005859375</ele>
        <time>2012-04-29T10:04:06Z</time>
      </trkpt>
      <trkpt lat="47.21553" lon="6.30833">
        <ele>574.04443359375</ele>
        <time>2012-04-29T10:04:09Z</time>
      </trkpt>
      <trkpt lat="47.21551" lon="6.30832">
        <ele>574.04443359375</ele>
        <time>2012-04-29T10:04:10Z</time>
      </trkpt>
      <trkpt lat="47.21532" lon="6.30804">
        <ele>574.52514648438</ele>
        <time>2012-04-29T10:04:14Z</time>
      </trkpt>
      <trkpt lat="47.21505" lon="6.30773">
        <ele>573.56396484375</ele>
        <time>2012-04-29T10:04:19Z</time>
      </trkpt>
      <trkpt lat="47.21501" lon="6.30769">
        <ele>573.56396484375</ele>
        <time>2012-04-29T10:04:20Z</time>
      </trkpt>
      <trkpt lat="47.2149" lon="6.30764">
        <ele>574.04443359375</ele>
        <time>2012-04-29T10:04:22Z</time>
      </trkpt>
      <trkpt lat="47.21479" lon="6.30761">
        <ele>573.56396484375</ele>
        <time>2012-04-29T10:04:24Z</time>
      </trkpt>
      <trkpt lat="47.21449" lon="6.30735">
        <ele>573.56396484375</ele>
        <time>2012-04-29T10:04:29Z</time>
      </trkpt>
      <trkpt lat="47.21444" lon="6.30728">
        <ele>573.56396484375</ele>
        <time>2012-04-29T10:04:30Z</time>
      </trkpt>
      <trkpt lat="47.21437" lon="6.30714">
        <ele>573.56396484375</ele>
        <time>2012-04-29T10:04:32Z</time>
      </trkpt>
      <trkpt lat="47.21406" lon="6.30683">
        <ele>574.04443359375</ele>
        <time>2012-04-29T10:04:39Z</time>
      </trkpt>
      <trkpt lat="47.21377" lon="6.30662">
        <ele>573.56396484375</ele>
        <time>2012-04-29T10:04:45Z</time>
      </trkpt>
      <trkpt lat="47.21341" lon="6.30626">
        <ele>573.56396484375</ele>
        <time>2012-04-29T10:04:51Z</time>
      </trkpt>
      <trkpt lat="47.2132" lon="6.30602">
        <ele>573.08325195312</ele>
        <time>2012-04-29T10:04:55Z</time>
      </trkpt>
      <trkpt lat="47.21296" lon="6.30573">
        <ele>572.12182617188</ele>
        <time>2012-04-29T10:04:59Z</time>
      </trkpt>
      <trkpt lat="47.2126" lon="6.30533">
        <ele>571.16040039062</ele>
        <time>2012-04-29T10:05:06Z</time>
      </trkpt>
      <trkpt lat="47.21239" lon="6.30508">
        <ele>570.19897460938</ele>
        <time>2012-04-29T10:05:10Z</time>
      </trkpt>
      <trkpt lat="47.21213" lon="6.30485">
        <ele>569.71850585938</ele>
        <time>2012-04-29T10:05:15Z</time>
      </trkpt>
      <trkpt lat="47.21203" lon="6.30465">
        <ele>571.16040039062</ele>
        <time>2012-04-29T10:05:20Z</time>
      </trkpt>
      <trkpt lat="47.21198" lon="6.30459">
        <ele>572.6025390625</ele>
        <time>2012-04-29T10:05:23Z</time>
      </trkpt>
      <trkpt lat="47.21196" lon="6.30441">
        <ele>573.56396484375</ele>
        <time>2012-04-29T10:05:28Z</time>
      </trkpt>
      <trkpt lat="47.21193" lon="6.3043">
        <ele>573.56396484375</ele>
        <time>2012-04-29T10:05:31Z</time>
      </trkpt>
      <trkpt lat="47.21192" lon="6.30418">
        <ele>573.56396484375</ele>
        <time>2012-04-29T10:05:35Z</time>
      </trkpt>
      <trkpt lat="47.21183" lon="6.30396">
        <ele>574.52514648438</ele>
        <time>2012-04-29T10:05:41Z</time>
      </trkpt>
      <trkpt lat="47.2118" lon="6.30387">
        <ele>574.04443359375</ele>
        <time>2012-04-29T10:05:43Z</time>
      </trkpt>
      <trkpt lat="47.21173" lon="6.30377">
        <ele>574.04443359375</ele>
        <time>2012-04-29T10:05:48Z</time>
      </trkpt>
      <trkpt lat="47.21149" lon="6.30348">
        <ele>572.6025390625</ele>
        <time>2012-04-29T10:06:00Z</time>
      </trkpt>
      <trkpt lat="47.21163" lon="6.3032">
        <ele>573.08325195312</ele>
        <time>2012-04-29T10:06:06Z</time>
      </trkpt>
      <trkpt lat="47.21164" lon="6.30315">
        <ele>574.04443359375</ele>
        <time>2012-04-29T10:06:08Z</time>
      </trkpt>
      <trkpt lat="47.21159" lon="6.30295">
        <ele>575.486328125</ele>
        <time>2012-04-29T10:06:15Z</time>
      </trkpt>
      <trkpt lat="47.21159" lon="6.30293">
        <ele>575.486328125</ele>
        <time>2012-04-29T10:06:16Z</time>
      </trkpt>
      <trkpt lat="47.21174" lon="6.30271">
        <ele>575.96704101562</ele>
        <time>2012-04-29T10:06:23Z</time>
      </trkpt>
      <trkpt lat="47.21181" lon="6.30262">
        <ele>575.96704101562</ele>
        <time>2012-04-29T10:06:28Z</time>
      </trkpt>
      <trkpt lat="47.21186" lon="6.30256">
        <ele>576.44775390625</ele>
        <time>2012-04-29T10:06:33Z</time>
      </trkpt>
      <trkpt lat="47.21187" lon="6.30251">
        <ele>576.44775390625</ele>
        <time>2012-04-29T10:06:37Z</time>
      </trkpt>
      <trkpt lat="47.21185" lon="6.30244">
        <ele>576.44775390625</ele>
        <time>2012-04-29T10:06:42Z</time>
      </trkpt>
      <trkpt lat="47.21191" lon="6.30235">
        <ele>577.8896484375</ele>
        <time>2012-04-29T10:06:48Z</time>
      </trkpt>
      <trkpt lat="47.21197" lon="6.30228">
        <ele>578.85107421875</ele>
        <time>2012-04-29T10:06:53Z</time>
      </trkpt>
      <trkpt lat="47.21203" lon="6.30213">
        <ele>578.85107421875</ele>
        <time>2012-04-29T10:06:59Z</time>
      </trkpt>
      <trkpt lat="47.21204" lon="6.30211">
        <ele>578.85107421875</ele>
        <time>2012-04-29T10:07:00Z</time>
      </trkpt>
      <trkpt lat="47.21212" lon="6.30204">
        <ele>579.33154296875</ele>
        <time>2012-04-29T10:07:04Z</time>
      </trkpt>
      <trkpt lat="47.21226" lon="6.30192">
        <ele>580.29296875</ele>
        <time>2012-04-29T10:07:12Z</time>
      </trkpt>
      <trkpt lat="47.21228" lon="6.30186">
        <ele>580.77368164062</ele>
        <time>2012-04-29T10:07:15Z</time>
      </trkpt>
      <trkpt lat="47.21233" lon="6.3017">
        <ele>581.25439453125</ele>
        <time>2012-04-29T10:07:21Z</time>
      </trkpt>
      <trkpt lat="47.21243" lon="6.3016">
        <ele>582.21557617188</ele>
        <time>2012-04-29T10:07:26Z</time>
      </trkpt>
      <trkpt lat="47.2125" lon="6.3016">
        <ele>583.1767578125</ele>
        <time>2012-04-29T10:07:31Z</time>
      </trkpt>
      <trkpt lat="47.21257" lon="6.30159">
        <ele>583.65747070312</ele>
        <time>2012-04-29T10:07:38Z</time>
      </trkpt>
      <trkpt lat="47.21261" lon="6.30158">
        <ele>584.13818359375</ele>
        <time>2012-04-29T10:07:42Z</time>
      </trkpt>
      <trkpt lat="47.21265" lon="6.30155">
        <ele>584.61889648438</ele>
        <time>2012-04-29T10:07:47Z</time>
      </trkpt>
      <trkpt lat="47.21273" lon="6.30147">
        <ele>585.580078125</ele>
        <time>2012-04-29T10:07:54Z</time>
      </trkpt>
      <trkpt lat="47.21281" lon="6.30139">
        <ele>586.06079101562</ele>
        <time>2012-04-29T10:08:00Z</time>
      </trkpt>
      <trkpt lat="47.21289" lon="6.30134">
        <ele>587.9833984375</ele>
        <time>2012-04-29T10:08:07Z</time>
      </trkpt>
      <trkpt lat="47.21294" lon="6.30127">
        <ele>588.94506835938</ele>
        <time>2012-04-29T10:08:12Z</time>
      </trkpt>
      <trkpt lat="47.21296" lon="6.3012">
        <ele>590.38696289062</ele>
        <time>2012-04-29T10:08:19Z</time>
      </trkpt>
      <trkpt lat="47.21294" lon="6.30117">
        <ele>591.82885742188</ele>
        <time>2012-04-29T10:08:24Z</time>
      </trkpt>
      <trkpt lat="47.21295" lon="6.30112">
        <ele>593.27075195312</ele>
        <time>2012-04-29T10:08:37Z</time>
      </trkpt>
      <trkpt lat="47.21296" lon="6.30107">
        <ele>594.23217773438</ele>
        <time>2012-04-29T10:08:47Z</time>
      </trkpt>
      <trkpt lat="47.213" lon="6.30104">
        <ele>596.15478515625</ele>
        <time>2012-04-29T10:08:51Z</time>
      </trkpt>
      <trkpt lat="47.21304" lon="6.30105">
        <ele>598.07739257812</ele>
        <time>2012-04-29T10:08:56Z</time>
      </trkpt>
      <trkpt lat="47.21307" lon="6.301">
        <ele>600</ele>
        <time>2012-04-29T10:09:04Z</time>
      </trkpt>
      <trkpt lat="47.21309" lon="6.301">
        <ele>600.48071289062</ele>
        <time>2012-04-29T10:09:09Z</time>
      </trkpt>
      <trkpt lat="47.2131" lon="6.30096">
        <ele>600.96118164062</ele>
        <time>2012-04-29T10:09:16Z</time>
      </trkpt>
      <trkpt lat="47.21311" lon="6.30095">
        <ele>601.92260742188</ele>
        <time>2012-04-29T10:09:23Z</time>
      </trkpt>
      <trkpt lat="47.21315" lon="6.30088">
        <ele>601.92260742188</ele>
        <time>2012-04-29T10:09:28Z</time>
      </trkpt>
      <trkpt lat="47.21321" lon="6.30083">
        <ele>601.92260742188</ele>
        <time>2012-04-29T10:09:36Z</time>
      </trkpt>
      <trkpt lat="47.21328" lon="6.30078">
        <ele>601.92260742188</ele>
        <time>2012-04-29T10:09:48Z</time>
      </trkpt>
      <trkpt lat="47.21334" lon="6.30082">
        <ele>602.40307617188</ele>
        <time>2012-04-29T10:09:53Z</time>
      </trkpt>
      <trkpt lat="47.21339" lon="6.3009">
        <ele>602.8837890625</ele>
        <time>2012-04-29T10:10:00Z</time>
      </trkpt>
      <trkpt lat="47.21343" lon="6.30092">
        <ele>603.36450195312</ele>
        <time>2012-04-29T10:10:03Z</time>
      </trkpt>
      <trkpt lat="47.21359" lon="6.30097">
        <ele>602.8837890625</ele>
        <time>2012-04-29T10:10:09Z</time>
      </trkpt>
      <trkpt lat="47.21373" lon="6.30102">
        <ele>603.84521484375</ele>
        <time>2012-04-29T10:10:14Z</time>
      </trkpt>
      <trkpt lat="47.2139" lon="6.30108">
        <ele>604.326171875</ele>
        <time>2012-04-29T10:10:20Z</time>
      </trkpt>
      <trkpt lat="47.21403" lon="6.30118">
        <ele>605.28735351562</ele>
        <time>2012-04-29T10:10:25Z</time>
      </trkpt>
      <trkpt lat="47.21405" lon="6.30121">
        <ele>605.28735351562</ele>
        <time>2012-04-29T10:10:26Z</time>
      </trkpt>
      <trkpt lat="47.2142" lon="6.30148">
        <ele>606.24853515625</ele>
        <time>2012-04-29T10:10:32Z</time>
      </trkpt>
      <trkpt lat="47.21424" lon="6.30155">
        <ele>606.72924804688</ele>
        <time>2012-04-29T10:10:34Z</time>
      </trkpt>
      <trkpt lat="47.21442" lon="6.30169">
        <ele>606.24853515625</ele>
        <time>2012-04-29T10:10:41Z</time>
      </trkpt>
      <trkpt lat="47.21449" lon="6.30192">
        <ele>606.24853515625</ele>
        <time>2012-04-29T10:10:45Z</time>
      </trkpt>
      <trkpt lat="47.21452" lon="6.30195">
        <ele>605.76806640625</ele>
        <time>2012-04-29T10:10:46Z</time>
      </trkpt>
      <trkpt lat="47.21483" lon="6.30176">
        <ele>606.72924804688</ele>
        <time>2012-04-29T10:10:51Z</time>
      </trkpt>
      <trkpt lat="47.215" lon="6.30179">
        <ele>607.2099609375</ele>
        <time>2012-04-29T10:10:55Z</time>
      </trkpt>
      <trkpt lat="47.21512" lon="6.30181">
        <ele>607.2099609375</ele>
        <time>2012-04-29T10:10:59Z</time>
      </trkpt>
      <trkpt lat="47.21531" lon="6.30181">
        <ele>607.69067382812</ele>
        <time>2012-04-29T10:11:04Z</time>
      </trkpt>
      <trkpt lat="47.21547" lon="6.30183">
        <ele>607.69067382812</ele>
        <time>2012-04-29T10:11:08Z</time>
      </trkpt>
      <trkpt lat="47.21561" lon="6.30187">
        <ele>608.17138671875</ele>
        <time>2012-04-29T10:11:12Z</time>
      </trkpt>
      <trkpt lat="47.21564" lon="6.30189">
        <ele>608.65185546875</ele>
        <time>2012-04-29T10:11:13Z</time>
      </trkpt>
      <trkpt lat="47.21568" lon="6.30191">
        <ele>609.61328125</ele>
        <time>2012-04-29T10:11:15Z</time>
      </trkpt>
      <trkpt lat="47.21575" lon="6.30193">
        <ele>608.65185546875</ele>
        <time>2012-04-29T10:11:18Z</time>
      </trkpt>
      <trkpt lat="47.21583" lon="6.30196">
        <ele>608.17138671875</ele>
        <time>2012-04-29T10:11:21Z</time>
      </trkpt>
      <trkpt lat="47.21603" lon="6.30185">
        <ele>608.17138671875</ele>
        <time>2012-04-29T10:11:26Z</time>
      </trkpt>
      <trkpt lat="47.21608" lon="6.3018">
        <ele>609.13256835938</ele>
        <time>2012-04-29T10:11:27Z</time>
      </trkpt>
      <trkpt lat="47.21651" lon="6.30157">
        <ele>608.65185546875</ele>
        <time>2012-04-29T10:11:33Z</time>
      </trkpt>
      <trkpt lat="47.21666" lon="6.30147">
        <ele>608.17138671875</ele>
        <time>2012-04-29T10:11:36Z</time>
      </trkpt>
      <trkpt lat="47.21679" lon="6.30129">
        <ele>608.65185546875</ele>
        <time>2012-04-29T10:11:39Z</time>
      </trkpt>
      <trkpt lat="47.21684" lon="6.30117">
        <ele>607.69067382812</ele>
        <time>2012-04-29T10:11:41Z</time>
      </trkpt>
      <trkpt lat="47.2169" lon="6.30105">
        <ele>607.2099609375</ele>
        <time>2012-04-29T10:11:43Z</time>
      </trkpt>
      <trkpt lat="47.21713" lon="6.30086">
        <ele>606.24853515625</ele>
        <time>2012-04-29T10:11:48Z</time>
      </trkpt>
      <trkpt lat="47.21724" lon="6.30079">
        <ele>606.24853515625</ele>
        <time>2012-04-29T10:11:50Z</time>
      </trkpt>
      <trkpt lat="47.21737" lon="6.3005">
        <ele>604.806640625</ele>
        <time>2012-04-29T10:11:55Z</time>
      </trkpt>
      <trkpt lat="47.21738" lon="6.30018">
        <ele>603.36450195312</ele>
        <time>2012-04-29T10:12:00Z</time>
      </trkpt>
      <trkpt lat="47.21735" lon="6.29998">
        <ele>602.8837890625</ele>
        <time>2012-04-29T10:12:04Z</time>
      </trkpt>
      <trkpt lat="47.21733" lon="6.29991">
        <ele>602.8837890625</ele>
        <time>2012-04-29T10:12:05Z</time>
      </trkpt>
      <trkpt lat="47.21731" lon="6.29963">
        <ele>602.40307617188</ele>
        <time>2012-04-29T10:12:10Z</time>
      </trkpt>
      <trkpt lat="47.2173" lon="6.29957">
        <ele>601.92260742188</ele>
        <time>2012-04-29T10:12:11Z</time>
      </trkpt>
      <trkpt lat="47.21725" lon="6.29915">
        <ele>602.40307617188</ele>
        <time>2012-04-29T10:12:17Z</time>
      </trkpt>
      <trkpt lat="47.21718" lon="6.29864">
        <ele>602.40307617188</ele>
        <time>2012-04-29T10:12:23Z</time>
      </trkpt>
      <trkpt lat="47.21714" lon="6.29835">
        <ele>602.40307617188</ele>
        <time>2012-04-29T10:12:27Z</time>
      </trkpt>
      <trkpt lat="47.21711" lon="6.29797">
        <ele>601.92260742188</ele>
        <time>2012-04-29T10:12:32Z</time>
      </trkpt>
      <trkpt lat="47.21713" lon="6.29777">
        <ele>600.96118164062</ele>
        <time>2012-04-29T10:12:35Z</time>
      </trkpt>
      <trkpt lat="47.21712" lon="6.29738">
        <ele>598.55786132812</ele>
        <time>2012-04-29T10:12:41Z</time>
      </trkpt>
      <trkpt lat="47.2171" lon="6.29718">
        <ele>598.55786132812</ele>
        <time>2012-04-29T10:12:44Z</time>
      </trkpt>
      <trkpt lat="47.2171" lon="6.29703">
        <ele>597.5966796875</ele>
        <time>2012-04-29T10:12:46Z</time>
      </trkpt>
      <trkpt lat="47.21711" lon="6.29689">
        <ele>597.11596679688</ele>
        <time>2012-04-29T10:12:48Z</time>
      </trkpt>
      <trkpt lat="47.21709" lon="6.29674">
        <ele>596.63549804688</ele>
        <time>2012-04-29T10:12:50Z</time>
      </trkpt>
      <trkpt lat="47.21709" lon="6.29647">
        <ele>596.15478515625</ele>
        <time>2012-04-29T10:12:54Z</time>
      </trkpt>
      <trkpt lat="47.21706" lon="6.2962">
        <ele>596.63549804688</ele>
        <time>2012-04-29T10:12:59Z</time>
      </trkpt>
      <trkpt lat="47.21705" lon="6.29611">
        <ele>596.63549804688</ele>
        <time>2012-04-29T10:13:01Z</time>
      </trkpt>
      <trkpt lat="47.2171" lon="6.29582">
        <ele>596.63549804688</ele>
        <time>2012-04-29T10:13:06Z</time>
      </trkpt>
      <trkpt lat="47.2171" lon="6.29556">
        <ele>596.63549804688</ele>
        <time>2012-04-29T10:13:11Z</time>
      </trkpt>
      <trkpt lat="47.21711" lon="6.2953">
        <ele>597.11596679688</ele>
        <time>2012-04-29T10:13:15Z</time>
      </trkpt>
      <trkpt lat="47.2171" lon="6.29508">
        <ele>596.63549804688</ele>
        <time>2012-04-29T10:13:19Z</time>
      </trkpt>
      <trkpt lat="47.21712" lon="6.29496">
        <ele>596.63549804688</ele>
        <time>2012-04-29T10:13:21Z</time>
      </trkpt>
      <trkpt lat="47.21716" lon="6.29467">
        <ele>596.15478515625</ele>
        <time>2012-04-29T10:13:26Z</time>
      </trkpt>
      <trkpt lat="47.2171" lon="6.29446">
        <ele>596.63549804688</ele>
        <time>2012-04-29T10:13:31Z</time>
      </trkpt>
      <trkpt lat="47.21703" lon="6.29426">
        <ele>597.5966796875</ele>
        <time>2012-04-29T10:13:36Z</time>
      </trkpt>
      <trkpt lat="47.21702" lon="6.29409">
        <ele>597.5966796875</ele>
        <time>2012-04-29T10:13:40Z</time>
      </trkpt>
      <trkpt lat="47.21698" lon="6.29386">
        <ele>597.5966796875</ele>
        <time>2012-04-29T10:13:45Z</time>
      </trkpt>
      <trkpt lat="47.21696" lon="6.29371">
        <ele>596.63549804688</ele>
        <time>2012-04-29T10:13:50Z</time>
      </trkpt>
      <trkpt lat="47.21688" lon="6.29365">
        <ele>597.11596679688</ele>
        <time>2012-04-29T10:13:55Z</time>
      </trkpt>
      <trkpt lat="47.21682" lon="6.29363">
        <ele>597.5966796875</ele>
        <time>2012-04-29T10:13:58Z</time>
      </trkpt>
      <trkpt lat="47.2167" lon="6.29352">
        <ele>597.5966796875</ele>
        <time>2012-04-29T10:14:03Z</time>
      </trkpt>
      <trkpt lat="47.21656" lon="6.29327">
        <ele>598.07739257812</ele>
        <time>2012-04-29T10:14:07Z</time>
      </trkpt>
      <trkpt lat="47.21636" lon="6.29303">
        <ele>598.07739257812</ele>
        <time>2012-04-29T10:14:13Z</time>
      </trkpt>
      <trkpt lat="47.21632" lon="6.29271">
        <ele>597.5966796875</ele>
        <time>2012-04-29T10:14:18Z</time>
      </trkpt>
      <trkpt lat="47.2162" lon="6.29253">
        <ele>598.07739257812</ele>
        <time>2012-04-29T10:14:22Z</time>
      </trkpt>
      <trkpt lat="47.21608" lon="6.29231">
        <ele>597.5966796875</ele>
        <time>2012-04-29T10:14:27Z</time>
      </trkpt>
      <trkpt lat="47.21606" lon="6.29226">
        <ele>597.11596679688</ele>
        <time>2012-04-29T10:14:28Z</time>
      </trkpt>
      <trkpt lat="47.21609" lon="6.292">
        <ele>595.193359375</ele>
        <time>2012-04-29T10:14:32Z</time>
      </trkpt>
      <trkpt lat="47.21612" lon="6.29176">
        <ele>593.75146484375</ele>
        <time>2012-04-29T10:14:36Z</time>
      </trkpt>
      <trkpt lat="47.21609" lon="6.29166">
        <ele>592.3095703125</ele>
        <time>2012-04-29T10:14:39Z</time>
      </trkpt>
      <trkpt lat="47.21613" lon="6.2916">
        <ele>592.3095703125</ele>
        <time>2012-04-29T10:14:43Z</time>
      </trkpt>
      <trkpt lat="47.21617" lon="6.29154">
        <ele>592.79028320312</ele>
        <time>2012-04-29T10:14:46Z</time>
      </trkpt>
      <trkpt lat="47.21624" lon="6.29139">
        <ele>593.75146484375</ele>
        <time>2012-04-29T10:14:52Z</time>
      </trkpt>
      <trkpt lat="47.21648" lon="6.29116">
        <ele>591.82885742188</ele>
        <time>2012-04-29T10:14:59Z</time>
      </trkpt>
      <trkpt lat="47.21656" lon="6.29109">
        <ele>590.86743164062</ele>
        <time>2012-04-29T10:15:01Z</time>
      </trkpt>
      <trkpt lat="47.21667" lon="6.29099">
        <ele>589.90625</ele>
        <time>2012-04-29T10:15:05Z</time>
      </trkpt>
      <trkpt lat="47.21667" lon="6.29099">
        <ele>590.38696289062</ele>
        <time>2012-04-29T10:15:15Z</time>
      </trkpt>
      <trkpt lat="47.21732" lon="6.29055">
        <ele>590.38696289062</ele>
        <time>2012-04-29T10:15:20Z</time>
      </trkpt>
      <trkpt lat="47.21748" lon="6.29049">
        <ele>592.3095703125</ele>
        <time>2012-04-29T10:15:25Z</time>
      </trkpt>
      <trkpt lat="47.21767" lon="6.29048">
        <ele>594.23217773438</ele>
        <time>2012-04-29T10:15:30Z</time>
      </trkpt>
      <trkpt lat="47.21789" lon="6.29047">
        <ele>595.67407226562</ele>
        <time>2012-04-29T10:15:36Z</time>
      </trkpt>
      <trkpt lat="47.218" lon="6.29047">
        <ele>596.63549804688</ele>
        <time>2012-04-29T10:15:39Z</time>
      </trkpt>
      <trkpt lat="47.21808" lon="6.29048">
        <ele>597.5966796875</ele>
        <time>2012-04-29T10:15:41Z</time>
      </trkpt>
      <trkpt lat="47.21824" lon="6.29053">
        <ele>600.96118164062</ele>
        <time>2012-04-29T10:15:53Z</time>
      </trkpt>
      <trkpt lat="47.21549" lon="6.28684">
        <ele>598.07739257812</ele>
        <time>2012-04-29T10:17:52Z</time>
      </trkpt>
      <trkpt lat="47.21189" lon="6.2837">
        <ele>602.40307617188</ele>
        <time>2012-04-29T10:20:08Z</time>
      </trkpt>
      <trkpt lat="47.21135" lon="6.28369">
        <ele>602.40307617188</ele>
        <time>2012-04-29T10:20:34Z</time>
      </trkpt>
      <trkpt lat="47.21062" lon="6.28282">
        <ele>602.40307617188</ele>
        <time>2012-04-29T10:20:47Z</time>
      </trkpt>
      <trkpt lat="47.21058" lon="6.28241">
        <ele>605.28735351562</ele>
        <time>2012-04-29T10:20:52Z</time>
      </trkpt>
      <trkpt lat="47.21057" lon="6.28242">
        <ele>605.28735351562</ele>
        <time>2012-04-29T10:20:53Z</time>
      </trkpt>
      <trkpt lat="47.21056" lon="6.2823">
        <ele>604.806640625</ele>
        <time>2012-04-29T10:20:55Z</time>
      </trkpt>
      <trkpt lat="47.21055" lon="6.28206">
        <ele>607.2099609375</ele>
        <time>2012-04-29T10:20:59Z</time>
      </trkpt>
      <trkpt lat="47.21051" lon="6.28186">
        <ele>607.2099609375</ele>
        <time>2012-04-29T10:21:03Z</time>
      </trkpt>
      <trkpt lat="47.21042" lon="6.28169">
        <ele>607.69067382812</ele>
        <time>2012-04-29T10:21:08Z</time>
      </trkpt>
      <trkpt lat="47.21037" lon="6.28151">
        <ele>608.17138671875</ele>
        <time>2012-04-29T10:21:13Z</time>
      </trkpt>
      <trkpt lat="47.21034" lon="6.28127">
        <ele>608.65185546875</ele>
        <time>2012-04-29T10:21:18Z</time>
      </trkpt>
      <trkpt lat="47.21033" lon="6.28109">
        <ele>609.61328125</ele>
        <time>2012-04-29T10:21:22Z</time>
      </trkpt>
      <trkpt lat="47.21031" lon="6.28084">
        <ele>609.61328125</ele>
        <time>2012-04-29T10:21:27Z</time>
      </trkpt>
      <trkpt lat="47.21032" lon="6.28071">
        <ele>610.09375</ele>
        <time>2012-04-29T10:21:32Z</time>
      </trkpt>
      <trkpt lat="47.21033" lon="6.28059">
        <ele>610.57446289062</ele>
        <time>2012-04-29T10:21:36Z</time>
      </trkpt>
      <trkpt lat="47.21032" lon="6.28041">
        <ele>611.53588867188</ele>
        <time>2012-04-29T10:21:42Z</time>
      </trkpt>
      <trkpt lat="47.21027" lon="6.28034">
        <ele>612.97778320312</ele>
        <time>2012-04-29T10:21:46Z</time>
      </trkpt>
      <trkpt lat="47.21017" lon="6.28029">
        <ele>614.41967773438</ele>
        <time>2012-04-29T10:21:53Z</time>
      </trkpt>
      <trkpt lat="47.21008" lon="6.28031">
        <ele>614.900390625</ele>
        <time>2012-04-29T10:21:59Z</time>
      </trkpt>
      <trkpt lat="47.21006" lon="6.2803">
        <ele>615.38110351562</ele>
        <time>2012-04-29T10:22:00Z</time>
      </trkpt>
      <trkpt lat="47.20996" lon="6.2802">
        <ele>616.34228515625</ele>
        <time>2012-04-29T10:22:07Z</time>
      </trkpt>
      <trkpt lat="47.20993" lon="6.28018">
        <ele>617.3037109375</ele>
        <time>2012-04-29T10:22:09Z</time>
      </trkpt>
      <trkpt lat="47.20988" lon="6.28015">
        <ele>618.26489257812</ele>
        <time>2012-04-29T10:22:12Z</time>
      </trkpt>
      <trkpt lat="47.2098" lon="6.2801">
        <ele>619.70703125</ele>
        <time>2012-04-29T10:22:18Z</time>
      </trkpt>
      <trkpt lat="47.20979" lon="6.28009">
        <ele>619.70703125</ele>
        <time>2012-04-29T10:22:19Z</time>
      </trkpt>
      <trkpt lat="47.20971" lon="6.28003">
        <ele>621.14916992188</ele>
        <time>2012-04-29T10:22:25Z</time>
      </trkpt>
      <trkpt lat="47.20969" lon="6.28001">
        <ele>620.66845703125</ele>
        <time>2012-04-29T10:22:26Z</time>
      </trkpt>
      <trkpt lat="47.20966" lon="6.27996">
        <ele>621.14916992188</ele>
        <time>2012-04-29T10:22:28Z</time>
      </trkpt>
      <trkpt lat="47.20959" lon="6.2798">
        <ele>622.1103515625</ele>
        <time>2012-04-29T10:22:35Z</time>
      </trkpt>
      <trkpt lat="47.20955" lon="6.27969">
        <ele>623.07177734375</ele>
        <time>2012-04-29T10:22:39Z</time>
      </trkpt>
      <trkpt lat="47.20953" lon="6.27954">
        <ele>624.03295898438</ele>
        <time>2012-04-29T10:22:46Z</time>
      </trkpt>
      <trkpt lat="47.20954" lon="6.27951">
        <ele>624.03295898438</ele>
        <time>2012-04-29T10:22:48Z</time>
      </trkpt>
      <trkpt lat="47.20956" lon="6.27935">
        <ele>624.03295898438</ele>
        <time>2012-04-29T10:22:54Z</time>
      </trkpt>
      <trkpt lat="47.20965" lon="6.27917">
        <ele>624.99438476562</ele>
        <time>2012-04-29T10:23:01Z</time>
      </trkpt>
      <trkpt lat="47.20972" lon="6.27896">
        <ele>624.99438476562</ele>
        <time>2012-04-29T10:23:07Z</time>
      </trkpt>
      <trkpt lat="47.20972" lon="6.27883">
        <ele>625.95556640625</ele>
        <time>2012-04-29T10:23:12Z</time>
      </trkpt>
      <trkpt lat="47.20975" lon="6.2787">
        <ele>628.35888671875</ele>
        <time>2012-04-29T10:23:24Z</time>
      </trkpt>
      <trkpt lat="47.2097" lon="6.27866">
        <ele>629.32006835938</ele>
        <time>2012-04-29T10:23:30Z</time>
      </trkpt>
      <trkpt lat="47.20964" lon="6.27865">
        <ele>629.32006835938</ele>
        <time>2012-04-29T10:23:32Z</time>
      </trkpt>
      <trkpt lat="47.20958" lon="6.27866">
        <ele>629.32006835938</ele>
        <time>2012-04-29T10:23:34Z</time>
      </trkpt>
      <trkpt lat="47.20946" lon="6.27867">
        <ele>630.76220703125</ele>
        <time>2012-04-29T10:23:40Z</time>
      </trkpt>
      <trkpt lat="47.20933" lon="6.27858">
        <ele>633.16528320312</ele>
        <time>2012-04-29T10:23:48Z</time>
      </trkpt>
      <trkpt lat="47.2093" lon="6.27851">
        <ele>634.12670898438</ele>
        <time>2012-04-29T10:23:54Z</time>
      </trkpt>
      <trkpt lat="47.20922" lon="6.27851">
        <ele>633.64599609375</ele>
        <time>2012-04-29T10:23:58Z</time>
      </trkpt>
      <trkpt lat="47.20911" lon="6.27859">
        <ele>634.12670898438</ele>
        <time>2012-04-29T10:24:03Z</time>
      </trkpt>
      <trkpt lat="47.20907" lon="6.27847">
        <ele>635.08813476562</ele>
        <time>2012-04-29T10:24:07Z</time>
      </trkpt>
      <trkpt lat="47.20899" lon="6.27837">
        <ele>636.04956054688</ele>
        <time>2012-04-29T10:24:14Z</time>
      </trkpt>
      <trkpt lat="47.20886" lon="6.27839">
        <ele>638.45288085938</ele>
        <time>2012-04-29T10:24:21Z</time>
      </trkpt>
      <trkpt lat="47.20879" lon="6.27841">
        <ele>638.45288085938</ele>
        <time>2012-04-29T10:24:25Z</time>
      </trkpt>
      <trkpt lat="47.20871" lon="6.27845">
        <ele>639.4140625</ele>
        <time>2012-04-29T10:24:30Z</time>
      </trkpt>
      <trkpt lat="47.20857" lon="6.27841">
        <ele>639.4140625</ele>
        <time>2012-04-29T10:24:37Z</time>
      </trkpt>
      <trkpt lat="47.20849" lon="6.27836">
        <ele>639.89477539062</ele>
        <time>2012-04-29T10:24:42Z</time>
      </trkpt>
      <trkpt lat="47.20844" lon="6.27831">
        <ele>640.37548828125</ele>
        <time>2012-04-29T10:24:47Z</time>
      </trkpt>
      <trkpt lat="47.20834" lon="6.27808">
        <ele>641.33666992188</ele>
        <time>2012-04-29T10:24:54Z</time>
      </trkpt>
      <trkpt lat="47.20826" lon="6.27787">
        <ele>642.77880859375</ele>
        <time>2012-04-29T10:25:00Z</time>
      </trkpt>
      <trkpt lat="47.20821" lon="6.2777">
        <ele>643.25927734375</ele>
        <time>2012-04-29T10:25:05Z</time>
      </trkpt>
      <trkpt lat="47.2082" lon="6.27756">
        <ele>644.701171875</ele>
        <time>2012-04-29T10:25:11Z</time>
      </trkpt>
      <trkpt lat="47.20827" lon="6.27735">
        <ele>647.1044921875</ele>
        <time>2012-04-29T10:25:20Z</time>
      </trkpt>
      <trkpt lat="47.20836" lon="6.27719">
        <ele>648.54638671875</ele>
        <time>2012-04-29T10:25:28Z</time>
      </trkpt>
      <trkpt lat="47.20845" lon="6.27702">
        <ele>648.54638671875</ele>
        <time>2012-04-29T10:25:35Z</time>
      </trkpt>
      <trkpt lat="47.20918" lon="6.27504">
        <ele>650.94970703125</ele>
        <time>2012-04-29T10:26:24Z</time>
      </trkpt>
      <trkpt lat="47.20922" lon="6.27474">
        <ele>650.94970703125</ele>
        <time>2012-04-29T10:26:34Z</time>
      </trkpt>
      <trkpt lat="47.20924" lon="6.27454">
        <ele>651.9111328125</ele>
        <time>2012-04-29T10:26:38Z</time>
      </trkpt>
      <trkpt lat="47.20917" lon="6.27438">
        <ele>651.9111328125</ele>
        <time>2012-04-29T10:26:44Z</time>
      </trkpt>
      <trkpt lat="47.20914" lon="6.27418">
        <ele>653.35327148438</ele>
        <time>2012-04-29T10:26:50Z</time>
      </trkpt>
      <trkpt lat="47.2091" lon="6.27405">
        <ele>654.31469726562</ele>
        <time>2012-04-29T10:26:55Z</time>
      </trkpt>
      <trkpt lat="47.20908" lon="6.27388">
        <ele>655.75659179688</ele>
        <time>2012-04-29T10:27:01Z</time>
      </trkpt>
      <trkpt lat="47.20908" lon="6.27377">
        <ele>656.23706054688</ele>
        <time>2012-04-29T10:27:05Z</time>
      </trkpt>
      <trkpt lat="47.20909" lon="6.27362">
        <ele>656.7177734375</ele>
        <time>2012-04-29T10:27:09Z</time>
      </trkpt>
      <trkpt lat="47.20907" lon="6.27357">
        <ele>657.19848632812</ele>
        <time>2012-04-29T10:27:11Z</time>
      </trkpt>
      <trkpt lat="47.20905" lon="6.27348">
        <ele>658.15991210938</ele>
        <time>2012-04-29T10:27:15Z</time>
      </trkpt>
      <trkpt lat="47.20901" lon="6.27341">
        <ele>658.64038085938</ele>
        <time>2012-04-29T10:27:21Z</time>
      </trkpt>
      <trkpt lat="47.20898" lon="6.27327">
        <ele>660.08227539062</ele>
        <time>2012-04-29T10:27:28Z</time>
      </trkpt>
      <trkpt lat="47.20901" lon="6.27311">
        <ele>661.04370117188</ele>
        <time>2012-04-29T10:27:33Z</time>
      </trkpt>
      <trkpt lat="47.20906" lon="6.27292">
        <ele>661.04370117188</ele>
        <time>2012-04-29T10:27:39Z</time>
      </trkpt>
      <trkpt lat="47.2091" lon="6.27269">
        <ele>661.04370117188</ele>
        <time>2012-04-29T10:27:45Z</time>
      </trkpt>
      <trkpt lat="47.20916" lon="6.27231">
        <ele>660.56298828125</ele>
        <time>2012-04-29T10:27:54Z</time>
      </trkpt>
      <trkpt lat="47.20919" lon="6.27205">
        <ele>661.04370117188</ele>
        <time>2012-04-29T10:28:00Z</time>
      </trkpt>
      <trkpt lat="47.20923" lon="6.27111">
        <ele>663.92749023438</ele>
        <time>2012-04-29T10:28:40Z</time>
      </trkpt>
      <trkpt lat="47.20923" lon="6.27111">
        <ele>667.29223632812</ele>
        <time>2012-04-29T10:28:47Z</time>
      </trkpt>
      <trkpt lat="47.20912" lon="6.27012">
        <ele>667.77270507812</ele>
        <time>2012-04-29T10:28:56Z</time>
      </trkpt>
      <trkpt lat="47.20864" lon="6.26837">
        <ele>671.6181640625</ele>
        <time>2012-04-29T10:29:47Z</time>
      </trkpt>
      <trkpt lat="47.20838" lon="6.26802">
        <ele>674.50219726562</ele>
        <time>2012-04-29T10:30:12Z</time>
      </trkpt>
      <trkpt lat="47.2083" lon="6.26795">
        <ele>674.98291015625</ele>
        <time>2012-04-29T10:30:18Z</time>
      </trkpt>
      <trkpt lat="47.20819" lon="6.26808">
        <ele>675.46337890625</ele>
        <time>2012-04-29T10:30:22Z</time>
      </trkpt>
      <trkpt lat="47.20808" lon="6.26805">
        <ele>676.4248046875</ele>
        <time>2012-04-29T10:30:29Z</time>
      </trkpt>
      <trkpt lat="47.20799" lon="6.2681">
        <ele>677.86669921875</ele>
        <time>2012-04-29T10:30:35Z</time>
      </trkpt>
      <trkpt lat="47.20792" lon="6.26811">
        <ele>678.34741210938</ele>
        <time>2012-04-29T10:30:40Z</time>
      </trkpt>
      <trkpt lat="47.20786" lon="6.26815">
        <ele>677.86669921875</ele>
        <time>2012-04-29T10:30:44Z</time>
      </trkpt>
      <trkpt lat="47.20778" lon="6.26819">
        <ele>679.30859375</ele>
        <time>2012-04-29T10:30:48Z</time>
      </trkpt>
      <trkpt lat="47.2077" lon="6.26824">
        <ele>679.30859375</ele>
        <time>2012-04-29T10:30:52Z</time>
      </trkpt>
      <trkpt lat="47.20761" lon="6.26825">
        <ele>679.78930664062</ele>
        <time>2012-04-29T10:30:56Z</time>
      </trkpt>
      <trkpt lat="47.20756" lon="6.2682">
        <ele>680.75073242188</ele>
        <time>2012-04-29T10:30:59Z</time>
      </trkpt>
      <trkpt lat="47.20753" lon="6.26801">
        <ele>680.27001953125</ele>
        <time>2012-04-29T10:31:04Z</time>
      </trkpt>
      <trkpt lat="47.2074" lon="6.26759">
        <ele>681.2314453125</ele>
        <time>2012-04-29T10:31:13Z</time>
      </trkpt>
      <trkpt lat="47.20733" lon="6.26729">
        <ele>681.7119140625</ele>
        <time>2012-04-29T10:31:18Z</time>
      </trkpt>
      <trkpt lat="47.20724" lon="6.26712">
        <ele>681.7119140625</ele>
        <time>2012-04-29T10:31:23Z</time>
      </trkpt>
      <trkpt lat="47.20722" lon="6.26708">
        <ele>681.2314453125</ele>
        <time>2012-04-29T10:31:25Z</time>
      </trkpt>
      <trkpt lat="47.2072" lon="6.26704">
        <ele>682.19262695312</ele>
        <time>2012-04-29T10:31:27Z</time>
      </trkpt>
      <trkpt lat="47.20708" lon="6.26688">
        <ele>682.67333984375</ele>
        <time>2012-04-29T10:31:32Z</time>
      </trkpt>
      <trkpt lat="47.20703" lon="6.26669">
        <ele>682.67333984375</ele>
        <time>2012-04-29T10:31:35Z</time>
      </trkpt>
      <trkpt lat="47.20704" lon="6.26646">
        <ele>683.63452148438</ele>
        <time>2012-04-29T10:31:40Z</time>
      </trkpt>
      <trkpt lat="47.20706" lon="6.26638">
        <ele>683.63452148438</ele>
        <time>2012-04-29T10:31:42Z</time>
      </trkpt>
      <trkpt lat="47.20706" lon="6.26598">
        <ele>686.51879882812</ele>
        <time>2012-04-29T10:31:55Z</time>
      </trkpt>
      <trkpt lat="47.207" lon="6.2657">
        <ele>687.47998046875</ele>
        <time>2012-04-29T10:32:06Z</time>
      </trkpt>
      <trkpt lat="47.20688" lon="6.26544">
        <ele>688.44140625</ele>
        <time>2012-04-29T10:32:14Z</time>
      </trkpt>
      <trkpt lat="47.2068" lon="6.26526">
        <ele>689.40258789062</ele>
        <time>2012-04-29T10:32:22Z</time>
      </trkpt>
      <trkpt lat="47.20672" lon="6.26509">
        <ele>688.92211914062</ele>
        <time>2012-04-29T10:32:28Z</time>
      </trkpt>
      <trkpt lat="47.20657" lon="6.2649">
        <ele>689.88330078125</ele>
        <time>2012-04-29T10:32:34Z</time>
      </trkpt>
      <trkpt lat="47.20648" lon="6.26481">
        <ele>689.88330078125</ele>
        <time>2012-04-29T10:32:38Z</time>
      </trkpt>
      <trkpt lat="47.20642" lon="6.26473">
        <ele>690.36401367188</ele>
        <time>2012-04-29T10:32:41Z</time>
      </trkpt>
      <trkpt lat="47.20615" lon="6.26459">
        <ele>691.3251953125</ele>
        <time>2012-04-29T10:32:53Z</time>
      </trkpt>
      <trkpt lat="47.20607" lon="6.26448">
        <ele>692.76733398438</ele>
        <time>2012-04-29T10:32:59Z</time>
      </trkpt>
      <trkpt lat="47.20621" lon="6.26401">
        <ele>693.728515625</ele>
        <time>2012-04-29T10:33:06Z</time>
      </trkpt>
      <trkpt lat="47.20628" lon="6.26385">
        <ele>693.728515625</ele>
        <time>2012-04-29T10:33:11Z</time>
      </trkpt>
      <trkpt lat="47.20631" lon="6.26369">
        <ele>694.20922851562</ele>
        <time>2012-04-29T10:33:16Z</time>
      </trkpt>
      <trkpt lat="47.20634" lon="6.26346">
        <ele>694.68969726562</ele>
        <time>2012-04-29T10:33:23Z</time>
      </trkpt>
      <trkpt lat="47.20636" lon="6.26336">
        <ele>695.17041015625</ele>
        <time>2012-04-29T10:33:26Z</time>
      </trkpt>
      <trkpt lat="47.20638" lon="6.26315">
        <ele>695.65112304688</ele>
        <time>2012-04-29T10:33:32Z</time>
      </trkpt>
      <trkpt lat="47.20643" lon="6.26292">
        <ele>695.65112304688</ele>
        <time>2012-04-29T10:33:38Z</time>
      </trkpt>
      <trkpt lat="47.2065" lon="6.26271">
        <ele>697.09301757812</ele>
        <time>2012-04-29T10:33:44Z</time>
      </trkpt>
      <trkpt lat="47.20655" lon="6.26252">
        <ele>697.57373046875</ele>
        <time>2012-04-29T10:33:49Z</time>
      </trkpt>
      <trkpt lat="47.2066" lon="6.26247">
        <ele>697.09301757812</ele>
        <time>2012-04-29T10:33:53Z</time>
      </trkpt>
      <trkpt lat="47.20662" lon="6.26247">
        <ele>696.61254882812</ele>
        <time>2012-04-29T10:33:59Z</time>
      </trkpt>
      <trkpt lat="47.20663" lon="6.26248">
        <ele>696.61254882812</ele>
        <time>2012-04-29T10:34:09Z</time>
      </trkpt>
      <trkpt lat="47.20665" lon="6.26249">
        <ele>696.61254882812</ele>
        <time>2012-04-29T10:34:13Z</time>
      </trkpt>
      <trkpt lat="47.20665" lon="6.26246">
        <ele>697.09301757812</ele>
        <time>2012-04-29T10:34:15Z</time>
      </trkpt>
      <trkpt lat="47.20675" lon="6.26225">
        <ele>697.57373046875</ele>
        <time>2012-04-29T10:34:21Z</time>
      </trkpt>
      <trkpt lat="47.20685" lon="6.26199">
        <ele>698.05444335938</ele>
        <time>2012-04-29T10:34:27Z</time>
      </trkpt>
      <trkpt lat="47.20689" lon="6.26168">
        <ele>698.05444335938</ele>
        <time>2012-04-29T10:34:33Z</time>
      </trkpt>
      <trkpt lat="47.20688" lon="6.26151">
        <ele>698.05444335938</ele>
        <time>2012-04-29T10:34:37Z</time>
      </trkpt>
      <trkpt lat="47.20688" lon="6.26142">
        <ele>697.09301757812</ele>
        <time>2012-04-29T10:34:41Z</time>
      </trkpt>
      <trkpt lat="47.20687" lon="6.26146">
        <ele>697.09301757812</ele>
        <time>2012-04-29T10:34:47Z</time>
      </trkpt>
      <trkpt lat="47.20689" lon="6.26147">
        <ele>697.57373046875</ele>
        <time>2012-04-29T10:34:53Z</time>
      </trkpt>
      <trkpt lat="47.20688" lon="6.26161">
        <ele>698.05444335938</ele>
        <time>2012-04-29T10:34:58Z</time>
      </trkpt>
      <trkpt lat="47.20689" lon="6.26169">
        <ele>698.05444335938</ele>
        <time>2012-04-29T10:35:01Z</time>
      </trkpt>
      <trkpt lat="47.20684" lon="6.26191">
        <ele>698.53491210938</ele>
        <time>2012-04-29T10:35:07Z</time>
      </trkpt>
      <trkpt lat="47.20676" lon="6.26211">
        <ele>698.53491210938</ele>
        <time>2012-04-29T10:35:10Z</time>
      </trkpt>
      <trkpt lat="47.20656" lon="6.26247">
        <ele>698.05444335938</ele>
        <time>2012-04-29T10:35:17Z</time>
      </trkpt>
      <trkpt lat="47.20655" lon="6.26252">
        <ele>698.05444335938</ele>
        <time>2012-04-29T10:35:19Z</time>
      </trkpt>
      <trkpt lat="47.20658" lon="6.26248">
        <ele>696.1318359375</ele>
        <time>2012-04-29T10:35:24Z</time>
      </trkpt>
      <trkpt lat="47.20659" lon="6.26247">
        <ele>696.1318359375</ele>
        <time>2012-04-29T10:35:25Z</time>
      </trkpt>
      <trkpt lat="47.2066" lon="6.26249">
        <ele>696.1318359375</ele>
        <time>2012-04-29T10:35:41Z</time>
      </trkpt>
      <trkpt lat="47.2066" lon="6.2625">
        <ele>696.1318359375</ele>
        <time>2012-04-29T10:35:50Z</time>
      </trkpt>
      <trkpt lat="47.20641" lon="6.26245">
        <ele>697.09301757812</ele>
        <time>2012-04-29T10:37:58Z</time>
      </trkpt>
      <trkpt lat="47.20638" lon="6.26247">
        <ele>696.61254882812</ele>
        <time>2012-04-29T10:38:06Z</time>
      </trkpt>
      <trkpt lat="47.20665" lon="6.26251">
        <ele>699.97705078125</ele>
        <time>2012-04-29T10:39:36Z</time>
      </trkpt>
      <trkpt lat="47.20659" lon="6.26239">
        <ele>699.97705078125</ele>
        <time>2012-04-29T10:39:47Z</time>
      </trkpt>
      <trkpt lat="47.20653" lon="6.2624">
        <ele>700.9384765625</ele>
        <time>2012-04-29T10:40:01Z</time>
      </trkpt>
      <trkpt lat="47.20651" lon="6.26235">
        <ele>699.49633789062</ele>
        <time>2012-04-29T10:40:08Z</time>
      </trkpt>
      <trkpt lat="47.20658" lon="6.26231">
        <ele>699.97705078125</ele>
        <time>2012-04-29T10:40:13Z</time>
      </trkpt>
      <trkpt lat="47.20631" lon="6.26241">
        <ele>699.015625</ele>
        <time>2012-04-29T10:40:41Z</time>
      </trkpt>
      <trkpt lat="47.20626" lon="6.26298">
        <ele>702.38037109375</ele>
        <time>2012-04-29T10:41:18Z</time>
      </trkpt>
      <trkpt lat="47.20653" lon="6.26259">
        <ele>704.30322265625</ele>
        <time>2012-04-29T10:41:21Z</time>
      </trkpt>
      <trkpt lat="47.20658" lon="6.26264">
        <ele>700.9384765625</ele>
        <time>2012-04-29T10:41:37Z</time>
      </trkpt>
      <trkpt lat="47.20659" lon="6.26252">
        <ele>702.38037109375</ele>
        <time>2012-04-29T10:42:53Z</time>
      </trkpt>
      <trkpt lat="47.20671" lon="6.26239">
        <ele>701.41918945312</ele>
        <time>2012-04-29T10:43:52Z</time>
      </trkpt>
      <trkpt lat="47.2067" lon="6.2624">
        <ele>701.89990234375</ele>
        <time>2012-04-29T10:44:11Z</time>
      </trkpt>
      <trkpt lat="47.20665" lon="6.26241">
        <ele>702.86108398438</ele>
        <time>2012-04-29T10:44:17Z</time>
      </trkpt>
      <trkpt lat="47.20665" lon="6.26233">
        <ele>699.97705078125</ele>
        <time>2012-04-29T10:44:40Z</time>
      </trkpt>
      <trkpt lat="47.20665" lon="6.26238">
        <ele>700.9384765625</ele>
        <time>2012-04-29T10:44:51Z</time>
      </trkpt>
      <trkpt lat="47.20659" lon="6.26256">
        <ele>701.41918945312</ele>
        <time>2012-04-29T10:48:56Z</time>
      </trkpt>
      <trkpt lat="47.20643" lon="6.26268">
        <ele>700.9384765625</ele>
        <time>2012-04-29T10:49:03Z</time>
      </trkpt>
      <trkpt lat="47.20641" lon="6.2627">
        <ele>700.4580078125</ele>
        <time>2012-04-29T10:49:07Z</time>
      </trkpt>
      <trkpt lat="47.2065" lon="6.26265">
        <ele>703.82250976562</ele>
        <time>2012-04-29T10:49:23Z</time>
      </trkpt>
      <trkpt lat="47.20652" lon="6.26256">
        <ele>702.86108398438</ele>
        <time>2012-04-29T10:49:34Z</time>
      </trkpt>
      <trkpt lat="47.20689" lon="6.26298">
        <ele>701.89990234375</ele>
        <time>2012-04-29T10:51:14Z</time>
      </trkpt>
      <trkpt lat="47.20684" lon="6.26291">
        <ele>702.86108398438</ele>
        <time>2012-04-29T10:51:16Z</time>
      </trkpt>
      <trkpt lat="47.20658" lon="6.2625">
        <ele>703.82250976562</ele>
        <time>2012-04-29T10:51:22Z</time>
      </trkpt>
      <trkpt lat="47.2066" lon="6.26245">
        <ele>703.341796875</ele>
        <time>2012-04-29T10:51:28Z</time>
      </trkpt>
      <trkpt lat="47.20669" lon="6.26235">
        <ele>702.86108398438</ele>
        <time>2012-04-29T10:51:33Z</time>
      </trkpt>
      <trkpt lat="47.20683" lon="6.2621">
        <ele>703.341796875</ele>
        <time>2012-04-29T10:51:40Z</time>
      </trkpt>
      <trkpt lat="47.20688" lon="6.26194">
        <ele>703.341796875</ele>
        <time>2012-04-29T10:51:43Z</time>
      </trkpt>
      <trkpt lat="47.20691" lon="6.26157">
        <ele>702.86108398438</ele>
        <time>2012-04-29T10:51:49Z</time>
      </trkpt>
      <trkpt lat="47.20691" lon="6.26137">
        <ele>702.38037109375</ele>
        <time>2012-04-29T10:51:52Z</time>
      </trkpt>
      <trkpt lat="47.20691" lon="6.26101">
        <ele>699.49633789062</ele>
        <time>2012-04-29T10:51:56Z</time>
      </trkpt>
      <trkpt lat="47.20694" lon="6.26073">
        <ele>697.09301757812</ele>
        <time>2012-04-29T10:51:59Z</time>
      </trkpt>
      <trkpt lat="47.20684" lon="6.26014">
        <ele>693.728515625</ele>
        <time>2012-04-29T10:52:04Z</time>
      </trkpt>
      <trkpt lat="47.20678" lon="6.25969">
        <ele>689.88330078125</ele>
        <time>2012-04-29T10:52:07Z</time>
      </trkpt>
      <trkpt lat="47.20675" lon="6.25932">
        <ele>687.96069335938</ele>
        <time>2012-04-29T10:52:09Z</time>
      </trkpt>
      <trkpt lat="47.20672" lon="6.2588">
        <ele>684.11547851562</ele>
        <time>2012-04-29T10:52:12Z</time>
      </trkpt>
      <trkpt lat="47.2067" lon="6.25846">
        <ele>680.75073242188</ele>
        <time>2012-04-29T10:52:14Z</time>
      </trkpt>
      <trkpt lat="47.20669" lon="6.2583">
        <ele>681.7119140625</ele>
        <time>2012-04-29T10:52:15Z</time>
      </trkpt>
      <trkpt lat="47.20665" lon="6.25795">
        <ele>678.34741210938</ele>
        <time>2012-04-29T10:52:17Z</time>
      </trkpt>
      <trkpt lat="47.20663" lon="6.2575">
        <ele>675.46337890625</ele>
        <time>2012-04-29T10:52:20Z</time>
      </trkpt>
      <trkpt lat="47.20662" lon="6.2572">
        <ele>672.09887695312</ele>
        <time>2012-04-29T10:52:22Z</time>
      </trkpt>
      <trkpt lat="47.20662" lon="6.25704">
        <ele>670.65698242188</ele>
        <time>2012-04-29T10:52:23Z</time>
      </trkpt>
      <trkpt lat="47.20665" lon="6.2564">
        <ele>667.77270507812</ele>
        <time>2012-04-29T10:52:27Z</time>
      </trkpt>
      <trkpt lat="47.20668" lon="6.25571">
        <ele>662.96630859375</ele>
        <time>2012-04-29T10:52:31Z</time>
      </trkpt>
      <trkpt lat="47.20667" lon="6.25539">
        <ele>661.5244140625</ele>
        <time>2012-04-29T10:52:33Z</time>
      </trkpt>
      <trkpt lat="47.20667" lon="6.2552">
        <ele>660.08227539062</ele>
        <time>2012-04-29T10:52:34Z</time>
      </trkpt>
      <trkpt lat="47.20671" lon="6.25466">
        <ele>654.79516601562</ele>
        <time>2012-04-29T10:52:37Z</time>
      </trkpt>
      <trkpt lat="47.20673" lon="6.25439">
        <ele>651.9111328125</ele>
        <time>2012-04-29T10:52:39Z</time>
      </trkpt>
      <trkpt lat="47.2068" lon="6.25417">
        <ele>649.98852539062</ele>
        <time>2012-04-29T10:52:41Z</time>
      </trkpt>
      <trkpt lat="47.20683" lon="6.25407">
        <ele>648.54638671875</ele>
        <time>2012-04-29T10:52:42Z</time>
      </trkpt>
      <trkpt lat="47.2069" lon="6.25377">
        <ele>644.220703125</ele>
        <time>2012-04-29T10:52:46Z</time>
      </trkpt>
      <trkpt lat="47.20692" lon="6.25376">
        <ele>644.701171875</ele>
        <time>2012-04-29T10:52:47Z</time>
      </trkpt>
      <trkpt lat="47.20693" lon="6.2538">
        <ele>644.220703125</ele>
        <time>2012-04-29T10:52:51Z</time>
      </trkpt>
      <trkpt lat="47.20694" lon="6.25383">
        <ele>644.220703125</ele>
        <time>2012-04-29T10:52:52Z</time>
      </trkpt>
      <trkpt lat="47.20694" lon="6.2539">
        <ele>645.66259765625</ele>
        <time>2012-04-29T10:52:57Z</time>
      </trkpt>
      <trkpt lat="47.20694" lon="6.25391">
        <ele>646.14331054688</ele>
        <time>2012-04-29T10:52:59Z</time>
      </trkpt>
      <trkpt lat="47.20694" lon="6.25398">
        <ele>646.6240234375</ele>
        <time>2012-04-29T10:53:05Z</time>
      </trkpt>
      <trkpt lat="47.20691" lon="6.25401">
        <ele>645.66259765625</ele>
        <time>2012-04-29T10:53:16Z</time>
      </trkpt>
      <trkpt lat="47.20695" lon="6.2539">
        <ele>645.18188476562</ele>
        <time>2012-04-29T11:02:57Z</time>
      </trkpt>
      <trkpt lat="47.20699" lon="6.25391">
        <ele>644.701171875</ele>
        <time>2012-04-29T11:02:58Z</time>
      </trkpt>
      <trkpt lat="47.20718" lon="6.25387">
        <ele>641.33666992188</ele>
        <time>2012-04-29T11:03:03Z</time>
      </trkpt>
      <trkpt lat="47.20724" lon="6.25364">
        <ele>639.4140625</ele>
        <time>2012-04-29T11:03:06Z</time>
      </trkpt>
      <trkpt lat="47.20728" lon="6.25345">
        <ele>637.97216796875</ele>
        <time>2012-04-29T11:03:08Z</time>
      </trkpt>
      <trkpt lat="47.20731" lon="6.2529">
        <ele>633.16528320312</ele>
        <time>2012-04-29T11:03:12Z</time>
      </trkpt>
      <trkpt lat="47.20736" lon="6.25234">
        <ele>628.35888671875</ele>
        <time>2012-04-29T11:03:15Z</time>
      </trkpt>
      <trkpt lat="47.20746" lon="6.25171">
        <ele>623.55249023438</ele>
        <time>2012-04-29T11:03:18Z</time>
      </trkpt>
      <trkpt lat="47.20749" lon="6.25152">
        <ele>620.18774414062</ele>
        <time>2012-04-29T11:03:19Z</time>
      </trkpt>
      <trkpt lat="47.2075" lon="6.25119">
        <ele>616.82299804688</ele>
        <time>2012-04-29T11:03:21Z</time>
      </trkpt>
      <trkpt lat="47.2077" lon="6.25106">
        <ele>614.41967773438</ele>
        <time>2012-04-29T11:03:24Z</time>
      </trkpt>
      <trkpt lat="47.2079" lon="6.25122">
        <ele>612.97778320312</ele>
        <time>2012-04-29T11:03:26Z</time>
      </trkpt>
      <trkpt lat="47.20798" lon="6.25132">
        <ele>612.0166015625</ele>
        <time>2012-04-29T11:03:27Z</time>
      </trkpt>
      <trkpt lat="47.20819" lon="6.25172">
        <ele>609.13256835938</ele>
        <time>2012-04-29T11:03:30Z</time>
      </trkpt>
      <trkpt lat="47.20857" lon="6.25213">
        <ele>602.40307617188</ele>
        <time>2012-04-29T11:03:34Z</time>
      </trkpt>
      <trkpt lat="47.20882" lon="6.25213">
        <ele>600.48071289062</ele>
        <time>2012-04-29T11:03:36Z</time>
      </trkpt>
      <trkpt lat="47.20905" lon="6.25199">
        <ele>598.55786132812</ele>
        <time>2012-04-29T11:03:38Z</time>
      </trkpt>
      <trkpt lat="47.20928" lon="6.25171">
        <ele>596.15478515625</ele>
        <time>2012-04-29T11:03:40Z</time>
      </trkpt>
      <trkpt lat="47.20928" lon="6.25171">
        <ele>591.82885742188</ele>
        <time>2012-04-29T11:03:42Z</time>
      </trkpt>
      <trkpt lat="47.20928" lon="6.25171">
        <ele>588.94506835938</ele>
        <time>2012-04-29T11:03:46Z</time>
      </trkpt>
      <trkpt lat="47.20953" lon="6.25018">
        <ele>587.9833984375</ele>
        <time>2012-04-29T11:03:49Z</time>
      </trkpt>
      <trkpt lat="47.20932" lon="6.24952">
        <ele>584.13818359375</ele>
        <time>2012-04-29T11:03:52Z</time>
      </trkpt>
      <trkpt lat="47.20924" lon="6.24916">
        <ele>582.6962890625</ele>
        <time>2012-04-29T11:03:54Z</time>
      </trkpt>
      <trkpt lat="47.20911" lon="6.2488">
        <ele>579.81225585938</ele>
        <time>2012-04-29T11:03:56Z</time>
      </trkpt>
      <trkpt lat="47.20905" lon="6.24863">
        <ele>576.44775390625</ele>
        <time>2012-04-29T11:03:58Z</time>
      </trkpt>
      <trkpt lat="47.20898" lon="6.24825">
        <ele>574.52514648438</ele>
        <time>2012-04-29T11:04:00Z</time>
      </trkpt>
      <trkpt lat="47.209" lon="6.2481">
        <ele>572.6025390625</ele>
        <time>2012-04-29T11:04:02Z</time>
      </trkpt>
      <trkpt lat="47.20898" lon="6.24774">
        <ele>570.6796875</ele>
        <time>2012-04-29T11:04:05Z</time>
      </trkpt>
      <trkpt lat="47.20894" lon="6.24716">
        <ele>566.83447265625</ele>
        <time>2012-04-29T11:04:09Z</time>
      </trkpt>
      <trkpt lat="47.20893" lon="6.24703">
        <ele>565.392578125</ele>
        <time>2012-04-29T11:04:10Z</time>
      </trkpt>
      <trkpt lat="47.20891" lon="6.24644">
        <ele>562.02807617188</ele>
        <time>2012-04-29T11:04:14Z</time>
      </trkpt>
      <trkpt lat="47.20889" lon="6.24596">
        <ele>557.7021484375</ele>
        <time>2012-04-29T11:04:17Z</time>
      </trkpt>
      <trkpt lat="47.20885" lon="6.24566">
        <ele>554.33740234375</ele>
        <time>2012-04-29T11:04:19Z</time>
      </trkpt>
      <trkpt lat="47.20885" lon="6.24514">
        <ele>550.4921875</ele>
        <time>2012-04-29T11:04:22Z</time>
      </trkpt>
      <trkpt lat="47.20887" lon="6.24497">
        <ele>550.01147460938</ele>
        <time>2012-04-29T11:04:23Z</time>
      </trkpt>
      <trkpt lat="47.20893" lon="6.24438">
        <ele>545.685546875</ele>
        <time>2012-04-29T11:04:26Z</time>
      </trkpt>
      <trkpt lat="47.20898" lon="6.24401">
        <ele>541.84020996094</ele>
        <time>2012-04-29T11:04:28Z</time>
      </trkpt>
      <trkpt lat="47.20901" lon="6.24367">
        <ele>537.51428222656</ele>
        <time>2012-04-29T11:04:30Z</time>
      </trkpt>
      <trkpt lat="47.20902" lon="6.2435">
        <ele>537.51428222656</ele>
        <time>2012-04-29T11:04:31Z</time>
      </trkpt>
      <trkpt lat="47.20903" lon="6.24333">
        <ele>534.14965820312</ele>
        <time>2012-04-29T11:04:32Z</time>
      </trkpt>
      <trkpt lat="47.20901" lon="6.24298">
        <ele>530.30444335938</ele>
        <time>2012-04-29T11:04:34Z</time>
      </trkpt>
      <trkpt lat="47.20903" lon="6.24241">
        <ele>528.3818359375</ele>
        <time>2012-04-29T11:04:37Z</time>
      </trkpt>
      <trkpt lat="47.20906" lon="6.24204">
        <ele>525.01721191406</ele>
        <time>2012-04-29T11:04:39Z</time>
      </trkpt>
      <trkpt lat="47.20908" lon="6.24183">
        <ele>521.65258789062</ele>
        <time>2012-04-29T11:04:40Z</time>
      </trkpt>
      <trkpt lat="47.20909" lon="6.24167">
        <ele>519.24926757812</ele>
        <time>2012-04-29T11:04:41Z</time>
      </trkpt>
      <trkpt lat="47.20918" lon="6.24125">
        <ele>514.92333984375</ele>
        <time>2012-04-29T11:04:44Z</time>
      </trkpt>
      <trkpt lat="47.2094" lon="6.24093">
        <ele>509.63610839844</ele>
        <time>2012-04-29T11:04:47Z</time>
      </trkpt>
      <trkpt lat="47.20972" lon="6.2407">
        <ele>505.79089355469</ele>
        <time>2012-04-29T11:04:50Z</time>
      </trkpt>
      <trkpt lat="47.2098" lon="6.24061">
        <ele>502.42614746094</ele>
        <time>2012-04-29T11:04:53Z</time>
      </trkpt>
      <trkpt lat="47.21027" lon="6.24001">
        <ele>500.02294921875</ele>
        <time>2012-04-29T11:04:56Z</time>
      </trkpt>
      <trkpt lat="47.21048" lon="6.23978">
        <ele>498.58093261719</ele>
        <time>2012-04-29T11:04:58Z</time>
      </trkpt>
      <trkpt lat="47.21071" lon="6.23967">
        <ele>497.61962890625</ele>
        <time>2012-04-29T11:05:00Z</time>
      </trkpt>
      <trkpt lat="47.21111" lon="6.23949">
        <ele>495.21618652344</ele>
        <time>2012-04-29T11:05:04Z</time>
      </trkpt>
      <trkpt lat="47.21122" lon="6.23942">
        <ele>493.77429199219</ele>
        <time>2012-04-29T11:05:06Z</time>
      </trkpt>
      <trkpt lat="47.21128" lon="6.23929">
        <ele>492.33239746094</ele>
        <time>2012-04-29T11:05:09Z</time>
      </trkpt>
      <trkpt lat="47.21127" lon="6.23924">
        <ele>492.81298828125</ele>
        <time>2012-04-29T11:05:12Z</time>
      </trkpt>
      <trkpt lat="47.21127" lon="6.23923">
        <ele>494.25500488281</ele>
        <time>2012-04-29T11:05:25Z</time>
      </trkpt>
      <trkpt lat="47.21118" lon="6.23911">
        <ele>492.81298828125</ele>
        <time>2012-04-29T11:05:30Z</time>
      </trkpt>
      <trkpt lat="47.21108" lon="6.23894">
        <ele>492.81298828125</ele>
        <time>2012-04-29T11:05:34Z</time>
      </trkpt>
      <trkpt lat="47.21103" lon="6.23883">
        <ele>491.85168457031</ele>
        <time>2012-04-29T11:05:36Z</time>
      </trkpt>
      <trkpt lat="47.2109" lon="6.23852">
        <ele>490.89038085938</ele>
        <time>2012-04-29T11:05:41Z</time>
      </trkpt>
      <trkpt lat="47.21086" lon="6.23833">
        <ele>491.85168457031</ele>
        <time>2012-04-29T11:05:44Z</time>
      </trkpt>
      <trkpt lat="47.21096" lon="6.23815">
        <ele>491.37097167969</ele>
        <time>2012-04-29T11:05:48Z</time>
      </trkpt>
      <trkpt lat="47.21125" lon="6.23797">
        <ele>490.89038085938</ele>
        <time>2012-04-29T11:05:54Z</time>
      </trkpt>
      <trkpt lat="47.21154" lon="6.23782">
        <ele>491.85168457031</ele>
        <time>2012-04-29T11:06:00Z</time>
      </trkpt>
      <trkpt lat="47.21175" lon="6.23771">
        <ele>490.40979003906</ele>
        <time>2012-04-29T11:06:04Z</time>
      </trkpt>
      <trkpt lat="47.21215" lon="6.23671">
        <ele>492.33239746094</ele>
        <time>2012-04-29T11:06:25Z</time>
      </trkpt>
      <trkpt lat="47.21227" lon="6.23649">
        <ele>492.33239746094</ele>
        <time>2012-04-29T11:06:29Z</time>
      </trkpt>
      <trkpt lat="47.2123" lon="6.2363">
        <ele>493.29357910156</ele>
        <time>2012-04-29T11:06:32Z</time>
      </trkpt>
      <trkpt lat="47.21232" lon="6.23626">
        <ele>493.29357910156</ele>
        <time>2012-04-29T11:06:33Z</time>
      </trkpt>
      <trkpt lat="47.21242" lon="6.23615">
        <ele>493.29357910156</ele>
        <time>2012-04-29T11:06:35Z</time>
      </trkpt>
      <trkpt lat="47.2125" lon="6.23577">
        <ele>493.77429199219</ele>
        <time>2012-04-29T11:06:41Z</time>
      </trkpt>
      <trkpt lat="47.21253" lon="6.23569">
        <ele>493.77429199219</ele>
        <time>2012-04-29T11:06:42Z</time>
      </trkpt>
      <trkpt lat="47.21267" lon="6.23515">
        <ele>491.85168457031</ele>
        <time>2012-04-29T11:06:49Z</time>
      </trkpt>
      <trkpt lat="47.21282" lon="6.23489">
        <ele>490.89038085938</ele>
        <time>2012-04-29T11:06:53Z</time>
      </trkpt>
      <trkpt lat="47.21306" lon="6.23455">
        <ele>494.25500488281</ele>
        <time>2012-04-29T11:06:59Z</time>
      </trkpt>
      <trkpt lat="47.21315" lon="6.23433">
        <ele>494.73559570312</ele>
        <time>2012-04-29T11:07:05Z</time>
      </trkpt>
      <trkpt lat="47.21325" lon="6.23393">
        <ele>494.73559570312</ele>
        <time>2012-04-29T11:07:11Z</time>
      </trkpt>
      <trkpt lat="47.21329" lon="6.23371">
        <ele>496.177734375</ele>
        <time>2012-04-29T11:07:15Z</time>
      </trkpt>
      <trkpt lat="47.21336" lon="6.23337">
        <ele>495.69689941406</ele>
        <time>2012-04-29T11:07:20Z</time>
      </trkpt>
      <trkpt lat="47.2134" lon="6.23315">
        <ele>495.21618652344</ele>
        <time>2012-04-29T11:07:23Z</time>
      </trkpt>
      <trkpt lat="47.21348" lon="6.23253">
        <ele>493.77429199219</ele>
        <time>2012-04-29T11:07:31Z</time>
      </trkpt>
      <trkpt lat="47.21343" lon="6.23225">
        <ele>494.25500488281</ele>
        <time>2012-04-29T11:07:35Z</time>
      </trkpt>
      <trkpt lat="47.21338" lon="6.23158">
        <ele>491.85168457031</ele>
        <time>2012-04-29T11:07:44Z</time>
      </trkpt>
      <trkpt lat="47.21341" lon="6.23139">
        <ele>492.33239746094</ele>
        <time>2012-04-29T11:07:47Z</time>
      </trkpt>
      <trkpt lat="47.21349" lon="6.23127">
        <ele>491.37097167969</ele>
        <time>2012-04-29T11:07:49Z</time>
      </trkpt>
      <trkpt lat="47.21366" lon="6.23105">
        <ele>490.40979003906</ele>
        <time>2012-04-29T11:07:53Z</time>
      </trkpt>
      <trkpt lat="47.21407" lon="6.2308">
        <ele>488.48718261719</ele>
        <time>2012-04-29T11:07:59Z</time>
      </trkpt>
      <trkpt lat="47.21529" lon="6.22939">
        <ele>484.64184570312</ele>
        <time>2012-04-29T11:08:22Z</time>
      </trkpt>
      <trkpt lat="47.21529" lon="6.22939">
        <ele>481.7578125</ele>
        <time>2012-04-29T11:08:28Z</time>
      </trkpt>
      <trkpt lat="47.21529" lon="6.22939">
        <ele>480.31591796875</ele>
        <time>2012-04-29T11:08:31Z</time>
      </trkpt>
      <trkpt lat="47.21529" lon="6.22939">
        <ele>475.02868652344</ele>
        <time>2012-04-29T11:08:41Z</time>
      </trkpt>
      <trkpt lat="47.21529" lon="6.22939">
        <ele>475.02868652344</ele>
        <time>2012-04-29T11:08:42Z</time>
      </trkpt>
      <trkpt lat="47.21529" lon="6.22939">
        <ele>476.95129394531</ele>
        <time>2012-04-29T11:08:45Z</time>
      </trkpt>
      <trkpt lat="47.21529" lon="6.22939">
        <ele>473.10607910156</ele>
        <time>2012-04-29T11:08:50Z</time>
      </trkpt>
      <trkpt lat="47.22388" lon="6.22406">
        <ele>457.24426269531</ele>
        <time>2012-04-29T11:10:10Z</time>
      </trkpt>
      <trkpt lat="47.22423" lon="6.22365">
        <ele>456.76354980469</ele>
        <time>2012-04-29T11:10:14Z</time>
      </trkpt>
      <trkpt lat="47.22383" lon="6.22384">
        <ele>455.32153320312</ele>
        <time>2012-04-29T11:10:16Z</time>
      </trkpt>
      <trkpt lat="47.22408" lon="6.22359">
        <ele>453.87963867188</ele>
        <time>2012-04-29T11:10:18Z</time>
      </trkpt>
      <trkpt lat="47.22422" lon="6.22341">
        <ele>453.87963867188</ele>
        <time>2012-04-29T11:10:20Z</time>
      </trkpt>
      <trkpt lat="47.22437" lon="6.22303">
        <ele>454.36022949219</ele>
        <time>2012-04-29T11:10:24Z</time>
      </trkpt>
      <trkpt lat="47.22446" lon="6.22253">
        <ele>455.32153320312</ele>
        <time>2012-04-29T11:10:30Z</time>
      </trkpt>
      <trkpt lat="47.22449" lon="6.22239">
        <ele>454.8408203125</ele>
        <time>2012-04-29T11:10:32Z</time>
      </trkpt>
      <trkpt lat="47.22458" lon="6.22221">
        <ele>453.87963867188</ele>
        <time>2012-04-29T11:10:35Z</time>
      </trkpt>
      <trkpt lat="47.22475" lon="6.22194">
        <ele>454.8408203125</ele>
        <time>2012-04-29T11:10:41Z</time>
      </trkpt>
      <trkpt lat="47.22486" lon="6.22188">
        <ele>454.8408203125</ele>
        <time>2012-04-29T11:10:45Z</time>
      </trkpt>
      <trkpt lat="47.22495" lon="6.22187">
        <ele>455.80224609375</ele>
        <time>2012-04-29T11:10:49Z</time>
      </trkpt>
      <trkpt lat="47.2251" lon="6.2219">
        <ele>455.80224609375</ele>
        <time>2012-04-29T11:10:54Z</time>
      </trkpt>
      <trkpt lat="47.22529" lon="6.22189">
        <ele>457.24426269531</ele>
        <time>2012-04-29T11:11:00Z</time>
      </trkpt>
      <trkpt lat="47.22546" lon="6.22184">
        <ele>457.24426269531</ele>
        <time>2012-04-29T11:11:06Z</time>
      </trkpt>
      <trkpt lat="47.2256" lon="6.22175">
        <ele>458.20556640625</ele>
        <time>2012-04-29T11:11:12Z</time>
      </trkpt>
      <trkpt lat="47.22574" lon="6.2216">
        <ele>459.64758300781</ele>
        <time>2012-04-29T11:11:17Z</time>
      </trkpt>
      <trkpt lat="47.22591" lon="6.22148">
        <ele>459.64758300781</ele>
        <time>2012-04-29T11:11:22Z</time>
      </trkpt>
      <trkpt lat="47.22612" lon="6.22131">
        <ele>459.64758300781</ele>
        <time>2012-04-29T11:11:28Z</time>
      </trkpt>
      <trkpt lat="47.22619" lon="6.22126">
        <ele>460.60876464844</ele>
        <time>2012-04-29T11:11:30Z</time>
      </trkpt>
      <trkpt lat="47.22638" lon="6.22115">
        <ele>461.08947753906</ele>
        <time>2012-04-29T11:11:35Z</time>
      </trkpt>
      <trkpt lat="47.22656" lon="6.22104">
        <ele>463.49279785156</ele>
        <time>2012-04-29T11:11:40Z</time>
      </trkpt>
      <trkpt lat="47.22659" lon="6.22102">
        <ele>462.53137207031</ele>
        <time>2012-04-29T11:11:41Z</time>
      </trkpt>
      <trkpt lat="47.22677" lon="6.22092">
        <ele>461.57019042969</ele>
        <time>2012-04-29T11:11:47Z</time>
      </trkpt>
      <trkpt lat="47.22786" lon="6.22043">
        <ele>460.60876464844</ele>
        <time>2012-04-29T11:12:16Z</time>
      </trkpt>
      <trkpt lat="47.22798" lon="6.22036">
        <ele>460.60876464844</ele>
        <time>2012-04-29T11:12:20Z</time>
      </trkpt>
      <trkpt lat="47.22804" lon="6.22034">
        <ele>460.60876464844</ele>
        <time>2012-04-29T11:12:22Z</time>
      </trkpt>
      <trkpt lat="47.22811" lon="6.2204">
        <ele>460.12817382812</ele>
        <time>2012-04-29T11:12:27Z</time>
      </trkpt>
      <trkpt lat="47.22814" lon="6.22041">
        <ele>460.12817382812</ele>
        <time>2012-04-29T11:12:29Z</time>
      </trkpt>
      <trkpt lat="47.22824" lon="6.22049">
        <ele>459.64758300781</ele>
        <time>2012-04-29T11:12:34Z</time>
      </trkpt>
      <trkpt lat="47.2283" lon="6.22051">
        <ele>459.64758300781</ele>
        <time>2012-04-29T11:12:38Z</time>
      </trkpt>
      <trkpt lat="47.2284" lon="6.22058">
        <ele>459.16687011719</ele>
        <time>2012-04-29T11:12:43Z</time>
      </trkpt>
      <trkpt lat="47.22854" lon="6.22065">
        <ele>460.12817382812</ele>
        <time>2012-04-29T11:12:47Z</time>
      </trkpt>
      <trkpt lat="47.22877" lon="6.22078">
        <ele>460.60876464844</ele>
        <time>2012-04-29T11:12:52Z</time>
      </trkpt>
      <trkpt lat="47.22898" lon="6.22084">
        <ele>460.60876464844</ele>
        <time>2012-04-29T11:12:57Z</time>
      </trkpt>
      <trkpt lat="47.2291" lon="6.2209">
        <ele>460.12817382812</ele>
        <time>2012-04-29T11:13:00Z</time>
      </trkpt>
      <trkpt lat="47.22924" lon="6.22093">
        <ele>460.60876464844</ele>
        <time>2012-04-29T11:13:03Z</time>
      </trkpt>
      <trkpt lat="47.22933" lon="6.22094">
        <ele>461.08947753906</ele>
        <time>2012-04-29T11:13:05Z</time>
      </trkpt>
      <trkpt lat="47.22956" lon="6.22088">
        <ele>459.16687011719</ele>
        <time>2012-04-29T11:13:11Z</time>
      </trkpt>
      <trkpt lat="47.22965" lon="6.22083">
        <ele>458.68615722656</ele>
        <time>2012-04-29T11:13:13Z</time>
      </trkpt>
      <trkpt lat="47.23001" lon="6.2206">
        <ele>457.24426269531</ele>
        <time>2012-04-29T11:13:22Z</time>
      </trkpt>
      <trkpt lat="47.23009" lon="6.22052">
        <ele>457.24426269531</ele>
        <time>2012-04-29T11:13:23Z</time>
      </trkpt>
      <trkpt lat="47.23031" lon="6.22055">
        <ele>457.24426269531</ele>
        <time>2012-04-29T11:13:27Z</time>
      </trkpt>
      <trkpt lat="47.23037" lon="6.22059">
        <ele>457.24426269531</ele>
        <time>2012-04-29T11:13:28Z</time>
      </trkpt>
      <trkpt lat="47.23055" lon="6.22061">
        <ele>457.24426269531</ele>
        <time>2012-04-29T11:13:32Z</time>
      </trkpt>
      <trkpt lat="47.2309" lon="6.22061">
        <ele>456.76354980469</ele>
        <time>2012-04-29T11:13:37Z</time>
      </trkpt>
      <trkpt lat="47.23102" lon="6.22064">
        <ele>456.28295898438</ele>
        <time>2012-04-29T11:13:39Z</time>
      </trkpt>
      <trkpt lat="47.23119" lon="6.22066">
        <ele>455.80224609375</ele>
        <time>2012-04-29T11:13:42Z</time>
      </trkpt>
      <trkpt lat="47.23137" lon="6.22062">
        <ele>455.80224609375</ele>
        <time>2012-04-29T11:13:45Z</time>
      </trkpt>
      <trkpt lat="47.23166" lon="6.22053">
        <ele>455.80224609375</ele>
        <time>2012-04-29T11:13:50Z</time>
      </trkpt>
      <trkpt lat="47.23185" lon="6.22054">
        <ele>456.28295898438</ele>
        <time>2012-04-29T11:13:54Z</time>
      </trkpt>
      <trkpt lat="47.23196" lon="6.22052">
        <ele>455.80224609375</ele>
        <time>2012-04-29T11:13:56Z</time>
      </trkpt>
      <trkpt lat="47.23214" lon="6.22049">
        <ele>454.36022949219</ele>
        <time>2012-04-29T11:13:59Z</time>
      </trkpt>
      <trkpt lat="47.23244" lon="6.2205">
        <ele>455.32153320312</ele>
        <time>2012-04-29T11:14:03Z</time>
      </trkpt>
      <trkpt lat="47.23255" lon="6.22051">
        <ele>454.36022949219</ele>
        <time>2012-04-29T11:14:05Z</time>
      </trkpt>
      <trkpt lat="47.23272" lon="6.22049">
        <ele>454.36022949219</ele>
        <time>2012-04-29T11:14:08Z</time>
      </trkpt>
      <trkpt lat="47.23285" lon="6.22058">
        <ele>455.32153320312</ele>
        <time>2012-04-29T11:14:13Z</time>
      </trkpt>
      <trkpt lat="47.23309" lon="6.22064">
        <ele>455.32153320312</ele>
        <time>2012-04-29T11:14:18Z</time>
      </trkpt>
      <trkpt lat="47.23334" lon="6.22068">
        <ele>453.87963867188</ele>
        <time>2012-04-29T11:14:23Z</time>
      </trkpt>
      <trkpt lat="47.23359" lon="6.22069">
        <ele>453.39892578125</ele>
        <time>2012-04-29T11:14:28Z</time>
      </trkpt>
      <trkpt lat="47.23386" lon="6.22071">
        <ele>451.95703125</ele>
        <time>2012-04-29T11:14:32Z</time>
      </trkpt>
      <trkpt lat="47.23422" lon="6.22078">
        <ele>450.99560546875</ele>
        <time>2012-04-29T11:14:38Z</time>
      </trkpt>
      <trkpt lat="47.23445" lon="6.22091">
        <ele>449.5537109375</ele>
        <time>2012-04-29T11:14:42Z</time>
      </trkpt>
      <trkpt lat="47.23455" lon="6.22101">
        <ele>450.51501464844</ele>
        <time>2012-04-29T11:14:46Z</time>
      </trkpt>
      <trkpt lat="47.23458" lon="6.22103">
        <ele>452.43762207031</ele>
        <time>2012-04-29T11:14:48Z</time>
      </trkpt>
      <trkpt lat="47.23462" lon="6.22118">
        <ele>452.91821289062</ele>
        <time>2012-04-29T11:14:53Z</time>
      </trkpt>
      <trkpt lat="47.23487" lon="6.22134">
        <ele>453.87963867188</ele>
        <time>2012-04-29T11:14:58Z</time>
      </trkpt>
      <trkpt lat="47.23492" lon="6.22141">
        <ele>454.36022949219</ele>
        <time>2012-04-29T11:15:00Z</time>
      </trkpt>
      <trkpt lat="47.23508" lon="6.22142">
        <ele>455.32153320312</ele>
        <time>2012-04-29T11:15:06Z</time>
      </trkpt>
      <trkpt lat="47.2351" lon="6.22143">
        <ele>455.32153320312</ele>
        <time>2012-04-29T11:15:07Z</time>
      </trkpt>
      <trkpt lat="47.2352" lon="6.22153">
        <ele>456.28295898438</ele>
        <time>2012-04-29T11:15:12Z</time>
      </trkpt>
      <trkpt lat="47.2354" lon="6.22165">
        <ele>456.76354980469</ele>
        <time>2012-04-29T11:15:18Z</time>
      </trkpt>
      <trkpt lat="47.23553" lon="6.22174">
        <ele>458.20556640625</ele>
        <time>2012-04-29T11:15:23Z</time>
      </trkpt>
      <trkpt lat="47.23555" lon="6.22183">
        <ele>458.20556640625</ele>
        <time>2012-04-29T11:15:26Z</time>
      </trkpt>
      <trkpt lat="47.23564" lon="6.22197">
        <ele>459.16687011719</ele>
        <time>2012-04-29T11:15:32Z</time>
      </trkpt>
      <trkpt lat="47.23572" lon="6.22201">
        <ele>459.64758300781</ele>
        <time>2012-04-29T11:15:36Z</time>
      </trkpt>
      <trkpt lat="47.23578" lon="6.22204">
        <ele>459.64758300781</ele>
        <time>2012-04-29T11:15:39Z</time>
      </trkpt>
      <trkpt lat="47.23602" lon="6.22219">
        <ele>460.60876464844</ele>
        <time>2012-04-29T11:15:46Z</time>
      </trkpt>
      <trkpt lat="47.2362" lon="6.22224">
        <ele>460.60876464844</ele>
        <time>2012-04-29T11:15:51Z</time>
      </trkpt>
      <trkpt lat="47.23636" lon="6.22228">
        <ele>460.60876464844</ele>
        <time>2012-04-29T11:15:55Z</time>
      </trkpt>
      <trkpt lat="47.23652" lon="6.22241">
        <ele>460.60876464844</ele>
        <time>2012-04-29T11:16:00Z</time>
      </trkpt>
      <trkpt lat="47.23659" lon="6.22259">
        <ele>460.60876464844</ele>
        <time>2012-04-29T11:16:04Z</time>
      </trkpt>
      <trkpt lat="47.23674" lon="6.22269">
        <ele>460.12817382812</ele>
        <time>2012-04-29T11:16:08Z</time>
      </trkpt>
      <trkpt lat="47.23687" lon="6.22278">
        <ele>456.76354980469</ele>
        <time>2012-04-29T11:16:12Z</time>
      </trkpt>
      <trkpt lat="47.23689" lon="6.22281">
        <ele>457.24426269531</ele>
        <time>2012-04-29T11:16:13Z</time>
      </trkpt>
      <trkpt lat="47.23695" lon="6.22284">
        <ele>456.28295898438</ele>
        <time>2012-04-29T11:16:16Z</time>
      </trkpt>
      <trkpt lat="47.23711" lon="6.22275">
        <ele>451.95703125</ele>
        <time>2012-04-29T11:16:21Z</time>
      </trkpt>
      <trkpt lat="47.23719" lon="6.22266">
        <ele>450.03442382812</ele>
        <time>2012-04-29T11:16:23Z</time>
      </trkpt>
      <trkpt lat="47.23733" lon="6.22253">
        <ele>447.63098144531</ele>
        <time>2012-04-29T11:16:25Z</time>
      </trkpt>
      <trkpt lat="47.2376" lon="6.22226">
        <ele>444.7470703125</ele>
        <time>2012-04-29T11:16:29Z</time>
      </trkpt>
      <trkpt lat="47.23776" lon="6.2221">
        <ele>443.78576660156</ele>
        <time>2012-04-29T11:16:31Z</time>
      </trkpt>
      <trkpt lat="47.23811" lon="6.22168">
        <ele>443.30505371094</ele>
        <time>2012-04-29T11:16:36Z</time>
      </trkpt>
      <trkpt lat="47.23827" lon="6.22151">
        <ele>443.30505371094</ele>
        <time>2012-04-29T11:16:40Z</time>
      </trkpt>
      <trkpt lat="47.23838" lon="6.2214">
        <ele>441.86315917969</ele>
        <time>2012-04-29T11:16:44Z</time>
      </trkpt>
      <trkpt lat="47.23854" lon="6.22125">
        <ele>440.42126464844</ele>
        <time>2012-04-29T11:16:47Z</time>
      </trkpt>
      <trkpt lat="47.23875" lon="6.22101">
        <ele>438.97912597656</ele>
        <time>2012-04-29T11:16:51Z</time>
      </trkpt>
      <trkpt lat="47.23898" lon="6.22075">
        <ele>439.9404296875</ele>
        <time>2012-04-29T11:16:56Z</time>
      </trkpt>
      <trkpt lat="47.23912" lon="6.2206">
        <ele>439.9404296875</ele>
        <time>2012-04-29T11:17:00Z</time>
      </trkpt>
      <trkpt lat="47.23932" lon="6.22039">
        <ele>440.90185546875</ele>
        <time>2012-04-29T11:17:05Z</time>
      </trkpt>
      <trkpt lat="47.23949" lon="6.22019">
        <ele>439.45971679688</ele>
        <time>2012-04-29T11:17:09Z</time>
      </trkpt>
      <trkpt lat="47.2398" lon="6.21986">
        <ele>435.61450195312</ele>
        <time>2012-04-29T11:17:15Z</time>
      </trkpt>
      <trkpt lat="47.23985" lon="6.21981">
        <ele>435.13391113281</ele>
        <time>2012-04-29T11:17:16Z</time>
      </trkpt>
      <trkpt lat="47.23989" lon="6.21969">
        <ele>432.73071289062</ele>
        <time>2012-04-29T11:17:20Z</time>
      </trkpt>
      <trkpt lat="47.23988" lon="6.21965">
        <ele>432.73071289062</ele>
        <time>2012-04-29T11:17:21Z</time>
      </trkpt>
      <trkpt lat="47.23974" lon="6.2194">
        <ele>432.25</ele>
        <time>2012-04-29T11:17:27Z</time>
      </trkpt>
      <trkpt lat="47.2396" lon="6.2192">
        <ele>432.73071289062</ele>
        <time>2012-04-29T11:17:32Z</time>
      </trkpt>
      <trkpt lat="47.23941" lon="6.21891">
        <ele>432.73071289062</ele>
        <time>2012-04-29T11:17:38Z</time>
      </trkpt>
      <trkpt lat="47.2393" lon="6.21871">
        <ele>433.21130371094</ele>
        <time>2012-04-29T11:17:42Z</time>
      </trkpt>
      <trkpt lat="47.23909" lon="6.21838">
        <ele>433.21130371094</ele>
        <time>2012-04-29T11:17:49Z</time>
      </trkpt>
      <trkpt lat="47.23901" lon="6.21824">
        <ele>433.21130371094</ele>
        <time>2012-04-29T11:17:53Z</time>
      </trkpt>
      <trkpt lat="47.23892" lon="6.2181">
        <ele>432.25</ele>
        <time>2012-04-29T11:17:56Z</time>
      </trkpt>
      <trkpt lat="47.23877" lon="6.21784">
        <ele>430.32727050781</ele>
        <time>2012-04-29T11:18:00Z</time>
      </trkpt>
      <trkpt lat="47.23853" lon="6.21739">
        <ele>433.21130371094</ele>
        <time>2012-04-29T11:18:07Z</time>
      </trkpt>
      <trkpt lat="47.23848" lon="6.21728">
        <ele>434.17260742188</ele>
        <time>2012-04-29T11:18:11Z</time>
      </trkpt>
      <trkpt lat="47.23847" lon="6.21726">
        <ele>433.69189453125</ele>
        <time>2012-04-29T11:18:19Z</time>
      </trkpt>
      <trkpt lat="47.2385" lon="6.21715">
        <ele>435.13391113281</ele>
        <time>2012-04-29T11:18:57Z</time>
      </trkpt>
      <trkpt lat="47.23845" lon="6.21695">
        <ele>435.61450195312</ele>
        <time>2012-04-29T11:19:02Z</time>
      </trkpt>
      <trkpt lat="47.23841" lon="6.21665">
        <ele>435.61450195312</ele>
        <time>2012-04-29T11:19:07Z</time>
      </trkpt>
      <trkpt lat="47.23826" lon="6.21622">
        <ele>437.537109375</ele>
        <time>2012-04-29T11:19:14Z</time>
      </trkpt>
      <trkpt lat="47.23815" lon="6.21605">
        <ele>438.01782226562</ele>
        <time>2012-04-29T11:19:19Z</time>
      </trkpt>
      <trkpt lat="47.23812" lon="6.21601">
        <ele>438.01782226562</ele>
        <time>2012-04-29T11:19:20Z</time>
      </trkpt>
      <trkpt lat="47.23801" lon="6.21591">
        <ele>438.49853515625</ele>
        <time>2012-04-29T11:19:25Z</time>
      </trkpt>
      <trkpt lat="47.23795" lon="6.21578">
        <ele>439.45971679688</ele>
        <time>2012-04-29T11:19:30Z</time>
      </trkpt>
      <trkpt lat="47.23792" lon="6.2157">
        <ele>439.45971679688</ele>
        <time>2012-04-29T11:19:33Z</time>
      </trkpt>
      <trkpt lat="47.23788" lon="6.21562">
        <ele>439.9404296875</ele>
        <time>2012-04-29T11:19:36Z</time>
      </trkpt>
      <trkpt lat="47.23781" lon="6.2154">
        <ele>440.42126464844</ele>
        <time>2012-04-29T11:19:42Z</time>
      </trkpt>
      <trkpt lat="47.23779" lon="6.21524">
        <ele>439.9404296875</ele>
        <time>2012-04-29T11:19:45Z</time>
      </trkpt>
      <trkpt lat="47.23773" lon="6.21508">
        <ele>438.97912597656</ele>
        <time>2012-04-29T11:19:49Z</time>
      </trkpt>
      <trkpt lat="47.23765" lon="6.2149">
        <ele>438.49853515625</ele>
        <time>2012-04-29T11:19:53Z</time>
      </trkpt>
      <trkpt lat="47.23762" lon="6.21483">
        <ele>438.01782226562</ele>
        <time>2012-04-29T11:19:55Z</time>
      </trkpt>
      <trkpt lat="47.2375" lon="6.21458">
        <ele>438.49853515625</ele>
        <time>2012-04-29T11:20:01Z</time>
      </trkpt>
      <trkpt lat="47.23747" lon="6.21453">
        <ele>438.49853515625</ele>
        <time>2012-04-29T11:20:02Z</time>
      </trkpt>
      <trkpt lat="47.23734" lon="6.21433">
        <ele>438.97912597656</ele>
        <time>2012-04-29T11:20:06Z</time>
      </trkpt>
      <trkpt lat="47.23726" lon="6.21399">
        <ele>439.45971679688</ele>
        <time>2012-04-29T11:20:12Z</time>
      </trkpt>
      <trkpt lat="47.23706" lon="6.21371">
        <ele>438.97912597656</ele>
        <time>2012-04-29T11:20:18Z</time>
      </trkpt>
      <trkpt lat="47.23693" lon="6.21337">
        <ele>440.90185546875</ele>
        <time>2012-04-29T11:20:24Z</time>
      </trkpt>
      <trkpt lat="47.2369" lon="6.21313">
        <ele>439.45971679688</ele>
        <time>2012-04-29T11:20:28Z</time>
      </trkpt>
      <trkpt lat="47.23682" lon="6.21275">
        <ele>438.01782226562</ele>
        <time>2012-04-29T11:20:33Z</time>
      </trkpt>
      <trkpt lat="47.23673" lon="6.21233">
        <ele>438.01782226562</ele>
        <time>2012-04-29T11:20:38Z</time>
      </trkpt>
      <trkpt lat="47.2365" lon="6.21179">
        <ele>435.13391113281</ele>
        <time>2012-04-29T11:20:44Z</time>
      </trkpt>
      <trkpt lat="47.2364" lon="6.21155">
        <ele>435.13391113281</ele>
        <time>2012-04-29T11:20:46Z</time>
      </trkpt>
      <trkpt lat="47.23597" lon="6.21059">
        <ele>435.61450195312</ele>
        <time>2012-04-29T11:21:00Z</time>
      </trkpt>
      <trkpt lat="47.23584" lon="6.21026">
        <ele>435.61450195312</ele>
        <time>2012-04-29T11:21:05Z</time>
      </trkpt>
      <trkpt lat="47.23564" lon="6.20986">
        <ele>435.13391113281</ele>
        <time>2012-04-29T11:21:11Z</time>
      </trkpt>
      <trkpt lat="47.23545" lon="6.20934">
        <ele>436.57592773438</ele>
        <time>2012-04-29T11:21:18Z</time>
      </trkpt>
      <trkpt lat="47.23542" lon="6.20929">
        <ele>435.61450195312</ele>
        <time>2012-04-29T11:21:19Z</time>
      </trkpt>
      <trkpt lat="47.23526" lon="6.20914">
        <ele>437.537109375</ele>
        <time>2012-04-29T11:21:24Z</time>
      </trkpt>
      <trkpt lat="47.23511" lon="6.20898">
        <ele>436.57592773438</ele>
        <time>2012-04-29T11:21:29Z</time>
      </trkpt>
      <trkpt lat="47.23491" lon="6.20877">
        <ele>436.57592773438</ele>
        <time>2012-04-29T11:21:34Z</time>
      </trkpt>
      <trkpt lat="47.23484" lon="6.2087">
        <ele>435.13391113281</ele>
        <time>2012-04-29T11:21:36Z</time>
      </trkpt>
      <trkpt lat="47.23456" lon="6.20826">
        <ele>437.05651855469</ele>
        <time>2012-04-29T11:21:43Z</time>
      </trkpt>
      <trkpt lat="47.23442" lon="6.20811">
        <ele>438.01782226562</ele>
        <time>2012-04-29T11:21:48Z</time>
      </trkpt>
      <trkpt lat="47.23433" lon="6.208">
        <ele>438.97912597656</ele>
        <time>2012-04-29T11:21:53Z</time>
      </trkpt>
      <trkpt lat="47.23418" lon="6.20785">
        <ele>440.42126464844</ele>
        <time>2012-04-29T11:21:59Z</time>
      </trkpt>
      <trkpt lat="47.23407" lon="6.20772">
        <ele>441.38244628906</ele>
        <time>2012-04-29T11:22:04Z</time>
      </trkpt>
      <trkpt lat="47.23402" lon="6.20762">
        <ele>443.30505371094</ele>
        <time>2012-04-29T11:22:08Z</time>
      </trkpt>
      <trkpt lat="47.23392" lon="6.20753">
        <ele>443.78576660156</ele>
        <time>2012-04-29T11:22:13Z</time>
      </trkpt>
      <trkpt lat="47.23382" lon="6.20737">
        <ele>444.7470703125</ele>
        <time>2012-04-29T11:22:19Z</time>
      </trkpt>
      <trkpt lat="47.23381" lon="6.20733">
        <ele>444.26647949219</ele>
        <time>2012-04-29T11:22:20Z</time>
      </trkpt>
      <trkpt lat="47.23383" lon="6.20721">
        <ele>444.7470703125</ele>
        <time>2012-04-29T11:22:24Z</time>
      </trkpt>
      <trkpt lat="47.23396" lon="6.20701">
        <ele>445.22766113281</ele>
        <time>2012-04-29T11:22:31Z</time>
      </trkpt>
      <trkpt lat="47.23408" lon="6.20687">
        <ele>445.22766113281</ele>
        <time>2012-04-29T11:22:36Z</time>
      </trkpt>
      <trkpt lat="47.23423" lon="6.20668">
        <ele>444.7470703125</ele>
        <time>2012-04-29T11:22:41Z</time>
      </trkpt>
      <trkpt lat="47.2344" lon="6.20643">
        <ele>444.7470703125</ele>
        <time>2012-04-29T11:22:47Z</time>
      </trkpt>
      <trkpt lat="47.23452" lon="6.20619">
        <ele>445.22766113281</ele>
        <time>2012-04-29T11:22:52Z</time>
      </trkpt>
      <trkpt lat="47.23496" lon="6.20545">
        <ele>445.70837402344</ele>
        <time>2012-04-29T11:23:07Z</time>
      </trkpt>
      <trkpt lat="47.23508" lon="6.2053">
        <ele>446.18908691406</ele>
        <time>2012-04-29T11:23:11Z</time>
      </trkpt>
      <trkpt lat="47.23518" lon="6.2051">
        <ele>446.18908691406</ele>
        <time>2012-04-29T11:23:17Z</time>
      </trkpt>
      <trkpt lat="47.2353" lon="6.20492">
        <ele>446.18908691406</ele>
        <time>2012-04-29T11:23:21Z</time>
      </trkpt>
      <trkpt lat="47.2354" lon="6.20473">
        <ele>445.70837402344</ele>
        <time>2012-04-29T11:23:24Z</time>
      </trkpt>
      <trkpt lat="47.23548" lon="6.20463">
        <ele>445.70837402344</ele>
        <time>2012-04-29T11:23:26Z</time>
      </trkpt>
      <trkpt lat="47.2357" lon="6.20431">
        <ele>446.66967773438</ele>
        <time>2012-04-29T11:23:33Z</time>
      </trkpt>
      <trkpt lat="47.23584" lon="6.20416">
        <ele>446.66967773438</ele>
        <time>2012-04-29T11:23:37Z</time>
      </trkpt>
      <trkpt lat="47.23602" lon="6.20391">
        <ele>446.66967773438</ele>
        <time>2012-04-29T11:23:44Z</time>
      </trkpt>
      <trkpt lat="47.23607" lon="6.20378">
        <ele>446.66967773438</ele>
        <time>2012-04-29T11:23:47Z</time>
      </trkpt>
      <trkpt lat="47.23602" lon="6.2035">
        <ele>448.11181640625</ele>
        <time>2012-04-29T11:23:53Z</time>
      </trkpt>
      <trkpt lat="47.23618" lon="6.2031">
        <ele>448.11181640625</ele>
        <time>2012-04-29T11:24:00Z</time>
      </trkpt>
      <trkpt lat="47.23627" lon="6.20285">
        <ele>448.11181640625</ele>
        <time>2012-04-29T11:24:05Z</time>
      </trkpt>
      <trkpt lat="47.23632" lon="6.20268">
        <ele>448.11181640625</ele>
        <time>2012-04-29T11:24:08Z</time>
      </trkpt>
      <trkpt lat="47.23637" lon="6.2024">
        <ele>447.63098144531</ele>
        <time>2012-04-29T11:24:12Z</time>
      </trkpt>
      <trkpt lat="47.23643" lon="6.20172">
        <ele>446.18908691406</ele>
        <time>2012-04-29T11:24:23Z</time>
      </trkpt>
      <trkpt lat="47.23655" lon="6.20123">
        <ele>444.7470703125</ele>
        <time>2012-04-29T11:24:28Z</time>
      </trkpt>
      <trkpt lat="47.23669" lon="6.20111">
        <ele>443.30505371094</ele>
        <time>2012-04-29T11:24:36Z</time>
      </trkpt>
      <trkpt lat="47.23672" lon="6.2011">
        <ele>444.7470703125</ele>
        <time>2012-04-29T11:24:50Z</time>
      </trkpt>
      <trkpt lat="47.23678" lon="6.20108">
        <ele>444.26647949219</ele>
        <time>2012-04-29T11:25:00Z</time>
      </trkpt>
      <trkpt lat="47.2368" lon="6.20108">
        <ele>443.78576660156</ele>
        <time>2012-04-29T11:25:04Z</time>
      </trkpt>
      <trkpt lat="47.23682" lon="6.2011">
        <ele>444.26647949219</ele>
        <time>2012-04-29T11:25:06Z</time>
      </trkpt>
      <trkpt lat="47.23671" lon="6.20128">
        <ele>443.30505371094</ele>
        <time>2012-04-29T11:25:13Z</time>
      </trkpt>
      <trkpt lat="47.23674" lon="6.20139">
        <ele>442.82446289062</ele>
        <time>2012-04-29T11:25:17Z</time>
      </trkpt>
      <trkpt lat="47.23676" lon="6.20138">
        <ele>442.82446289062</ele>
        <time>2012-04-29T11:25:18Z</time>
      </trkpt>
      <trkpt lat="47.23718" lon="6.2012">
        <ele>440.90185546875</ele>
        <time>2012-04-29T11:25:23Z</time>
      </trkpt>
      <trkpt lat="47.23749" lon="6.20082">
        <ele>438.49853515625</ele>
        <time>2012-04-29T11:25:29Z</time>
      </trkpt>
      <trkpt lat="47.23758" lon="6.2007">
        <ele>440.42126464844</ele>
        <time>2012-04-29T11:25:32Z</time>
      </trkpt>
      <trkpt lat="47.23762" lon="6.20063">
        <ele>440.90185546875</ele>
        <time>2012-04-29T11:25:36Z</time>
      </trkpt>
      <trkpt lat="47.23766" lon="6.2006">
        <ele>441.38244628906</ele>
        <time>2012-04-29T11:25:41Z</time>
      </trkpt>
      <trkpt lat="47.23768" lon="6.20052">
        <ele>441.38244628906</ele>
        <time>2012-04-29T11:25:47Z</time>
      </trkpt>
      <trkpt lat="47.23771" lon="6.20048">
        <ele>441.38244628906</ele>
        <time>2012-04-29T11:25:58Z</time>
      </trkpt>
      <trkpt lat="47.23777" lon="6.20039">
        <ele>443.30505371094</ele>
        <time>2012-04-29T11:26:03Z</time>
      </trkpt>
      <trkpt lat="47.23778" lon="6.20037">
        <ele>443.30505371094</ele>
        <time>2012-04-29T11:26:04Z</time>
      </trkpt>
      <trkpt lat="47.23786" lon="6.2002">
        <ele>445.70837402344</ele>
        <time>2012-04-29T11:26:10Z</time>
      </trkpt>
      <trkpt lat="47.23791" lon="6.20009">
        <ele>446.66967773438</ele>
        <time>2012-04-29T11:26:15Z</time>
      </trkpt>
      <trkpt lat="47.23798" lon="6.19995">
        <ele>446.66967773438</ele>
        <time>2012-04-29T11:26:21Z</time>
      </trkpt>
      <trkpt lat="47.23808" lon="6.19978">
        <ele>447.15026855469</ele>
        <time>2012-04-29T11:26:27Z</time>
      </trkpt>
      <trkpt lat="47.23818" lon="6.19956">
        <ele>447.63098144531</ele>
        <time>2012-04-29T11:26:34Z</time>
      </trkpt>
      <trkpt lat="47.23821" lon="6.1995">
        <ele>448.11181640625</ele>
        <time>2012-04-29T11:26:36Z</time>
      </trkpt>
      <trkpt lat="47.23833" lon="6.19929">
        <ele>447.15026855469</ele>
        <time>2012-04-29T11:26:43Z</time>
      </trkpt>
      <trkpt lat="47.23842" lon="6.19914">
        <ele>447.15026855469</ele>
        <time>2012-04-29T11:26:47Z</time>
      </trkpt>
      <trkpt lat="47.23851" lon="6.19894">
        <ele>447.63098144531</ele>
        <time>2012-04-29T11:26:52Z</time>
      </trkpt>
      <trkpt lat="47.23858" lon="6.1988">
        <ele>447.63098144531</ele>
        <time>2012-04-29T11:26:56Z</time>
      </trkpt>
      <trkpt lat="47.2387" lon="6.19858">
        <ele>447.63098144531</ele>
        <time>2012-04-29T11:27:01Z</time>
      </trkpt>
      <trkpt lat="47.23885" lon="6.19831">
        <ele>444.7470703125</ele>
        <time>2012-04-29T11:27:06Z</time>
      </trkpt>
      <trkpt lat="47.23888" lon="6.19826">
        <ele>444.7470703125</ele>
        <time>2012-04-29T11:27:07Z</time>
      </trkpt>
      <trkpt lat="47.23903" lon="6.19794">
        <ele>440.90185546875</ele>
        <time>2012-04-29T11:27:12Z</time>
      </trkpt>
      <trkpt lat="47.23911" lon="6.19778">
        <ele>440.42126464844</ele>
        <time>2012-04-29T11:27:14Z</time>
      </trkpt>
      <trkpt lat="47.23919" lon="6.19764">
        <ele>440.42126464844</ele>
        <time>2012-04-29T11:27:16Z</time>
      </trkpt>
      <trkpt lat="47.23931" lon="6.19743">
        <ele>440.90185546875</ele>
        <time>2012-04-29T11:27:20Z</time>
      </trkpt>
      <trkpt lat="47.23937" lon="6.19727">
        <ele>440.90185546875</ele>
        <time>2012-04-29T11:27:24Z</time>
      </trkpt>
      <trkpt lat="47.2394" lon="6.19722">
        <ele>440.90185546875</ele>
        <time>2012-04-29T11:27:25Z</time>
      </trkpt>
      <trkpt lat="47.23949" lon="6.19703">
        <ele>441.86315917969</ele>
        <time>2012-04-29T11:27:30Z</time>
      </trkpt>
      <trkpt lat="47.23964" lon="6.19692">
        <ele>441.86315917969</ele>
        <time>2012-04-29T11:27:35Z</time>
      </trkpt>
      <trkpt lat="47.23983" lon="6.19677">
        <ele>440.90185546875</ele>
        <time>2012-04-29T11:27:41Z</time>
      </trkpt>
      <trkpt lat="47.24002" lon="6.19665">
        <ele>440.42126464844</ele>
        <time>2012-04-29T11:27:46Z</time>
      </trkpt>
      <trkpt lat="47.24021" lon="6.19654">
        <ele>441.38244628906</ele>
        <time>2012-04-29T11:27:51Z</time>
      </trkpt>
      <trkpt lat="47.24044" lon="6.1964">
        <ele>441.86315917969</ele>
        <time>2012-04-29T11:27:56Z</time>
      </trkpt>
      <trkpt lat="47.24048" lon="6.19638">
        <ele>442.34387207031</ele>
        <time>2012-04-29T11:27:57Z</time>
      </trkpt>
      <trkpt lat="47.24076" lon="6.19619">
        <ele>442.34387207031</ele>
        <time>2012-04-29T11:28:03Z</time>
      </trkpt>
      <trkpt lat="47.24094" lon="6.19604">
        <ele>442.34387207031</ele>
        <time>2012-04-29T11:28:07Z</time>
      </trkpt>
      <trkpt lat="47.24116" lon="6.19581">
        <ele>442.34387207031</ele>
        <time>2012-04-29T11:28:12Z</time>
      </trkpt>
      <trkpt lat="47.24152" lon="6.19547">
        <ele>441.86315917969</ele>
        <time>2012-04-29T11:28:19Z</time>
      </trkpt>
      <trkpt lat="47.24163" lon="6.19535">
        <ele>441.86315917969</ele>
        <time>2012-04-29T11:28:21Z</time>
      </trkpt>
      <trkpt lat="47.2417" lon="6.19522">
        <ele>441.86315917969</ele>
        <time>2012-04-29T11:28:23Z</time>
      </trkpt>
      <trkpt lat="47.24183" lon="6.19492">
        <ele>441.38244628906</ele>
        <time>2012-04-29T11:28:27Z</time>
      </trkpt>
      <trkpt lat="47.24195" lon="6.19453">
        <ele>442.34387207031</ele>
        <time>2012-04-29T11:28:32Z</time>
      </trkpt>
      <trkpt lat="47.24206" lon="6.19378">
        <ele>442.82446289062</ele>
        <time>2012-04-29T11:28:42Z</time>
      </trkpt>
      <trkpt lat="47.24208" lon="6.19354">
        <ele>444.26647949219</ele>
        <time>2012-04-29T11:28:46Z</time>
      </trkpt>
      <trkpt lat="47.24215" lon="6.19328">
        <ele>444.7470703125</ele>
        <time>2012-04-29T11:28:52Z</time>
      </trkpt>
      <trkpt lat="47.24223" lon="6.19306">
        <ele>445.22766113281</ele>
        <time>2012-04-29T11:28:58Z</time>
      </trkpt>
      <trkpt lat="47.24231" lon="6.19287">
        <ele>446.18908691406</ele>
        <time>2012-04-29T11:29:03Z</time>
      </trkpt>
      <trkpt lat="47.24238" lon="6.19267">
        <ele>446.18908691406</ele>
        <time>2012-04-29T11:29:08Z</time>
      </trkpt>
      <trkpt lat="47.24243" lon="6.1925">
        <ele>447.63098144531</ele>
        <time>2012-04-29T11:29:12Z</time>
      </trkpt>
      <trkpt lat="47.24245" lon="6.19241">
        <ele>448.11181640625</ele>
        <time>2012-04-29T11:29:14Z</time>
      </trkpt>
      <trkpt lat="47.24249" lon="6.19221">
        <ele>449.07299804688</ele>
        <time>2012-04-29T11:29:19Z</time>
      </trkpt>
      <trkpt lat="47.24249" lon="6.19197">
        <ele>450.99560546875</ele>
        <time>2012-04-29T11:29:25Z</time>
      </trkpt>
      <trkpt lat="47.24249" lon="6.19188">
        <ele>450.51501464844</ele>
        <time>2012-04-29T11:29:27Z</time>
      </trkpt>
      <trkpt lat="47.2425" lon="6.19166">
        <ele>450.99560546875</ele>
        <time>2012-04-29T11:29:33Z</time>
      </trkpt>
      <trkpt lat="47.2425" lon="6.19144">
        <ele>450.99560546875</ele>
        <time>2012-04-29T11:29:38Z</time>
      </trkpt>
      <trkpt lat="47.24251" lon="6.19105">
        <ele>453.39892578125</ele>
        <time>2012-04-29T11:29:46Z</time>
      </trkpt>
      <trkpt lat="47.24252" lon="6.19082">
        <ele>454.36022949219</ele>
        <time>2012-04-29T11:29:51Z</time>
      </trkpt>
      <trkpt lat="47.24252" lon="6.19057">
        <ele>455.32153320312</ele>
        <time>2012-04-29T11:29:57Z</time>
      </trkpt>
      <trkpt lat="47.24256" lon="6.19024">
        <ele>457.24426269531</ele>
        <time>2012-04-29T11:30:05Z</time>
      </trkpt>
      <trkpt lat="47.24258" lon="6.18994">
        <ele>457.72497558594</ele>
        <time>2012-04-29T11:30:12Z</time>
      </trkpt>
      <trkpt lat="47.24259" lon="6.1897">
        <ele>458.68615722656</ele>
        <time>2012-04-29T11:30:18Z</time>
      </trkpt>
      <trkpt lat="47.24259" lon="6.18962">
        <ele>459.64758300781</ele>
        <time>2012-04-29T11:30:20Z</time>
      </trkpt>
      <trkpt lat="47.24263" lon="6.18943">
        <ele>460.60876464844</ele>
        <time>2012-04-29T11:30:25Z</time>
      </trkpt>
      <trkpt lat="47.24263" lon="6.18925">
        <ele>461.08947753906</ele>
        <time>2012-04-29T11:30:30Z</time>
      </trkpt>
      <trkpt lat="47.24258" lon="6.1891">
        <ele>462.05078125</ele>
        <time>2012-04-29T11:30:35Z</time>
      </trkpt>
      <trkpt lat="47.24251" lon="6.18897">
        <ele>463.97338867188</ele>
        <time>2012-04-29T11:30:40Z</time>
      </trkpt>
      <trkpt lat="47.24242" lon="6.18881">
        <ele>464.93481445312</ele>
        <time>2012-04-29T11:30:45Z</time>
      </trkpt>
      <trkpt lat="47.2424" lon="6.18878">
        <ele>464.93481445312</ele>
        <time>2012-04-29T11:30:46Z</time>
      </trkpt>
      <trkpt lat="47.24232" lon="6.18864">
        <ele>464.4541015625</ele>
        <time>2012-04-29T11:30:50Z</time>
      </trkpt>
      <trkpt lat="47.24217" lon="6.18846">
        <ele>466.37670898438</ele>
        <time>2012-04-29T11:30:57Z</time>
      </trkpt>
      <trkpt lat="47.24207" lon="6.18833">
        <ele>465.89611816406</ele>
        <time>2012-04-29T11:31:02Z</time>
      </trkpt>
      <trkpt lat="47.24198" lon="6.18824">
        <ele>466.37670898438</ele>
        <time>2012-04-29T11:31:06Z</time>
      </trkpt>
      <trkpt lat="47.24138" lon="6.18761">
        <ele>466.857421875</ele>
        <time>2012-04-29T11:31:24Z</time>
      </trkpt>
      <trkpt lat="47.2412" lon="6.18742">
        <ele>466.37670898438</ele>
        <time>2012-04-29T11:31:28Z</time>
      </trkpt>
      <trkpt lat="47.24092" lon="6.18704">
        <ele>466.37670898438</ele>
        <time>2012-04-29T11:31:34Z</time>
      </trkpt>
      <trkpt lat="47.24057" lon="6.18657">
        <ele>465.41552734375</ele>
        <time>2012-04-29T11:31:41Z</time>
      </trkpt>
      <trkpt lat="47.24025" lon="6.18618">
        <ele>462.05078125</ele>
        <time>2012-04-29T11:31:47Z</time>
      </trkpt>
      <trkpt lat="47.24012" lon="6.18604">
        <ele>462.05078125</ele>
        <time>2012-04-29T11:31:49Z</time>
      </trkpt>
      <trkpt lat="47.23977" lon="6.18557">
        <ele>459.64758300781</ele>
        <time>2012-04-29T11:31:55Z</time>
      </trkpt>
      <trkpt lat="47.23959" lon="6.18522">
        <ele>458.68615722656</ele>
        <time>2012-04-29T11:31:59Z</time>
      </trkpt>
      <trkpt lat="47.23961" lon="6.18492">
        <ele>458.20556640625</ele>
        <time>2012-04-29T11:32:03Z</time>
      </trkpt>
      <trkpt lat="47.23958" lon="6.18481">
        <ele>459.64758300781</ele>
        <time>2012-04-29T11:32:05Z</time>
      </trkpt>
      <trkpt lat="47.23946" lon="6.18451">
        <ele>458.68615722656</ele>
        <time>2012-04-29T11:32:10Z</time>
      </trkpt>
      <trkpt lat="47.23941" lon="6.1843">
        <ele>459.64758300781</ele>
        <time>2012-04-29T11:32:13Z</time>
      </trkpt>
      <trkpt lat="47.23934" lon="6.18405">
        <ele>459.16687011719</ele>
        <time>2012-04-29T11:32:17Z</time>
      </trkpt>
      <trkpt lat="47.23922" lon="6.18368">
        <ele>459.16687011719</ele>
        <time>2012-04-29T11:32:22Z</time>
      </trkpt>
      <trkpt lat="47.23911" lon="6.18334">
        <ele>462.05078125</ele>
        <time>2012-04-29T11:32:33Z</time>
      </trkpt>
      <trkpt lat="47.23877" lon="6.18207">
        <ele>463.49279785156</ele>
        <time>2012-04-29T11:32:47Z</time>
      </trkpt>
      <trkpt lat="47.23872" lon="6.18192">
        <ele>464.4541015625</ele>
        <time>2012-04-29T11:32:50Z</time>
      </trkpt>
      <trkpt lat="47.23873" lon="6.18174">
        <ele>463.01208496094</ele>
        <time>2012-04-29T11:32:53Z</time>
      </trkpt>
      <trkpt lat="47.23874" lon="6.18169">
        <ele>463.49279785156</ele>
        <time>2012-04-29T11:32:54Z</time>
      </trkpt>
      <trkpt lat="47.23869" lon="6.18141">
        <ele>461.57019042969</ele>
        <time>2012-04-29T11:32:58Z</time>
      </trkpt>
      <trkpt lat="47.2387" lon="6.18119">
        <ele>460.60876464844</ele>
        <time>2012-04-29T11:33:01Z</time>
      </trkpt>
      <trkpt lat="47.23864" lon="6.18096">
        <ele>460.60876464844</ele>
        <time>2012-04-29T11:33:05Z</time>
      </trkpt>
      <trkpt lat="47.23851" lon="6.18094">
        <ele>461.08947753906</ele>
        <time>2012-04-29T11:33:08Z</time>
      </trkpt>
      <trkpt lat="47.23841" lon="6.18093">
        <ele>461.08947753906</ele>
        <time>2012-04-29T11:33:11Z</time>
      </trkpt>
      <trkpt lat="47.23829" lon="6.18092">
        <ele>461.08947753906</ele>
        <time>2012-04-29T11:33:14Z</time>
      </trkpt>
      <trkpt lat="47.23821" lon="6.18092">
        <ele>461.08947753906</ele>
        <time>2012-04-29T11:33:17Z</time>
      </trkpt>
      <trkpt lat="47.23821" lon="6.18092">
        <ele>464.4541015625</ele>
        <time>2012-04-29T11:33:22Z</time>
      </trkpt>
      <trkpt lat="47.23821" lon="6.18092">
        <ele>463.97338867188</ele>
        <time>2012-04-29T11:33:23Z</time>
      </trkpt>
      <trkpt lat="47.23821" lon="6.18092">
        <ele>464.93481445312</ele>
        <time>2012-04-29T11:33:27Z</time>
      </trkpt>
      <trkpt lat="47.23717" lon="6.18184">
        <ele>463.49279785156</ele>
        <time>2012-04-29T11:33:52Z</time>
      </trkpt>
      <trkpt lat="47.23734" lon="6.18214">
        <ele>464.4541015625</ele>
        <time>2012-04-29T11:33:59Z</time>
      </trkpt>
      <trkpt lat="47.23766" lon="6.18255">
        <ele>467.33813476562</ele>
        <time>2012-04-29T11:34:11Z</time>
      </trkpt>
      <trkpt lat="47.23785" lon="6.18268">
        <ele>465.41552734375</ele>
        <time>2012-04-29T11:34:26Z</time>
      </trkpt>
      <trkpt lat="47.23792" lon="6.18271">
        <ele>465.41552734375</ele>
        <time>2012-04-29T11:34:30Z</time>
      </trkpt>
      <trkpt lat="47.2379" lon="6.18271">
        <ele>464.93481445312</ele>
        <time>2012-04-29T11:35:12Z</time>
      </trkpt>
      <trkpt lat="47.23781" lon="6.18287">
        <ele>464.93481445312</ele>
        <time>2012-04-29T11:38:46Z</time>
      </trkpt>
      <trkpt lat="47.23784" lon="6.18286">
        <ele>463.49279785156</ele>
        <time>2012-04-29T11:44:57Z</time>
      </trkpt>
      <trkpt lat="47.23795" lon="6.18276">
        <ele>463.01208496094</ele>
        <time>2012-04-29T11:47:08Z</time>
      </trkpt>
      <trkpt lat="47.23796" lon="6.18275">
        <ele>459.16687011719</ele>
        <time>2012-04-29T11:47:11Z</time>
      </trkpt>
      <trkpt lat="47.23796" lon="6.18274">
        <ele>460.12817382812</ele>
        <time>2012-04-29T11:47:12Z</time>
      </trkpt>
      <trkpt lat="47.23789" lon="6.18269">
        <ele>460.12817382812</ele>
        <time>2012-04-29T11:47:22Z</time>
      </trkpt>
      <trkpt lat="47.23776" lon="6.1826">
        <ele>459.16687011719</ele>
        <time>2012-04-29T11:47:29Z</time>
      </trkpt>
      <trkpt lat="47.23759" lon="6.18247">
        <ele>458.20556640625</ele>
        <time>2012-04-29T11:47:35Z</time>
      </trkpt>
      <trkpt lat="47.23743" lon="6.18229">
        <ele>458.20556640625</ele>
        <time>2012-04-29T11:47:40Z</time>
      </trkpt>
      <trkpt lat="47.23722" lon="6.18192">
        <ele>457.24426269531</ele>
        <time>2012-04-29T11:47:48Z</time>
      </trkpt>
      <trkpt lat="47.23714" lon="6.18177">
        <ele>457.24426269531</ele>
        <time>2012-04-29T11:47:52Z</time>
      </trkpt>
      <trkpt lat="47.23704" lon="6.18181">
        <ele>457.72497558594</ele>
        <time>2012-04-29T11:47:56Z</time>
      </trkpt>
      <trkpt lat="47.23698" lon="6.18186">
        <ele>457.24426269531</ele>
        <time>2012-04-29T11:47:58Z</time>
      </trkpt>
      <trkpt lat="47.23693" lon="6.18191">
        <ele>457.72497558594</ele>
        <time>2012-04-29T11:48:00Z</time>
      </trkpt>
      <trkpt lat="47.23676" lon="6.18203">
        <ele>458.20556640625</ele>
        <time>2012-04-29T11:48:05Z</time>
      </trkpt>
      <trkpt lat="47.23669" lon="6.18208">
        <ele>457.72497558594</ele>
        <time>2012-04-29T11:48:07Z</time>
      </trkpt>
      <trkpt lat="47.23644" lon="6.18227">
        <ele>457.72497558594</ele>
        <time>2012-04-29T11:48:14Z</time>
      </trkpt>
      <trkpt lat="47.23632" lon="6.18248">
        <ele>457.72497558594</ele>
        <time>2012-04-29T11:48:19Z</time>
      </trkpt>
      <trkpt lat="47.23618" lon="6.18272">
        <ele>457.24426269531</ele>
        <time>2012-04-29T11:48:24Z</time>
      </trkpt>
      <trkpt lat="47.23618" lon="6.18272">
        <ele>456.28295898438</ele>
        <time>2012-04-29T11:48:26Z</time>
      </trkpt>
      <trkpt lat="47.2359" lon="6.18305">
        <ele>457.24426269531</ele>
        <time>2012-04-29T11:48:31Z</time>
      </trkpt>
      <trkpt lat="47.23581" lon="6.18322">
        <ele>456.76354980469</ele>
        <time>2012-04-29T11:48:34Z</time>
      </trkpt>
      <trkpt lat="47.23559" lon="6.18364">
        <ele>455.80224609375</ele>
        <time>2012-04-29T11:48:42Z</time>
      </trkpt>
      <trkpt lat="47.23543" lon="6.1839">
        <ele>456.76354980469</ele>
        <time>2012-04-29T11:48:49Z</time>
      </trkpt>
      <trkpt lat="47.23539" lon="6.18393">
        <ele>457.24426269531</ele>
        <time>2012-04-29T11:48:51Z</time>
      </trkpt>
      <trkpt lat="47.23532" lon="6.18394">
        <ele>457.72497558594</ele>
        <time>2012-04-29T11:48:55Z</time>
      </trkpt>
      <trkpt lat="47.23531" lon="6.18395">
        <ele>458.20556640625</ele>
        <time>2012-04-29T11:48:56Z</time>
      </trkpt>
      <trkpt lat="47.23521" lon="6.18428">
        <ele>458.68615722656</ele>
        <time>2012-04-29T11:49:00Z</time>
      </trkpt>
      <trkpt lat="47.23507" lon="6.18447">
        <ele>459.16687011719</ele>
        <time>2012-04-29T11:49:05Z</time>
      </trkpt>
      <trkpt lat="47.23499" lon="6.18458">
        <ele>460.60876464844</ele>
        <time>2012-04-29T11:49:08Z</time>
      </trkpt>
      <trkpt lat="47.23495" lon="6.18462">
        <ele>460.12817382812</ele>
        <time>2012-04-29T11:49:09Z</time>
      </trkpt>
      <trkpt lat="47.2348" lon="6.18487">
        <ele>460.60876464844</ele>
        <time>2012-04-29T11:49:14Z</time>
      </trkpt>
      <trkpt lat="47.23467" lon="6.18508">
        <ele>460.60876464844</ele>
        <time>2012-04-29T11:49:18Z</time>
      </trkpt>
      <trkpt lat="47.23447" lon="6.18534">
        <ele>457.72497558594</ele>
        <time>2012-04-29T11:49:23Z</time>
      </trkpt>
      <trkpt lat="47.23412" lon="6.18581">
        <ele>459.16687011719</ele>
        <time>2012-04-29T11:49:33Z</time>
      </trkpt>
      <trkpt lat="47.23409" lon="6.18586">
        <ele>457.24426269531</ele>
        <time>2012-04-29T11:49:35Z</time>
      </trkpt>
      <trkpt lat="47.23409" lon="6.18586">
        <ele>456.76354980469</ele>
        <time>2012-04-29T11:49:36Z</time>
      </trkpt>
      <trkpt lat="47.23367" lon="6.18651">
        <ele>455.32153320312</ele>
        <time>2012-04-29T11:49:44Z</time>
      </trkpt>
      <trkpt lat="47.23344" lon="6.18673">
        <ele>454.36022949219</ele>
        <time>2012-04-29T11:49:48Z</time>
      </trkpt>
      <trkpt lat="47.23326" lon="6.18693">
        <ele>452.91821289062</ele>
        <time>2012-04-29T11:49:51Z</time>
      </trkpt>
      <trkpt lat="47.23317" lon="6.18707">
        <ele>450.99560546875</ele>
        <time>2012-04-29T11:49:53Z</time>
      </trkpt>
      <trkpt lat="47.23294" lon="6.18717">
        <ele>450.03442382812</ele>
        <time>2012-04-29T11:49:58Z</time>
      </trkpt>
      <trkpt lat="47.2329" lon="6.18719">
        <ele>449.5537109375</ele>
        <time>2012-04-29T11:49:59Z</time>
      </trkpt>
      <trkpt lat="47.23268" lon="6.18738">
        <ele>446.18908691406</ele>
        <time>2012-04-29T11:50:04Z</time>
      </trkpt>
      <trkpt lat="47.23262" lon="6.18742">
        <ele>446.66967773438</ele>
        <time>2012-04-29T11:50:05Z</time>
      </trkpt>
      <trkpt lat="47.23237" lon="6.18754">
        <ele>445.22766113281</ele>
        <time>2012-04-29T11:50:09Z</time>
      </trkpt>
      <trkpt lat="47.23196" lon="6.18756">
        <ele>442.82446289062</ele>
        <time>2012-04-29T11:50:14Z</time>
      </trkpt>
      <trkpt lat="47.23183" lon="6.18761">
        <ele>441.38244628906</ele>
        <time>2012-04-29T11:50:16Z</time>
      </trkpt>
      <trkpt lat="47.23167" lon="6.18771">
        <ele>440.42126464844</ele>
        <time>2012-04-29T11:50:19Z</time>
      </trkpt>
      <trkpt lat="47.23141" lon="6.18785">
        <ele>438.01782226562</ele>
        <time>2012-04-29T11:50:23Z</time>
      </trkpt>
      <trkpt lat="47.23123" lon="6.18804">
        <ele>437.05651855469</ele>
        <time>2012-04-29T11:50:25Z</time>
      </trkpt>
      <trkpt lat="47.23105" lon="6.18812">
        <ele>436.57592773438</ele>
        <time>2012-04-29T11:50:27Z</time>
      </trkpt>
      <trkpt lat="47.23077" lon="6.18822">
        <ele>435.61450195312</ele>
        <time>2012-04-29T11:50:31Z</time>
      </trkpt>
      <trkpt lat="47.2305" lon="6.18853">
        <ele>435.61450195312</ele>
        <time>2012-04-29T11:50:37Z</time>
      </trkpt>
      <trkpt lat="47.23044" lon="6.18863">
        <ele>435.61450195312</ele>
        <time>2012-04-29T11:50:39Z</time>
      </trkpt>
      <trkpt lat="47.23027" lon="6.18866">
        <ele>435.61450195312</ele>
        <time>2012-04-29T11:50:43Z</time>
      </trkpt>
      <trkpt lat="47.23014" lon="6.18871">
        <ele>436.09521484375</ele>
        <time>2012-04-29T11:50:46Z</time>
      </trkpt>
      <trkpt lat="47.22997" lon="6.18879">
        <ele>435.13391113281</ele>
        <time>2012-04-29T11:50:51Z</time>
      </trkpt>
      <trkpt lat="47.22984" lon="6.18883">
        <ele>435.13391113281</ele>
        <time>2012-04-29T11:50:55Z</time>
      </trkpt>
      <trkpt lat="47.22973" lon="6.18884">
        <ele>434.17260742188</ele>
        <time>2012-04-29T11:50:59Z</time>
      </trkpt>
      <trkpt lat="47.22958" lon="6.18895">
        <ele>435.61450195312</ele>
        <time>2012-04-29T11:51:05Z</time>
      </trkpt>
      <trkpt lat="47.22947" lon="6.18907">
        <ele>437.05651855469</ele>
        <time>2012-04-29T11:51:10Z</time>
      </trkpt>
      <trkpt lat="47.22936" lon="6.18914">
        <ele>437.05651855469</ele>
        <time>2012-04-29T11:51:14Z</time>
      </trkpt>
      <trkpt lat="47.22927" lon="6.18918">
        <ele>437.537109375</ele>
        <time>2012-04-29T11:51:17Z</time>
      </trkpt>
      <trkpt lat="47.2291" lon="6.18931">
        <ele>436.57592773438</ele>
        <time>2012-04-29T11:51:22Z</time>
      </trkpt>
      <trkpt lat="47.22894" lon="6.18932">
        <ele>436.09521484375</ele>
        <time>2012-04-29T11:51:26Z</time>
      </trkpt>
      <trkpt lat="47.22887" lon="6.18927">
        <ele>435.13391113281</ele>
        <time>2012-04-29T11:51:31Z</time>
      </trkpt>
      <trkpt lat="47.2288" lon="6.18919">
        <ele>434.6533203125</ele>
        <time>2012-04-29T11:51:35Z</time>
      </trkpt>
      <trkpt lat="47.22867" lon="6.18904">
        <ele>435.13391113281</ele>
        <time>2012-04-29T11:51:40Z</time>
      </trkpt>
      <trkpt lat="47.22864" lon="6.18884">
        <ele>434.6533203125</ele>
        <time>2012-04-29T11:51:44Z</time>
      </trkpt>
      <trkpt lat="47.2286" lon="6.18864">
        <ele>433.21130371094</ele>
        <time>2012-04-29T11:51:47Z</time>
      </trkpt>
      <trkpt lat="47.2285" lon="6.18814">
        <ele>433.21130371094</ele>
        <time>2012-04-29T11:51:51Z</time>
      </trkpt>
      <trkpt lat="47.22839" lon="6.18768">
        <ele>434.17260742188</ele>
        <time>2012-04-29T11:51:57Z</time>
      </trkpt>
      <trkpt lat="47.22824" lon="6.1873">
        <ele>434.6533203125</ele>
        <time>2012-04-29T11:52:02Z</time>
      </trkpt>
      <trkpt lat="47.22818" lon="6.18718">
        <ele>435.61450195312</ele>
        <time>2012-04-29T11:52:06Z</time>
      </trkpt>
      <trkpt lat="47.22816" lon="6.18708">
        <ele>435.13391113281</ele>
        <time>2012-04-29T11:52:30Z</time>
      </trkpt>
      <trkpt lat="47.22821" lon="6.18701">
        <ele>435.61450195312</ele>
        <time>2012-04-29T11:52:43Z</time>
      </trkpt>
      <trkpt lat="47.22817" lon="6.18697">
        <ele>435.61450195312</ele>
        <time>2012-04-29T11:52:51Z</time>
      </trkpt>
      <trkpt lat="47.22808" lon="6.18699">
        <ele>436.09521484375</ele>
        <time>2012-04-29T11:53:00Z</time>
      </trkpt>
      <trkpt lat="47.22804" lon="6.18691">
        <ele>436.09521484375</ele>
        <time>2012-04-29T11:53:06Z</time>
      </trkpt>
      <trkpt lat="47.22802" lon="6.18687">
        <ele>437.05651855469</ele>
        <time>2012-04-29T11:53:11Z</time>
      </trkpt>
      <trkpt lat="47.22809" lon="6.18685">
        <ele>436.09521484375</ele>
        <time>2012-04-29T11:53:22Z</time>
      </trkpt>
      <trkpt lat="47.22799" lon="6.18676">
        <ele>437.537109375</ele>
        <time>2012-04-29T11:53:44Z</time>
      </trkpt>
      <trkpt lat="47.22791" lon="6.18665">
        <ele>438.01782226562</ele>
        <time>2012-04-29T11:53:49Z</time>
      </trkpt>
      <trkpt lat="47.22779" lon="6.1865">
        <ele>437.537109375</ele>
        <time>2012-04-29T11:53:55Z</time>
      </trkpt>
      <trkpt lat="47.22767" lon="6.18635">
        <ele>437.05651855469</ele>
        <time>2012-04-29T11:54:02Z</time>
      </trkpt>
      <trkpt lat="47.22758" lon="6.18622">
        <ele>437.537109375</ele>
        <time>2012-04-29T11:54:06Z</time>
      </trkpt>
      <trkpt lat="47.22741" lon="6.18601">
        <ele>437.537109375</ele>
        <time>2012-04-29T11:54:11Z</time>
      </trkpt>
      <trkpt lat="47.22725" lon="6.18582">
        <ele>438.01782226562</ele>
        <time>2012-04-29T11:54:17Z</time>
      </trkpt>
      <trkpt lat="47.22715" lon="6.18574">
        <ele>437.537109375</ele>
        <time>2012-04-29T11:54:21Z</time>
      </trkpt>
      <trkpt lat="47.22703" lon="6.18559">
        <ele>437.537109375</ele>
        <time>2012-04-29T11:54:25Z</time>
      </trkpt>
      <trkpt lat="47.22694" lon="6.18545">
        <ele>437.537109375</ele>
        <time>2012-04-29T11:54:29Z</time>
      </trkpt>
      <trkpt lat="47.22687" lon="6.18537">
        <ele>436.57592773438</ele>
        <time>2012-04-29T11:54:34Z</time>
      </trkpt>
      <trkpt lat="47.22686" lon="6.18535">
        <ele>436.57592773438</ele>
        <time>2012-04-29T11:54:35Z</time>
      </trkpt>
      <trkpt lat="47.22673" lon="6.18517">
        <ele>437.537109375</ele>
        <time>2012-04-29T11:54:43Z</time>
      </trkpt>
      <trkpt lat="47.22655" lon="6.18493">
        <ele>435.61450195312</ele>
        <time>2012-04-29T11:54:48Z</time>
      </trkpt>
      <trkpt lat="47.22639" lon="6.18474">
        <ele>436.09521484375</ele>
        <time>2012-04-29T11:54:52Z</time>
      </trkpt>
      <trkpt lat="47.22628" lon="6.18454">
        <ele>436.57592773438</ele>
        <time>2012-04-29T11:54:57Z</time>
      </trkpt>
      <trkpt lat="47.22625" lon="6.1845">
        <ele>437.05651855469</ele>
        <time>2012-04-29T11:54:58Z</time>
      </trkpt>
      <trkpt lat="47.2262" lon="6.18442">
        <ele>438.01782226562</ele>
        <time>2012-04-29T11:55:00Z</time>
      </trkpt>
      <trkpt lat="47.22606" lon="6.18423">
        <ele>437.537109375</ele>
        <time>2012-04-29T11:55:05Z</time>
      </trkpt>
      <trkpt lat="47.22588" lon="6.18401">
        <ele>437.05651855469</ele>
        <time>2012-04-29T11:55:11Z</time>
      </trkpt>
      <trkpt lat="47.22572" lon="6.18383">
        <ele>436.09521484375</ele>
        <time>2012-04-29T11:55:16Z</time>
      </trkpt>
      <trkpt lat="47.22562" lon="6.18372">
        <ele>436.09521484375</ele>
        <time>2012-04-29T11:55:20Z</time>
      </trkpt>
      <trkpt lat="47.22548" lon="6.1836">
        <ele>437.05651855469</ele>
        <time>2012-04-29T11:55:26Z</time>
      </trkpt>
      <trkpt lat="47.22539" lon="6.18345">
        <ele>437.05651855469</ele>
        <time>2012-04-29T11:55:30Z</time>
      </trkpt>
      <trkpt lat="47.22536" lon="6.18341">
        <ele>438.01782226562</ele>
        <time>2012-04-29T11:55:31Z</time>
      </trkpt>
      <trkpt lat="47.2252" lon="6.18313">
        <ele>438.49853515625</ele>
        <time>2012-04-29T11:55:37Z</time>
      </trkpt>
      <trkpt lat="47.22515" lon="6.18304">
        <ele>437.05651855469</ele>
        <time>2012-04-29T11:55:39Z</time>
      </trkpt>
      <trkpt lat="47.22502" lon="6.18283">
        <ele>436.57592773438</ele>
        <time>2012-04-29T11:55:44Z</time>
      </trkpt>
      <trkpt lat="47.22501" lon="6.18264">
        <ele>437.537109375</ele>
        <time>2012-04-29T11:55:49Z</time>
      </trkpt>
      <trkpt lat="47.22502" lon="6.18261">
        <ele>437.05651855469</ele>
        <time>2012-04-29T11:55:51Z</time>
      </trkpt>
      <trkpt lat="47.22511" lon="6.18244">
        <ele>437.537109375</ele>
        <time>2012-04-29T11:55:57Z</time>
      </trkpt>
      <trkpt lat="47.22515" lon="6.18226">
        <ele>435.61450195312</ele>
        <time>2012-04-29T11:56:02Z</time>
      </trkpt>
      <trkpt lat="47.22521" lon="6.18219">
        <ele>435.13391113281</ele>
        <time>2012-04-29T11:56:04Z</time>
      </trkpt>
      <trkpt lat="47.22532" lon="6.18202">
        <ele>436.57592773438</ele>
        <time>2012-04-29T11:56:08Z</time>
      </trkpt>
      <trkpt lat="47.22557" lon="6.18173">
        <ele>437.537109375</ele>
        <time>2012-04-29T11:56:13Z</time>
      </trkpt>
      <trkpt lat="47.22575" lon="6.18151">
        <ele>437.537109375</ele>
        <time>2012-04-29T11:56:17Z</time>
      </trkpt>
      <trkpt lat="47.22587" lon="6.18138">
        <ele>437.537109375</ele>
        <time>2012-04-29T11:56:21Z</time>
      </trkpt>
      <trkpt lat="47.22594" lon="6.18126">
        <ele>438.97912597656</ele>
        <time>2012-04-29T11:56:25Z</time>
      </trkpt>
      <trkpt lat="47.22602" lon="6.18114">
        <ele>438.97912597656</ele>
        <time>2012-04-29T11:56:32Z</time>
      </trkpt>
      <trkpt lat="47.22603" lon="6.18111">
        <ele>439.9404296875</ele>
        <time>2012-04-29T11:56:33Z</time>
      </trkpt>
      <trkpt lat="47.22618" lon="6.181">
        <ele>439.9404296875</ele>
        <time>2012-04-29T11:56:37Z</time>
      </trkpt>
      <trkpt lat="47.22639" lon="6.18083">
        <ele>441.38244628906</ele>
        <time>2012-04-29T11:56:43Z</time>
      </trkpt>
      <trkpt lat="47.22655" lon="6.18068">
        <ele>442.34387207031</ele>
        <time>2012-04-29T11:56:49Z</time>
      </trkpt>
      <trkpt lat="47.22674" lon="6.18051">
        <ele>442.34387207031</ele>
        <time>2012-04-29T11:56:55Z</time>
      </trkpt>
      <trkpt lat="47.22698" lon="6.18032">
        <ele>443.78576660156</ele>
        <time>2012-04-29T11:57:03Z</time>
      </trkpt>
      <trkpt lat="47.22706" lon="6.18022">
        <ele>444.26647949219</ele>
        <time>2012-04-29T11:57:09Z</time>
      </trkpt>
      <trkpt lat="47.22713" lon="6.1801">
        <ele>446.18908691406</ele>
        <time>2012-04-29T11:57:17Z</time>
      </trkpt>
      <trkpt lat="47.22722" lon="6.17999">
        <ele>446.18908691406</ele>
        <time>2012-04-29T11:57:23Z</time>
      </trkpt>
      <trkpt lat="47.22723" lon="6.17998">
        <ele>446.18908691406</ele>
        <time>2012-04-29T11:57:24Z</time>
      </trkpt>
      <trkpt lat="47.22729" lon="6.17992">
        <ele>447.63098144531</ele>
        <time>2012-04-29T11:57:30Z</time>
      </trkpt>
      <trkpt lat="47.22735" lon="6.17983">
        <ele>448.59240722656</ele>
        <time>2012-04-29T11:57:35Z</time>
      </trkpt>
      <trkpt lat="47.22745" lon="6.17969">
        <ele>450.99560546875</ele>
        <time>2012-04-29T11:57:42Z</time>
      </trkpt>
      <trkpt lat="47.22753" lon="6.17959">
        <ele>452.91821289062</ele>
        <time>2012-04-29T11:57:49Z</time>
      </trkpt>
      <trkpt lat="47.2276" lon="6.17953">
        <ele>453.87963867188</ele>
        <time>2012-04-29T11:57:56Z</time>
      </trkpt>
      <trkpt lat="47.22765" lon="6.17947">
        <ele>454.8408203125</ele>
        <time>2012-04-29T11:58:02Z</time>
      </trkpt>
      <trkpt lat="47.22771" lon="6.17943">
        <ele>455.32153320312</ele>
        <time>2012-04-29T11:58:06Z</time>
      </trkpt>
      <trkpt lat="47.22772" lon="6.17942">
        <ele>455.80224609375</ele>
        <time>2012-04-29T11:58:07Z</time>
      </trkpt>
      <trkpt lat="47.22779" lon="6.17935">
        <ele>456.28295898438</ele>
        <time>2012-04-29T11:58:13Z</time>
      </trkpt>
      <trkpt lat="47.2279" lon="6.17921">
        <ele>457.72497558594</ele>
        <time>2012-04-29T11:58:25Z</time>
      </trkpt>
      <trkpt lat="47.22797" lon="6.17912">
        <ele>459.64758300781</ele>
        <time>2012-04-29T11:58:32Z</time>
      </trkpt>
      <trkpt lat="47.228" lon="6.17908">
        <ele>461.08947753906</ele>
        <time>2012-04-29T11:58:38Z</time>
      </trkpt>
      <trkpt lat="47.22805" lon="6.17899">
        <ele>462.05078125</ele>
        <time>2012-04-29T11:58:45Z</time>
      </trkpt>
      <trkpt lat="47.22815" lon="6.17893">
        <ele>462.53137207031</ele>
        <time>2012-04-29T11:58:51Z</time>
      </trkpt>
      <trkpt lat="47.22823" lon="6.17886">
        <ele>463.97338867188</ele>
        <time>2012-04-29T11:58:57Z</time>
      </trkpt>
      <trkpt lat="47.2283" lon="6.17874">
        <ele>464.93481445312</ele>
        <time>2012-04-29T11:59:05Z</time>
      </trkpt>
      <trkpt lat="47.22833" lon="6.17869">
        <ele>465.41552734375</ele>
        <time>2012-04-29T11:59:09Z</time>
      </trkpt>
      <trkpt lat="47.22834" lon="6.17867">
        <ele>465.89611816406</ele>
        <time>2012-04-29T11:59:11Z</time>
      </trkpt>
      <trkpt lat="47.22839" lon="6.17859">
        <ele>466.37670898438</ele>
        <time>2012-04-29T11:59:17Z</time>
      </trkpt>
      <trkpt lat="47.22852" lon="6.17856">
        <ele>466.37670898438</ele>
        <time>2012-04-29T11:59:23Z</time>
      </trkpt>
      <trkpt lat="47.2286" lon="6.1787">
        <ele>465.89611816406</ele>
        <time>2012-04-29T11:59:27Z</time>
      </trkpt>
      <trkpt lat="47.22864" lon="6.17876">
        <ele>464.4541015625</ele>
        <time>2012-04-29T11:59:29Z</time>
      </trkpt>
      <trkpt lat="47.22871" lon="6.17876">
        <ele>464.93481445312</ele>
        <time>2012-04-29T11:59:32Z</time>
      </trkpt>
      <trkpt lat="47.22883" lon="6.17864">
        <ele>463.97338867188</ele>
        <time>2012-04-29T11:59:37Z</time>
      </trkpt>
      <trkpt lat="47.22899" lon="6.17842">
        <ele>462.53137207031</ele>
        <time>2012-04-29T11:59:43Z</time>
      </trkpt>
      <trkpt lat="47.22905" lon="6.17834">
        <ele>460.60876464844</ele>
        <time>2012-04-29T11:59:45Z</time>
      </trkpt>
      <trkpt lat="47.22916" lon="6.17822">
        <ele>456.28295898438</ele>
        <time>2012-04-29T11:59:48Z</time>
      </trkpt>
      <trkpt lat="47.22924" lon="6.17814">
        <ele>455.80224609375</ele>
        <time>2012-04-29T11:59:50Z</time>
      </trkpt>
      <trkpt lat="47.22932" lon="6.17806">
        <ele>455.32153320312</ele>
        <time>2012-04-29T11:59:52Z</time>
      </trkpt>
      <trkpt lat="47.22942" lon="6.17794">
        <ele>453.87963867188</ele>
        <time>2012-04-29T11:59:54Z</time>
      </trkpt>
      <trkpt lat="47.22952" lon="6.17781">
        <ele>451.95703125</ele>
        <time>2012-04-29T11:59:56Z</time>
      </trkpt>
      <trkpt lat="47.22968" lon="6.17767">
        <ele>449.07299804688</ele>
        <time>2012-04-29T11:59:59Z</time>
      </trkpt>
      <trkpt lat="47.22981" lon="6.17752">
        <ele>446.66967773438</ele>
        <time>2012-04-29T12:00:01Z</time>
      </trkpt>
      <trkpt lat="47.22991" lon="6.17743">
        <ele>445.70837402344</ele>
        <time>2012-04-29T12:00:02Z</time>
      </trkpt>
      <trkpt lat="47.23033" lon="6.17705">
        <ele>439.9404296875</ele>
        <time>2012-04-29T12:00:07Z</time>
      </trkpt>
      <trkpt lat="47.23069" lon="6.17676">
        <ele>435.61450195312</ele>
        <time>2012-04-29T12:00:10Z</time>
      </trkpt>
      <trkpt lat="47.23105" lon="6.17644">
        <ele>434.17260742188</ele>
        <time>2012-04-29T12:00:13Z</time>
      </trkpt>
      <trkpt lat="47.23128" lon="6.17622">
        <ele>433.21130371094</ele>
        <time>2012-04-29T12:00:15Z</time>
      </trkpt>
      <trkpt lat="47.23146" lon="6.17607">
        <ele>432.25</ele>
        <time>2012-04-29T12:00:17Z</time>
      </trkpt>
      <trkpt lat="47.23161" lon="6.17593">
        <ele>429.36596679688</ele>
        <time>2012-04-29T12:00:19Z</time>
      </trkpt>
      <trkpt lat="47.23187" lon="6.1757">
        <ele>426.96276855469</ele>
        <time>2012-04-29T12:00:22Z</time>
      </trkpt>
      <trkpt lat="47.23204" lon="6.17527">
        <ele>426.96276855469</ele>
        <time>2012-04-29T12:00:28Z</time>
      </trkpt>
      <trkpt lat="47.23201" lon="6.1751">
        <ele>426.48205566406</ele>
        <time>2012-04-29T12:00:30Z</time>
      </trkpt>
      <trkpt lat="47.23196" lon="6.17472">
        <ele>425.04016113281</ele>
        <time>2012-04-29T12:00:34Z</time>
      </trkpt>
      <trkpt lat="47.23188" lon="6.17417">
        <ele>424.55944824219</ele>
        <time>2012-04-29T12:00:39Z</time>
      </trkpt>
      <trkpt lat="47.23179" lon="6.17391">
        <ele>424.07873535156</ele>
        <time>2012-04-29T12:00:42Z</time>
      </trkpt>
      <trkpt lat="47.23174" lon="6.17376">
        <ele>424.07873535156</ele>
        <time>2012-04-29T12:00:44Z</time>
      </trkpt>
      <trkpt lat="47.23156" lon="6.17334">
        <ele>424.07873535156</ele>
        <time>2012-04-29T12:00:49Z</time>
      </trkpt>
      <trkpt lat="47.23143" lon="6.17308">
        <ele>424.07873535156</ele>
        <time>2012-04-29T12:00:52Z</time>
      </trkpt>
      <trkpt lat="47.23123" lon="6.17266">
        <ele>425.04016113281</ele>
        <time>2012-04-29T12:00:57Z</time>
      </trkpt>
      <trkpt lat="47.23119" lon="6.17249">
        <ele>425.04016113281</ele>
        <time>2012-04-29T12:00:59Z</time>
      </trkpt>
      <trkpt lat="47.23119" lon="6.17201">
        <ele>425.52075195312</ele>
        <time>2012-04-29T12:01:04Z</time>
      </trkpt>
      <trkpt lat="47.23142" lon="6.17042">
        <ele>425.04016113281</ele>
        <time>2012-04-29T12:01:15Z</time>
      </trkpt>
      <trkpt lat="47.23158" lon="6.17006">
        <ele>425.04016113281</ele>
        <time>2012-04-29T12:01:19Z</time>
      </trkpt>
      <trkpt lat="47.23163" lon="6.16986">
        <ele>425.04016113281</ele>
        <time>2012-04-29T12:01:21Z</time>
      </trkpt>
      <trkpt lat="47.23166" lon="6.16977">
        <ele>425.04016113281</ele>
        <time>2012-04-29T12:01:23Z</time>
      </trkpt>
      <trkpt lat="47.23167" lon="6.16945">
        <ele>425.52075195312</ele>
        <time>2012-04-29T12:01:30Z</time>
      </trkpt>
      <trkpt lat="47.23166" lon="6.16932">
        <ele>426.00134277344</ele>
        <time>2012-04-29T12:01:32Z</time>
      </trkpt>
      <trkpt lat="47.23174" lon="6.16922">
        <ele>426.48205566406</ele>
        <time>2012-04-29T12:01:35Z</time>
      </trkpt>
      <trkpt lat="47.2319" lon="6.16859">
        <ele>429.84655761719</ele>
        <time>2012-04-29T12:01:45Z</time>
      </trkpt>
      <trkpt lat="47.23192" lon="6.16852">
        <ele>429.36596679688</ele>
        <time>2012-04-29T12:01:46Z</time>
      </trkpt>
      <trkpt lat="47.23202" lon="6.16813">
        <ele>431.76916503906</ele>
        <time>2012-04-29T12:01:49Z</time>
      </trkpt>
      <trkpt lat="47.23211" lon="6.1677">
        <ele>433.21130371094</ele>
        <time>2012-04-29T12:01:54Z</time>
      </trkpt>
      <trkpt lat="47.2322" lon="6.16745">
        <ele>432.73071289062</ele>
        <time>2012-04-29T12:01:58Z</time>
      </trkpt>
      <trkpt lat="47.23229" lon="6.16759">
        <ele>433.21130371094</ele>
        <time>2012-04-29T12:02:03Z</time>
      </trkpt>
      <trkpt lat="47.23232" lon="6.16767">
        <ele>433.21130371094</ele>
        <time>2012-04-29T12:02:06Z</time>
      </trkpt>
      <trkpt lat="47.23235" lon="6.16779">
        <ele>432.73071289062</ele>
        <time>2012-04-29T12:02:11Z</time>
      </trkpt>
      <trkpt lat="47.23241" lon="6.16838">
        <ele>432.73071289062</ele>
        <time>2012-04-29T12:03:14Z</time>
      </trkpt>
      <trkpt lat="47.23241" lon="6.16814">
        <ele>434.17260742188</ele>
        <time>2012-04-29T12:03:18Z</time>
      </trkpt>
      <trkpt lat="47.2324" lon="6.16809">
        <ele>434.17260742188</ele>
        <time>2012-04-29T12:03:23Z</time>
      </trkpt>
      <trkpt lat="47.23202" lon="6.16857">
        <ele>437.05651855469</ele>
        <time>2012-04-29T12:04:12Z</time>
      </trkpt>
      <trkpt lat="47.23261" lon="6.16795">
        <ele>434.6533203125</ele>
        <time>2012-04-29T12:04:59Z</time>
      </trkpt>
      <trkpt lat="47.23281" lon="6.16766">
        <ele>434.17260742188</ele>
        <time>2012-04-29T12:05:05Z</time>
      </trkpt>
      <trkpt lat="47.23297" lon="6.16733">
        <ele>430.80798339844</ele>
        <time>2012-04-29T12:05:30Z</time>
      </trkpt>
      <trkpt lat="47.23314" lon="6.16529">
        <ele>432.25</ele>
        <time>2012-04-29T12:06:09Z</time>
      </trkpt>
      <trkpt lat="47.23129" lon="6.16351">
        <ele>429.36596679688</ele>
        <time>2012-04-29T12:06:30Z</time>
      </trkpt>
      <trkpt lat="47.23068" lon="6.16306">
        <ele>432.73071289062</ele>
        <time>2012-04-29T12:06:46Z</time>
      </trkpt>
      <trkpt lat="47.22961" lon="6.16222">
        <ele>434.17260742188</ele>
        <time>2012-04-29T12:07:24Z</time>
      </trkpt>
      <trkpt lat="47.22944" lon="6.16194">
        <ele>435.13391113281</ele>
        <time>2012-04-29T12:07:28Z</time>
      </trkpt>
      <trkpt lat="47.22921" lon="6.16176">
        <ele>435.13391113281</ele>
        <time>2012-04-29T12:07:34Z</time>
      </trkpt>
      <trkpt lat="47.22904" lon="6.16142">
        <ele>434.17260742188</ele>
        <time>2012-04-29T12:07:39Z</time>
      </trkpt>
      <trkpt lat="47.22891" lon="6.1611">
        <ele>433.21130371094</ele>
        <time>2012-04-29T12:07:44Z</time>
      </trkpt>
      <trkpt lat="47.22884" lon="6.16063">
        <ele>433.21130371094</ele>
        <time>2012-04-29T12:07:49Z</time>
      </trkpt>
      <trkpt lat="47.22884" lon="6.16045">
        <ele>433.69189453125</ele>
        <time>2012-04-29T12:07:53Z</time>
      </trkpt>
      <trkpt lat="47.22868" lon="6.16042">
        <ele>433.69189453125</ele>
        <time>2012-04-29T12:07:58Z</time>
      </trkpt>
      <trkpt lat="47.22865" lon="6.16043">
        <ele>434.17260742188</ele>
        <time>2012-04-29T12:07:59Z</time>
      </trkpt>
      <trkpt lat="47.22857" lon="6.16043">
        <ele>433.69189453125</ele>
        <time>2012-04-29T12:08:01Z</time>
      </trkpt>
      <trkpt lat="47.22844" lon="6.16045">
        <ele>434.6533203125</ele>
        <time>2012-04-29T12:08:05Z</time>
      </trkpt>
      <trkpt lat="47.22784" lon="6.1606">
        <ele>437.05651855469</ele>
        <time>2012-04-29T12:08:23Z</time>
      </trkpt>
      <trkpt lat="47.22754" lon="6.1605">
        <ele>438.49853515625</ele>
        <time>2012-04-29T12:08:34Z</time>
      </trkpt>
      <trkpt lat="47.2274" lon="6.16028">
        <ele>438.97912597656</ele>
        <time>2012-04-29T12:08:40Z</time>
      </trkpt>
      <trkpt lat="47.22725" lon="6.16019">
        <ele>439.9404296875</ele>
        <time>2012-04-29T12:08:45Z</time>
      </trkpt>
      <trkpt lat="47.2272" lon="6.1601">
        <ele>439.45971679688</ele>
        <time>2012-04-29T12:08:47Z</time>
      </trkpt>
      <trkpt lat="47.22707" lon="6.15976">
        <ele>439.45971679688</ele>
        <time>2012-04-29T12:08:52Z</time>
      </trkpt>
      <trkpt lat="47.22699" lon="6.1596">
        <ele>438.97912597656</ele>
        <time>2012-04-29T12:08:56Z</time>
      </trkpt>
      <trkpt lat="47.2268" lon="6.15951">
        <ele>439.9404296875</ele>
        <time>2012-04-29T12:09:03Z</time>
      </trkpt>
      <trkpt lat="47.22675" lon="6.15949">
        <ele>439.9404296875</ele>
        <time>2012-04-29T12:09:06Z</time>
      </trkpt>
      <trkpt lat="47.22657" lon="6.15938">
        <ele>439.9404296875</ele>
        <time>2012-04-29T12:09:13Z</time>
      </trkpt>
      <trkpt lat="47.22645" lon="6.1593">
        <ele>440.90185546875</ele>
        <time>2012-04-29T12:09:17Z</time>
      </trkpt>
      <trkpt lat="47.2256" lon="6.15868">
        <ele>444.26647949219</ele>
        <time>2012-04-29T12:09:45Z</time>
      </trkpt>
      <trkpt lat="47.22459" lon="6.15797">
        <ele>446.18908691406</ele>
        <time>2012-04-29T12:10:25Z</time>
      </trkpt>
      <trkpt lat="47.22448" lon="6.15789">
        <ele>446.66967773438</ele>
        <time>2012-04-29T12:10:30Z</time>
      </trkpt>
      <trkpt lat="47.22437" lon="6.15782">
        <ele>448.11181640625</ele>
        <time>2012-04-29T12:10:34Z</time>
      </trkpt>
      <trkpt lat="47.22422" lon="6.15769">
        <ele>448.11181640625</ele>
        <time>2012-04-29T12:10:40Z</time>
      </trkpt>
      <trkpt lat="47.22413" lon="6.15763">
        <ele>449.07299804688</ele>
        <time>2012-04-29T12:10:43Z</time>
      </trkpt>
      <trkpt lat="47.22398" lon="6.15754">
        <ele>449.07299804688</ele>
        <time>2012-04-29T12:10:48Z</time>
      </trkpt>
      <trkpt lat="47.22381" lon="6.15746">
        <ele>449.5537109375</ele>
        <time>2012-04-29T12:10:53Z</time>
      </trkpt>
      <trkpt lat="47.2237" lon="6.15737">
        <ele>450.03442382812</ele>
        <time>2012-04-29T12:10:57Z</time>
      </trkpt>
      <trkpt lat="47.22357" lon="6.15725">
        <ele>450.51501464844</ele>
        <time>2012-04-29T12:11:02Z</time>
      </trkpt>
      <trkpt lat="47.2234" lon="6.15712">
        <ele>451.47631835938</ele>
        <time>2012-04-29T12:11:08Z</time>
      </trkpt>
      <trkpt lat="47.22323" lon="6.15697">
        <ele>452.43762207031</ele>
        <time>2012-04-29T12:11:14Z</time>
      </trkpt>
      <trkpt lat="47.22268" lon="6.15638">
        <ele>452.91821289062</ele>
        <time>2012-04-29T12:11:32Z</time>
      </trkpt>
      <trkpt lat="47.22255" lon="6.15629">
        <ele>453.39892578125</ele>
        <time>2012-04-29T12:11:35Z</time>
      </trkpt>
      <trkpt lat="47.22224" lon="6.15605">
        <ele>451.47631835938</ele>
        <time>2012-04-29T12:11:43Z</time>
      </trkpt>
      <trkpt lat="47.22201" lon="6.15584">
        <ele>449.07299804688</ele>
        <time>2012-04-29T12:11:48Z</time>
      </trkpt>
      <trkpt lat="47.22192" lon="6.15577">
        <ele>448.11181640625</ele>
        <time>2012-04-29T12:11:50Z</time>
      </trkpt>
      <trkpt lat="47.22183" lon="6.15558">
        <ele>447.63098144531</ele>
        <time>2012-04-29T12:11:54Z</time>
      </trkpt>
      <trkpt lat="47.22188" lon="6.15523">
        <ele>450.99560546875</ele>
        <time>2012-04-29T12:12:02Z</time>
      </trkpt>
      <trkpt lat="47.22237" lon="6.15324">
        <ele>450.99560546875</ele>
        <time>2012-04-29T12:12:45Z</time>
      </trkpt>
      <trkpt lat="47.22286" lon="6.15179">
        <ele>448.11181640625</ele>
        <time>2012-04-29T12:12:58Z</time>
      </trkpt>
      <trkpt lat="47.22308" lon="6.15122">
        <ele>444.26647949219</ele>
        <time>2012-04-29T12:13:10Z</time>
      </trkpt>
      <trkpt lat="47.22308" lon="6.15122">
        <ele>444.26647949219</ele>
        <time>2012-04-29T12:13:11Z</time>
      </trkpt>
      <trkpt lat="47.22308" lon="6.15122">
        <ele>447.63098144531</ele>
        <time>2012-04-29T12:13:29Z</time>
      </trkpt>
      <trkpt lat="47.22359" lon="6.14798">
        <ele>449.07299804688</ele>
        <time>2012-04-29T12:13:38Z</time>
      </trkpt>
      <trkpt lat="47.22363" lon="6.14779">
        <ele>449.07299804688</ele>
        <time>2012-04-29T12:13:39Z</time>
      </trkpt>
      <trkpt lat="47.22349" lon="6.14846">
        <ele>448.59240722656</ele>
        <time>2012-04-29T12:13:42Z</time>
      </trkpt>
      <trkpt lat="47.22348" lon="6.14845">
        <ele>448.59240722656</ele>
        <time>2012-04-29T12:13:43Z</time>
      </trkpt>
      <trkpt lat="47.2233" lon="6.14841">
        <ele>447.15026855469</ele>
        <time>2012-04-29T12:13:47Z</time>
      </trkpt>
      <trkpt lat="47.223" lon="6.14817">
        <ele>445.22766113281</ele>
        <time>2012-04-29T12:13:52Z</time>
      </trkpt>
      <trkpt lat="47.22273" lon="6.14799">
        <ele>441.86315917969</ele>
        <time>2012-04-29T12:13:57Z</time>
      </trkpt>
      <trkpt lat="47.22222" lon="6.14768">
        <ele>445.22766113281</ele>
        <time>2012-04-29T12:14:06Z</time>
      </trkpt>
      <trkpt lat="47.22176" lon="6.1476">
        <ele>448.59240722656</ele>
        <time>2012-04-29T12:14:16Z</time>
      </trkpt>
      <trkpt lat="47.22158" lon="6.14741">
        <ele>448.59240722656</ele>
        <time>2012-04-29T12:14:28Z</time>
      </trkpt>
      <trkpt lat="47.2214" lon="6.14727">
        <ele>447.15026855469</ele>
        <time>2012-04-29T12:14:34Z</time>
      </trkpt>
      <trkpt lat="47.2213" lon="6.14728">
        <ele>447.63098144531</ele>
        <time>2012-04-29T12:14:36Z</time>
      </trkpt>
      <trkpt lat="47.22106" lon="6.14712">
        <ele>448.59240722656</ele>
        <time>2012-04-29T12:14:42Z</time>
      </trkpt>
      <trkpt lat="47.22105" lon="6.14696">
        <ele>448.59240722656</ele>
        <time>2012-04-29T12:14:45Z</time>
      </trkpt>
      <trkpt lat="47.22101" lon="6.14672">
        <ele>449.5537109375</ele>
        <time>2012-04-29T12:14:50Z</time>
      </trkpt>
      <trkpt lat="47.22094" lon="6.14656">
        <ele>449.07299804688</ele>
        <time>2012-04-29T12:14:53Z</time>
      </trkpt>
      <trkpt lat="47.2207" lon="6.14574">
        <ele>450.99560546875</ele>
        <time>2012-04-29T12:15:10Z</time>
      </trkpt>
      <trkpt lat="47.22064" lon="6.1453">
        <ele>454.8408203125</ele>
        <time>2012-04-29T12:15:25Z</time>
      </trkpt>
      <trkpt lat="47.22061" lon="6.14523">
        <ele>454.36022949219</ele>
        <time>2012-04-29T12:15:28Z</time>
      </trkpt>
      <trkpt lat="47.22053" lon="6.14508">
        <ele>454.36022949219</ele>
        <time>2012-04-29T12:15:32Z</time>
      </trkpt>
      <trkpt lat="47.22049" lon="6.14481">
        <ele>454.8408203125</ele>
        <time>2012-04-29T12:15:38Z</time>
      </trkpt>
      <trkpt lat="47.22048" lon="6.14477">
        <ele>454.36022949219</ele>
        <time>2012-04-29T12:15:39Z</time>
      </trkpt>
      <trkpt lat="47.22047" lon="6.14458">
        <ele>454.36022949219</ele>
        <time>2012-04-29T12:15:42Z</time>
      </trkpt>
      <trkpt lat="47.22044" lon="6.14424">
        <ele>453.87963867188</ele>
        <time>2012-04-29T12:15:47Z</time>
      </trkpt>
      <trkpt lat="47.22039" lon="6.14396">
        <ele>453.39892578125</ele>
        <time>2012-04-29T12:15:53Z</time>
      </trkpt>
      <trkpt lat="47.22041" lon="6.14392">
        <ele>452.91821289062</ele>
        <time>2012-04-29T12:15:54Z</time>
      </trkpt>
      <trkpt lat="47.22036" lon="6.14367">
        <ele>452.91821289062</ele>
        <time>2012-04-29T12:15:59Z</time>
      </trkpt>
      <trkpt lat="47.22028" lon="6.14341">
        <ele>452.91821289062</ele>
        <time>2012-04-29T12:16:04Z</time>
      </trkpt>
      <trkpt lat="47.22028" lon="6.14325">
        <ele>452.91821289062</ele>
        <time>2012-04-29T12:16:06Z</time>
      </trkpt>
      <trkpt lat="47.22028" lon="6.14296">
        <ele>453.87963867188</ele>
        <time>2012-04-29T12:16:10Z</time>
      </trkpt>
      <trkpt lat="47.2202" lon="6.14267">
        <ele>454.36022949219</ele>
        <time>2012-04-29T12:16:15Z</time>
      </trkpt>
      <trkpt lat="47.22009" lon="6.14251">
        <ele>454.8408203125</ele>
        <time>2012-04-29T12:16:19Z</time>
      </trkpt>
      <trkpt lat="47.21991" lon="6.14257">
        <ele>452.91821289062</ele>
        <time>2012-04-29T12:16:24Z</time>
      </trkpt>
      <trkpt lat="47.21985" lon="6.1426">
        <ele>452.91821289062</ele>
        <time>2012-04-29T12:16:25Z</time>
      </trkpt>
      <trkpt lat="47.21952" lon="6.14275">
        <ele>450.51501464844</ele>
        <time>2012-04-29T12:16:31Z</time>
      </trkpt>
      <trkpt lat="47.21941" lon="6.14279">
        <ele>450.03442382812</ele>
        <time>2012-04-29T12:16:33Z</time>
      </trkpt>
      <trkpt lat="47.2193" lon="6.14283">
        <ele>449.07299804688</ele>
        <time>2012-04-29T12:16:35Z</time>
      </trkpt>
      <trkpt lat="47.2182" lon="6.14348">
        <ele>447.63098144531</ele>
        <time>2012-04-29T12:16:49Z</time>
      </trkpt>
      <trkpt lat="47.21802" lon="6.14361">
        <ele>448.11181640625</ele>
        <time>2012-04-29T12:16:54Z</time>
      </trkpt>
      <trkpt lat="47.21777" lon="6.14367">
        <ele>446.66967773438</ele>
        <time>2012-04-29T12:16:59Z</time>
      </trkpt>
      <trkpt lat="47.2177" lon="6.1437">
        <ele>447.15026855469</ele>
        <time>2012-04-29T12:17:00Z</time>
      </trkpt>
      <trkpt lat="47.21753" lon="6.14376">
        <ele>446.18908691406</ele>
        <time>2012-04-29T12:17:03Z</time>
      </trkpt>
      <trkpt lat="47.21745" lon="6.14381">
        <ele>445.22766113281</ele>
        <time>2012-04-29T12:17:05Z</time>
      </trkpt>
      <trkpt lat="47.21738" lon="6.14385">
        <ele>444.26647949219</ele>
        <time>2012-04-29T12:17:07Z</time>
      </trkpt>
      <trkpt lat="47.21736" lon="6.14383">
        <ele>443.30505371094</ele>
        <time>2012-04-29T12:17:09Z</time>
      </trkpt>
      <trkpt lat="47.21727" lon="6.14365">
        <ele>444.26647949219</ele>
        <time>2012-04-29T12:17:15Z</time>
      </trkpt>
      <trkpt lat="47.21727" lon="6.14353">
        <ele>445.22766113281</ele>
        <time>2012-04-29T12:17:19Z</time>
      </trkpt>
      <trkpt lat="47.21725" lon="6.14336">
        <ele>446.66967773438</ele>
        <time>2012-04-29T12:17:23Z</time>
      </trkpt>
      <trkpt lat="47.2171" lon="6.14155">
        <ele>450.03442382812</ele>
        <time>2012-04-29T12:17:47Z</time>
      </trkpt>
      <trkpt lat="47.217" lon="6.14196">
        <ele>450.03442382812</ele>
        <time>2012-04-29T12:17:52Z</time>
      </trkpt>
      <trkpt lat="47.21692" lon="6.14183">
        <ele>450.03442382812</ele>
        <time>2012-04-29T12:17:58Z</time>
      </trkpt>
      <trkpt lat="47.21688" lon="6.14165">
        <ele>449.5537109375</ele>
        <time>2012-04-29T12:18:03Z</time>
      </trkpt>
      <trkpt lat="47.21688" lon="6.14161">
        <ele>450.03442382812</ele>
        <time>2012-04-29T12:18:04Z</time>
      </trkpt>
      <trkpt lat="47.21674" lon="6.14138">
        <ele>449.07299804688</ele>
        <time>2012-04-29T12:18:11Z</time>
      </trkpt>
      <trkpt lat="47.21667" lon="6.14117">
        <ele>449.07299804688</ele>
        <time>2012-04-29T12:18:19Z</time>
      </trkpt>
      <trkpt lat="47.21663" lon="6.14059">
        <ele>448.59240722656</ele>
        <time>2012-04-29T12:18:23Z</time>
      </trkpt>
      <trkpt lat="47.21653" lon="6.14033">
        <ele>449.07299804688</ele>
        <time>2012-04-29T12:18:27Z</time>
      </trkpt>
      <trkpt lat="47.21637" lon="6.13994">
        <ele>447.15026855469</ele>
        <time>2012-04-29T12:18:32Z</time>
      </trkpt>
      <trkpt lat="47.21628" lon="6.13955">
        <ele>446.66967773438</ele>
        <time>2012-04-29T12:18:37Z</time>
      </trkpt>
      <trkpt lat="47.21625" lon="6.13941">
        <ele>448.11181640625</ele>
        <time>2012-04-29T12:18:44Z</time>
      </trkpt>
      <trkpt lat="47.21594" lon="6.13976">
        <ele>448.59240722656</ele>
        <time>2012-04-29T12:18:49Z</time>
      </trkpt>
      <trkpt lat="47.21566" lon="6.13992">
        <ele>446.66967773438</ele>
        <time>2012-04-29T12:18:55Z</time>
      </trkpt>
      <trkpt lat="47.21537" lon="6.14003">
        <ele>446.18908691406</ele>
        <time>2012-04-29T12:18:59Z</time>
      </trkpt>
      <trkpt lat="47.21515" lon="6.1401">
        <ele>443.78576660156</ele>
        <time>2012-04-29T12:19:02Z</time>
      </trkpt>
      <trkpt lat="47.21505" lon="6.14012">
        <ele>440.42126464844</ele>
        <time>2012-04-29T12:19:04Z</time>
      </trkpt>
      <trkpt lat="47.21498" lon="6.14013">
        <ele>440.42126464844</ele>
        <time>2012-04-29T12:19:05Z</time>
      </trkpt>
      <trkpt lat="47.21467" lon="6.14023">
        <ele>437.05651855469</ele>
        <time>2012-04-29T12:19:12Z</time>
      </trkpt>
      <trkpt lat="47.21467" lon="6.14023">
        <ele>435.13391113281</ele>
        <time>2012-04-29T12:19:13Z</time>
      </trkpt>
      <trkpt lat="47.21387" lon="6.14067">
        <ele>438.49853515625</ele>
        <time>2012-04-29T12:19:19Z</time>
      </trkpt>
      <trkpt lat="47.21382" lon="6.1407">
        <ele>437.537109375</ele>
        <time>2012-04-29T12:19:20Z</time>
      </trkpt>
      <trkpt lat="47.21352" lon="6.14083">
        <ele>437.05651855469</ele>
        <time>2012-04-29T12:19:26Z</time>
      </trkpt>
      <trkpt lat="47.21339" lon="6.14085">
        <ele>436.57592773438</ele>
        <time>2012-04-29T12:19:29Z</time>
      </trkpt>
      <trkpt lat="47.21329" lon="6.1409">
        <ele>437.05651855469</ele>
        <time>2012-04-29T12:19:31Z</time>
      </trkpt>
      <trkpt lat="47.21322" lon="6.141">
        <ele>437.537109375</ele>
        <time>2012-04-29T12:19:33Z</time>
      </trkpt>
      <trkpt lat="47.21311" lon="6.14106">
        <ele>438.01782226562</ele>
        <time>2012-04-29T12:19:35Z</time>
      </trkpt>
      <trkpt lat="47.21297" lon="6.1411">
        <ele>437.537109375</ele>
        <time>2012-04-29T12:19:37Z</time>
      </trkpt>
      <trkpt lat="47.21275" lon="6.14124">
        <ele>436.57592773438</ele>
        <time>2012-04-29T12:19:41Z</time>
      </trkpt>
      <trkpt lat="47.2123" lon="6.14147">
        <ele>437.05651855469</ele>
        <time>2012-04-29T12:19:51Z</time>
      </trkpt>
      <trkpt lat="47.21214" lon="6.14155">
        <ele>438.97912597656</ele>
        <time>2012-04-29T12:19:57Z</time>
      </trkpt>
      <trkpt lat="47.21206" lon="6.14158">
        <ele>438.01782226562</ele>
        <time>2012-04-29T12:20:02Z</time>
      </trkpt>
      <trkpt lat="47.21196" lon="6.14163">
        <ele>438.01782226562</ele>
        <time>2012-04-29T12:20:07Z</time>
      </trkpt>
      <trkpt lat="47.21188" lon="6.14162">
        <ele>439.45971679688</ele>
        <time>2012-04-29T12:20:13Z</time>
      </trkpt>
      <trkpt lat="47.21171" lon="6.14173">
        <ele>441.86315917969</ele>
        <time>2012-04-29T12:20:31Z</time>
      </trkpt>
      <trkpt lat="47.21168" lon="6.14176">
        <ele>441.38244628906</ele>
        <time>2012-04-29T12:20:37Z</time>
      </trkpt>
      <trkpt lat="47.21168" lon="6.14178">
        <ele>441.86315917969</ele>
        <time>2012-04-29T12:20:44Z</time>
      </trkpt>
      <trkpt lat="47.2117" lon="6.14187">
        <ele>442.82446289062</ele>
        <time>2012-04-29T12:21:35Z</time>
      </trkpt>
      <trkpt lat="47.21175" lon="6.14179">
        <ele>443.30505371094</ele>
        <time>2012-04-29T12:21:58Z</time>
      </trkpt>
      <trkpt lat="47.21161" lon="6.14186">
        <ele>443.78576660156</ele>
        <time>2012-04-29T12:22:27Z</time>
      </trkpt>
      <trkpt lat="47.2116" lon="6.14188">
        <ele>443.78576660156</ele>
        <time>2012-04-29T12:22:38Z</time>
      </trkpt>
      <trkpt lat="47.21153" lon="6.1418">
        <ele>442.82446289062</ele>
        <time>2012-04-29T12:22:53Z</time>
      </trkpt>
      <trkpt lat="47.21161" lon="6.14179">
        <ele>443.30505371094</ele>
        <time>2012-04-29T12:23:08Z</time>
      </trkpt>
      <trkpt lat="47.21157" lon="6.1418">
        <ele>443.30505371094</ele>
        <time>2012-04-29T12:23:49Z</time>
      </trkpt>
      <trkpt lat="47.21148" lon="6.14186">
        <ele>444.7470703125</ele>
        <time>2012-04-29T12:23:55Z</time>
      </trkpt>
      <trkpt lat="47.21145" lon="6.14187">
        <ele>442.82446289062</ele>
        <time>2012-04-29T12:24:03Z</time>
      </trkpt>
      <trkpt lat="47.21144" lon="6.14187">
        <ele>442.82446289062</ele>
        <time>2012-04-29T12:24:04Z</time>
      </trkpt>
      <trkpt lat="47.21141" lon="6.14186">
        <ele>442.82446289062</ele>
        <time>2012-04-29T12:24:10Z</time>
      </trkpt>
      <trkpt lat="47.21155" lon="6.14177">
        <ele>442.82446289062</ele>
        <time>2012-04-29T12:24:25Z</time>
      </trkpt>
      <trkpt lat="47.21161" lon="6.14191">
        <ele>445.22766113281</ele>
        <time>2012-04-29T12:26:55Z</time>
      </trkpt>
      <trkpt lat="47.21157" lon="6.14194">
        <ele>445.70837402344</ele>
        <time>2012-04-29T12:27:02Z</time>
      </trkpt>
      <trkpt lat="47.21153" lon="6.14191">
        <ele>445.22766113281</ele>
        <time>2012-04-29T12:27:09Z</time>
      </trkpt>
      <trkpt lat="47.2114" lon="6.14202">
        <ele>446.18908691406</ele>
        <time>2012-04-29T12:27:18Z</time>
      </trkpt>
      <trkpt lat="47.21137" lon="6.14205">
        <ele>445.70837402344</ele>
        <time>2012-04-29T12:27:26Z</time>
      </trkpt>
      <trkpt lat="47.21136" lon="6.14191">
        <ele>447.15026855469</ele>
        <time>2012-04-29T12:28:18Z</time>
      </trkpt>
      <trkpt lat="47.2112" lon="6.14199">
        <ele>446.66967773438</ele>
        <time>2012-04-29T12:28:26Z</time>
      </trkpt>
      <trkpt lat="47.2111" lon="6.14199">
        <ele>446.66967773438</ele>
        <time>2012-04-29T12:28:29Z</time>
      </trkpt>
      <trkpt lat="47.21101" lon="6.14184">
        <ele>446.66967773438</ele>
        <time>2012-04-29T12:28:35Z</time>
      </trkpt>
      <trkpt lat="47.21091" lon="6.1417">
        <ele>447.63098144531</ele>
        <time>2012-04-29T12:28:41Z</time>
      </trkpt>
      <trkpt lat="47.21084" lon="6.14161">
        <ele>447.63098144531</ele>
        <time>2012-04-29T12:28:44Z</time>
      </trkpt>
      <trkpt lat="47.21076" lon="6.14148">
        <ele>447.63098144531</ele>
        <time>2012-04-29T12:28:48Z</time>
      </trkpt>
      <trkpt lat="47.21057" lon="6.14115">
        <ele>447.63098144531</ele>
        <time>2012-04-29T12:28:55Z</time>
      </trkpt>
      <trkpt lat="47.21046" lon="6.1409">
        <ele>447.63098144531</ele>
        <time>2012-04-29T12:29:00Z</time>
      </trkpt>
      <trkpt lat="47.21044" lon="6.1408">
        <ele>447.63098144531</ele>
        <time>2012-04-29T12:29:02Z</time>
      </trkpt>
      <trkpt lat="47.21053" lon="6.1406">
        <ele>448.11181640625</ele>
        <time>2012-04-29T12:29:07Z</time>
      </trkpt>
      <trkpt lat="47.21062" lon="6.14044">
        <ele>448.59240722656</ele>
        <time>2012-04-29T12:29:12Z</time>
      </trkpt>
      <trkpt lat="47.21071" lon="6.14033">
        <ele>448.11181640625</ele>
        <time>2012-04-29T12:29:16Z</time>
      </trkpt>
      <trkpt lat="47.21074" lon="6.14025">
        <ele>450.03442382812</ele>
        <time>2012-04-29T12:29:18Z</time>
      </trkpt>
      <trkpt lat="47.21085" lon="6.1401">
        <ele>449.5537109375</ele>
        <time>2012-04-29T12:29:23Z</time>
      </trkpt>
      <trkpt lat="47.21091" lon="6.14002">
        <ele>449.5537109375</ele>
        <time>2012-04-29T12:29:26Z</time>
      </trkpt>
      <trkpt lat="47.21098" lon="6.13993">
        <ele>450.51501464844</ele>
        <time>2012-04-29T12:29:29Z</time>
      </trkpt>
      <trkpt lat="47.2114" lon="6.13918">
        <ele>452.91821289062</ele>
        <time>2012-04-29T12:29:50Z</time>
      </trkpt>
      <trkpt lat="47.21157" lon="6.13901">
        <ele>453.39892578125</ele>
        <time>2012-04-29T12:29:57Z</time>
      </trkpt>
      <trkpt lat="47.21165" lon="6.13888">
        <ele>454.8408203125</ele>
        <time>2012-04-29T12:30:01Z</time>
      </trkpt>
      <trkpt lat="47.21164" lon="6.13865">
        <ele>454.36022949219</ele>
        <time>2012-04-29T12:30:07Z</time>
      </trkpt>
      <trkpt lat="47.2116" lon="6.13856">
        <ele>454.8408203125</ele>
        <time>2012-04-29T12:30:09Z</time>
      </trkpt>
      <trkpt lat="47.21145" lon="6.13812">
        <ele>455.32153320312</ele>
        <time>2012-04-29T12:30:18Z</time>
      </trkpt>
      <trkpt lat="47.2113" lon="6.13766">
        <ele>453.87963867188</ele>
        <time>2012-04-29T12:30:26Z</time>
      </trkpt>
      <trkpt lat="47.21115" lon="6.13713">
        <ele>452.43762207031</ele>
        <time>2012-04-29T12:30:34Z</time>
      </trkpt>
      <trkpt lat="47.21068" lon="6.13549">
        <ele>449.07299804688</ele>
        <time>2012-04-29T12:30:56Z</time>
      </trkpt>
      <trkpt lat="47.21066" lon="6.13535">
        <ele>449.07299804688</ele>
        <time>2012-04-29T12:30:58Z</time>
      </trkpt>
      <trkpt lat="47.21059" lon="6.13508">
        <ele>449.07299804688</ele>
        <time>2012-04-29T12:31:04Z</time>
      </trkpt>
      <trkpt lat="47.21061" lon="6.13488">
        <ele>451.47631835938</ele>
        <time>2012-04-29T12:31:10Z</time>
      </trkpt>
      <trkpt lat="47.21061" lon="6.13463">
        <ele>450.99560546875</ele>
        <time>2012-04-29T12:31:16Z</time>
      </trkpt>
      <trkpt lat="47.21059" lon="6.13438">
        <ele>451.47631835938</ele>
        <time>2012-04-29T12:31:21Z</time>
      </trkpt>
      <trkpt lat="47.21057" lon="6.13371">
        <ele>450.99560546875</ele>
        <time>2012-04-29T12:31:32Z</time>
      </trkpt>
      <trkpt lat="47.2106" lon="6.13305">
        <ele>449.07299804688</ele>
        <time>2012-04-29T12:31:42Z</time>
      </trkpt>
      <trkpt lat="47.21054" lon="6.13253">
        <ele>448.11181640625</ele>
        <time>2012-04-29T12:31:49Z</time>
      </trkpt>
      <trkpt lat="47.21051" lon="6.13212">
        <ele>446.66967773438</ele>
        <time>2012-04-29T12:31:54Z</time>
      </trkpt>
      <trkpt lat="47.2105" lon="6.1318">
        <ele>445.22766113281</ele>
        <time>2012-04-29T12:31:58Z</time>
      </trkpt>
      <trkpt lat="47.21047" lon="6.13163">
        <ele>445.70837402344</ele>
        <time>2012-04-29T12:32:00Z</time>
      </trkpt>
      <trkpt lat="47.21041" lon="6.13104">
        <ele>444.26647949219</ele>
        <time>2012-04-29T12:32:07Z</time>
      </trkpt>
      <trkpt lat="47.21033" lon="6.13051">
        <ele>443.78576660156</ele>
        <time>2012-04-29T12:32:13Z</time>
      </trkpt>
      <trkpt lat="47.21029" lon="6.13005">
        <ele>443.30505371094</ele>
        <time>2012-04-29T12:32:18Z</time>
      </trkpt>
      <trkpt lat="47.21023" lon="6.12964">
        <ele>441.86315917969</ele>
        <time>2012-04-29T12:32:22Z</time>
      </trkpt>
      <trkpt lat="47.21022" lon="6.12913">
        <ele>440.90185546875</ele>
        <time>2012-04-29T12:32:27Z</time>
      </trkpt>
      <trkpt lat="47.21025" lon="6.12903">
        <ele>440.42126464844</ele>
        <time>2012-04-29T12:32:28Z</time>
      </trkpt>
      <trkpt lat="47.2103" lon="6.12874">
        <ele>438.97912597656</ele>
        <time>2012-04-29T12:32:31Z</time>
      </trkpt>
      <trkpt lat="47.21035" lon="6.12813">
        <ele>439.9404296875</ele>
        <time>2012-04-29T12:32:37Z</time>
      </trkpt>
      <trkpt lat="47.21033" lon="6.12764">
        <ele>438.49853515625</ele>
        <time>2012-04-29T12:32:42Z</time>
      </trkpt>
      <trkpt lat="47.2103" lon="6.12717">
        <ele>435.61450195312</ele>
        <time>2012-04-29T12:32:47Z</time>
      </trkpt>
      <trkpt lat="47.2103" lon="6.12708">
        <ele>435.61450195312</ele>
        <time>2012-04-29T12:32:48Z</time>
      </trkpt>
      <trkpt lat="47.21027" lon="6.12656">
        <ele>433.69189453125</ele>
        <time>2012-04-29T12:32:53Z</time>
      </trkpt>
      <trkpt lat="47.2103" lon="6.12601">
        <ele>433.21130371094</ele>
        <time>2012-04-29T12:32:58Z</time>
      </trkpt>
      <trkpt lat="47.21041" lon="6.12536">
        <ele>433.69189453125</ele>
        <time>2012-04-29T12:33:05Z</time>
      </trkpt>
      <trkpt lat="47.21051" lon="6.12485">
        <ele>433.69189453125</ele>
        <time>2012-04-29T12:33:11Z</time>
      </trkpt>
      <trkpt lat="47.21053" lon="6.12468">
        <ele>433.69189453125</ele>
        <time>2012-04-29T12:33:13Z</time>
      </trkpt>
      <trkpt lat="47.21059" lon="6.1244">
        <ele>433.69189453125</ele>
        <time>2012-04-29T12:33:16Z</time>
      </trkpt>
      <trkpt lat="47.21066" lon="6.12422">
        <ele>432.73071289062</ele>
        <time>2012-04-29T12:33:18Z</time>
      </trkpt>
      <trkpt lat="47.21069" lon="6.12388">
        <ele>431.28857421875</ele>
        <time>2012-04-29T12:33:21Z</time>
      </trkpt>
      <trkpt lat="47.2107" lon="6.12378">
        <ele>429.84655761719</ele>
        <time>2012-04-29T12:33:22Z</time>
      </trkpt>
      <trkpt lat="47.21075" lon="6.12324">
        <ele>429.36596679688</ele>
        <time>2012-04-29T12:33:27Z</time>
      </trkpt>
      <trkpt lat="47.21089" lon="6.1226">
        <ele>426.48205566406</ele>
        <time>2012-04-29T12:33:33Z</time>
      </trkpt>
      <trkpt lat="47.21091" lon="6.1225">
        <ele>426.48205566406</ele>
        <time>2012-04-29T12:33:34Z</time>
      </trkpt>
      <trkpt lat="47.21096" lon="6.12228">
        <ele>424.55944824219</ele>
        <time>2012-04-29T12:33:36Z</time>
      </trkpt>
      <trkpt lat="47.21121" lon="6.12167">
        <ele>424.07873535156</ele>
        <time>2012-04-29T12:33:41Z</time>
      </trkpt>
      <trkpt lat="47.21132" lon="6.12114">
        <ele>424.55944824219</ele>
        <time>2012-04-29T12:33:46Z</time>
      </trkpt>
      <trkpt lat="47.21131" lon="6.12104">
        <ele>424.55944824219</ele>
        <time>2012-04-29T12:33:47Z</time>
      </trkpt>
      <trkpt lat="47.21129" lon="6.1205">
        <ele>426.00134277344</ele>
        <time>2012-04-29T12:33:54Z</time>
      </trkpt>
      <trkpt lat="47.2113" lon="6.12011">
        <ele>427.92395019531</ele>
        <time>2012-04-29T12:34:01Z</time>
      </trkpt>
      <trkpt lat="47.21139" lon="6.11985">
        <ele>429.36596679688</ele>
        <time>2012-04-29T12:34:06Z</time>
      </trkpt>
      <trkpt lat="47.21147" lon="6.11962">
        <ele>431.28857421875</ele>
        <time>2012-04-29T12:34:11Z</time>
      </trkpt>
      <trkpt lat="47.21165" lon="6.1193">
        <ele>431.76916503906</ele>
        <time>2012-04-29T12:34:18Z</time>
      </trkpt>
      <trkpt lat="47.21175" lon="6.11904">
        <ele>431.28857421875</ele>
        <time>2012-04-29T12:34:23Z</time>
      </trkpt>
      <trkpt lat="47.21179" lon="6.11893">
        <ele>431.76916503906</ele>
        <time>2012-04-29T12:34:25Z</time>
      </trkpt>
      <trkpt lat="47.212" lon="6.11858">
        <ele>430.80798339844</ele>
        <time>2012-04-29T12:34:32Z</time>
      </trkpt>
      <trkpt lat="47.21238" lon="6.11806">
        <ele>427.92395019531</ele>
        <time>2012-04-29T12:34:43Z</time>
      </trkpt>
      <trkpt lat="47.21389" lon="6.11617">
        <ele>424.55944824219</ele>
        <time>2012-04-29T12:35:10Z</time>
      </trkpt>
      <trkpt lat="47.21425" lon="6.1157">
        <ele>426.00134277344</ele>
        <time>2012-04-29T12:35:20Z</time>
      </trkpt>
      <trkpt lat="47.21444" lon="6.11531">
        <ele>427.92395019531</ele>
        <time>2012-04-29T12:35:26Z</time>
      </trkpt>
      <trkpt lat="47.21455" lon="6.11511">
        <ele>428.40466308594</ele>
        <time>2012-04-29T12:35:29Z</time>
      </trkpt>
      <trkpt lat="47.21487" lon="6.11439">
        <ele>429.36596679688</ele>
        <time>2012-04-29T12:35:42Z</time>
      </trkpt>
      <trkpt lat="47.21502" lon="6.11413">
        <ele>429.84655761719</ele>
        <time>2012-04-29T12:35:48Z</time>
      </trkpt>
      <trkpt lat="47.21516" lon="6.11383">
        <ele>428.40466308594</ele>
        <time>2012-04-29T12:35:54Z</time>
      </trkpt>
      <trkpt lat="47.21532" lon="6.11353">
        <ele>427.443359375</ele>
        <time>2012-04-29T12:35:59Z</time>
      </trkpt>
      <trkpt lat="47.21559" lon="6.11301">
        <ele>426.00134277344</ele>
        <time>2012-04-29T12:36:06Z</time>
      </trkpt>
      <trkpt lat="47.21568" lon="6.11284">
        <ele>425.04016113281</ele>
        <time>2012-04-29T12:36:08Z</time>
      </trkpt>
      <trkpt lat="47.21591" lon="6.1124">
        <ele>423.11743164062</ele>
        <time>2012-04-29T12:36:13Z</time>
      </trkpt>
      <trkpt lat="47.21601" lon="6.11224">
        <ele>421.67541503906</ele>
        <time>2012-04-29T12:36:15Z</time>
      </trkpt>
      <trkpt lat="47.21613" lon="6.11205">
        <ele>420.71411132812</ele>
        <time>2012-04-29T12:36:19Z</time>
      </trkpt>
      <trkpt lat="47.21618" lon="6.11197">
        <ele>421.19482421875</ele>
        <time>2012-04-29T12:36:23Z</time>
      </trkpt>
      <trkpt lat="47.21626" lon="6.11183">
        <ele>419.27221679688</ele>
        <time>2012-04-29T12:36:27Z</time>
      </trkpt>
      <trkpt lat="47.21648" lon="6.11157">
        <ele>419.27221679688</ele>
        <time>2012-04-29T12:36:35Z</time>
      </trkpt>
      <trkpt lat="47.21662" lon="6.11135">
        <ele>419.75280761719</ele>
        <time>2012-04-29T12:36:42Z</time>
      </trkpt>
      <trkpt lat="47.21676" lon="6.11117">
        <ele>419.27221679688</ele>
        <time>2012-04-29T12:36:48Z</time>
      </trkpt>
      <trkpt lat="47.2169" lon="6.111">
        <ele>418.31079101562</ele>
        <time>2012-04-29T12:36:54Z</time>
      </trkpt>
      <trkpt lat="47.21702" lon="6.11089">
        <ele>417.83020019531</ele>
        <time>2012-04-29T12:36:59Z</time>
      </trkpt>
      <trkpt lat="47.21715" lon="6.11079">
        <ele>416.86889648438</ele>
        <time>2012-04-29T12:37:03Z</time>
      </trkpt>
      <trkpt lat="47.21765" lon="6.11096">
        <ele>414.94616699219</ele>
        <time>2012-04-29T12:37:15Z</time>
      </trkpt>
      <trkpt lat="47.21791" lon="6.11082">
        <ele>412.54284667969</ele>
        <time>2012-04-29T12:37:19Z</time>
      </trkpt>
      <trkpt lat="47.2183" lon="6.11056">
        <ele>411.58166503906</ele>
        <time>2012-04-29T12:37:24Z</time>
      </trkpt>
      <trkpt lat="47.21864" lon="6.11029">
        <ele>411.58166503906</ele>
        <time>2012-04-29T12:37:29Z</time>
      </trkpt>
      <trkpt lat="47.21889" lon="6.11004">
        <ele>409.65905761719</ele>
        <time>2012-04-29T12:37:33Z</time>
      </trkpt>
      <trkpt lat="47.21895" lon="6.10998">
        <ele>409.17834472656</ele>
        <time>2012-04-29T12:37:34Z</time>
      </trkpt>
      <trkpt lat="47.21926" lon="6.10979">
        <ele>408.21704101562</ele>
        <time>2012-04-29T12:37:39Z</time>
      </trkpt>
      <trkpt lat="47.21933" lon="6.10975">
        <ele>408.21704101562</ele>
        <time>2012-04-29T12:37:40Z</time>
      </trkpt>
      <trkpt lat="47.21965" lon="6.10976">
        <ele>406.77490234375</ele>
        <time>2012-04-29T12:37:45Z</time>
      </trkpt>
      <trkpt lat="47.21972" lon="6.10977">
        <ele>407.736328125</ele>
        <time>2012-04-29T12:37:46Z</time>
      </trkpt>
      <trkpt lat="47.21991" lon="6.1098">
        <ele>405.3330078125</ele>
        <time>2012-04-29T12:37:49Z</time>
      </trkpt>
      <trkpt lat="47.22004" lon="6.10995">
        <ele>404.85229492188</ele>
        <time>2012-04-29T12:37:51Z</time>
      </trkpt>
      <trkpt lat="47.22013" lon="6.1101">
        <ele>405.3330078125</ele>
        <time>2012-04-29T12:37:53Z</time>
      </trkpt>
      <trkpt lat="47.22021" lon="6.11031">
        <ele>406.29431152344</ele>
        <time>2012-04-29T12:37:56Z</time>
      </trkpt>
      <trkpt lat="47.22028" lon="6.11039">
        <ele>406.77490234375</ele>
        <time>2012-04-29T12:37:58Z</time>
      </trkpt>
      <trkpt lat="47.22046" lon="6.11036">
        <ele>403.41040039062</ele>
        <time>2012-04-29T12:38:02Z</time>
      </trkpt>
      <trkpt lat="47.22052" lon="6.11038">
        <ele>403.89111328125</ele>
        <time>2012-04-29T12:38:03Z</time>
      </trkpt>
      <trkpt lat="47.2207" lon="6.1106">
        <ele>402.44909667969</ele>
        <time>2012-04-29T12:38:06Z</time>
      </trkpt>
      <trkpt lat="47.22089" lon="6.11073">
        <ele>401.00708007812</ele>
        <time>2012-04-29T12:38:09Z</time>
      </trkpt>
      <trkpt lat="47.22097" lon="6.1107">
        <ele>401.48779296875</ele>
        <time>2012-04-29T12:38:10Z</time>
      </trkpt>
      <trkpt lat="47.22114" lon="6.11064">
        <ele>399.08435058594</ele>
        <time>2012-04-29T12:38:12Z</time>
      </trkpt>
      <trkpt lat="47.22139" lon="6.11058">
        <ele>397.16174316406</ele>
        <time>2012-04-29T12:38:15Z</time>
      </trkpt>
      <trkpt lat="47.22174" lon="6.11046">
        <ele>396.20056152344</ele>
        <time>2012-04-29T12:38:20Z</time>
      </trkpt>
      <trkpt lat="47.22191" lon="6.11041">
        <ele>396.68115234375</ele>
        <time>2012-04-29T12:38:23Z</time>
      </trkpt>
      <trkpt lat="47.2262" lon="6.11272">
        <ele>399.08435058594</ele>
        <time>2012-04-29T12:40:05Z</time>
      </trkpt>
      <trkpt lat="47.22624" lon="6.11273">
        <ele>399.08435058594</ele>
        <time>2012-04-29T12:40:06Z</time>
      </trkpt>
      <trkpt lat="47.22643" lon="6.11273">
        <ele>399.56506347656</ele>
        <time>2012-04-29T12:40:10Z</time>
      </trkpt>
      <trkpt lat="47.22652" lon="6.11245">
        <ele>398.12316894531</ele>
        <time>2012-04-29T12:40:15Z</time>
      </trkpt>
      <trkpt lat="47.22664" lon="6.11202">
        <ele>397.16174316406</ele>
        <time>2012-04-29T12:40:23Z</time>
      </trkpt>
      <trkpt lat="47.22675" lon="6.1117">
        <ele>398.60375976562</ele>
        <time>2012-04-29T12:40:30Z</time>
      </trkpt>
      <trkpt lat="47.22683" lon="6.11147">
        <ele>397.64245605469</ele>
        <time>2012-04-29T12:40:34Z</time>
      </trkpt>
      <trkpt lat="47.22694" lon="6.11125">
        <ele>398.12316894531</ele>
        <time>2012-04-29T12:40:39Z</time>
      </trkpt>
      <trkpt lat="47.22698" lon="6.11102">
        <ele>397.16174316406</ele>
        <time>2012-04-29T12:40:43Z</time>
      </trkpt>
      <trkpt lat="47.22699" lon="6.11096">
        <ele>397.64245605469</ele>
        <time>2012-04-29T12:40:44Z</time>
      </trkpt>
      <trkpt lat="47.22711" lon="6.11086">
        <ele>397.16174316406</ele>
        <time>2012-04-29T12:40:48Z</time>
      </trkpt>
      <trkpt lat="47.22741" lon="6.11081">
        <ele>397.64245605469</ele>
        <time>2012-04-29T12:40:56Z</time>
      </trkpt>
      <trkpt lat="47.22772" lon="6.11094">
        <ele>397.64245605469</ele>
        <time>2012-04-29T12:41:04Z</time>
      </trkpt>
      <trkpt lat="47.22791" lon="6.11105">
        <ele>397.64245605469</ele>
        <time>2012-04-29T12:41:09Z</time>
      </trkpt>
      <trkpt lat="47.22813" lon="6.11116">
        <ele>397.64245605469</ele>
        <time>2012-04-29T12:41:15Z</time>
      </trkpt>
      <trkpt lat="47.2282" lon="6.11121">
        <ele>397.64245605469</ele>
        <time>2012-04-29T12:41:17Z</time>
      </trkpt>
      <trkpt lat="47.22874" lon="6.11216">
        <ele>397.16174316406</ele>
        <time>2012-04-29T12:41:44Z</time>
      </trkpt>
      <trkpt lat="47.22864" lon="6.11225">
        <ele>397.16174316406</ele>
        <time>2012-04-29T12:41:49Z</time>
      </trkpt>
      <trkpt lat="47.22852" lon="6.11231">
        <ele>398.12316894531</ele>
        <time>2012-04-29T12:41:54Z</time>
      </trkpt>
      <trkpt lat="47.22844" lon="6.11238">
        <ele>398.60375976562</ele>
        <time>2012-04-29T12:42:05Z</time>
      </trkpt>
      <trkpt lat="47.22842" lon="6.11237">
        <ele>398.12316894531</ele>
        <time>2012-04-29T12:42:07Z</time>
      </trkpt>
      <trkpt lat="47.22847" lon="6.11219">
        <ele>398.60375976562</ele>
        <time>2012-04-29T12:42:14Z</time>
      </trkpt>
      <trkpt lat="47.22842" lon="6.1122">
        <ele>398.60375976562</ele>
        <time>2012-04-29T12:42:21Z</time>
      </trkpt>
      <trkpt lat="47.22845" lon="6.1122">
        <ele>397.64245605469</ele>
        <time>2012-04-29T12:42:46Z</time>
      </trkpt>
    </trkseg>
  </trk>
</gpx>